# Wetter Temperatur Luftdruck Luftfeuchtigkeit Sichtweite Windgeschwindigkeit Windrichtung Zeit
1 Clouds 7 1019 41 10000 7.2 50 13:38 22.04.2021
2 Clouds 8 1019 44 10000 5.14 50 13:19 22.04.2021
3 Clouds 8 1019 47 10000 5.66 50 12:44 22.04.2021
4 Clouds 7 1019 51 10000 6.17 50 12:20 22.04.2021
5 Clouds 8 1019 58 10000 1.54 250 11:45 22.04.2021
6 Clouds 8 1019 55 10000 1.34 31 11:23 22.04.2021
7 Clouds 8 1019 55 10000 1.34 31 11:23 22.04.2021
8 Clouds 6 1037 85 10000 0.894 90 10:45 22.04.2021
9 Clear 5 1018 74 10000 1.341 135 10:22 22.04.2021
10 Clear 3 1019 53 10000 1.41 24 09:44 22.04.2021
11 Clear 3 1019 56 10000 1.06 11 09:19 22.04.2021
12 Clear 2 1016 72 10000 1.06 11 08:38 22.04.2021
13 Clouds 1 1016 74 10000 0.4 277 08:18 22.04.2021
14 Clouds 1 1016 76 10000 0.42 297 07:40 22.04.2021
15 Clouds 0 1036 95 10000 2.235 90 07:20 22.04.2021
16 Clouds 0 1016 82 10000 2.235 112 06:27 22.04.2021
17 Clouds 0 1016 82 10000 2.235 112 06:27 22.04.2021
18 Clouds 0 1016 82 10000 1.788 112 05:26 22.04.2021
19 Clouds -1 1019 100 10000 1.54 80 04:29 22.04.2021
20 Clouds 1 1018 87 10000 2.43 180 00:55 22.04.2021
21 Clouds 1 1018 87 10000 1.03 0 23:47 21.04.2021
22 Clouds 2 1018 76 10000 1.54 240 23:26 21.04.2021
23 Clouds 2 1018 76 10000 1.03 0 22:42 21.04.2021
24 Clouds 3 1018 71 10000 2.06 210 22:24 21.04.2021
25 Clouds 3 1018 71 10000 3.09 240 21:46 21.04.2021
26 Clouds 3 1017 71 10000 3.6 250 21:24 21.04.2021
27 Clouds 3 1017 66 10000 5.66 270 20:43 21.04.2021
28 Clouds 3 1016 62 10000 7.72 290 20:20 21.04.2021
29 Clouds 4 1016 58 10000 7.72 300 19:43 21.04.2021
30 Clouds 4 1015 50 10000 4.63 310 19:23 21.04.2021
31 Clouds 4 1015 44 10000 3.6 40 18:46 21.04.2021
32 Snow 1 1013 64 2795 3.58 88 18:26 21.04.2021
33 Clouds 2 1013 60 2795 4.92 99 17:48 21.04.2021
34 Clouds 5 1014 44 10000 3.6 270 17:24 21.04.2021
35 Clouds 7 1014 36 10000 1.54 0 16:49 21.04.2021
36 Clouds 8 1014 42 10000 3.09 270 15:59 21.04.2021
37 Clouds 8 1014 36 10000 1.54 240 15:40 21.04.2021
38 Clouds 7 1014 33 10000 1.54 0 14:55 21.04.2021
39 Clouds 7 1014 33 10000 1.54 0 14:36 21.04.2021
40 Clouds 6 1015 41 10000 3.09 260 14:18 21.04.2021
41 Clouds 6 1015 41 10000 3.09 260 13:40 21.04.2021
42 Clouds 5 1015 44 10000 4.12 250 13:20 21.04.2021
43 Clouds 3 1014 56 595 4.02 81 12:30 21.04.2021
44 Clouds 3 1014 56 595 4.02 81 12:30 21.04.2021
45 Clouds 4 1014 63 833 4.02 120 11:50 21.04.2021
46 Clouds 4 1014 65 5111 3.58 95 11:29 21.04.2021
47 Clouds 5 1015 49 5111 0.447 135 10:51 21.04.2021
48 Clouds 5 1034 86 5111 1.75 148 10:33 21.04.2021
49 Clouds 3 1016 61 10000 1.03 0 09:44 21.04.2021
50 Clouds 3 1014 73 10000 1.84 177 08:56 21.04.2021
51 Clouds 2 1014 75 10000 1.84 177 08:38 21.04.2021
52 Clouds 1 1014 75 10000 2.04 185 08:19 21.04.2021
53 Clouds 0 1013 76 10000 2.03 181 07:31 21.04.2021
54 Clouds 0 1013 76 10000 2.12 187 06:42 21.04.2021
55 Clouds 0 1013 76 10000 2.25 190 05:20 21.04.2021
56 Clouds 0 1015 65 10000 1.54 100 00:58 21.04.2021
57 Clouds 0 1015 65 10000 3.09 90 23:50 20.04.2021
58 Clouds 0 1015 70 10000 2.57 100 23:24 20.04.2021
59 Clouds 1 1015 57 10000 2.06 90 22:41 20.04.2021
60 Clouds 1 1015 61 10000 2.57 100 22:19 20.04.2021
61 Clouds 2 1014 50 10000 1.03 0 21:47 20.04.2021
62 Clouds 2 1014 46 10000 2.06 50 21:25 20.04.2021
63 Clouds 3 1014 40 10000 1.54 50 20:43 20.04.2021
64 Clouds 3 1014 38 10000 1.54 0 20:23 20.04.2021
65 Clouds 4 1013 35 10000 2.06 80 19:55 20.04.2021
66 Clouds 4 1013 35 10000 2.06 80 19:36 20.04.2021
67 Clouds 1 1012 64 10000 1.79 61 19:18 20.04.2021
68 Clouds 5 1013 35 10000 4.12 40 18:35 20.04.2021
69 Clouds 6 1013 33 10000 5.14 60 17:46 20.04.2021
70 Clouds 6 1013 33 10000 3.09 60 17:25 20.04.2021
71 Clouds 7 1013 36 10000 6.17 50 16:44 20.04.2021
72 Clouds 5 1014 44 10000 5.66 50 15:51 20.04.2021
73 Clouds 6 1014 36 10000 4.63 60 15:28 20.04.2021
74 Clouds 6 1014 38 10000 2.57 0 14:57 20.04.2021
75 Clouds 7 1014 44 10000 2.57 0 14:31 20.04.2021
76 Clouds 6 1014 38 10000 2.06 260 13:37 20.04.2021
77 Clouds 6 1015 41 10000 3.09 270 13:18 20.04.2021
78 Clouds 6 1015 41 10000 3.09 270 13:18 20.04.2021
79 Clouds 6 1015 43 10000 2.06 0 12:40 20.04.2021
80 Clouds 6 1015 43 10000 2.06 0 12:19 20.04.2021
81 Clouds 5 1016 49 10000 0.447 225 11:40 20.04.2021
82 Clouds 4 1016 55 10000 1.341 202 11:20 20.04.2021
83 Clouds 2 1016 48 10000 1.42 5 10:42 20.04.2021
84 Clouds 3 1016 62 10000 1.788 112 10:22 20.04.2021
85 Clouds 1 1012 60 10000 1.34 102 09:23 20.04.2021
86 Clouds 2 1013 66 10000 1.19 340 08:55 20.04.2021
87 Clouds -3 1014 76 10000 0.96 314 08:20 20.04.2021
88 Clouds -2 1014 79 10000 0.85 316 07:39 20.04.2021
89 Clouds -3 1035 96 10000 1.788 90 06:37 20.04.2021
90 Clouds -3 1036 96 10000 0.96 300 05:38 20.04.2021
91 Clouds -3 1017 81 10000 3.129 112 04:41 20.04.2021
92 Clouds -3 1018 81 10000 2.06 100 00:53 20.04.2021
93 Clouds -2 1018 81 10000 2.06 100 00:28 20.04.2021
94 Clouds -1 1018 65 10000 1.54 90 23:36 19.04.2021
95 Clouds -1 1018 65 10000 1.03 0 22:56 19.04.2021
96 Clouds -1 1018 66 10000 1.12 310 22:30 19.04.2021
97 Clouds 0 1018 66 10000 0.51 0 21:48 19.04.2021
98 Clouds 1 1017 53 10000 1.37 321 21:27 19.04.2021
99 Clouds 1 1017 50 10000 1.03 0 20:43 19.04.2021
100 Clouds 1 1017 53 10000 3.09 70 20:23 19.04.2021
101 Clouds 1 1017 46 10000 2.06 0 19:54 19.04.2021
102 Clouds -1 1013 75 10000 1.82 339 19:36 19.04.2021
103 Clouds -1 1013 73 10000 0.45 65 19:18 19.04.2021
104 Clouds 2 1017 43 10000 2.06 0 18:44 19.04.2021
105 Clouds 2 1016 40 10000 1.03 0 18:21 19.04.2021
106 Clouds 2 1016 40 10000 4.12 70 17:46 19.04.2021
107 Clouds 2 1016 40 10000 4.63 60 17:26 19.04.2021
108 Clouds 3 1016 38 10000 4.12 60 16:45 19.04.2021
109 Clouds 4 1016 38 10000 3.6 80 16:26 19.04.2021
110 Clouds 5 1017 38 10000 5.66 60 15:44 19.04.2021
111 Clouds 5 1017 35 10000 3.6 80 15:24 19.04.2021
112 Clouds 5 1017 41 10000 2.06 0 14:52 19.04.2021
113 Clouds 5 1017 41 10000 2.06 0 14:32 19.04.2021
114 Clouds 4 1017 37 10000 1.54 0 13:53 19.04.2021
115 Clouds 4 1017 43 10000 3.09 0 13:28 19.04.2021
116 Clouds 1 1037 97 10000 1.341 292 12:49 19.04.2021
117 Clouds 1 1013 46 10000 2.3 1 12:28 19.04.2021
118 Clouds 0 1013 52 10000 2.3 1 11:59 19.04.2021
119 Clouds 0 1013 52 10000 2.3 1 11:59 19.04.2021
120 Clouds 0 1013 58 10000 2.68 122 11:39 19.04.2021
121 Clouds -1 1013 59 10000 0.45 102 11:19 19.04.2021
122 Clouds -1 1013 59 10000 0.45 102 11:19 19.04.2021
123 Clouds -1 1013 59 10000 0.45 102 11:19 19.04.2021
124 Clouds -3 1013 64 10000 0.89 106 10:41 19.04.2021
125 Clouds -4 1012 67 10000 2.44 358 10:18 19.04.2021
126 Clouds -4 1012 67 10000 2.44 358 10:18 19.04.2021
127 Clouds -5 1037 97 10000 2.44 358 09:40 19.04.2021
128 Clouds -5 1019 83 10000 2.235 112 09:21 19.04.2021
129 Clouds -5 1019 83 10000 2.235 112 09:21 19.04.2021
130 Clouds -6 1012 73 10000 2.68 75 08:33 19.04.2021
131 Clouds -6 1012 76 10000 1.9 345 07:50 19.04.2021
132 Clouds -4 1019 79 9314 0.447 112 07:21 19.04.2021
133 Clouds -4 1018 93 10000 2.57 100 06:47 19.04.2021
134 Clouds -4 1037 96 7306 0.91 312 04:21 19.04.2021
135 Clouds -4 1019 93 10000 3.09 110 01:49 19.04.2021
136 Clouds -3 1020 93 10000 1.54 80 00:33 19.04.2021
137 Rain -3 1020 93 8000 4.12 70 23:20 18.04.2021
138 Rain -2 1019 81 10000 6.17 50 22:56 18.04.2021
139 Rain -2 1019 75 10000 2.57 0 22:31 18.04.2021
140 Rain -2 1019 75 10000 4.12 50 21:51 18.04.2021
141 Rain -1 1019 75 10000 3.6 90 21:28 18.04.2021
142 Rain -1 1018 70 10000 3.09 0 20:43 18.04.2021
143 Rain -2 1018 70 10000 2.57 60 20:24 18.04.2021
144 Clouds -1 1018 65 10000 3.6 0 19:56 18.04.2021
145 Rain -1 1018 61 10000 3.09 110 19:37 18.04.2021
146 Snow -1 1013 73 7636 1.79 336 19:18 18.04.2021
147 Snow -2 1013 70 7636 1.79 325 18:39 18.04.2021
148 Snow -1 1013 69 4931 2.24 328 18:21 18.04.2021
149 Snow 0 1013 73 4931 0.89 238 17:45 18.04.2021
150 Snow 0 1013 73 4902 0.89 264 17:26 18.04.2021
151 Snow -1 1013 74 4902 0.45 288 16:45 18.04.2021
152 Snow 1 1013 74 5083 0.89 201 16:23 18.04.2021
153 Snow 0 1013 71 5083 2.55 356 15:43 18.04.2021
154 Snow 0 1013 69 5500 0.89 276 15:24 18.04.2021
155 Snow 0 1013 66 5500 2.52 359 14:45 18.04.2021
156 Clouds 3 1013 66 5691 2.38 3 14:20 18.04.2021
157 Clouds 2 1013 68 5691 2.38 3 13:54 18.04.2021
158 Clouds 3 1013 72 5691 0.45 133 13:32 18.04.2021
159 Clouds 3 1013 70 5583 2.19 1 12:49 18.04.2021
160 Clouds -1 1017 63 7294 2.68 41 12:24 18.04.2021
161 Clouds 0 1018 80 7294 0.447 337 11:41 18.04.2021
162 Clouds -1 1012 63 8863 2.05 7 11:20 18.04.2021
163 Clouds -1 1012 67 8863 2.05 7 10:46 18.04.2021
164 Clouds 1 1018 80 10000 2.15 5 10:21 18.04.2021
165 Clouds -1 1011 58 10000 2.15 5 09:45 18.04.2021
166 Clouds -2 1011 55 10000 2.01 358 09:26 18.04.2021
167 Clouds -3 1017 82 10000 2.01 358 08:54 18.04.2021
168 Clouds -3 1018 70 10000 3.6 60 08:29 18.04.2021
169 Clouds -3 1017 75 10000 4.12 60 07:55 18.04.2021
170 Clouds -4 1017 81 10000 1.42 335 07:36 18.04.2021
171 Clouds -3 1017 70 10000 1.03 0 05:40 18.04.2021
172 Clouds -3 1017 70 10000 1.03 0 05:22 18.04.2021
173 Clouds -3 1018 65 10000 3.6 70 02:25 18.04.2021
174 Clouds -2 1018 61 10000 3.6 80 01:41 18.04.2021
175 Clouds -2 1018 61 10000 4.12 80 00:29 18.04.2021
176 Clouds -2 1018 61 10000 3.09 0 23:30 17.04.2021
177 Clouds -2 1018 61 10000 3.6 70 22:49 17.04.2021
178 Clouds -2 1018 57 10000 3.6 70 22:30 17.04.2021
179 Clouds -2 1018 57 10000 3.09 60 21:45 17.04.2021
180 Clouds -2 1017 57 10000 2.06 0 21:25 17.04.2021
181 Clouds -2 1017 57 10000 1.54 0 20:43 17.04.2021
182 Clouds -5 1012 85 10000 0.45 38 20:23 17.04.2021
183 Clouds -1 1017 53 10000 4.12 80 19:43 17.04.2021
184 Clouds -1 1012 67 10000 4.02 310 19:20 17.04.2021
185 Clouds -1 1012 69 10000 4.47 294 18:51 17.04.2021
186 Clouds -1 1012 67 10000 4.47 315 18:25 17.04.2021
187 Clouds 0 1012 65 10000 4.47 337 17:48 17.04.2021
188 Clouds 0 1011 63 10000 4.47 303 17:29 17.04.2021
189 Clouds 0 1019 78 10000 1.341 22 16:41 17.04.2021
190 Clouds 0 1019 78 10000 2.235 22 16:23 17.04.2021
191 Clouds 0 1019 80 9813 1.788 22 15:23 17.04.2021
192 Clouds 0 1019 80 9813 2.682 22 14:44 17.04.2021
193 Clouds 0 1019 82 10000 1.788 337 14:20 17.04.2021
194 Clouds 1 1019 80 10000 1.341 22 13:44 17.04.2021
195 Clouds 0 1012 58 10000 2.35 27 12:55 17.04.2021
196 Clouds 2 1037 97 10000 0.894 157 12:34 17.04.2021
197 Clouds 0 1013 63 10000 2.13 34 11:52 17.04.2021
198 Clouds -1 1013 61 10000 2.13 34 11:33 17.04.2021
199 Clouds -1 1013 61 10000 2.13 34 11:33 17.04.2021
200 Clouds 0 1013 64 10000 1.97 35 10:56 17.04.2021
201 Clouds 0 1013 65 10000 1.97 35 10:38 17.04.2021
202 Clouds -1 1014 68 10000 1.8 39 09:51 17.04.2021
203 Clouds -2 1014 75 10000 1.2 43 08:54 17.04.2021
204 Clouds -4 1011 55 10000 0.89 79 08:33 17.04.2021
205 Clouds -3 1014 76 10000 0.23 321 07:51 17.04.2021
206 Clouds -6 1018 75 10000 5.66 70 06:26 17.04.2021
207 Clouds -5 1019 65 10000 5.14 60 03:47 17.04.2021
208 Clouds -4 1019 56 10000 5.14 60 00:58 17.04.2021
209 Clouds -4 1019 56 10000 5.14 60 00:37 17.04.2021
210 Clouds -4 1019 56 10000 4.63 60 00:18 17.04.2021
211 Clouds -4 1019 56 10000 3.6 0 23:34 16.04.2021
212 Clouds -3 1019 49 10000 3.6 70 22:52 16.04.2021
213 Clouds -3 1019 45 10000 3.09 0 22:25 16.04.2021
214 Clouds -3 1019 45 10000 2.57 0 21:57 16.04.2021
215 Clouds -2 1019 45 10000 2.57 0 21:39 16.04.2021
216 Snow -2 1018 45 10000 2.06 0 20:56 16.04.2021
217 Clouds -2 1018 45 10000 2.06 0 20:38 16.04.2021
218 Snow -2 1018 45 10000 3.09 0 20:18 16.04.2021
219 Snow -2 1018 45 10000 4.12 0 19:43 16.04.2021
220 Snow -1 1019 51 7301 0.45 119 19:19 16.04.2021
221 Snow 0 1018 45 6214 0.45 216 18:27 16.04.2021
222 Snow -1 1013 49 6214 0.96 72 17:49 16.04.2021
223 Snow 0 1013 54 10000 0.89 175 17:20 16.04.2021
224 Snow -3 1012 59 10000 4.92 83 16:45 16.04.2021
225 Snow -3 1012 54 8681 7.6 125 16:26 16.04.2021
226 Snow -3 1013 54 8681 4.92 97 15:56 16.04.2021
227 Snow -2 1013 55 8681 5.36 85 15:36 16.04.2021
228 Snow -2 1013 54 8882 3.58 85 14:46 16.04.2021
229 Snow -1 1013 55 7722 4.02 99 14:28 16.04.2021
230 Snow -2 1013 54 6418 3.58 91 13:56 16.04.2021
231 Snow -2 1013 56 9167 3.58 104 13:23 16.04.2021
232 Snow 0 1014 57 9167 0.89 196 12:54 16.04.2021
233 Snow 0 1014 58 9167 1.34 164 12:36 16.04.2021
234 Clouds -1 1014 57 10000 1.64 126 11:59 16.04.2021
235 Clouds -2 1014 59 10000 1.64 126 11:41 16.04.2021
236 Clouds -2 1015 65 10000 1.72 138 11:20 16.04.2021
237 Clouds 0 1015 67 10000 1.72 138 10:41 16.04.2021
238 Clouds -1 1015 69 10000 1.74 147 10:20 16.04.2021
239 Clouds -2 1015 73 10000 1.74 147 09:44 16.04.2021
240 Clouds -2 1015 71 10000 1.54 156 09:21 16.04.2021
241 Clouds -4 1015 81 10000 1.54 156 08:44 16.04.2021
242 Clouds -7 1039 95 10000 1.12 181 08:19 16.04.2021
243 Clouds -9 1011 69 10000 1.12 181 07:43 16.04.2021
244 Clouds -8 1019 74 10000 2.57 0 07:25 16.04.2021
245 Clouds -8 1019 80 10000 3.09 90 06:39 16.04.2021
246 Clouds -8 1019 74 10000 3.6 90 05:32 16.04.2021
247 Clouds -6 1020 60 10000 3.09 70 01:41 16.04.2021
248 Clouds -5 1021 56 10000 2.57 100 00:44 16.04.2021
249 Clouds -5 1021 52 10000 4.12 0 00:21 16.04.2021
250 Clouds -5 1021 52 10000 4.12 0 23:52 15.04.2021
251 Clouds -5 1021 56 10000 4.12 130 23:32 15.04.2021
252 Clouds -4 1021 48 10000 3.6 0 22:50 15.04.2021
253 Clouds -4 1021 52 10000 3.6 150 22:23 15.04.2021
254 Clouds -4 1021 48 10000 3.6 130 21:43 15.04.2021
255 Clouds -4 1021 48 10000 4.63 190 21:25 15.04.2021
256 Clouds -4 1020 48 10000 3.09 0 20:49 15.04.2021
257 Clouds -7 1014 79 10000 1.69 28 20:25 15.04.2021
258 Clouds -7 1014 76 10000 1.69 28 19:48 15.04.2021
259 Snow -1 1015 84 7677 0.45 176 19:28 15.04.2021
260 Snow -1 1015 85 7677 2.26 22 18:59 15.04.2021
261 Snow -1 1015 87 7677 2.26 22 18:37 15.04.2021
262 Snow 0 1015 86 4491 0.45 170 18:18 15.04.2021
263 Snow -1 1015 76 4491 2.34 17 17:51 15.04.2021
264 Snow -1 1015 77 5865 0.89 1 17:29 15.04.2021
265 Snow -1 1015 68 5865 2.35 19 16:44 15.04.2021
266 Snow -4 1015 74 7082 2.24 25 16:24 15.04.2021
267 Snow -4 1016 77 7082 2.24 25 15:47 15.04.2021
268 Snow -4 1016 76 7398 2.05 33 15:27 15.04.2021
269 Snow -2 1022 44 7398 0.45 26 14:44 15.04.2021
270 Snow -1 1024 83 8479 3.129 22 14:25 15.04.2021
271 Snow -1 1042 96 7769 1.72 37 13:49 15.04.2021
272 Snow -1 1024 83 8797 2.235 22 13:25 15.04.2021
273 Snow -5 1014 49 8797 2.68 172 12:50 15.04.2021
274 Clouds -5 1024 84 10000 1.341 315 12:27 15.04.2021
275 Clouds -5 1014 52 10000 1.58 53 11:48 15.04.2021
276 Clouds -5 1014 49 10000 1.75 58 11:29 15.04.2021
277 Clouds -6 1014 50 10000 1.79 199 10:58 15.04.2021
278 Clouds -6 1014 50 10000 1.79 199 10:58 15.04.2021
279 Clouds -7 1042 96 10000 1.75 58 10:40 15.04.2021
280 Clouds -7 1023 83 10000 0.894 45 10:21 15.04.2021
281 Clouds -8 1013 55 10000 1.76 52 09:30 15.04.2021
282 Clouds -9 1013 58 10000 0.89 74 08:53 15.04.2021
283 Clouds -6 1042 94 10000 1.36 40 08:30 15.04.2021
284 Clouds -6 1022 75 10000 6.17 30 07:36 15.04.2021
285 Clouds -7 1022 75 10000 5.66 50 06:56 15.04.2021
286 Clouds -6 1022 75 10000 5.66 50 06:35 15.04.2021
287 Clouds -6 1022 75 10000 6.69 50 04:55 15.04.2021
288 Clouds -6 1023 75 10000 5.14 40 03:59 15.04.2021
289 Clouds -5 1023 60 10000 3.6 60 23:59 14.04.2021
290 Clouds -5 1023 60 10000 3.6 60 23:32 14.04.2021
291 Rain -5 1023 56 10000 3.09 0 22:57 14.04.2021
292 Rain -5 1023 56 10000 3.09 0 22:37 14.04.2021
293 Clouds -5 1023 56 10000 2.06 0 22:19 14.04.2021
294 Clouds -4 1023 48 10000 3.09 140 21:40 14.04.2021
295 Clouds -5 1023 45 10000 1.54 0 21:22 14.04.2021
296 Snow -4 1023 42 10000 1.54 300 20:39 14.04.2021
297 Snow -7 1016 85 9120 0.45 72 20:20 14.04.2021
298 Snow -7 1016 81 9120 1.34 99 19:44 14.04.2021
299 Snow -4 1017 64 8831 1.79 323 19:19 14.04.2021
300 Snow -4 1017 64 8831 3.58 340 18:50 14.04.2021
301 Snow -4 1016 62 5826 3.58 305 18:19 14.04.2021
302 Snow -3 1016 59 5826 4.02 324 17:55 14.04.2021
303 Snow -2 1016 53 4477 3.58 289 17:24 14.04.2021
304 Snow -5 1016 66 4477 1.79 132 16:46 14.04.2021
305 Clouds -5 1016 65 8375 1.34 105 16:22 14.04.2021
306 Clouds -4 1015 57 8375 3.13 105 15:41 14.04.2021
307 Clouds -2 1017 53 10000 2.68 300 15:22 14.04.2021
308 Clouds -1 1017 54 10000 0.45 257 14:43 14.04.2021
309 Clouds -1 1017 59 10000 0.45 180 14:22 14.04.2021
310 Clouds -1 1017 62 10000 0.89 183 13:49 14.04.2021
311 Clouds -2 1018 64 10000 0.89 182 12:58 14.04.2021
312 Clouds -2 1018 62 10000 1.84 23 12:35 14.04.2021
313 Clear -2 1019 70 10000 1.58 32 11:42 14.04.2021
314 Clear -3 1019 68 10000 1.49 36 11:24 14.04.2021
315 Clear -4 1019 71 10000 1.49 36 10:35 14.04.2021
316 Clouds -5 1019 72 10000 1.34 28 09:59 14.04.2021
317 Clouds -5 1019 73 10000 1.34 28 09:41 14.04.2021
318 Clouds -8 1019 77 10000 0.86 18 09:18 14.04.2021
319 Clouds -9 1014 55 10000 0.86 18 08:33 14.04.2021
320 Clouds -9 1014 55 10000 0.86 18 08:33 14.04.2021
321 Clouds -9 1025 85 10000 0.46 338 07:56 14.04.2021
322 Clouds -9 1024 80 10000 3.09 110 06:46 14.04.2021
323 Clouds -9 1024 74 10000 2.57 90 06:23 14.04.2021
324 Clouds -8 1025 75 10000 3.09 100 03:58 14.04.2021
325 Clouds -7 1026 75 10000 3.09 0 01:41 14.04.2021
326 Clouds -6 1027 75 10000 5.14 50 00:34 14.04.2021
327 Clouds -5 1027 65 10000 4.63 60 23:39 13.04.2021
328 Clouds -5 1027 70 10000 4.63 60 22:59 13.04.2021
329 Clouds -5 1027 70 10000 4.63 60 22:40 13.04.2021
330 Clouds -5 1027 60 10000 3.6 60 22:18 13.04.2021
331 Clouds -5 1027 60 10000 4.63 0 21:44 13.04.2021
332 Clouds -5 1026 56 10000 4.12 0 21:24 13.04.2021
333 Clouds -4 1026 52 10000 4.12 60 20:41 13.04.2021
334 Clouds -4 1026 52 10000 3.6 0 20:21 13.04.2021
335 Clouds -3 1026 45 10000 3.6 80 19:40 13.04.2021
336 Clouds -1 1020 60 10000 0.45 289 19:22 13.04.2021
337 Clouds -2 1020 61 10000 1.34 331 18:36 13.04.2021
338 Clouds -1 1020 62 10000 0.45 297 17:47 13.04.2021
339 Clouds 0 1020 64 10000 4.04 344 17:25 13.04.2021
340 Clouds -1 1020 55 10000 0.45 85 16:59 13.04.2021
341 Clouds 1 1020 56 10000 0.89 232 16:41 13.04.2021
342 Snow -1 1027 49 10000 1.34 28 16:20 13.04.2021
343 Snow 1 1020 60 10000 0.45 43 15:40 13.04.2021
344 Clouds 0 1020 61 10000 0.89 12 15:18 13.04.2021
345 Clouds 0 1020 59 10000 1.34 315 14:41 13.04.2021
346 Clouds 0 1020 66 10000 0.45 182 14:18 13.04.2021
347 Clouds 0 1020 60 10000 0.89 253 13:45 13.04.2021
348 Clouds 0 1020 64 10000 0.45 301 13:23 13.04.2021
349 Clouds -1 1020 60 10000 1.79 273 12:53 13.04.2021
350 Clouds -1 1020 63 10000 2.68 301 12:24 13.04.2021
351 Clouds -1 1020 69 10000 1.79 319 11:50 13.04.2021
352 Clouds -4 1028 77 10000 0.45 44 11:29 13.04.2021
353 Clouds -2 1020 64 10000 1.34 297 10:45 13.04.2021
354 Clouds -5 1017 58 10000 1.34 250 10:20 13.04.2021
355 Clouds -3 1020 73 10000 1.34 46 09:53 13.04.2021
356 Clouds -3 1020 82 10000 4.48 347 09:34 13.04.2021
357 Clouds -4 1020 86 10000 4.28 344 08:51 13.04.2021
358 Clouds -8 1028 82 6428 4.1 342 08:26 13.04.2021
359 Clouds -8 1028 81 6428 4.1 342 07:59 13.04.2021
360 Clouds -8 1047 92 6428 4.1 342 07:35 13.04.2021
361 Clouds -7 1027 100 10000 3.82 336 06:29 13.04.2021
362 Clouds -6 1027 80 10000 2.57 240 04:27 13.04.2021
363 Clouds -6 1027 75 10000 1.03 0 01:37 13.04.2021
364 Clouds -5 1027 70 10000 3.09 120 23:59 12.04.2021
365 Clouds -5 1027 70 10000 3.09 120 23:39 12.04.2021
366 Clouds -5 1027 70 10000 3.6 90 23:18 12.04.2021
367 Clouds -5 1027 70 10000 4.12 60 22:38 12.04.2021
368 Clouds -5 1027 70 10000 2.57 0 21:56 12.04.2021
369 Clouds -5 1027 70 10000 2.57 0 21:36 12.04.2021
370 Clouds -7 1026 90 6715 0.45 26 21:18 12.04.2021
371 Clouds -6 1025 90 6756 0.45 40 20:38 12.04.2021
372 Snow -5 1025 90 6792 1.79 51 20:20 12.04.2021
373 Snow -4 1019 89 6792 4.34 345 19:42 12.04.2021
374 Snow -2 1019 89 6894 4.63 343 19:21 12.04.2021
375 Snow -2 1019 90 6894 4.63 343 18:56 12.04.2021
376 Snow -2 1019 90 6894 0.45 142 18:37 12.04.2021
377 Snow -1 1019 89 6572 4.74 346 18:18 12.04.2021
378 Snow -1 1019 89 6572 0.45 128 17:42 12.04.2021
379 Snow -1 1018 89 5964 0.45 261 17:20 12.04.2021
380 Snow -1 1018 88 5964 4.6 349 16:43 12.04.2021
381 Snow -1 1018 88 3787 0.45 29 16:24 12.04.2021
382 Snow 0 1018 90 3787 4.56 347 15:47 12.04.2021
383 Snow -1 1018 88 657 0.45 7 15:21 12.04.2021
384 Snow -1 1018 89 657 4.44 347 14:49 12.04.2021
385 Snow -1 1018 88 525 4.34 344 14:29 12.04.2021
386 Snow -1 1017 81 345 0.45 337 13:43 12.04.2021
387 Snow -1 1017 72 614 0.45 326 13:21 12.04.2021
388 Snow -1 1017 76 614 1.34 319 12:44 12.04.2021
389 Snow -1 1017 77 385 0.45 325 12:23 12.04.2021
390 Snow -1 1016 77 385 0.89 326 11:51 12.04.2021
391 Snow -1 1016 78 253 0.89 325 10:54 12.04.2021
392 Snow -1 1016 77 180 0.89 285 10:28 12.04.2021
393 Snow -1 1015 78 180 1.79 305 09:59 12.04.2021
394 Snow -1 1015 78 180 0.45 306 09:40 12.04.2021
395 Snow -1 1014 88 147 3.68 345 08:59 12.04.2021
396 Snow -1 1014 85 140 0.89 234 08:30 12.04.2021
397 Snow 0 1013 80 112 2.68 290 07:31 12.04.2021
398 Snow -1 1014 88 88 2.76 344 06:49 12.04.2021
399 Snow -3 1012 87 72 2.17 338 05:50 12.04.2021
400 Snow 1 1014 69 75 0.89 304 03:58 12.04.2021
401 Snow 0 1013 83 4808 2.81 163 00:50 12.04.2021
402 Snow 0 1013 82 5709 3.21 158 00:23 12.04.2021
403 Clouds 3 1014 81 10000 3.09 250 23:45 11.04.2021
404 Clouds 3 1014 76 10000 2.06 250 23:23 11.04.2021
405 Clouds 4 1013 71 10000 2.57 340 22:41 11.04.2021
406 Clouds 4 1013 71 10000 6.17 20 22:22 11.04.2021
407 Clouds 5 1012 62 10000 8.23 40 21:45 11.04.2021
408 Clouds 5 1012 35 10000 6.69 70 21:26 11.04.2021
409 Clouds 5 1011 35 10000 7.72 90 20:52 11.04.2021
410 Clouds 6 1010 35 10000 7.72 80 20:27 11.04.2021
411 Clouds 6 1010 33 10000 7.2 80 19:44 11.04.2021
412 Clouds 3 1012 69 9725 4.47 110 19:22 11.04.2021
413 Clouds 4 1012 70 9725 3.58 100 19:00 11.04.2021
414 Clouds 5 1012 69 9725 6.71 95 18:41 11.04.2021
415 Clouds 5 1012 68 9804 5.36 94 18:22 11.04.2021
416 Clouds 5 1012 69 9804 4.92 93 17:44 11.04.2021
417 Clouds 10 1009 29 10000 9.26 100 17:24 11.04.2021
418 Clouds 5 1012 66 4193 3.58 118 16:47 11.04.2021
419 Clouds 5 1012 67 4066 5.36 91 16:22 11.04.2021
420 Clouds 4 1012 67 4066 6.26 90 15:48 11.04.2021
421 Clouds 4 1012 68 1441 4.92 85 15:27 11.04.2021
422 Clouds 4 1012 70 1441 4.47 100 14:54 11.04.2021
423 Clouds 4 1012 69 141 8.05 93 14:31 11.04.2021
424 Clouds 4 1012 69 68 5.81 96 13:51 11.04.2021
425 Clouds 4 1012 68 68 7.15 97 13:31 11.04.2021
426 Clouds 4 1012 69 151 6.71 115 12:49 11.04.2021
427 Clouds 4 1012 69 3661 6.71 103 12:21 11.04.2021
428 Clouds 4 1012 70 3661 4.92 99 11:50 11.04.2021
429 Clouds 3 1012 69 2818 7.15 110 11:23 11.04.2021
430 Clouds 4 1012 70 2818 4.47 84 10:48 11.04.2021
431 Clouds 3 1012 69 2818 3.58 87 10:30 11.04.2021
432 Clouds 3 1012 69 10000 3.45 168 09:56 11.04.2021
433 Clouds 4 1011 73 10000 3.45 168 09:33 11.04.2021
434 Clouds 4 1011 77 10000 3.26 165 08:54 11.04.2021
435 Clouds 3 1011 84 9364 3.45 172 08:25 11.04.2021
436 Clouds 3 1011 80 10000 2.93 162 07:22 11.04.2021
437 Rain 3 1011 80 10000 2.93 162 06:51 11.04.2021
438 Snow 1 1011 81 10000 2.95 167 05:42 11.04.2021
439 Snow 1 1011 81 10000 2.86 166 05:20 11.04.2021
440 Snow 1 1011 78 10000 2.86 166 04:34 11.04.2021
441 Clouds 3 1013 78 5515 3.44 170 01:49 11.04.2021
442 Clouds 3 1013 75 4717 3.53 168 00:34 11.04.2021
443 Snow 2 1014 76 3320 3.94 166 23:48 10.04.2021
444 Snow 2 1014 77 4655 0.45 299 23:25 10.04.2021
445 Snow 2 1014 77 4655 0.45 299 23:25 10.04.2021
446 Snow 1 1014 78 4655 4.31 166 22:43 10.04.2021
447 Snow 1 1014 77 8681 4.33 165 22:20 10.04.2021
448 Snow 1 1014 77 8681 4.33 165 21:41 10.04.2021
449 Snow 1 1014 75 8888 4.47 87 21:21 10.04.2021
450 Snow 1 1014 76 8888 3.58 95 20:44 10.04.2021
451 Snow 1 1014 77 10000 5.36 86 20:23 10.04.2021
452 Snow 1 1014 77 10000 5.36 86 20:23 10.04.2021
453 Snow 1 1014 75 10000 4.47 110 19:44 10.04.2021
454 Clouds 4 1014 70 10000 3.87 162 19:25 10.04.2021
455 Clouds 3 1014 74 10000 2.24 81 18:51 10.04.2021
456 Clouds 5 1014 71 10000 4 161 18:29 10.04.2021
457 Clouds 5 1015 72 10000 4 161 17:38 10.04.2021
458 Clouds 4 1015 74 10000 3.86 161 17:18 10.04.2021
459 Clouds 4 1015 69 10000 3.72 161 16:28 10.04.2021
460 Clouds 4 1015 67 10000 3.72 161 15:54 10.04.2021
461 Clouds 4 1015 76 10000 4.47 88 15:23 10.04.2021
462 Clouds 4 1015 76 10000 6.26 85 14:42 10.04.2021
463 Clouds 4 1015 75 8956 2.68 88 14:19 10.04.2021
464 Clouds 4 1016 73 8875 7.6 90 13:42 10.04.2021
465 Clouds 4 1016 73 10000 5.81 95 12:53 10.04.2021
466 Clouds 3 1016 72 8367 5.81 97 12:28 10.04.2021
467 Clouds 3 1016 71 8367 6.26 87 11:49 10.04.2021
468 Clouds 2 1016 70 9001 5.36 89 11:25 10.04.2021
469 Clouds 2 1016 70 9001 5.36 89 11:25 10.04.2021
470 Clouds 6 1013 75 9001 0.447 22 10:52 10.04.2021
471 Clouds 5 1030 82 9001 1.788 90 10:31 10.04.2021
472 Clouds 2 1016 81 10000 3.78 164 09:48 10.04.2021
473 Clouds 1 1016 84 9528 3.73 168 09:20 10.04.2021
474 Clouds 1 1016 84 9528 3.73 168 09:20 10.04.2021
475 Clouds 2 1016 90 10000 3.78 170 08:48 10.04.2021
476 Clouds 1 1016 91 10000 3.53 171 08:29 10.04.2021
477 Clouds 1 1016 91 10000 3.53 171 08:29 10.04.2021
478 Clouds 1 1016 89 10000 3.53 171 07:38 10.04.2021
479 Snow -1 1016 88 10000 3.29 175 07:19 10.04.2021
480 Snow 1 1013 69 10000 4.47 180 06:24 10.04.2021
481 Clouds 1 1032 70 10000 1.341 0 03:49 10.04.2021
482 Clouds 2 1016 49 10000 3.6 270 02:51 10.04.2021
483 Clouds 4 1016 37 10000 3.6 110 02:21 10.04.2021
484 Clouds 4 1016 37 10000 5.66 90 00:43 10.04.2021
485 Clouds 4 1016 37 10000 5.66 100 00:21 10.04.2021
486 Clouds 4 1016 37 10000 7.72 80 23:40 09.04.2021
487 Clouds 5 1016 35 10000 7.2 80 22:58 09.04.2021
488 Clouds 4 1016 35 10000 7.2 80 22:38 09.04.2021
489 Clouds 5 1017 35 10000 7.72 70 21:56 09.04.2021
490 Clouds 5 1017 35 10000 7.72 70 21:37 09.04.2021
491 Clouds 4 1016 35 10000 7.2 90 21:18 09.04.2021
492 Clouds 5 1016 35 10000 6.17 90 20:41 09.04.2021
493 Clouds 1 1017 79 10000 5.81 92 20:22 09.04.2021
494 Clouds 1 1017 79 10000 5.81 92 20:22 09.04.2021
495 Clouds 6 1016 33 10000 4.63 100 19:44 09.04.2021
496 Clouds 2 1017 75 10000 6.26 86 19:23 09.04.2021
497 Clouds 4 1017 71 10000 6.71 90 18:51 09.04.2021
498 Clouds 4 1017 67 10000 7.6 89 18:31 09.04.2021
499 Clouds 5 1017 64 10000 6.71 81 17:54 09.04.2021
500 Clouds 5 1017 61 10000 6.71 81 17:34 09.04.2021
501 Clouds 5 1017 57 9583 6.26 86 16:55 09.04.2021
502 Clouds 5 1017 55 9583 5.81 86 16:32 09.04.2021
503 Clouds 5 1017 56 10000 6.26 85 15:50 09.04.2021
504 Clouds 4 1018 55 10000 6.26 85 15:26 09.04.2021
505 Clouds 5 1018 51 10000 4.02 78 14:51 09.04.2021
506 Clouds 5 1018 52 10000 5.36 90 14:30 09.04.2021
507 Clouds 4 1019 50 10000 6.26 98 13:51 09.04.2021
508 Clouds 4 1019 48 10000 5.81 91 13:23 09.04.2021
509 Clouds 3 1019 49 10000 7.6 101 12:49 09.04.2021
510 Clouds 3 1019 46 10000 7.15 94 12:30 09.04.2021
511 Clouds 2 1019 42 10000 3.13 97 11:44 09.04.2021
512 Clouds 2 1019 42 10000 3.58 86 11:21 09.04.2021
513 Clouds 2 1019 37 10000 3.89 174 10:45 09.04.2021
514 Clouds 3 1021 56 10000 0.45 293 10:20 09.04.2021
515 Clouds 2 1021 71 10000 3.87 175 09:30 09.04.2021
516 Clouds -1 1018 44 10000 3.61 178 08:57 09.04.2021
517 Clouds -1 1019 59 10000 3.61 178 08:37 09.04.2021
518 Clouds -2 1041 74 10000 3.11 188 07:35 09.04.2021
519 Clouds -2 1021 77 10000 3.16 193 06:34 09.04.2021
520 Clouds -1 1022 76 10000 3.15 193 05:47 09.04.2021
521 Clouds 0 1024 42 10000 0.894 90 03:50 09.04.2021
522 Clear -1 1023 70 10000 0.45 90 01:27 09.04.2021
523 Clear -1 1023 68 10000 2.78 198 00:36 09.04.2021
524 Clear -1 1023 68 10000 2.61 199 00:18 09.04.2021
525 Clear -2 1023 64 10000 2.47 202 22:59 08.04.2021
526 Clear -2 1027 61 10000 2.235 112 22:40 08.04.2021
527 Clear -1 1023 62 10000 0.45 248 22:40 08.04.2021
528 Clear -2 1022 64 10000 2.57 100 22:20 08.04.2021
529 Clear -2 1022 56 10000 3.09 100 21:54 08.04.2021
530 Clear -2 1022 56 10000 3.09 100 21:36 08.04.2021
531 Clear -3 1022 69 10000 2.57 80 21:18 08.04.2021
532 Clear -2 1022 56 10000 2.57 110 20:45 08.04.2021
533 Clear -1 1027 71 10000 2.235 67 20:25 08.04.2021
534 Clear 1 1022 37 10000 1.03 0 19:42 08.04.2021
535 Clear 2 1018 52 10000 0.66 189 19:19 08.04.2021
536 Clear 2 1018 52 10000 0.66 189 19:19 08.04.2021
537 Clear 2 1022 32 10000 3.6 250 18:45 08.04.2021
538 Clear 2 1022 25 10000 2.57 250 18:20 08.04.2021
539 Clear 2 1022 24 10000 2.06 230 17:48 08.04.2021
540 Clear 0 1018 48 10000 0.46 273 17:24 08.04.2021
541 Clear 0 1018 47 10000 0.45 185 16:46 08.04.2021
542 Clear -1 1018 48 10000 0.44 310 16:25 08.04.2021
543 Clear 0 1018 57 10000 0.45 247 15:47 08.04.2021
544 Clear -3 1019 56 10000 0.89 191 15:28 08.04.2021
545 Clear 2 1019 60 10000 0.45 191 14:45 08.04.2021
546 Clouds 2 1019 63 10000 0.89 179 14:24 08.04.2021
547 Clouds 1 1019 65 10000 1.34 185 13:56 08.04.2021
548 Clouds 1 1019 66 10000 0.89 165 13:38 08.04.2021
549 Clouds 1 1019 66 10000 0.45 187 13:19 08.04.2021
550 Clouds 0 1020 65 10000 0.45 181 12:38 08.04.2021
551 Clouds -1 1020 66 10000 1.52 347 11:59 08.04.2021
552 Clouds -1 1020 66 10000 1.52 347 11:41 08.04.2021
553 Clouds -3 1020 73 10000 1.85 344 10:57 08.04.2021
554 Clouds -4 1020 72 10000 2.02 338 10:28 08.04.2021
555 Clouds -4 1020 76 10000 0.45 182 09:51 08.04.2021
556 Clouds -6 1020 76 10000 0.45 191 09:33 08.04.2021
557 Clouds -6 1020 79 10000 0.45 176 08:45 08.04.2021
558 Clouds -11 1015 65 10000 1.53 309 08:25 08.04.2021
559 Clouds -11 1015 72 10000 1.48 307 07:53 08.04.2021
560 Clouds -10 1026 86 10000 1.54 80 06:56 08.04.2021
561 Clouds -9 1026 80 10000 1.03 90 02:34 08.04.2021
562 Clouds -8 1025 74 10000 1.03 0 00:44 08.04.2021
563 Clouds -7 1025 69 10000 1.54 120 23:56 07.04.2021
564 Clouds -7 1025 69 10000 1.54 120 23:37 07.04.2021
565 Clouds -8 1025 64 10000 2.06 100 23:18 07.04.2021
566 Clouds -7 1025 64 10000 2.57 80 22:43 07.04.2021
567 Clouds -7 1024 60 10000 4.63 50 22:25 07.04.2021
568 Clouds -7 1024 60 10000 4.12 90 21:42 07.04.2021
569 Clouds -7 1024 64 10000 2.06 110 21:21 07.04.2021
570 Clouds -7 1024 44 10000 2.06 240 20:42 07.04.2021
571 Clouds -7 1023 41 10000 3.09 290 20:20 07.04.2021
572 Clouds -7 1028 82 7351 5.364 225 19:42 07.04.2021
573 Clouds -5 1016 74 5893 3.2 320 19:24 07.04.2021
574 Clouds -5 1016 67 5893 0.45 309 18:47 07.04.2021
575 Snow -4 1015 66 6224 0.89 332 18:19 07.04.2021
576 Snow -4 1015 64 6224 0.45 326 17:53 07.04.2021
577 Snow -5 1015 64 6224 0.89 336 17:35 07.04.2021
578 Snow -4 1014 64 6852 0.45 269 16:48 07.04.2021
579 Snow -8 1014 59 6402 0.89 324 16:22 07.04.2021
580 Snow -8 1014 62 6402 0.45 328 15:57 07.04.2021
581 Snow -4 1014 62 6402 0.45 307 15:38 07.04.2021
582 Snow -5 1014 64 6861 0.89 266 14:52 07.04.2021
583 Clouds -5 1014 59 7744 5.11 334 14:25 07.04.2021
584 Clouds -7 1011 78 7744 5.11 334 13:47 07.04.2021
585 Clouds -7 1023 69 9568 5.37 335 13:23 07.04.2021
586 Clouds -5 1013 57 9568 0.89 136 12:49 07.04.2021
587 Snow -8 1023 82 8131 5.82 334 12:22 07.04.2021
588 Snow -8 1023 83 8131 5.82 334 11:48 07.04.2021
589 Snow -6 1012 67 3440 1.79 107 11:25 07.04.2021
590 Snow -7 1012 77 3440 0.89 49 10:51 07.04.2021
591 Snow -8 1010 81 1309 4.54 329 09:56 07.04.2021
592 Snow -8 1010 82 1309 0.45 303 09:37 07.04.2021
593 Snow -8 1009 82 3130 0.45 125 09:19 07.04.2021
594 Clouds -8 1008 86 3130 3.82 330 08:33 07.04.2021
595 Snow -9 1008 80 3001 3.52 329 07:57 07.04.2021
596 Snow -13 1020 95 1600 3.38 328 07:29 07.04.2021
597 Snow -13 1020 95 1600 3.38 328 06:59 07.04.2021
598 Snow -13 1020 95 1891 3.39 323 06:18 07.04.2021
599 Clouds -9 1013 74 10000 5.66 300 03:35 07.04.2021
600 Snow -9 1014 82 3460 3.129 22 23:52 06.04.2021
601 Snow -8 1014 82 5310 3.576 22 23:23 06.04.2021
602 Snow -9 1014 82 5310 5.364 22 22:59 06.04.2021
603 Snow -10 1005 81 6841 3.51 330 22:22 06.04.2021
604 Snow -10 1005 81 6841 3.51 330 21:59 06.04.2021
605 Snow -10 1005 81 6841 3.51 330 21:59 06.04.2021
606 Snow -8 1032 91 6841 4.47 315 21:39 06.04.2021
607 Snow -8 1014 81 3707 7.153 22 21:21 06.04.2021
608 Snow -8 1014 81 3707 7.153 22 21:21 06.04.2021
609 Rain -8 1012 60 10000 6.17 300 20:51 06.04.2021
610 Snow -8 1012 55 10000 4.12 300 20:21 06.04.2021
611 Snow -7 1031 91 2596 2.682 247 19:49 06.04.2021
612 Snow -5 1004 76 2596 0.45 175 19:31 06.04.2021
613 Snow -5 1005 63 5478 3.3 347 18:48 06.04.2021
614 Snow -5 1005 65 6421 0.45 22 18:24 06.04.2021
615 Snow -4 1005 64 6421 0.45 265 17:52 06.04.2021
616 Snow -4 1005 57 6421 3.59 347 17:30 06.04.2021
617 Snow -7 1005 60 7529 1.34 290 16:56 06.04.2021
618 Snow -7 1005 60 7529 1.34 290 16:56 06.04.2021
619 Snow -4 1005 57 7529 1.79 114 16:38 06.04.2021
620 Clouds -3 1005 53 10000 1.34 268 15:41 06.04.2021
621 Clouds -4 1005 55 10000 1.34 165 15:20 06.04.2021
622 Clouds -6 1006 58 10000 1.34 126 14:39 06.04.2021
623 Clouds -7 1004 62 10000 1.79 252 14:18 06.04.2021
624 Clouds -5 1006 64 10000 1.79 149 13:43 06.04.2021
625 Clouds -5 1006 61 10000 1.79 155 13:23 06.04.2021
626 Clouds -6 1006 52 10000 0.89 196 12:42 06.04.2021
627 Clouds -6 1006 56 10000 0.89 117 12:22 06.04.2021
628 Clouds -7 1007 52 10000 0.89 324 11:51 06.04.2021
629 Clouds -8 1007 52 10000 1.34 269 11:21 06.04.2021
630 Clouds -8 1007 58 10000 1.34 97 10:47 06.04.2021
631 Clouds -7 1009 81 10000 0.447 157 10:28 06.04.2021
632 Clouds -9 1006 64 10000 1.79 285 09:49 06.04.2021
633 Clouds -9 1026 90 10000 4.41 344 09:30 06.04.2021
634 Clouds -12 1003 87 9130 4.42 343 08:45 06.04.2021
635 Clouds -10 1026 91 7265 3.89 340 08:18 06.04.2021
636 Clouds -9 1008 82 5732 0.894 315 06:55 06.04.2021
637 Snow -9 1007 82 5866 0.447 0 05:40 06.04.2021
638 Snow -7 1002 95 4786 0.89 103 02:57 06.04.2021
639 Snow -6 1007 80 2205 0.45 139 00:44 06.04.2021
640 Snow -1 1005 84 273 1.34 11 00:21 06.04.2021
641 Snow -4 1004 99 273 1.79 296 23:43 05.04.2021
642 Snow 1 1004 85 2066 0.45 41 23:19 05.04.2021
643 Snow -3 1005 99 2066 4.03 330 22:48 05.04.2021
644 Rain 2 1004 77 3375 3.7 316 22:26 05.04.2021
645 Snow 1 1006 62 3375 1.79 271 21:44 05.04.2021
646 Snow -2 1006 80 3672 0.89 133 21:21 05.04.2021
647 Rain 3 1007 30 10000 7.72 310 20:43 05.04.2021
648 Rain 3 1007 28 10000 5.14 290 20:25 05.04.2021
649 Clouds 4 1006 26 10000 8.23 270 19:43 05.04.2021
650 Clouds 5 1007 26 10000 7.2 280 19:22 05.04.2021
651 Clouds 5 1007 23 10000 8.75 270 18:49 05.04.2021
652 Clouds 6 1007 20 10000 7.72 270 18:31 05.04.2021
653 Clouds 6 1007 21 10000 7.2 270 17:59 05.04.2021
654 Clouds 7 1007 21 10000 7.2 270 17:41 05.04.2021
655 Clouds 6 1007 23 10000 8.75 270 17:19 05.04.2021
656 Clouds 7 1007 23 10000 9.26 270 16:42 05.04.2021
657 Clouds 7 1008 24 10000 7.72 270 16:20 05.04.2021
658 Clouds 7 1008 36 10000 4.63 260 15:52 05.04.2021
659 Clouds 6 1009 38 10000 4.63 240 15:27 05.04.2021
660 Clouds 6 1010 35 10000 2.06 0 14:47 05.04.2021
661 Clouds 7 1010 44 79 4.47 315 14:27 05.04.2021
662 Clouds 7 1029 53 153 6.259 225 13:31 05.04.2021
663 Clouds 4 1010 52 226 1.61 301 12:48 05.04.2021
664 Clouds 4 1010 51 5163 0.89 135 12:26 05.04.2021
665 Clouds 4 1011 55 5163 2.24 169 11:55 05.04.2021
666 Clouds 6 1008 54 5163 1.42 292 11:33 05.04.2021
667 Clouds 6 1009 56 9521 1.77 303 10:59 05.04.2021
668 Clouds 5 1009 55 9521 1.77 303 10:40 05.04.2021
669 Clouds 5 1009 59 10000 1.73 294 10:19 05.04.2021
670 Clouds 3 1010 63 10000 1.73 294 09:45 05.04.2021
671 Clouds 3 1010 66 10000 1.66 277 09:22 05.04.2021
672 Clouds 0 1010 73 10000 1.66 277 08:40 05.04.2021
673 Clear -1 1010 76 10000 1.77 273 08:20 05.04.2021
674 Clear -2 1012 75 10000 1.77 273 07:35 05.04.2021
675 Clear 0 1017 75 10000 1.47 275 04:23 05.04.2021
676 Clear -1 1018 71 10000 0.45 90 01:35 05.04.2021
677 Clear -1 1018 70 10000 2.06 100 00:29 05.04.2021
678 Clear -1 1018 75 10000 2.57 90 23:43 04.04.2021
679 Clear 0 1018 65 10000 2.57 90 23:20 04.04.2021
680 Clear 0 1018 61 10000 3.09 90 22:50 04.04.2021
681 Clear 0 1018 53 10000 3.6 90 22:28 04.04.2021
682 Clear 1 1018 40 10000 5.66 60 21:26 04.04.2021
683 Clear 1 1017 40 10000 5.66 40 20:56 04.04.2021
684 Clouds 2 1017 37 10000 6.17 30 20:29 04.04.2021
685 Clouds 4 1017 35 10000 6.17 30 19:44 04.04.2021
686 Clouds 4 1017 35 10000 6.17 30 19:23 04.04.2021
687 Clouds 5 1017 35 10000 4.63 30 18:59 04.04.2021
688 Clouds 6 1017 35 10000 4.63 30 18:40 04.04.2021
689 Clouds 6 1017 35 10000 4.63 30 18:40 04.04.2021
690 Clouds 5 1017 32 10000 4.63 20 18:20 04.04.2021
691 Clouds 5 1017 35 10000 5.14 20 17:41 04.04.2021
692 Clouds 5 1017 35 10000 5.14 20 17:41 04.04.2021
693 Clouds 5 1017 35 10000 5.14 20 17:41 04.04.2021
694 Clouds 3 1014 52 10000 2.24 30 17:22 04.04.2021
695 Clouds 3 1014 52 10000 2.24 30 17:22 04.04.2021
696 Clouds 3 1014 51 10000 1.79 98 16:42 04.04.2021
697 Clouds 4 1018 37 10000 7.2 50 16:18 04.04.2021
698 Clouds 5 1018 37 10000 6.69 50 15:34 04.04.2021
699 Clouds 3 1014 55 10000 0.89 80 14:46 04.04.2021
700 Clear 2 1014 53 10000 1.79 83 14:27 04.04.2021
701 Clear 2 1018 43 10000 6.17 50 13:47 04.04.2021
702 Clear 3 1019 46 10000 6.17 60 13:23 04.04.2021
703 Clear 4 1015 57 10000 2.15 21 12:41 04.04.2021
704 Clear 3 1016 60 10000 2.03 22 12:23 04.04.2021
705 Clear 1 1016 65 10000 2.03 22 11:42 04.04.2021
706 Clear 1 1016 67 10000 1.96 24 11:23 04.04.2021
707 Clear 2 1016 70 10000 1.96 24 10:43 04.04.2021
708 Clear -1 1016 72 10000 1.83 23 09:54 04.04.2021
709 Clear -2 1016 73 10000 1.4 4 09:25 04.04.2021
710 Clear -2 1016 81 10000 1.4 4 08:53 04.04.2021
711 Clear -3 1021 76 10000 1.4 4 08:35 04.04.2021
712 Clouds -4 1021 81 10000 0.89 135 07:54 04.04.2021
713 Clouds -3 1037 52 10000 0.78 326 06:37 04.04.2021
714 Clouds -4 1037 31 10000 0.69 311 05:33 04.04.2021
715 Clouds -3 1020 56 10000 4.12 60 01:29 04.04.2021
716 Clouds -3 1020 52 10000 4.12 70 00:20 04.04.2021
717 Clouds -3 1020 52 10000 4.12 80 23:48 03.04.2021
718 Clouds -2 1020 52 10000 3.6 70 23:29 03.04.2021
719 Clouds -2 1020 52 10000 5.14 80 22:52 03.04.2021
720 Clouds -2 1020 49 10000 4.63 0 22:22 03.04.2021
721 Clouds -2 1020 49 10000 2.06 0 21:52 03.04.2021
722 Clouds -2 1020 49 10000 2.57 0 21:25 03.04.2021
723 Clouds -2 1020 49 10000 3.6 0 20:54 03.04.2021
724 Clouds -1 1019 53 10000 3.09 0 20:28 03.04.2021
725 Clouds -1 1019 53 10000 3.09 0 19:51 03.04.2021
726 Clouds -4 1014 81 10000 0.45 151 19:27 03.04.2021
727 Clouds 0 1019 53 10000 3.09 0 18:53 03.04.2021
728 Clouds -2 1014 76 10000 1.79 60 18:34 03.04.2021
729 Clouds -2 1014 76 10000 1.79 60 18:34 03.04.2021
730 Clouds -2 1013 74 10000 1.34 57 17:55 03.04.2021
731 Clouds -2 1014 71 10000 1.34 348 17:26 03.04.2021
732 Clouds -1 1013 72 10000 2.24 284 16:54 03.04.2021
733 Clouds -1 1013 74 10000 0.89 89 16:28 03.04.2021
734 Clouds -2 1013 79 10000 2.24 295 15:52 03.04.2021
735 Clouds -2 1013 75 10000 3.13 313 15:31 03.04.2021
736 Clouds -2 1012 75 10000 1.34 321 14:49 03.04.2021
737 Clouds -2 1013 68 10000 1.34 299 14:26 03.04.2021
738 Clouds 0 1016 78 8444 1.341 315 13:55 03.04.2021
739 Clouds 0 1032 95 8444 2.682 0 13:35 03.04.2021
740 Clouds 0 1015 78 10000 1.341 0 12:59 03.04.2021
741 Clouds 0 1013 61 10000 3.59 4 12:35 03.04.2021
742 Clouds 0 1013 70 10000 0.89 216 11:54 03.04.2021
743 Clouds 0 1013 77 10000 0.89 316 11:30 03.04.2021
744 Clouds 3 1014 83 10000 3.65 355 10:45 03.04.2021
745 Clouds 3 1014 85 10000 3.77 356 10:27 03.04.2021
746 Clouds 2 1014 86 10000 3.77 356 09:42 03.04.2021
747 Clouds 1 1014 86 10000 3.6 356 09:23 03.04.2021
748 Clouds 1 1014 87 10000 3.6 356 08:38 03.04.2021
749 Clouds 1 1013 89 10000 3.55 348 07:47 03.04.2021
750 Clouds 1 1013 89 10000 3.73 345 07:26 03.04.2021
751 Clouds 2 1013 90 10000 3.54 338 04:24 03.04.2021
752 Clouds 3 1013 89 10000 3.48 340 02:57 03.04.2021
753 Clouds 3 1014 89 10000 3.48 340 02:34 03.04.2021
754 Clouds 1 1018 93 6872 3.26 337 00:51 03.04.2021
755 Clouds 6 1014 78 6381 0.89 33 00:18 03.04.2021
756 Clouds 6 1014 84 6381 2.95 338 23:44 02.04.2021
757 Clouds 6 1014 84 6379 2.98 340 23:19 02.04.2021
758 Clouds 6 1014 82 6379 2.98 340 22:44 02.04.2021
759 Clouds 6 1014 81 6478 3.42 341 22:25 02.04.2021
760 Clouds 6 1014 80 6478 0.45 216 21:42 02.04.2021
761 Clouds 4 1014 77 6428 3.3 341 21:19 02.04.2021
762 Clouds 3 1016 87 6428 0.45 95 20:45 02.04.2021
763 Clouds 3 1016 86 7160 1.79 64 20:25 02.04.2021
764 Clouds 7 1014 48 10000 4.12 0 19:42 02.04.2021
765 Clouds 4 1016 83 2331 0.45 181 19:23 02.04.2021
766 Clouds 8 1014 48 10000 5.14 40 18:48 02.04.2021
767 Clouds 8 1014 48 10000 4.12 50 18:30 02.04.2021
768 Clouds 9 1014 48 10000 5.14 30 17:57 02.04.2021
769 Clouds 9 1014 48 10000 5.14 30 17:32 02.04.2021
770 Clouds 10 1014 45 10000 4.12 0 16:43 02.04.2021
771 Clouds 10 1015 39 10000 2.06 220 15:50 02.04.2021
772 Clouds 10 1015 39 10000 2.57 230 15:28 02.04.2021
773 Clouds 11 1016 39 10000 4.12 260 14:41 02.04.2021
774 Clouds 12 1016 39 10000 2.57 270 14:21 02.04.2021
775 Clouds 12 1016 39 10000 2.57 260 13:39 02.04.2021
776 Clouds 11 1016 45 10000 3.09 260 13:19 02.04.2021
777 Clouds 10 1017 44 10000 3.09 260 12:38 02.04.2021
778 Clouds 10 1017 55 10000 2.06 280 12:19 02.04.2021
779 Clouds 11 1031 74 28 3.129 292 11:48 02.04.2021
780 Clouds 10 1031 75 22 2.682 315 11:19 02.04.2021
781 Clouds 9 1015 60 22 0.447 45 10:43 02.04.2021
782 Clouds 8 1018 71 10000 1.03 0 10:23 02.04.2021
783 Clouds 7 1016 66 97 1.65 334 09:46 02.04.2021
784 Clouds 6 1016 77 10000 1.47 327 09:24 02.04.2021
785 Clouds 6 1016 80 10000 1.47 327 08:46 02.04.2021
786 Clouds 6 1016 80 10000 1.47 327 08:46 02.04.2021
787 Clouds 4 1016 80 10000 1.4 315 08:26 02.04.2021
788 Clouds 4 1016 76 10000 1.4 306 07:20 02.04.2021
789 Clouds 4 1019 77 10000 1.4 306 06:34 02.04.2021
790 Clouds 5 1016 73 10000 2.235 112 03:40 02.04.2021
791 Clouds 6 1020 68 10000 1.26 299 01:40 02.04.2021
792 Clouds 7 1021 62 10000 1.35 304 00:43 02.04.2021
793 Clouds 7 1021 62 10000 1.35 304 00:43 02.04.2021
794 Clouds 6 1019 71 10000 1.54 130 23:47 01.04.2021
795 Clouds 6 1019 62 10000 2.06 90 23:27 01.04.2021
796 Clouds 7 1019 54 10000 2.57 100 22:41 01.04.2021
797 Clouds 7 1019 54 10000 3.09 100 22:18 01.04.2021
798 Clouds 8 1019 50 10000 4.12 100 21:42 01.04.2021
799 Clouds 8 1018 47 10000 4.12 90 21:22 01.04.2021
800 Clouds 8 1018 54 10000 3.6 90 20:41 01.04.2021
801 Clouds 8 1018 47 10000 4.12 90 20:21 01.04.2021
802 Clouds 10 1018 42 10000 1.03 0 19:41 01.04.2021
803 Clouds 10 1018 34 10000 0.51 0 19:20 01.04.2021
804 Clouds 12 1018 30 10000 1.54 260 18:44 01.04.2021
805 Clouds 12 1018 28 10000 1.03 0 18:18 01.04.2021
806 Clouds 13 1018 28 10000 3.09 260 17:41 01.04.2021
807 Clouds 13 1018 28 10000 1.54 0 17:23 01.04.2021
808 Clear 13 1018 33 10000 2.06 0 16:50 01.04.2021
809 Clouds 13 1018 30 10000 1.03 0 16:18 01.04.2021
810 Clouds 13 1018 30 10000 1.03 0 16:18 01.04.2021
811 Clouds 13 1018 30 10000 1.03 0 16:18 01.04.2021
812 Clear 12 1019 35 10000 2.06 270 15:40 01.04.2021
813 Clear 12 1019 35 10000 2.06 270 15:19 01.04.2021
814 Clear 12 1020 34 10000 3.09 270 14:40 01.04.2021
815 Clear 12 1020 34 10000 3.09 270 14:40 01.04.2021
816 Clear 12 1020 34 10000 3.09 270 14:40 01.04.2021
817 Clear 12 1020 34 10000 3.09 270 14:40 01.04.2021
818 Clear 12 1020 34 10000 3.09 270 14:40 01.04.2021
819 Clear 12 1020 34 10000 3.09 270 14:21 01.04.2021
820 Clear 12 1020 34 10000 3.09 270 13:50 01.04.2021
821 Clouds 12 1021 39 10000 2.06 280 13:29 01.04.2021
822 Clouds 11 1021 42 10000 2.06 270 12:47 01.04.2021
823 Clouds 12 1019 50 20 1.341 112 12:29 01.04.2021
824 Clouds 11 1035 59 20 1.341 337 11:45 01.04.2021
825 Clouds 11 1020 50 78 1.341 135 11:24 01.04.2021
826 Clouds 10 1020 54 78 1.341 112 10:53 01.04.2021
827 Clouds 9 1021 49 78 0.97 330 10:31 01.04.2021
828 Clouds 7 1021 53 10000 1.07 327 09:53 01.04.2021
829 Clouds 7 1021 60 10000 1.12 319 09:24 01.04.2021
830 Clouds 5 1021 67 10000 1.12 319 08:33 01.04.2021
831 Clouds 5 1021 69 10000 1.18 290 07:24 01.04.2021
832 Clouds 5 1021 69 10000 1.18 290 07:24 01.04.2021
833 Clouds 4 1021 70 10000 1.18 290 06:59 01.04.2021
834 Clouds 4 1021 69 10000 1.18 290 06:31 01.04.2021
835 Clouds 6 1022 68 10000 1.06 257 03:28 01.04.2021
836 Clouds 6 1024 58 10000 0.45 90 00:38 01.04.2021
837 Clouds 7 1024 53 10000 1.01 251 23:44 31.03.2021
838 Clouds 7 1024 52 10000 0.89 135 22:59 31.03.2021
839 Clouds 6 1023 57 10000 2.06 100 22:40 31.03.2021
840 Clouds 7 1023 57 10000 3.09 110 22:20 31.03.2021
841 Clouds 7 1023 50 10000 3.09 110 21:44 31.03.2021
842 Clouds 8 1023 50 10000 4.12 100 21:20 31.03.2021
843 Clouds 8 1022 54 10000 3.6 100 20:43 31.03.2021
844 Clouds 9 1022 54 10000 3.6 110 20:23 31.03.2021
845 Clouds 11 1022 44 10000 3.09 120 19:55 31.03.2021
846 Clouds 11 1022 44 10000 3.09 120 19:36 31.03.2021
847 Clouds 12 1022 37 10000 3.09 90 19:18 31.03.2021
848 Clouds 14 1022 35 10000 5.14 60 18:41 31.03.2021
849 Clouds 14 1022 28 10000 1.03 0 17:56 31.03.2021
850 Clouds 14 1022 28 10000 1.03 0 17:34 31.03.2021
851 Clear 14 1023 26 10000 1.54 0 16:58 31.03.2021
852 Clear 14 1023 26 10000 1.54 0 16:37 31.03.2021
853 Clear 14 1023 28 10000 1.03 0 16:19 31.03.2021
854 Clear 14 1024 32 10000 2.06 270 15:50 31.03.2021
855 Clouds 13 1024 30 10000 2.57 260 15:19 31.03.2021
856 Clouds 13 1025 34 10000 2.57 240 14:43 31.03.2021
857 Clouds 13 1025 30 10000 3.09 240 14:20 31.03.2021
858 Clouds 13 1025 34 10000 2.57 230 13:41 31.03.2021
859 Clouds 11 1026 41 10000 2.06 280 12:42 31.03.2021
860 Clouds 11 1024 40 20 1.788 112 12:21 31.03.2021
861 Clouds 10 1024 41 20 1.341 90 11:56 31.03.2021
862 Clouds 10 1025 41 45 1.341 112 11:21 31.03.2021
863 Clouds 11 1027 48 45 0.7 216 10:47 31.03.2021
864 Clear 10 1027 54 6862 0.45 293 10:25 31.03.2021
865 Clear 8 1026 47 6862 0.87 229 09:42 31.03.2021
866 Clear 7 1026 55 10000 0.97 228 08:59 31.03.2021
867 Clouds 6 1027 51 10000 0.89 234 08:38 31.03.2021
868 Clouds 5 1026 58 10000 1.11 238 07:52 31.03.2021
869 Clouds 5 1027 60 10000 1.24 238 06:46 31.03.2021
870 Clouds 6 1024 34 10000 4.023 112 03:51 31.03.2021
871 Clear 7 1029 66 10000 0.45 113 01:43 31.03.2021
872 Clouds 7 1029 63 10000 0.89 90 00:49 31.03.2021
873 Clouds 7 1026 33 10000 4.023 112 00:20 31.03.2021
874 Clouds 7 1026 34 10000 3.576 112 23:41 30.03.2021
875 Clouds 7 1029 58 10000 2.06 90 22:59 30.03.2021
876 Clouds 7 1029 58 10000 2.06 90 22:40 30.03.2021
877 Clouds 7 1029 66 10000 3.09 100 22:21 30.03.2021
878 Clouds 7 1029 66 10000 4.12 110 21:49 30.03.2021
879 Clouds 7 1029 62 10000 3.6 90 21:20 30.03.2021
880 Clouds 8 1029 66 10000 3.6 110 20:53 30.03.2021
881 Clouds 8 1029 66 10000 3.6 110 20:53 30.03.2021
882 Clouds 9 1028 54 10000 4.12 110 20:28 30.03.2021
883 Clouds 11 1028 48 10000 4.12 90 19:51 30.03.2021
884 Clouds 13 1028 30 10000 5.14 50 19:27 30.03.2021
885 Clouds 13 1028 37 10000 1.03 150 18:40 30.03.2021
886 Clouds 13 1029 28 10000 2.06 260 17:58 30.03.2021
887 Clouds 14 1029 28 10000 2.06 260 17:39 30.03.2021
888 Clouds 13 1029 32 10000 2.06 230 17:20 30.03.2021
889 Clear 13 1029 30 10000 2.57 240 16:45 30.03.2021
890 Clear 13 1029 32 10000 2.57 230 16:23 30.03.2021
891 Clear 14 1030 32 10000 4.12 250 15:21 30.03.2021
892 Clear 14 1031 31 10000 4.63 250 14:57 30.03.2021
893 Clear 14 1031 31 10000 4.63 250 14:22 30.03.2021
894 Clear 14 1031 39 10000 3.09 270 13:59 30.03.2021
895 Clear 14 1031 39 10000 3.09 270 13:37 30.03.2021
896 Clouds 14 1045 19 21 1.24 185 12:49 30.03.2021
897 Clouds 13 1030 31 59 1.788 90 12:28 30.03.2021
898 Clouds 12 1030 30 59 2.682 112 11:56 30.03.2021
899 Clouds 11 1030 30 3298 4.023 112 11:23 30.03.2021
900 Clouds 11 1046 23 3298 0.95 189 10:46 30.03.2021
901 Clouds 11 1033 59 10000 0.86 198 10:26 30.03.2021
902 Clouds 9 1033 46 10000 0.86 198 09:50 30.03.2021
903 Clouds 9 1046 24 10000 0.86 198 09:31 30.03.2021
904 Clouds 7 1031 58 10000 0.96 216 08:56 30.03.2021
905 Clouds 7 1033 42 10000 0.96 216 08:37 30.03.2021
906 Clear 5 1031 60 10000 1.14 230 07:51 30.03.2021
907 Clear 5 1033 62 10000 1.17 227 07:22 30.03.2021
908 Clear 5 1033 62 10000 1.25 221 05:26 30.03.2021
909 Clear 5 1033 61 10000 1.25 221 04:58 30.03.2021
910 Clouds 7 1048 30 10000 2.235 67 00:30 30.03.2021
911 Clouds 7 1048 33 10000 1.788 45 23:34 29.03.2021
912 Clouds 7 1033 70 10000 1.03 0 22:51 29.03.2021
913 Clouds 7 1033 66 10000 2.57 100 22:26 29.03.2021
914 Clouds 7 1033 66 10000 3.09 100 21:47 29.03.2021
915 Clouds 7 1033 61 10000 3.09 90 21:27 29.03.2021
916 Clouds 7 1032 66 10000 3.09 100 20:48 29.03.2021
917 Clouds 8 1032 62 10000 3.6 100 20:27 29.03.2021
918 Clouds 10 1032 41 10000 1.54 120 19:49 29.03.2021
919 Clouds 12 1032 44 10000 1.03 0 19:22 29.03.2021
920 Clouds 12 1032 39 10000 1.54 290 18:44 29.03.2021
921 Clouds 13 1032 27 10000 1.03 0 18:26 29.03.2021
922 Clouds 13 1032 27 10000 1.54 0 17:50 29.03.2021
923 Clouds 13 1032 25 10000 2.06 0 17:31 29.03.2021
924 Clouds 13 1032 29 10000 2.06 250 16:42 29.03.2021
925 Clear 12 1032 29 10000 3.09 260 16:24 29.03.2021
926 Clear 12 1032 25 10000 4.12 260 15:36 29.03.2021
927 Clear 11 1033 29 10000 2.57 260 15:18 29.03.2021
928 Clear 12 1033 29 10000 2.57 260 14:45 29.03.2021
929 Clouds 11 1033 31 10000 4.63 270 13:55 29.03.2021
930 Clouds 11 1033 41 10000 2.57 280 13:33 29.03.2021
931 Clouds 10 1033 33 10000 1.03 0 12:54 29.03.2021
932 Clouds 10 1033 33 10000 1.03 0 12:36 29.03.2021
933 Clouds 10 1033 38 247 3.576 112 11:43 29.03.2021
934 Clouds 8 1033 36 10000 4.023 112 11:25 29.03.2021
935 Clouds 8 1031 43 10000 0.42 12 10:43 29.03.2021
936 Clouds 7 1031 51 10000 0.57 359 10:18 29.03.2021
937 Clouds 5 1031 56 10000 0.64 313 09:25 29.03.2021
938 Clouds 2 1031 64 10000 0.5 319 08:30 29.03.2021
939 Clouds 1 1031 64 10000 0.65 276 07:54 29.03.2021
940 Clouds 1 1030 65 10000 0.87 270 06:57 29.03.2021
941 Clouds 2 1035 64 10000 0.88 267 05:45 29.03.2021
942 Clouds 2 1034 72 10000 1.07 246 02:32 29.03.2021
943 Clouds 2 1033 70 10000 1.05 256 00:27 29.03.2021
944 Clouds 2 1033 70 10000 1.05 256 23:57 28.03.2021
945 Clouds 2 1033 65 10000 2.06 100 23:25 28.03.2021
946 Clouds 2 1033 70 10000 2.06 90 22:43 28.03.2021
947 Clouds 3 1032 65 10000 3.09 90 22:25 28.03.2021
948 Clouds 3 1032 65 10000 2.57 90 21:47 28.03.2021
949 Clouds 3 1032 61 10000 2.57 100 21:24 28.03.2021
950 Clouds 3 1031 65 10000 2.57 110 20:53 28.03.2021
951 Clouds 3 1031 65 10000 2.57 110 20:35 28.03.2021
952 Clouds 5 1030 50 10000 0.51 0 19:56 28.03.2021
953 Clouds 5 1030 50 10000 0.51 0 19:38 28.03.2021
954 Clouds 6 1030 37 10000 1.54 110 19:20 28.03.2021
955 Clouds 8 1030 33 10000 2.06 240 18:37 28.03.2021
956 Clouds 8 1030 33 10000 4.12 260 17:59 28.03.2021
957 Clouds 7 1030 33 10000 4.12 260 17:37 28.03.2021
958 Clouds 7 1030 38 10000 2.06 240 16:56 28.03.2021
959 Clouds 7 1030 41 10000 2.06 230 16:28 28.03.2021
960 Clouds 7 1030 30 10000 3.6 250 15:57 28.03.2021
961 Clouds 7 1031 38 10000 3.6 270 15:24 28.03.2021
962 Clouds 6 1031 40 10000 3.6 260 14:46 28.03.2021
963 Clouds 7 1031 50 10000 3.09 230 14:18 28.03.2021
964 Clouds 7 1031 46 10000 3.09 260 13:35 28.03.2021
965 Clouds 5 1027 46 8734 1.01 198 12:56 28.03.2021
966 Clouds 6 1032 57 10000 1.54 290 12:34 28.03.2021
967 Clouds 5 1027 55 10000 0.76 205 11:52 28.03.2021
968 Clouds 5 1027 55 10000 0.76 205 11:32 28.03.2021
969 Clouds 4 1027 59 10000 0.68 233 10:48 28.03.2021
970 Clouds 2 1027 67 10000 0.78 231 10:29 28.03.2021
971 Clouds 2 1027 72 10000 0.78 231 09:51 28.03.2021
972 Clouds 1 1026 72 10000 1.11 238 09:28 28.03.2021
973 Clouds -1 1026 78 10000 1.11 238 08:51 28.03.2021
974 Clouds -1 1026 74 10000 1.11 238 08:33 28.03.2021
975 Clouds -1 1026 76 10000 1.58 228 07:41 28.03.2021
976 Clouds -3 1026 73 10000 1.3 220 06:20 28.03.2021
977 Clouds -3 1031 93 10000 2.57 90 03:50 28.03.2021
978 Clouds -2 1031 70 10000 2.57 80 00:36 28.03.2021
979 Clouds -3 1031 87 10000 3.09 100 23:53 27.03.2021
980 Clouds -2 1031 87 10000 3.09 100 23:34 27.03.2021
981 Clouds -2 1030 81 10000 0.51 0 22:40 27.03.2021
982 Clouds -2 1030 93 10000 2.06 110 22:21 27.03.2021
983 Clouds -2 1030 93 10000 2.57 100 21:42 27.03.2021
984 Clouds -1 1030 81 10000 2.57 90 21:21 27.03.2021
985 Clouds -1 1030 81 10000 2.57 110 20:56 27.03.2021
986 Clouds 0 1030 81 10000 2.57 110 20:37 27.03.2021
987 Clouds 0 1029 81 10000 2.06 90 19:56 27.03.2021
988 Clouds 0 1029 81 10000 2.06 90 19:37 27.03.2021
989 Clouds -3 1025 91 10000 1.79 359 19:18 27.03.2021
990 Clouds -2 1025 93 10000 1.34 27 18:41 27.03.2021
991 Clouds 2 1023 88 8303 2.81 336 18:20 27.03.2021
992 Clouds 2 1023 85 5514 2.9 337 17:29 27.03.2021
993 Clouds 1 1023 93 5514 0.89 80 16:58 27.03.2021
994 Clouds 3 1022 84 5514 2.9 337 16:38 27.03.2021
995 Clouds 1 1023 84 3700 0.45 70 16:20 27.03.2021
996 Clouds 1 1025 81 3700 2.24 63 15:39 27.03.2021
997 Clouds 1 1025 80 401 3.13 57 14:59 27.03.2021
998 Clouds 1 1025 82 401 2.68 65 14:38 27.03.2021
999 Clouds 4 1021 86 2067 2.12 325 13:39 27.03.2021
1000 Clouds 3 1021 85 384 1.76 315 13:19 27.03.2021
1001 Clouds 3 1021 87 384 1.76 315 12:43 27.03.2021
1002 Clouds 3 1021 87 306 1.64 311 11:50 27.03.2021
1003 Clouds 3 1021 88 306 1.64 311 11:31 27.03.2021
1004 Clouds 2 1020 92 452 1.62 316 10:49 27.03.2021
1005 Clouds 2 1020 92 452 1.62 316 10:30 27.03.2021
1006 Clouds 2 1020 93 3127 1.49 319 09:47 27.03.2021
1007 Clouds 2 1019 89 4560 1.52 319 09:20 27.03.2021
1008 Clouds 2 1019 88 4560 1.52 319 08:39 27.03.2021
1009 Clouds 2 1018 88 5585 1.45 309 07:52 27.03.2021
1010 Clouds 2 1018 86 2639 1.67 291 06:59 27.03.2021
1011 Snow 0 1020 99 2639 1.67 291 06:39 27.03.2021
1012 Snow 1 1017 79 3220 1.78 248 04:42 27.03.2021
1013 Clouds 2 1018 79 10000 3.23 172 02:26 27.03.2021
1014 Clouds 2 1019 77 10000 3.29 171 00:44 27.03.2021
1015 Clouds 1 1020 74 9931 3.14 174 00:25 27.03.2021
1016 Clouds 2 1019 76 10000 3.28 178 23:27 26.03.2021
1017 Clouds 2 1019 70 10000 1.03 0 22:40 26.03.2021
1018 Clouds 3 1019 65 10000 3.09 80 21:45 26.03.2021
1019 Clouds 3 1020 57 10000 2.06 110 21:23 26.03.2021
1020 Clouds 3 1019 61 10000 2.06 110 20:55 26.03.2021
1021 Clouds 3 1019 61 10000 2.06 120 20:31 26.03.2021
1022 Clouds 3 1019 61 10000 2.06 90 19:52 26.03.2021
1023 Clouds 3 1019 61 10000 2.06 90 19:33 26.03.2021
1024 Clouds 5 1018 41 10000 1.03 0 18:51 26.03.2021
1025 Clouds 5 1018 35 10000 2.06 240 18:31 26.03.2021
1026 Clouds 6 1018 38 10000 1.54 280 17:57 26.03.2021
1027 Clouds 7 1018 38 10000 1.54 280 17:35 26.03.2021
1028 Clouds 7 1018 36 10000 2.06 260 16:49 26.03.2021
1029 Clouds 8 1018 31 10000 2.06 240 16:22 26.03.2021
1030 Clouds 9 1018 29 10000 2.57 230 15:36 26.03.2021
1031 Clouds 9 1019 25 10000 3.6 260 14:45 26.03.2021
1032 Clouds 9 1019 31 10000 2.57 250 13:52 26.03.2021
1033 Clouds 10 1019 31 10000 2.57 250 13:52 26.03.2021
1034 Clouds 9 1020 38 10000 2.57 240 13:26 26.03.2021
1035 Clouds 8 1020 43 2557 0.447 180 12:40 26.03.2021
1036 Clouds 8 1038 78 10000 1.788 157 11:49 26.03.2021
1037 Clouds 8 1038 75 10000 1.788 67 11:30 26.03.2021
1038 Clouds 4 1023 49 10000 2.84 171 10:44 26.03.2021
1039 Clouds 4 1023 53 10000 2.67 171 10:23 26.03.2021
1040 Clouds 4 1019 56 10000 2.67 171 09:41 26.03.2021
1041 Clouds 2 1019 60 10000 2.42 173 08:49 26.03.2021
1042 Clouds 1 1019 65 10000 2.42 173 08:31 26.03.2021
1043 Clouds 1 1019 71 10000 2.11 188 07:57 26.03.2021
1044 Clouds 0 1023 81 10000 2.05 199 07:22 26.03.2021
1045 Clouds -1 1023 81 10000 2.05 199 06:56 26.03.2021
1046 Clear -1 1023 80 10000 1.75 205 05:32 26.03.2021
1047 Clear -1 1023 80 10000 1.24 222 04:18 26.03.2021
1048 Clear -1 1023 87 10000 1.03 0 00:52 26.03.2021
1049 Clouds 0 1024 72 10000 0.45 90 23:53 25.03.2021
1050 Clouds -1 1023 87 10000 2.06 80 23:33 25.03.2021
1051 Clouds 0 1023 81 10000 0.51 0 22:41 25.03.2021
1052 Clouds 0 1023 70 10000 0.51 0 22:19 25.03.2021
1053 Clouds 0 1023 70 10000 0.51 0 22:19 25.03.2021
1054 Clouds 1 1022 65 10000 3.09 100 21:45 25.03.2021
1055 Clouds 1 1022 65 10000 3.6 90 21:24 25.03.2021
1056 Clouds 1 1022 65 10000 3.09 90 20:38 25.03.2021
1057 Clouds 2 1022 61 10000 3.09 90 20:18 25.03.2021
1058 Clouds 2 1021 65 10000 3.09 100 19:40 25.03.2021
1059 Clouds 2 1021 61 10000 3.6 110 19:21 25.03.2021
1060 Clouds 3 1021 54 10000 2.06 110 18:44 25.03.2021
1061 Clouds 5 1021 38 10000 1.54 230 18:25 25.03.2021
1062 Clouds 6 1020 36 10000 1.54 210 17:40 25.03.2021
1063 Clouds 6 1021 36 10000 1.54 240 17:21 25.03.2021
1064 Clouds 6 1020 38 10000 2.57 250 16:37 25.03.2021
1065 Clouds 7 1020 31 10000 2.06 210 16:19 25.03.2021
1066 Clouds 8 1021 36 10000 2.57 230 15:41 25.03.2021
1067 Clouds 8 1021 36 10000 3.09 230 15:19 25.03.2021
1068 Clouds 7 1021 33 10000 3.09 230 14:41 25.03.2021
1069 Clouds 8 1021 30 10000 3.09 240 13:40 25.03.2021
1070 Clouds 7 1022 33 10000 3.6 240 13:20 25.03.2021
1071 Clouds 7 1022 32 10000 4.12 240 12:38 25.03.2021
1072 Clouds 7 1022 35 10000 4.63 260 12:19 25.03.2021
1073 Clouds 5 1022 40 10000 2.06 240 11:45 25.03.2021
1074 Clouds 5 1022 40 10000 1.54 220 11:26 25.03.2021
1075 Clouds 5 1024 44 9283 1.27 334 10:50 25.03.2021
1076 Clouds 5 1021 42 10000 1.34 79 10:22 25.03.2021
1077 Clouds 3 1024 51 10000 1.62 330 09:54 25.03.2021
1078 Clouds 4 1019 42 10000 1.62 330 09:36 25.03.2021
1079 Clouds 3 1019 55 10000 1.47 325 08:42 25.03.2021
1080 Clouds 0 1019 63 10000 1.13 300 07:57 25.03.2021
1081 Clouds -1 1025 69 10000 1.18 284 06:59 25.03.2021
1082 Clouds -1 1023 80 10000 1.13 278 06:24 25.03.2021
1083 Clouds -1 1024 79 10000 1.13 278 05:47 25.03.2021
1084 Clouds 0 1024 76 10000 1.22 280 02:43 25.03.2021
1085 Clear 0 1025 47 10000 3.576 112 00:21 25.03.2021
1086 Clear 0 1025 70 10000 1.13 285 23:50 24.03.2021
1087 Clear -1 1024 80 10000 1.2 290 23:25 24.03.2021
1088 Clear 0 1024 80 10000 1.03 0 22:43 24.03.2021
1089 Clear 0 1024 70 10000 1.26 293 22:20 24.03.2021
1090 Clear 1 1024 65 10000 1.26 293 21:42 24.03.2021
1091 Clear 1 1024 56 10000 2.06 110 21:21 24.03.2021
1092 Clear 1 1023 65 10000 3.09 100 20:41 24.03.2021
1093 Clear 1 1023 65 10000 3.09 100 20:19 24.03.2021
1094 Clear 2 1023 53 10000 3.6 90 19:35 24.03.2021
1095 Clouds 3 1022 49 10000 4.12 120 18:58 24.03.2021
1096 Clouds 4 1022 49 10000 4.12 120 18:39 24.03.2021
1097 Clouds 5 1022 40 10000 0.51 0 18:20 24.03.2021
1098 Clouds 6 1022 26 10000 1.03 0 17:41 24.03.2021
1099 Clouds 6 1022 28 10000 1.54 230 17:22 24.03.2021
1100 Clouds 6 1022 26 10000 2.06 220 16:42 24.03.2021
1101 Clouds 6 1022 26 10000 3.09 230 16:23 24.03.2021
1102 Clouds 6 1022 28 10000 3.6 250 15:43 24.03.2021
1103 Clouds 6 1022 26 10000 2.06 250 15:23 24.03.2021
1104 Clouds 6 1023 28 10000 2.57 260 14:42 24.03.2021
1105 Clouds 6 1023 23 10000 1.54 240 14:23 24.03.2021
1106 Clouds 6 1023 30 10000 1.54 230 13:50 24.03.2021
1107 Clear 5 1025 37 9529 1.74 337 13:25 24.03.2021
1108 Clear 4 1022 33 9965 0.89 99 12:41 24.03.2021
1109 Clear 3 1026 45 9304 1.53 340 12:21 24.03.2021
1110 Clear 4 1020 32 9304 1.53 340 11:42 24.03.2021
1111 Clear 4 1020 32 10000 1.72 341 10:54 24.03.2021
1112 Clear 4 1021 39 10000 1.72 341 10:35 24.03.2021
1113 Clear 4 1021 43 10000 1.76 338 09:58 24.03.2021
1114 Clear 2 1021 52 10000 1.76 338 09:37 24.03.2021
1115 Clear 2 1021 49 10000 1.56 331 09:18 24.03.2021
1116 Clear 0 1021 58 10000 1.56 331 08:46 24.03.2021
1117 Clear 0 1021 61 10000 1.25 310 08:24 24.03.2021
1118 Clear -4 1020 70 10000 1.21 295 07:25 24.03.2021
1119 Clear -3 1020 76 10000 1.21 295 06:49 24.03.2021
1120 Clear -4 1026 81 10000 3.576 112 03:21 24.03.2021
1121 Clouds -4 1044 97 10000 1.788 90 00:45 24.03.2021
1122 Clouds -4 1025 86 10000 1.03 0 23:53 23.03.2021
1123 Clouds -4 1025 93 10000 2.06 80 23:20 23.03.2021
1124 Clouds -3 1025 80 10000 1.03 0 22:51 23.03.2021
1125 Clouds -3 1025 81 10000 3.09 80 22:27 23.03.2021
1126 Clouds -2 1025 75 10000 3.09 90 21:47 23.03.2021
1127 Clouds -2 1025 75 10000 4.12 110 21:29 23.03.2021
1128 Clouds -1 1025 70 10000 3.6 110 20:47 23.03.2021
1129 Clouds 0 1024 53 10000 2.57 40 20:26 23.03.2021
1130 Clouds 1 1024 49 10000 5.66 60 19:55 23.03.2021
1131 Clouds 1 1023 49 10000 6.17 60 19:26 23.03.2021
1132 Clouds 1 1023 49 10000 5.66 40 18:59 23.03.2021
1133 Clouds 2 1023 49 10000 5.66 40 18:37 23.03.2021
1134 Clouds 2 1023 46 10000 6.69 60 18:18 23.03.2021
1135 Clouds 2 1023 46 10000 6.69 50 17:42 23.03.2021
1136 Clouds 3 1019 66 10000 0.89 9 17:20 23.03.2021
1137 Clouds 3 1019 55 10000 0.45 283 16:25 23.03.2021
1138 Clouds 3 1019 55 10000 0.45 283 16:25 23.03.2021
1139 Clouds 3 1018 55 10000 1.34 328 15:48 23.03.2021
1140 Clouds 2 1025 51 10000 2.24 65 15:23 23.03.2021
1141 Clouds 3 1018 48 10000 0.45 358 14:45 23.03.2021
1142 Clouds 3 1018 50 10000 1.79 114 14:19 23.03.2021
1143 Clouds 2 1026 53 10000 2.14 8 13:47 23.03.2021
1144 Clouds 1 1026 54 10000 2.09 13 13:24 23.03.2021
1145 Clouds 2 1018 58 10000 2.09 13 12:44 23.03.2021
1146 Clouds 2 1019 57 10000 2.04 14 12:24 23.03.2021
1147 Clouds 2 1019 55 10000 2.04 14 11:48 23.03.2021
1148 Clouds 1 1019 58 10000 2.17 12 11:18 23.03.2021
1149 Clouds 0 1019 63 10000 2.17 12 10:42 23.03.2021
1150 Clouds -1 1019 67 10000 2.34 7 10:20 23.03.2021
1151 Clouds -2 1019 66 10000 2.34 7 09:49 23.03.2021
1152 Clouds -1 1019 68 10000 2.1 3 09:22 23.03.2021
1153 Clouds -3 1016 58 10000 2.1 3 08:54 23.03.2021
1154 Clouds -3 1016 62 10000 2.1 3 08:36 23.03.2021
1155 Clear -4 1019 78 10000 1.22 357 08:18 23.03.2021
1156 Clouds -5 1024 80 10000 2.682 112 07:26 23.03.2021
1157 Clouds -6 1024 80 10000 1.341 112 06:52 23.03.2021
1158 Clouds -7 1023 69 10000 7.2 50 03:24 23.03.2021
1159 Clouds -6 1023 75 10000 5.66 50 02:22 23.03.2021
1160 Clouds -5 1023 70 10000 5.66 60 23:46 22.03.2021
1161 Clouds -5 1023 65 10000 6.17 50 22:59 22.03.2021
1162 Clouds -5 1023 65 10000 6.17 50 22:39 22.03.2021
1163 Clouds -5 1023 65 10000 5.66 40 22:20 22.03.2021
1164 Clouds -5 1023 60 10000 4.63 70 21:43 22.03.2021
1165 Clouds -5 1022 60 10000 6.69 60 21:24 22.03.2021
1166 Clouds -4 1022 56 10000 3.6 30 20:42 22.03.2021
1167 Clouds -4 1022 60 10000 5.14 30 20:23 22.03.2021
1168 Clouds -4 1022 60 10000 4.12 0 19:57 22.03.2021
1169 Clouds -4 1022 60 10000 4.12 0 19:37 22.03.2021
1170 Clouds -4 1041 95 7425 1.341 315 19:19 22.03.2021
1171 Clouds -3 1022 80 8426 1.341 0 18:40 22.03.2021
1172 Clouds -1 1014 74 7510 3.13 336 18:21 22.03.2021
1173 Clouds -2 1014 72 7510 3.58 305 17:48 22.03.2021
1174 Clouds -2 1014 67 7484 3.13 324 17:22 22.03.2021
1175 Clouds -2 1021 63 7484 1.34 24 16:47 22.03.2021
1176 Clouds 1 1013 65 7326 2.68 338 16:22 22.03.2021
1177 Clouds -1 1021 64 7326 1.79 34 15:39 22.03.2021
1178 Clouds -2 1021 63 7278 2.24 17 15:20 22.03.2021
1179 Clouds 1 1013 66 7278 4.02 323 14:57 22.03.2021
1180 Clouds 1 1013 64 7278 3.13 342 14:34 22.03.2021
1181 Clouds 1 1013 64 7424 3.58 311 13:49 22.03.2021
1182 Clouds 0 1013 65 8442 3.58 327 13:28 22.03.2021
1183 Clouds 0 1013 64 8442 2.68 335 12:56 22.03.2021
1184 Clouds 1 1013 62 10000 3.13 330 12:26 22.03.2021
1185 Clouds 0 1013 64 10000 2.68 293 11:50 22.03.2021
1186 Clouds 0 1013 70 10000 0.45 221 11:29 22.03.2021
1187 Clouds 0 1013 75 10000 0.45 247 10:46 22.03.2021
1188 Clouds -3 1010 66 10000 0.89 66 10:26 22.03.2021
1189 Clouds -3 1010 65 10000 1.34 119 09:53 22.03.2021
1190 Clouds -2 1012 81 10000 4.75 348 09:32 22.03.2021
1191 Clouds -4 1012 85 6979 4.71 348 08:47 22.03.2021
1192 Clouds -4 1012 87 6709 4.67 346 08:28 22.03.2021
1193 Clouds -5 1012 91 6709 4.67 346 07:50 22.03.2021
1194 Clouds -5 1012 91 6709 4.67 346 07:31 22.03.2021
1195 Clouds -7 1021 90 6758 4.51 343 06:51 22.03.2021
1196 Clouds -7 1021 90 6758 4.51 343 06:51 22.03.2021
1197 Clouds -6 1019 80 10000 4.37 339 02:51 22.03.2021
1198 Clouds -6 1019 75 10000 4.22 338 00:49 22.03.2021
1199 Clouds -7 1021 91 6731 4.06 336 23:59 21.03.2021
1200 Clouds -6 1020 75 10000 4.06 336 23:39 21.03.2021
1201 Clouds -7 1022 90 6641 4.5 336 23:18 21.03.2021
1202 Clouds -7 1022 90 6641 4.5 336 22:43 21.03.2021
1203 Rain -5 1020 56 10000 5.66 40 21:43 21.03.2021
1204 Clouds -8 1010 89 7356 2.24 43 21:25 21.03.2021
1205 Clouds -5 1019 56 10000 1.54 30 20:57 21.03.2021
1206 Clouds -5 1019 56 10000 1.54 30 20:38 21.03.2021
1207 Clouds -5 1019 56 10000 4.12 60 20:19 21.03.2021
1208 Clouds -7 1011 87 6669 1.34 58 19:40 21.03.2021
1209 Clouds -5 1010 89 6789 1.34 94 19:19 21.03.2021
1210 Snow -5 1010 90 6753 2.24 78 18:41 21.03.2021
1211 Clouds -3 1011 75 6725 1.79 303 18:18 21.03.2021
1212 Clouds -3 1011 74 6725 2.24 318 17:42 21.03.2021
1213 Clouds -2 1011 72 6769 2.24 344 17:18 21.03.2021
1214 Clouds -2 1011 68 6769 1.34 301 16:50 21.03.2021
1215 Snow -2 1011 68 7131 1.34 323 16:23 21.03.2021
1216 Snow -2 1012 68 7131 1.79 36 15:48 21.03.2021
1217 Snow -2 1012 67 5017 2.24 328 15:22 21.03.2021
1218 Snow -2 1012 69 5017 1.79 45 14:48 21.03.2021
1219 Snow -2 1012 69 6064 0.45 243 14:27 21.03.2021
1220 Snow -2 1012 69 6064 5.01 341 13:59 21.03.2021
1221 Snow -1 1012 68 6064 5.01 341 13:40 21.03.2021
1222 Clouds -1 1012 62 6972 4.93 344 12:44 21.03.2021
1223 Clouds -1 1012 63 8237 4.64 342 12:25 21.03.2021
1224 Clouds -1 1012 63 8237 4.64 342 12:25 21.03.2021
1225 Clouds -2 1013 59 8237 4.64 342 11:42 21.03.2021
1226 Clouds -2 1013 62 10000 4.51 341 11:24 21.03.2021
1227 Clouds -3 1013 61 10000 4.51 341 10:48 21.03.2021
1228 Clouds -3 1013 61 10000 4.76 342 10:29 21.03.2021
1229 Clouds -5 1013 76 10000 4.76 342 09:51 21.03.2021
1230 Clouds -5 1013 75 10000 4.76 342 09:32 21.03.2021
1231 Clouds -5 1013 74 10000 4.49 341 08:59 21.03.2021
1232 Clouds -6 1014 81 10000 4.49 341 08:36 21.03.2021
1233 Clouds -7 1014 85 10000 3.73 336 08:18 21.03.2021
1234 Clouds -8 1014 85 10000 3.22 334 07:29 21.03.2021
1235 Clouds -8 1014 87 10000 3.23 337 06:21 21.03.2021
1236 Clouds -8 1015 88 10000 3.45 341 04:52 21.03.2021
1237 Clouds -11 1013 74 10000 2.33 341 00:58 21.03.2021
1238 Clouds -11 1013 75 10000 2.4 339 00:38 21.03.2021
1239 Clouds -9 1023 74 10000 3.6 100 00:20 21.03.2021
1240 Clouds -10 1024 74 10000 3.6 80 23:45 20.03.2021
1241 Clouds -10 1023 74 10000 3.09 80 23:19 20.03.2021
1242 Clouds -9 1023 59 10000 2.57 100 22:24 20.03.2021
1243 Clouds -9 1023 59 10000 3.09 50 21:49 20.03.2021
1244 Clouds -9 1023 55 10000 4.63 40 21:27 20.03.2021
1245 Clouds -8 1023 47 10000 1.54 0 20:50 20.03.2021
1246 Clouds -8 1023 47 10000 2.06 0 20:25 20.03.2021
1247 Clouds -8 1023 47 10000 2.06 0 20:25 20.03.2021
1248 Clouds -8 1023 47 10000 3.09 50 19:56 20.03.2021
1249 Clouds -7 1023 47 10000 3.09 50 19:38 20.03.2021
1250 Clouds -7 1022 47 10000 2.57 0 19:20 20.03.2021
1251 Clouds -6 1022 44 10000 1.54 0 18:44 20.03.2021
1252 Clouds -6 1022 48 10000 2.57 0 18:21 20.03.2021
1253 Clouds -6 1022 44 10000 2.06 0 17:42 20.03.2021
1254 Clouds -6 1014 63 9411 3.58 341 17:22 20.03.2021
1255 Clouds -5 1022 48 10000 2.57 0 16:43 20.03.2021
1256 Clouds -5 1014 65 10000 4.02 2 16:20 20.03.2021
1257 Clouds -4 1014 65 10000 4.47 335 15:44 20.03.2021
1258 Clouds -3 1023 51 10000 3.13 70 15:25 20.03.2021
1259 Clouds -2 1012 74 10000 4.25 351 14:41 20.03.2021
1260 Clouds -3 1014 59 10000 3.99 352 14:20 20.03.2021
1261 Clouds -3 1012 70 10000 3.99 352 13:31 20.03.2021
1262 Clouds -3 1015 66 10000 3.88 358 12:42 20.03.2021
1263 Clouds -3 1015 64 10000 3.91 1 12:23 20.03.2021
1264 Clouds -3 1015 64 10000 3.91 1 12:23 20.03.2021
1265 Clouds -4 1015 69 10000 3.91 1 11:44 20.03.2021
1266 Clouds -4 1023 80 10000 1.341 315 11:23 20.03.2021
1267 Clouds -5 1015 79 10000 3.89 2 10:47 20.03.2021
1268 Clouds -6 1022 80 10000 1.341 22 10:25 20.03.2021
1269 Clouds -7 1014 84 10000 0.45 24 09:53 20.03.2021
1270 Clouds -8 1023 86 9044 1.34 42 09:23 20.03.2021
1271 Clouds -6 1013 88 9044 0.45 1 08:55 20.03.2021
1272 Clouds -8 1021 82 7696 0.894 22 08:27 20.03.2021
1273 Clouds -8 1040 93 7696 3.03 359 07:49 20.03.2021
1274 Clouds -8 1040 93 7696 3.03 359 07:49 20.03.2021
1275 Snow -8 1021 80 10000 5.66 60 07:29 20.03.2021
1276 Snow -8 1021 80 10000 4.63 70 06:41 20.03.2021
1277 Snow -8 1020 74 10000 3.09 0 05:29 20.03.2021
1278 Snow -8 1020 80 10000 3.6 0 03:45 20.03.2021
1279 Clouds -7 1020 75 10000 4.12 0 01:43 20.03.2021
1280 Rain -7 1019 80 10000 2.57 0 23:48 19.03.2021
1281 Rain -7 1019 80 10000 2.57 0 23:48 19.03.2021
1282 Clouds -7 1019 80 10000 4.12 80 23:21 19.03.2021
1283 Snow -7 1019 80 3700 3.09 80 22:45 19.03.2021
1284 Clouds -7 1019 80 10000 4.12 0 22:24 19.03.2021
1285 Snow -7 1018 80 10000 4.63 80 21:51 19.03.2021
1286 Snow -7 1018 93 2000 4.12 70 21:21 19.03.2021
1287 Snow -6 1017 86 2400 5.66 70 20:46 19.03.2021
1288 Clouds -6 1017 69 10000 2.06 0 20:27 19.03.2021
1289 Rain -6 1017 65 10000 3.09 0 19:52 19.03.2021
1290 Clouds -5 1016 45 10000 1.03 0 19:25 19.03.2021
1291 Clouds -5 1016 41 10000 3.6 0 18:56 19.03.2021
1292 Clouds -4 1016 41 10000 3.6 0 18:36 19.03.2021
1293 Snow -6 1019 64 7560 2.12 359 18:18 19.03.2021
1294 Snow -3 1015 38 10000 1.54 0 17:42 19.03.2021
1295 Snow -2 1009 58 4856 0.89 292 17:22 19.03.2021
1296 Snow -2 1009 58 4856 0.89 313 16:44 19.03.2021
1297 Snow -2 1009 62 2067 0.89 288 16:26 19.03.2021
1298 Snow -1 1009 58 2067 1.98 17 15:34 19.03.2021
1299 Snow -2 1009 55 1621 1.95 31 14:54 19.03.2021
1300 Snow -3 1018 48 1621 0.45 71 14:35 19.03.2021
1301 Snow -3 1009 54 1671 0.89 196 13:54 19.03.2021
1302 Snow -3 1009 58 3193 1.34 175 13:21 19.03.2021
1303 Snow -3 1009 58 3193 0.45 191 12:48 19.03.2021
1304 Clouds -3 1009 59 8970 0.45 186 12:24 19.03.2021
1305 Clouds -4 1009 61 8970 0.45 184 11:34 19.03.2021
1306 Clouds -4 1009 56 10000 1.15 87 10:52 19.03.2021
1307 Clouds -6 1009 58 10000 1.15 74 10:25 19.03.2021
1308 Clouds -6 1009 63 10000 1.15 74 09:46 19.03.2021
1309 Clouds -7 1009 66 10000 0.44 92 09:26 19.03.2021
1310 Clouds -9 1009 70 10000 0.44 92 08:52 19.03.2021
1311 Clouds -8 1008 71 10000 0.48 194 08:29 19.03.2021
1312 Clouds -10 1008 79 10000 0.48 194 07:50 19.03.2021
1313 Clouds -13 1004 69 10000 0.48 194 07:32 19.03.2021
1314 Clouds -13 1004 79 10000 0.59 167 05:54 19.03.2021
1315 Clouds -9 1035 92 10000 0.5 26 02:36 19.03.2021
1316 Clouds -10 1017 80 10000 1.03 70 23:57 18.03.2021
1317 Clouds -10 1017 86 10000 1.03 120 23:29 18.03.2021
1318 Clouds -10 1017 80 10000 1.54 120 22:54 18.03.2021
1319 Clouds -10 1018 93 10000 1.54 90 22:27 18.03.2021
1320 Clouds -9 1018 80 10000 2.06 80 21:55 18.03.2021
1321 Clouds -9 1018 80 10000 2.06 80 21:36 18.03.2021
1322 Clouds -8 1018 74 10000 1.54 90 20:43 18.03.2021
1323 Clouds -8 1018 74 10000 1.54 90 20:43 18.03.2021
1324 Clouds -7 1018 69 10000 1.54 60 20:23 18.03.2021
1325 Clouds -7 1018 69 10000 1.03 0 19:43 18.03.2021
1326 Clouds -7 1018 55 10000 2.06 150 19:24 18.03.2021
1327 Clouds -7 1018 69 10000 1.54 0 18:52 18.03.2021
1328 Clouds -9 1011 81 9344 2.23 353 18:26 18.03.2021
1329 Clouds -9 1011 81 9344 2.23 353 18:26 18.03.2021
1330 Rain -5 1018 65 10000 2.06 260 17:44 18.03.2021
1331 Clouds -3 1011 68 7335 2.64 356 17:20 18.03.2021
1332 Clouds -3 1011 70 7335 2.64 356 16:41 18.03.2021
1333 Snow -2 1011 68 3063 2.67 360 16:23 18.03.2021
1334 Snow -2 1011 70 3063 0.45 127 15:41 18.03.2021
1335 Snow -2 1012 62 3400 0.45 292 15:23 18.03.2021
1336 Snow -2 1020 59 3400 1.34 65 14:49 18.03.2021
1337 Snow -3 1021 61 2584 0.89 51 14:23 18.03.2021
1338 Snow -2 1012 69 2584 2.48 9 13:43 18.03.2021
1339 Snow -2 1013 73 3669 2.74 9 13:25 18.03.2021
1340 Snow -2 1013 70 3885 2.77 7 12:40 18.03.2021
1341 Clouds -3 1021 68 7131 2.24 49 12:22 18.03.2021
1342 Clouds -4 1022 71 7131 1.34 66 11:46 18.03.2021
1343 Clouds -5 1011 77 7842 2.78 10 11:25 18.03.2021
1344 Clouds -3 1013 78 7842 2.78 10 10:42 18.03.2021
1345 Clouds -6 1011 90 8934 2.59 9 10:23 18.03.2021
1346 Clouds -4 1014 81 8934 2.59 9 09:53 18.03.2021
1347 Clouds -7 1011 87 8469 2.48 359 09:27 18.03.2021
1348 Clouds -5 1014 88 8469 2.48 359 08:46 18.03.2021
1349 Clouds -8 1011 93 8095 2.11 345 08:26 18.03.2021
1350 Clouds -8 1022 94 8095 2.68 43 07:48 18.03.2021
1351 Clouds -7 1021 93 7000 0.51 0 06:50 18.03.2021
1352 Rain -7 1021 93 10000 1.55 337 06:26 18.03.2021
1353 Clouds -7 1021 93 10000 1.03 0 05:28 18.03.2021
1354 Clouds -6 1021 79 8137 0.447 292 00:51 18.03.2021
1355 Clouds -5 1021 82 7858 4.917 292 23:58 17.03.2021
1356 Clouds -6 1023 99 6823 2.74 329 22:44 17.03.2021
1357 Snow -4 1013 91 5196 3.16 328 22:24 17.03.2021
1358 Snow -4 1014 90 5196 3.16 328 21:53 17.03.2021
1359 Snow -4 1014 91 5196 3.16 328 21:33 17.03.2021
1360 Snow -4 1014 90 2157 3.43 331 20:58 17.03.2021
1361 Snow -4 1014 88 2157 3.43 331 20:40 17.03.2021
1362 Snow -6 1022 98 3761 3.46 332 20:20 17.03.2021
1363 Snow -4 1014 83 3761 0.45 342 19:43 17.03.2021
1364 Clouds -4 1014 90 6391 3.18 333 19:21 17.03.2021
1365 Snow -5 1021 99 6391 3.18 333 18:52 17.03.2021
1366 Snow -4 1013 88 4877 3.34 339 18:32 17.03.2021
1367 Snow -5 1019 99 6204 3.26 342 17:43 17.03.2021
1368 Clouds -2 1013 74 8842 0.45 341 17:23 17.03.2021
1369 Clouds -1 1013 69 8842 3.47 346 16:43 17.03.2021
1370 Clouds -1 1013 69 9027 0.45 5 16:21 17.03.2021
1371 Clouds -1 1013 69 9027 0.89 27 15:49 17.03.2021
1372 Snow -1 1013 70 9027 0.45 134 15:30 17.03.2021
1373 Snow -1 1013 85 7628 4.04 350 14:43 17.03.2021
1374 Snow -1 1013 86 2590 4.39 348 14:21 17.03.2021
1375 Snow -1 1013 86 2590 4.39 348 13:55 17.03.2021
1376 Snow -2 1013 86 1683 4.43 347 13:27 17.03.2021
1377 Snow -2 1013 88 1683 4.43 347 12:50 17.03.2021
1378 Snow -2 1013 88 838 4.33 340 12:29 17.03.2021
1379 Snow -2 1013 88 861 4.32 341 11:50 17.03.2021
1380 Snow -2 1013 90 864 4.17 340 11:23 17.03.2021
1381 Snow -2 1013 90 864 4.17 340 10:54 17.03.2021
1382 Snow -3 1013 90 2737 3.98 339 10:25 17.03.2021
1383 Snow -3 1013 91 2737 3.98 339 09:48 17.03.2021
1384 Snow -3 1013 91 2737 3.98 339 09:48 17.03.2021
1385 Snow -3 1013 91 2938 3.88 337 09:25 17.03.2021
1386 Snow -4 1013 91 2938 3.88 337 08:56 17.03.2021
1387 Snow -3 1013 91 2938 3.88 337 08:36 17.03.2021
1388 Snow -4 1013 92 2519 3.86 334 07:48 17.03.2021
1389 Snow -4 1012 92 2519 3.86 334 07:30 17.03.2021
1390 Snow -4 1012 92 2397 3.62 331 06:39 17.03.2021
1391 Snow -4 1013 92 1947 2.59 327 04:21 17.03.2021
1392 Snow -4 1013 92 2137 2.33 328 02:50 17.03.2021
1393 Snow -7 1024 99 3014 2.21 319 00:40 17.03.2021
1394 Clouds -7 1025 99 9806 2.41 315 23:29 16.03.2021
1395 Clouds -7 1025 99 9806 2.41 315 22:51 16.03.2021
1396 Clouds -8 1025 99 9806 2.41 315 22:33 16.03.2021
1397 Clouds -5 1043 95 10000 3.129 247 21:49 16.03.2021
1398 Clouds -5 1043 95 10000 4.023 225 21:31 16.03.2021
1399 Clouds -8 1026 99 10000 2.93 316 20:59 16.03.2021
1400 Clouds -8 1026 99 10000 2.93 316 20:59 16.03.2021
1401 Clouds -5 1025 79 9125 4.47 270 20:20 16.03.2021
1402 Clouds -5 1025 79 9125 6.706 270 19:58 16.03.2021
1403 Clouds -5 1026 79 9125 4.47 270 19:40 16.03.2021
1404 Clouds -6 1025 91 7451 1.34 0 19:20 16.03.2021
1405 Clouds -6 1024 99 7027 3.63 325 18:40 16.03.2021
1406 Snow -4 1016 80 6820 3.95 328 18:21 16.03.2021
1407 Snow -3 1016 78 6820 3.95 328 17:47 16.03.2021
1408 Snow -3 1016 78 6696 4.37 329 17:29 16.03.2021
1409 Snow -3 1016 73 6696 4.37 329 16:52 16.03.2021
1410 Snow -2 1016 71 5596 4.47 330 16:28 16.03.2021
1411 Snow -2 1016 70 5596 4.47 330 15:47 16.03.2021
1412 Snow -2 1016 71 3008 4.43 330 15:21 16.03.2021
1413 Snow -1 1016 68 3008 4.43 330 14:58 16.03.2021
1414 Snow -2 1016 69 3008 0.45 322 14:40 16.03.2021
1415 Snow -1 1016 61 2869 0.45 215 14:20 16.03.2021
1416 Snow -1 1017 62 2869 0.45 310 13:49 16.03.2021
1417 Snow -2 1017 66 2997 0.45 262 13:26 16.03.2021
1418 Snow -2 1017 65 2719 1.79 330 12:53 16.03.2021
1419 Snow -4 1025 82 2719 4.72 330 12:34 16.03.2021
1420 Snow -2 1017 73 4388 0.89 116 11:53 16.03.2021
1421 Snow -3 1017 75 5892 0.45 234 11:24 16.03.2021
1422 Snow -2 1016 69 6174 0.45 269 10:28 16.03.2021
1423 Snow -3 1016 78 6174 0.45 173 09:59 16.03.2021
1424 Snow -4 1015 86 6174 0.89 322 09:38 16.03.2021
1425 Snow -4 1015 84 6027 0.45 179 09:18 16.03.2021
1426 Snow -4 1014 84 6027 4.92 326 08:48 16.03.2021
1427 Snow -4 1014 85 6027 4.92 326 08:30 16.03.2021
1428 Snow -5 1014 82 5197 2.24 238 07:36 16.03.2021
1429 Snow -7 1024 99 2559 4.24 335 06:57 16.03.2021
1430 Snow -7 1024 99 2559 4.24 335 06:35 16.03.2021
1431 Snow -5 1013 85 3302 0.45 253 05:35 16.03.2021
1432 Snow -4 1012 86 1866 2.68 155 02:46 16.03.2021
1433 Snow -4 1012 90 852 1.34 224 02:24 16.03.2021
1434 Snow -4 1011 93 3158 3.56 321 00:25 16.03.2021
1435 Snow -4 1011 93 1892 3.57 333 23:29 15.03.2021
1436 Snow -4 1011 93 1892 3.57 333 22:56 15.03.2021
1437 Snow -4 1011 93 1892 3.57 333 22:56 15.03.2021
1438 Snow -4 1011 91 1892 3.57 333 22:36 15.03.2021
1439 Snow -4 1011 92 865 0.45 302 22:18 15.03.2021
1440 Snow -4 1011 93 865 0.45 196 21:39 15.03.2021
1441 Snow -3 1011 93 141 0.45 214 21:21 15.03.2021
1442 Snow -3 1011 93 141 1.79 207 20:44 15.03.2021
1443 Snow -3 1010 92 369 4.18 342 20:25 15.03.2021
1444 Snow -3 1010 92 369 4.18 342 19:56 15.03.2021
1445 Snow -3 1009 90 369 0.45 271 19:35 15.03.2021
1446 Snow -2 1009 89 252 4.21 340 18:58 15.03.2021
1447 Snow -2 1009 88 252 0.45 164 18:33 15.03.2021
1448 Snow -2 1008 91 865 4.11 336 17:57 15.03.2021
1449 Snow -2 1008 92 865 4.11 336 17:39 15.03.2021
1450 Snow -2 1008 91 237 4.85 337 17:21 15.03.2021
1451 Snow -2 1008 92 237 4.85 337 16:42 15.03.2021
1452 Snow -2 1008 92 404 4.93 335 15:55 15.03.2021
1453 Snow -2 1008 91 114 4.64 323 15:28 15.03.2021
1454 Snow -2 1008 90 114 4.64 323 14:47 15.03.2021
1455 Snow -1 1007 89 152 3.58 332 14:28 15.03.2021
1456 Snow -1 1007 85 152 3.58 332 13:59 15.03.2021
1457 Snow -1 1007 84 152 3.58 332 13:35 15.03.2021
1458 Snow -1 1008 91 113 3.11 329 12:51 15.03.2021
1459 Snow -2 1008 91 117 2.77 319 12:21 15.03.2021
1460 Snow -2 1008 90 117 2.77 319 11:59 15.03.2021
1461 Snow -3 1008 91 117 2.77 319 11:40 15.03.2021
1462 Snow -3 1008 91 117 2.57 324 11:21 15.03.2021
1463 Snow -3 1008 92 117 2.57 324 10:41 15.03.2021
1464 Snow -3 1008 92 160 2.16 300 10:22 15.03.2021
1465 Snow -3 1008 92 160 2.16 300 09:41 15.03.2021
1466 Snow -4 1008 92 250 2.41 293 09:21 15.03.2021
1467 Snow -4 1008 92 250 2.41 293 08:45 15.03.2021
1468 Snow -4 1008 93 458 2.18 286 08:22 15.03.2021
1469 Snow -4 1008 93 458 2.18 286 07:34 15.03.2021
1470 Snow -4 1008 93 587 2.28 297 06:52 15.03.2021
1471 Snow -4 1008 93 380 2.99 311 05:36 15.03.2021
1472 Snow -4 1009 89 108 3.02 320 03:20 15.03.2021
1473 Snow -4 1009 93 238 3.26 325 00:42 15.03.2021
1474 Snow -4 1010 91 105 0.45 261 23:24 14.03.2021
1475 Snow -4 1009 92 105 3.39 322 22:49 14.03.2021
1476 Snow -4 1010 91 323 3.33 331 22:28 14.03.2021
1477 Snow -4 1010 89 323 3.33 331 21:53 14.03.2021
1478 Snow -4 1010 89 163 2.68 312 21:24 14.03.2021
1479 Snow -5 1016 93 163 0.45 9 20:52 14.03.2021
1480 Snow -5 1016 93 163 0.45 9 20:52 14.03.2021
1481 Snow -4 1010 89 163 0.89 105 20:31 14.03.2021
1482 Snow -3 1009 88 201 0.89 20 19:59 14.03.2021
1483 Snow -4 1009 89 201 3.81 324 19:41 14.03.2021
1484 Snow -3 1009 85 1606 0.45 306 19:18 14.03.2021
1485 Snow -3 1009 85 480 0.45 306 19:18 14.03.2021
1486 Snow -3 1009 86 1606 0.45 231 18:36 14.03.2021
1487 Snow -4 1008 91 520 5.38 331 17:54 14.03.2021
1488 Snow -4 1008 91 520 5.38 331 17:36 14.03.2021
1489 Snow -4 1008 91 538 5.32 329 17:18 14.03.2021
1490 Snow -4 1007 90 538 5.32 329 16:40 14.03.2021
1491 Snow -4 1007 89 126 5 331 16:19 14.03.2021
1492 Snow -4 1007 87 126 5 331 15:42 14.03.2021
1493 Snow -4 1007 86 193 4.01 336 14:51 14.03.2021
1494 Snow -4 1008 85 193 4.01 336 14:30 14.03.2021
1495 Snow -3 1008 84 1109 4.31 340 13:53 14.03.2021
1496 Snow -2 1008 74 1109 0.45 220 13:34 14.03.2021
1497 Snow -2 1008 77 1119 4.95 338 12:56 14.03.2021
1498 Snow -2 1008 77 1138 4.72 338 12:56 14.03.2021
1499 Snow -2 1008 78 1119 4.95 338 12:37 14.03.2021
1500 Snow -2 1008 78 3866 5.42 337 12:18 14.03.2021
1501 Snow -3 1008 80 3866 5.42 337 11:38 14.03.2021
1502 Snow -6 1007 80 4107 0.89 132 11:18 14.03.2021
1503 Snow -3 1007 84 4107 5.38 333 10:38 14.03.2021
1504 Snow -3 1007 88 2815 5.05 331 10:19 14.03.2021
1505 Snow -4 1007 87 2815 5.05 331 09:55 14.03.2021
1506 Snow -4 1007 88 2815 5.05 331 09:36 14.03.2021
1507 Snow -4 1007 88 2815 5.05 331 09:36 14.03.2021
1508 Snow -4 1007 85 2525 4.8 332 09:18 14.03.2021
1509 Snow -4 1007 77 2525 4.8 332 08:36 14.03.2021
1510 Snow -6 1005 99 2803 4.31 333 07:52 14.03.2021
1511 Snow -7 1006 87 3735 4.13 332 07:26 14.03.2021
1512 Snow -8 1005 99 284 3.4 333 05:33 14.03.2021
1513 Snow -4 1005 99 1648 1.79 245 01:19 14.03.2021
1514 Snow -1 1004 90 1454 1.7 258 00:20 14.03.2021
1515 Snow -2 1006 99 1454 1.7 258 23:58 13.03.2021
1516 Snow -2 1006 99 1454 1.79 238 23:38 13.03.2021
1517 Snow -2 1006 99 108 4.47 293 23:18 13.03.2021
1518 Snow -2 1006 99 108 1.98 229 22:43 13.03.2021
1519 Rain -1 1009 81 10000 9.26 310 21:50 13.03.2021
1520 Rain 0 1009 76 10000 5.66 290 21:30 13.03.2021
1521 Snow 0 1008 57 10000 6.69 280 20:56 13.03.2021
1522 Snow 0 1008 57 10000 6.69 280 20:32 13.03.2021
1523 Rain 2 1006 40 10000 6.69 270 19:58 13.03.2021
1524 Rain 2 1006 40 10000 6.69 270 19:36 13.03.2021
1525 Rain 3 1006 35 10000 5.14 290 19:18 13.03.2021
1526 Rain 3 1006 35 10000 5.14 290 19:18 13.03.2021
1527 Rain 3 1006 35 10000 5.14 290 19:18 13.03.2021
1528 Rain 3 1006 35 10000 6.17 300 18:40 13.03.2021
1529 Rain 3 1006 35 10000 5.66 280 18:19 13.03.2021
1530 Rain 4 1006 32 10000 6.69 280 17:44 13.03.2021
1531 Rain 4 1006 30 10000 8.23 270 17:25 13.03.2021
1532 Clouds 4 1006 28 10000 4.63 270 16:50 13.03.2021
1533 Rain 4 1006 26 10000 6.69 300 16:31 13.03.2021
1534 Clouds 4 1007 28 10000 10.29 270 15:47 13.03.2021
1535 Clouds 5 1007 28 10000 6.69 280 14:54 13.03.2021
1536 Clouds 5 1007 28 10000 6.69 280 14:36 13.03.2021
1537 Clouds 4 1008 30 10000 3.09 230 13:55 13.03.2021
1538 Clouds 4 1009 30 10000 1.03 0 13:26 13.03.2021
1539 Clouds 4 1009 30 10000 2.06 190 12:48 13.03.2021
1540 Clouds 3 1010 37 10000 2.06 220 12:28 13.03.2021
1541 Clouds 0 1009 51 10000 3.37 191 11:51 13.03.2021
1542 Clouds 0 1009 56 10000 3.58 102 11:31 13.03.2021
1543 Clouds 0 1010 58 10000 1.79 112 10:51 13.03.2021
1544 Clouds 1 1010 60 10000 2.24 96 10:30 13.03.2021
1545 Clouds 1 1008 56 10000 3.79 182 09:56 13.03.2021
1546 Clouds 1 1008 62 10000 3.08 189 09:24 13.03.2021
1547 Clouds -1 1008 64 10000 3.08 189 08:44 13.03.2021
1548 Clouds -2 1009 69 10000 2.58 202 08:20 13.03.2021
1549 Clouds -3 1009 72 10000 2.58 202 07:55 13.03.2021
1550 Clouds -4 1009 73 10000 2.43 209 06:54 13.03.2021
1551 Clouds -3 1014 80 10000 2.57 90 03:33 13.03.2021
1552 Clouds -2 1015 70 10000 0.51 0 01:21 13.03.2021
1553 Clouds -2 1015 70 10000 2.06 100 00:20 13.03.2021
1554 Clouds -3 1016 75 10000 2.06 120 23:33 12.03.2021
1555 Clouds -3 1016 75 10000 1.54 140 22:50 12.03.2021
1556 Clouds -3 1015 75 10000 0.51 0 22:29 12.03.2021
1557 Clouds -3 1015 70 10000 0.51 0 21:54 12.03.2021
1558 Clouds -3 1015 70 10000 0.51 0 21:36 12.03.2021
1559 Clouds -2 1015 70 10000 2.06 100 21:18 12.03.2021
1560 Clouds -3 1015 70 10000 2.06 90 20:41 12.03.2021
1561 Clouds -2 1014 65 10000 3.6 100 20:19 12.03.2021
1562 Clouds -2 1014 60 10000 2.06 0 19:43 12.03.2021
1563 Clouds -1 1014 53 10000 3.09 250 19:24 12.03.2021
1564 Clouds -1 1013 46 10000 3.09 250 18:39 12.03.2021
1565 Clouds 0 1013 40 10000 4.63 290 18:19 12.03.2021
1566 Clouds 1 1013 35 10000 5.66 260 17:41 12.03.2021
1567 Clouds -3 1011 79 10000 1.34 75 17:23 12.03.2021
1568 Clouds -3 1010 80 10000 2.67 328 16:43 12.03.2021
1569 Clouds -3 1010 80 8459 2.95 330 16:18 12.03.2021
1570 Clouds -3 1010 81 8459 2.95 330 15:37 12.03.2021
1571 Clouds -3 1010 79 7159 2.88 333 14:49 12.03.2021
1572 Clouds -3 1010 81 8625 2.79 332 14:22 12.03.2021
1573 Clouds -3 1011 83 8625 2.79 332 13:54 12.03.2021
1574 Clouds -3 1010 82 8625 2.79 332 13:36 12.03.2021
1575 Clouds -3 1011 84 8382 2.65 335 13:18 12.03.2021
1576 Clouds -2 1011 81 8070 2.72 337 12:42 12.03.2021
1577 Clouds -1 1010 61 9074 1.34 185 12:23 12.03.2021
1578 Clouds -1 1010 64 9074 0.89 182 11:52 12.03.2021
1579 Clouds -1 1011 68 10000 0.45 184 11:24 12.03.2021
1580 Clouds -1 1011 71 10000 1.79 180 10:55 12.03.2021
1581 Clouds -2 1011 75 10000 2.38 334 10:26 12.03.2021
1582 Clouds 1 1011 83 10000 2.38 334 09:57 12.03.2021
1583 Clouds 0 1011 85 10000 1.96 320 09:26 12.03.2021
1584 Clouds 0 1011 88 10000 1.96 320 08:46 12.03.2021
1585 Clouds -1 1011 93 10000 1.59 301 07:59 12.03.2021
1586 Clouds -2 1010 92 10000 1.59 301 07:38 12.03.2021
1587 Clouds -4 1014 94 10000 1.87 307 06:54 12.03.2021
1588 Clouds -3 1014 93 10000 2.25 311 06:28 12.03.2021
1589 Snow -1 1009 91 8751 0.45 236 02:58 12.03.2021
1590 Snow 1 1010 94 7126 3.44 317 00:51 12.03.2021
1591 Snow 1 1009 94 6402 1.68 305 23:31 11.03.2021
1592 Snow 1 1010 92 166 1.9 293 22:51 11.03.2021
1593 Snow 1 1009 91 166 1.9 293 22:30 11.03.2021
1594 Snow 1 1011 99 91 1.83 306 21:55 11.03.2021
1595 Snow 0 1010 99 91 2.24 91 21:36 11.03.2021
1596 Snow 0 1010 99 303 1.79 101 21:18 11.03.2021
1597 Snow 1 1010 98 303 3.15 199 20:41 11.03.2021
1598 Snow 1 1010 96 3482 0.89 305 20:19 11.03.2021
1599 Rain 6 1007 47 10000 1.03 0 19:44 11.03.2021
1600 Rain 6 1007 50 10000 1.54 0 19:26 11.03.2021
1601 Clouds 7 1007 47 10000 2.57 0 18:46 11.03.2021
1602 Clouds 8 1007 36 10000 2.57 0 18:28 11.03.2021
1603 Rain 7 1008 36 10000 3.09 240 17:44 11.03.2021
1604 Rain 8 1008 36 10000 5.66 290 16:53 11.03.2021
1605 Clouds 9 1009 36 10000 2.06 0 16:27 11.03.2021
1606 Clouds 8 1009 44 10000 1.03 0 15:48 11.03.2021
1607 Clouds 8 1009 44 10000 0.51 0 15:21 11.03.2021
1608 Clouds 8 1010 44 10000 1.03 0 14:46 11.03.2021
1609 Clouds 8 1010 41 10000 3.09 240 14:19 11.03.2021
1610 Clouds 8 1010 41 10000 3.09 240 14:19 11.03.2021
1611 Clouds 8 1011 44 10000 3.09 280 13:49 11.03.2021
1612 Clouds 8 1011 41 10000 1.54 270 13:30 11.03.2021
1613 Clouds 8 1012 44 10000 1.03 0 12:58 11.03.2021
1614 Clouds 8 1012 44 10000 1.03 0 12:38 11.03.2021
1615 Clouds 8 1012 44 10000 1.54 120 12:20 11.03.2021
1616 Clouds 4 1013 72 2110 3.59 183 11:43 11.03.2021
1617 Clouds 3 1014 77 2404 1.34 75 11:21 11.03.2021
1618 Clouds 3 1012 78 2404 2.94 186 10:39 11.03.2021
1619 Clouds 3 1014 91 3425 2.51 188 10:19 11.03.2021
1620 Clouds 1 1012 87 3425 2.51 188 09:39 11.03.2021
1621 Rain 1 1012 87 3204 2.03 201 09:21 11.03.2021
1622 Clouds 1 1012 83 3204 2.03 201 08:46 11.03.2021
1623 Rain 1 1012 79 3255 2.07 205 08:18 11.03.2021
1624 Rain 1 1014 92 5606 2.53 196 07:29 11.03.2021
1625 Rain 1 1011 71 5606 2.53 196 06:50 11.03.2021
1626 Snow 1 1011 71 4836 2.7 195 06:25 11.03.2021
1627 Snow 0 1013 68 4241 1.92 220 02:50 11.03.2021
1628 Snow -1 1013 68 10000 2.07 216 00:58 11.03.2021
1629 Clouds -1 1014 67 10000 1.88 217 23:32 10.03.2021
1630 Clouds -1 1014 67 10000 1.88 217 23:32 10.03.2021
1631 Clouds -1 1014 67 10000 1.52 221 22:54 10.03.2021
1632 Clouds -1 1014 67 10000 1.52 221 22:32 10.03.2021
1633 Clouds -1 1014 65 10000 1.23 243 21:47 10.03.2021
1634 Clouds 2 1020 19 10000 3.576 247 21:24 10.03.2021
1635 Clouds 2 1040 29 10000 6.706 225 20:48 10.03.2021
1636 Clouds 1 1021 33 10000 3.129 135 20:30 10.03.2021
1637 Clouds 0 1021 37 10000 4.023 180 19:53 10.03.2021
1638 Clouds 0 1040 63 10000 2.235 90 19:30 10.03.2021
1639 Clouds 0 1018 49 10000 1.03 0 18:47 10.03.2021
1640 Clouds 0 1018 49 10000 1.03 0 18:47 10.03.2021
1641 Clouds 1 1017 46 10000 1.03 0 18:28 10.03.2021
1642 Clouds 1 1017 43 10000 1.24 325 17:57 10.03.2021
1643 Clouds 1 1017 43 10000 1.24 325 17:57 10.03.2021
1644 Clouds 1 1017 43 10000 1.24 325 17:39 10.03.2021
1645 Clear 1 1013 45 10000 1.4 331 17:19 10.03.2021
1646 Clouds 2 1018 32 10000 1.03 0 16:45 10.03.2021
1647 Clouds 0 1015 46 10000 0.45 211 16:25 10.03.2021
1648 Clouds 0 1015 46 10000 1.34 192 15:48 10.03.2021
1649 Clear 2 1018 34 10000 1.03 0 15:25 10.03.2021
1650 Clouds 1 1013 46 10000 0.45 191 14:57 10.03.2021
1651 Clouds -1 1015 54 10000 1.34 291 14:22 10.03.2021
1652 Clouds 1 1014 47 10000 0.45 232 13:53 10.03.2021
1653 Clouds 0 1014 52 10000 1.92 335 13:31 10.03.2021
1654 Clouds -1 1014 56 10000 2.03 337 12:47 10.03.2021
1655 Clear -1 1015 60 10000 0.45 178 12:24 10.03.2021
1656 Clear 2 1015 59 10000 2.19 340 11:50 10.03.2021
1657 Clear -2 1015 66 10000 2.55 338 11:22 10.03.2021
1658 Clear -1 1015 77 10000 2.55 338 10:50 10.03.2021
1659 Clear -1 1015 79 10000 2.55 338 10:31 10.03.2021
1660 Clear -1 1015 83 10000 2.35 336 09:55 10.03.2021
1661 Clear -3 1015 85 10000 2.35 336 09:37 10.03.2021
1662 Clear -2 1015 85 10000 1.97 330 09:18 10.03.2021
1663 Clear -3 1015 83 10000 1.97 330 08:42 10.03.2021
1664 Clear -7 1013 75 10000 1.82 328 08:23 10.03.2021
1665 Clear -8 1012 78 10000 1.82 328 07:42 10.03.2021
1666 Clouds -6 1020 86 10000 2.25 324 07:24 10.03.2021
1667 Clouds -6 1020 86 10000 2.57 110 06:51 10.03.2021
1668 Clouds -6 1019 93 10000 2.57 110 02:43 10.03.2021
1669 Clouds -5 1019 81 10000 2.57 80 00:27 10.03.2021
1670 Clouds -5 1037 94 8916 2.53 332 23:33 09.03.2021
1671 Clouds -5 1019 79 7188 0.894 112 22:52 09.03.2021
1672 Clouds -5 1037 94 7188 2.91 334 22:34 09.03.2021
1673 Clouds -4 1019 79 6745 0.447 22 21:58 09.03.2021
1674 Clouds -4 1037 95 6745 1.788 337 21:38 09.03.2021
1675 Clouds -4 1018 87 10000 4.12 80 21:19 09.03.2021
1676 Clouds -4 1018 87 10000 3.6 90 20:45 09.03.2021
1677 Clouds -4 1018 87 10000 3.6 90 20:23 09.03.2021
1678 Clouds -4 1018 87 10000 4.63 80 19:57 09.03.2021
1679 Clouds -6 1011 99 8165 3 340 19:29 09.03.2021
1680 Clouds -6 1011 92 8165 3 340 18:54 09.03.2021
1681 Clouds -6 1010 94 8165 3 340 18:30 09.03.2021
1682 Snow -6 1010 93 7898 3.37 342 17:58 09.03.2021
1683 Snow -5 1010 93 7898 3.37 342 17:38 09.03.2021
1684 Snow 0 1010 65 8275 0.89 47 17:19 09.03.2021
1685 Snow -5 1010 86 8275 1.79 170 16:40 09.03.2021
1686 Snow -2 1010 67 8902 0.89 17 16:20 09.03.2021
1687 Snow -2 1010 67 8902 0.89 17 16:20 09.03.2021
1688 Snow -2 1010 75 8902 0.89 330 15:47 09.03.2021
1689 Snow 1 1010 81 6922 0.45 268 15:24 09.03.2021
1690 Snow 1 1009 79 6922 1.34 297 14:42 09.03.2021
1691 Snow -1 1010 75 2792 0.45 72 14:22 09.03.2021
1692 Snow 0 1009 72 2792 1.79 16 13:39 09.03.2021
1693 Snow 0 1015 70 1960 2.24 64 13:21 09.03.2021
1694 Snow 0 1010 67 3073 1.79 308 12:44 09.03.2021
1695 Clouds 0 1010 69 4797 0.89 271 12:25 09.03.2021
1696 Clouds 0 1009 72 4797 2.02 344 11:42 09.03.2021
1697 Clouds 0 1010 72 10000 1.7 333 11:21 09.03.2021
1698 Clouds 0 1010 73 10000 1.7 333 10:57 09.03.2021
1699 Clouds 0 1010 73 10000 1.7 333 10:38 09.03.2021
1700 Clouds -1 1010 71 10000 1.47 328 10:20 09.03.2021
1701 Clouds -1 1010 71 10000 1.47 328 10:20 09.03.2021
1702 Clouds -1 1010 71 10000 1.47 328 10:20 09.03.2021
1703 Clouds -1 1010 77 10000 1.47 328 09:44 09.03.2021
1704 Clouds -1 1010 74 10000 1.29 307 09:26 09.03.2021
1705 Clouds -2 1010 79 10000 1.29 307 08:48 09.03.2021
1706 Clouds -4 1016 82 10000 0.89 277 08:28 09.03.2021
1707 Clouds -4 1010 85 10000 0.89 277 07:40 09.03.2021
1708 Clear -4 1014 83 10000 2.235 135 07:21 09.03.2021
1709 Clouds -4 1015 93 10000 0.51 0 06:18 09.03.2021
1710 Clear -4 1033 94 10000 0.894 0 05:46 09.03.2021
1711 Clouds -4 1016 93 10000 4.12 100 00:34 09.03.2021
1712 Clouds -4 1016 86 10000 2.57 90 23:45 08.03.2021
1713 Clouds -3 1016 83 10000 2.682 112 23:27 08.03.2021
1714 Clouds -3 1015 83 10000 3.129 112 22:51 08.03.2021
1715 Clouds -3 1034 95 10000 0.894 90 22:32 08.03.2021
1716 Clouds -3 1016 79 10000 3.129 112 21:57 08.03.2021
1717 Clouds -3 1034 94 10000 0.894 90 21:35 08.03.2021
1718 Clouds -3 1034 96 10000 1.341 112 20:48 08.03.2021
1719 Clouds -2 1016 80 10000 1.03 10 20:28 08.03.2021
1720 Clouds -2 1016 80 10000 1.03 10 20:28 08.03.2021
1721 Clouds -2 1016 79 10000 1.03 10 19:59 08.03.2021
1722 Clouds -2 1034 96 10000 2.235 135 19:36 08.03.2021
1723 Clouds -2 1015 70 10000 6.69 50 18:44 08.03.2021
1724 Clouds -1 1011 80 9003 1.58 15 18:23 08.03.2021
1725 Clouds 0 1011 79 9003 1.58 15 17:56 08.03.2021
1726 Clouds -1 1016 75 9003 1.79 35 17:38 08.03.2021
1727 Clouds 1 1011 72 6185 1.34 166 16:55 08.03.2021
1728 Clouds 2 1016 67 6185 1.79 32 16:30 08.03.2021
1729 Clouds 1 1011 73 3317 2.02 20 15:52 08.03.2021
1730 Clouds 3 1016 77 3317 0.447 0 15:30 08.03.2021
1731 Clouds 2 1016 67 3721 0.89 54 14:51 08.03.2021
1732 Clouds 2 1011 73 4740 2.14 17 14:20 08.03.2021
1733 Clouds 2 1017 72 4740 1.79 51 13:44 08.03.2021
1734 Clouds 2 1012 74 7413 1.84 23 13:21 08.03.2021
1735 Clouds 2 1012 75 7413 1.84 23 12:49 08.03.2021
1736 Clouds 2 1012 76 9684 1.94 19 12:28 08.03.2021
1737 Clouds 1 1012 77 9684 1.94 19 11:44 08.03.2021
1738 Clouds 1 1012 79 10000 2.04 14 11:19 08.03.2021
1739 Clouds 0 1012 81 10000 2.04 14 10:44 08.03.2021
1740 Clouds 1 1012 82 10000 1.97 7 10:26 08.03.2021
1741 Clouds 1 1012 82 10000 1.97 7 09:42 08.03.2021
1742 Clouds 0 1012 81 10000 1.53 352 09:23 08.03.2021
1743 Clouds -2 1016 80 10000 3.576 22 08:29 08.03.2021
1744 Clouds -2 1012 86 10000 1.37 344 07:41 08.03.2021
1745 Clouds -2 1016 80 10000 1.38 337 07:20 08.03.2021
1746 Clouds -2 1016 79 10000 1.788 90 04:28 08.03.2021
1747 Clouds -1 1017 80 10000 0.447 22 01:26 08.03.2021
1748 Clouds -1 1037 97 10000 2.682 315 00:33 08.03.2021
1749 Clouds -1 1018 80 10000 1.788 0 23:41 07.03.2021
1750 Clouds -1 1018 80 10000 1.788 22 23:20 07.03.2021
1751 Clouds -1 1018 79 10000 1.341 0 22:44 07.03.2021
1752 Clouds -1 1018 79 10000 1.341 0 22:44 07.03.2021
1753 Clouds -1 1018 79 10000 0.447 0 22:26 07.03.2021
1754 Clouds -1 1037 96 10000 0.894 180 21:46 07.03.2021
1755 Clouds -1 1018 79 10000 0.894 315 21:26 07.03.2021
1756 Clouds -1 1037 94 10000 3.129 225 20:50 07.03.2021
1757 Clouds -1 1037 93 10000 3.129 202 20:31 07.03.2021
1758 Clouds -1 1019 82 10000 3.129 225 19:58 07.03.2021
1759 Clouds -1 1038 95 10000 2.682 247 19:39 07.03.2021
1760 Clouds -1 1018 81 10000 0.51 0 19:21 07.03.2021
1761 Rain -1 1018 81 10000 0.51 0 18:47 07.03.2021
1762 Clouds -3 1016 81 10000 0.47 330 18:20 07.03.2021
1763 Clouds -2 1015 79 10000 0.47 330 17:45 07.03.2021
1764 Clouds 0 1014 65 10000 1.79 287 17:21 07.03.2021
1765 Clouds -2 1014 78 10000 0.75 347 16:59 07.03.2021
1766 Clouds -2 1014 78 10000 0.75 347 16:59 07.03.2021
1767 Clouds -1 1014 75 10000 0.45 85 16:39 07.03.2021
1768 Clouds -1 1014 75 10000 0.45 85 16:39 07.03.2021
1769 Clouds -1 1014 72 7782 0.91 342 16:20 07.03.2021
1770 Clouds -1 1014 72 7782 0.91 342 16:20 07.03.2021
1771 Snow 1 1019 57 10000 1.54 120 15:45 07.03.2021
1772 Snow 1 1019 78 7996 3.576 225 15:24 07.03.2021
1773 Snow 1 1038 91 7996 1.788 270 14:39 07.03.2021
1774 Clouds 1 1020 82 9371 1.341 22 14:21 07.03.2021
1775 Clouds 3 1021 62 9371 0.89 315 13:42 07.03.2021
1776 Clear 0 1017 54 10000 1.34 103 13:23 07.03.2021
1777 Clouds 1 1021 61 10000 2.06 280 12:47 07.03.2021
1778 Clear 0 1018 53 10000 0.45 119 12:29 07.03.2021
1779 Clear -1 1018 53 10000 0.89 121 11:49 07.03.2021
1780 Clear 0 1040 91 10000 4.917 225 11:22 07.03.2021
1781 Clear 1 1017 51 10000 1.03 349 10:49 07.03.2021
1782 Clear 1 1017 53 10000 1.03 349 10:30 07.03.2021
1783 Clear 1 1018 63 10000 1.25 348 09:46 07.03.2021
1784 Clear 1 1018 63 10000 0.78 315 09:25 07.03.2021
1785 Clear -1 1018 65 10000 0.78 315 08:46 07.03.2021
1786 Clear -3 1018 73 10000 0.69 299 08:25 07.03.2021
1787 Clear -4 1018 76 10000 0.69 299 07:51 07.03.2021
1788 Clear -4 1018 76 10000 0.69 299 07:51 07.03.2021
1789 Clear -2 1026 67 10000 0.45 90 02:43 07.03.2021
1790 Clouds -2 1025 73 10000 3.129 112 01:42 07.03.2021
1791 Clouds -2 1027 72 10000 0.45 68 23:54 06.03.2021
1792 Clouds -2 1027 72 10000 1.88 188 23:35 06.03.2021
1793 Clouds -2 1026 77 10000 2.01 181 22:48 06.03.2021
1794 Clouds -2 1026 77 10000 2.12 182 22:29 06.03.2021
1795 Clouds -2 1026 78 10000 2.12 182 21:59 06.03.2021
1796 Clouds -2 1026 78 10000 2.08 184 21:24 06.03.2021
1797 Clouds -2 1026 79 10000 0.45 68 20:54 06.03.2021
1798 Clouds -2 1026 80 10000 2.12 184 20:34 06.03.2021
1799 Clouds -1 1027 76 10000 2.682 112 19:50 06.03.2021
1800 Clouds -1 1026 79 10000 1.64 175 19:23 06.03.2021
1801 Clouds -1 1026 78 10000 0.45 113 18:56 06.03.2021
1802 Clouds -1 1026 78 10000 0.45 113 18:56 06.03.2021
1803 Clouds -1 1026 63 10000 1.64 175 18:38 06.03.2021
1804 Clouds 0 1020 64 10000 1.41 160 18:18 06.03.2021
1805 Clouds 1 1025 74 10000 1.41 160 17:44 06.03.2021
1806 Clouds 3 1019 58 8633 0.45 218 17:24 06.03.2021
1807 Clouds 0 1019 63 8633 1.79 95 16:52 06.03.2021
1808 Clouds 1 1020 61 5036 2.68 97 16:29 06.03.2021
1809 Clouds 0 1020 60 5036 2.24 90 15:54 06.03.2021
1810 Clouds 0 1020 60 5036 3.13 86 15:32 06.03.2021
1811 Clouds 0 1020 60 5036 3.13 86 15:32 06.03.2021
1812 Clouds 0 1020 61 3257 3.58 89 14:54 06.03.2021
1813 Clouds 0 1020 62 3257 4.47 89 14:30 06.03.2021
1814 Clouds 0 1020 62 3257 4.47 89 14:30 06.03.2021
1815 Clouds 0 1020 66 4659 4.47 99 13:42 06.03.2021
1816 Clouds 0 1020 65 8915 6.26 90 13:21 06.03.2021
1817 Clouds 3 1020 63 8915 2.56 174 12:44 06.03.2021
1818 Clouds 3 1020 67 10000 2.62 173 12:20 06.03.2021
1819 Clouds 3 1020 67 10000 2.62 173 12:20 06.03.2021
1820 Clouds 1 1020 72 10000 2.62 173 11:56 06.03.2021
1821 Clouds 0 1020 69 10000 2.76 173 11:22 06.03.2021
1822 Clouds 1 1020 74 10000 2.76 173 10:49 06.03.2021
1823 Clear 0 1021 73 10000 2.68 171 10:24 06.03.2021
1824 Clear -3 1021 77 10000 1.34 181 09:49 06.03.2021
1825 Clear -3 1021 78 10000 0.89 184 09:21 06.03.2021
1826 Clear -4 1021 77 10000 2.41 178 08:51 06.03.2021
1827 Clear -6 1028 89 10000 2.11 189 08:22 06.03.2021
1828 Clear -3 1020 90 10000 2.15 189 07:41 06.03.2021
1829 Clear -6 1024 74 10000 3.576 135 07:20 06.03.2021
1830 Clouds -5 1024 87 10000 6.17 30 05:38 06.03.2021
1831 Clouds -5 1024 81 10000 7.72 50 02:51 06.03.2021
1832 Clouds -4 1023 80 10000 0.51 36 01:27 06.03.2021
1833 Clouds -4 1041 95 10000 0.54 31 00:39 06.03.2021
1834 Clouds -3 1041 95 10000 0.96 17 23:34 05.03.2021
1835 Clouds -3 1022 80 10000 1.59 12 22:58 05.03.2021
1836 Clouds -3 1041 95 10000 1.59 12 22:39 05.03.2021
1837 Clouds -3 1041 96 7873 2.23 7 22:20 05.03.2021
1838 Clouds -3 1022 80 7873 2.23 7 21:41 05.03.2021
1839 Clouds -4 1024 91 7245 2.24 33 21:22 05.03.2021
1840 Clouds -4 1024 91 7245 2.24 60 20:42 05.03.2021
1841 Snow -1 1017 91 7017 2.74 357 20:23 05.03.2021
1842 Snow -3 1016 97 7017 2.68 86 19:44 05.03.2021
1843 Snow -2 1016 90 6642 2.99 353 19:22 05.03.2021
1844 Snow -3 1022 87 6642 2.24 45 18:44 05.03.2021
1845 Snow 0 1016 90 7611 2.97 348 18:25 05.03.2021
1846 Snow 0 1015 90 7611 2.97 348 17:43 05.03.2021
1847 Snow 0 1015 90 8862 0.45 39 17:24 05.03.2021
1848 Snow 1 1015 89 8862 0.45 34 16:41 05.03.2021
1849 Snow 1 1014 83 8813 0.45 338 16:23 05.03.2021
1850 Clouds 2 1014 71 8813 2.24 331 15:53 05.03.2021
1851 Clouds 2 1014 72 6246 0.89 322 15:26 05.03.2021
1852 Clouds 2 1013 74 5742 0.45 334 14:43 05.03.2021
1853 Clouds 3 1013 76 4338 2.56 349 14:24 05.03.2021
1854 Clouds 4 1014 83 4338 2.56 349 13:43 05.03.2021
1855 Snow 0 1018 83 3069 1.79 48 13:21 05.03.2021
1856 Clouds 3 1014 85 3069 2.52 351 12:42 05.03.2021
1857 Clouds 2 1014 87 6028 2.69 353 11:39 05.03.2021
1858 Clouds 2 1014 87 6028 2.69 353 11:39 05.03.2021
1859 Clouds 2 1014 88 6614 2.78 349 11:19 05.03.2021
1860 Snow 1 1014 90 6614 2.78 349 10:45 05.03.2021
1861 Snow 1 1014 92 7929 2.73 344 10:26 05.03.2021
1862 Snow 1 1013 91 7929 2.73 344 09:58 05.03.2021
1863 Snow 0 1013 94 7929 2.73 344 09:38 05.03.2021
1864 Snow 0 1013 94 9205 2.38 334 09:20 05.03.2021
1865 Snow -1 1013 95 9205 2.38 334 08:38 05.03.2021
1866 Snow -1 1013 95 9426 2.2 322 08:20 05.03.2021
1867 Snow 0 1013 95 9426 2.2 322 07:33 05.03.2021
1868 Clouds 0 1013 94 9319 2.27 332 06:34 05.03.2021
1869 Snow 0 1013 93 3478 2.69 335 05:41 05.03.2021
1870 Snow 0 1033 96 8050 5.812 315 01:18 05.03.2021
1871 Snow 0 1015 80 8799 1.788 22 23:54 04.03.2021
1872 Snow 0 1016 80 9828 1.788 22 23:24 04.03.2021
1873 Clouds 1 1018 66 10000 3.09 340 22:29 04.03.2021
1874 Clouds 1 1018 62 10000 2.06 0 21:53 04.03.2021
1875 Clouds 2 1018 62 10000 2.06 0 21:32 04.03.2021
1876 Clouds 1 1018 70 10000 0.51 0 20:58 04.03.2021
1877 Clouds 1 1018 70 10000 0.51 0 20:39 04.03.2021
1878 Clouds 1 1018 65 10000 1.36 286 20:20 04.03.2021
1879 Clouds 1 1018 70 10000 1.03 0 19:49 04.03.2021
1880 Clouds 2 1016 76 10000 1.341 90 19:23 04.03.2021
1881 Clouds 3 1016 77 10000 0.894 135 18:51 04.03.2021
1882 Clouds 0 1015 73 10000 1.34 111 18:30 04.03.2021
1883 Clouds 3 1033 81 10000 1.16 297 17:47 04.03.2021
1884 Clouds 1 1015 70 8758 1.34 81 17:29 04.03.2021
1885 Clouds 2 1015 67 8758 0.45 345 16:50 04.03.2021
1886 Clouds 2 1016 67 8758 0.89 310 16:32 04.03.2021
1887 Clouds 5 1019 40 10000 2.06 240 15:57 04.03.2021
1888 Clouds 5 1019 40 10000 2.06 240 15:38 04.03.2021
1889 Clouds 5 1019 43 10000 2.57 240 15:19 04.03.2021
1890 Clouds 6 1019 43 10000 3.6 220 14:38 04.03.2021
1891 Clouds 6 1020 46 10000 4.12 240 13:54 04.03.2021
1892 Clouds 6 1020 46 10000 4.12 240 13:33 04.03.2021
1893 Clouds 6 1019 54 10000 0.447 292 12:58 04.03.2021
1894 Clouds 6 1036 60 10000 0.31 266 12:40 04.03.2021
1895 Clouds 6 1036 62 10000 2.235 247 11:49 04.03.2021
1896 Clouds 5 1021 37 10000 0.57 328 11:28 04.03.2021
1897 Clouds 5 1022 48 10000 0.57 328 10:56 04.03.2021
1898 Clouds 6 1018 45 10000 0.57 328 10:34 04.03.2021
1899 Clouds 5 1018 55 10000 1.11 325 09:51 04.03.2021
1900 Clouds 4 1018 58 10000 1.11 320 09:25 04.03.2021
1901 Clouds 3 1019 70 10000 1.11 320 08:42 04.03.2021
1902 Clouds 2 1019 70 10000 1.3 316 08:22 04.03.2021
1903 Clouds 2 1019 69 10000 1.34 317 07:35 04.03.2021
1904 Clouds 1 1019 70 10000 1.25 316 06:28 04.03.2021
1905 Clouds 1 1019 67 10000 1.25 316 05:42 04.03.2021
1906 Clouds 1 1027 59 10000 0.81 270 01:49 04.03.2021
1907 Clouds 2 1028 57 10000 0.71 251 23:19 03.03.2021
1908 Clouds 2 1028 57 10000 0.75 265 22:29 03.03.2021
1909 Clouds 2 1029 73 10000 0.75 265 21:55 03.03.2021
1910 Clouds 2 1029 56 10000 0.75 265 21:37 03.03.2021
1911 Clouds 2 1029 56 10000 0.7 259 21:18 03.03.2021
1912 Clouds 2 1029 67 10000 0.7 259 20:42 03.03.2021
1913 Clouds 3 1029 66 10000 0.6 272 20:23 03.03.2021
1914 Clouds 3 1029 62 10000 0.6 272 19:45 03.03.2021
1915 Clear 3 1029 61 10000 0.45 90 19:26 03.03.2021
1916 Clear 3 1029 61 10000 0.45 90 18:48 03.03.2021
1917 Clear 4 1043 32 10000 0.447 112 18:30 03.03.2021
1918 Clear 4 1029 53 10000 0.38 315 17:56 03.03.2021
1919 Clear 6 1024 58 10000 0.36 332 17:20 03.03.2021
1920 Clear 6 1024 56 10000 0.36 332 16:50 03.03.2021
1921 Clear 7 1025 53 10000 0.29 338 16:27 03.03.2021
1922 Clear 7 1025 52 10000 0.29 338 15:49 03.03.2021
1923 Clear 8 1025 47 10000 0.46 353 15:28 03.03.2021
1924 Clear 8 1025 48 10000 0.46 353 14:35 03.03.2021
1925 Clear 6 1030 41 10000 0.45 347 13:59 03.03.2021
1926 Clear 6 1030 39 10000 0.8 340 13:38 03.03.2021
1927 Clear 6 1031 42 10000 0.63 333 13:18 03.03.2021
1928 Clear 7 1026 43 10000 0.63 333 12:41 03.03.2021
1929 Clear 7 1026 45 10000 0.78 341 12:22 03.03.2021
1930 Clear 8 1027 44 10000 0.78 341 11:44 03.03.2021
1931 Clear 7 1027 48 10000 0.75 340 11:22 03.03.2021
1932 Clear 6 1027 48 10000 0.75 340 10:44 03.03.2021
1933 Clear 5 1027 56 10000 0.53 338 10:21 03.03.2021
1934 Clear 4 1027 58 10000 0.53 338 09:41 03.03.2021
1935 Clear 3 1027 58 10000 0.6 321 08:51 03.03.2021
1936 Clear 2 1027 59 10000 0.68 310 08:23 03.03.2021
1937 Clear 2 1027 59 10000 0.68 310 07:53 03.03.2021
1938 Clouds 1 1027 59 10000 0.81 309 07:20 03.03.2021
1939 Clouds 1 1027 62 10000 0.73 305 06:19 03.03.2021
1940 Clouds 2 1027 58 10000 0.73 305 05:31 03.03.2021
1941 Clouds 2 1027 58 10000 0.68 302 04:36 03.03.2021
1942 Clouds 2 1027 55 10000 0.76 301 03:52 03.03.2021
1943 Clouds 2 1028 56 10000 0.72 252 00:18 03.03.2021
1944 Clouds 1 1029 56 10000 0.72 252 23:32 02.03.2021
1945 Clouds 2 1034 49 10000 0.77 235 22:48 02.03.2021
1946 Clouds 2 1034 47 10000 0.66 233 22:21 02.03.2021
1947 Clouds 4 1049 17 10000 1.788 337 21:46 02.03.2021
1948 Clouds 4 1032 54 10000 0.89 90 21:28 02.03.2021
1949 Clouds 3 1032 27 10000 3.576 112 20:54 02.03.2021
1950 Clouds 3 1048 23 10000 1.341 112 20:36 02.03.2021
1951 Clouds 3 1049 25 10000 1.341 112 20:18 02.03.2021
1952 Clouds 3 1032 54 10000 1.34 90 19:42 02.03.2021
1953 Clouds 3 1032 53 10000 0.45 90 19:23 02.03.2021
1954 Clouds 4 1031 32 10000 4.023 112 18:41 02.03.2021
1955 Clouds 5 1031 36 10000 4.023 112 18:21 02.03.2021
1956 Clouds 6 1031 47 10000 0.45 90 17:50 02.03.2021
1957 Clouds 7 1048 20 10000 1.23 202 17:30 02.03.2021
1958 Clouds 8 1030 43 10000 1.36 192 16:57 02.03.2021
1959 Clouds 8 1030 40 10000 1.36 192 16:33 02.03.2021
1960 Clear 8 1030 21 10000 2.06 270 15:51 02.03.2021
1961 Clear 8 1030 21 10000 2.06 270 15:25 02.03.2021
1962 Clear 7 1031 24 10000 1.03 0 14:24 02.03.2021
1963 Clouds 9 1032 31 10000 2.235 112 13:57 02.03.2021
1964 Clouds 8 1048 23 10000 1.49 189 13:38 02.03.2021
1965 Clouds 8 1048 19 10000 1.68 185 13:20 02.03.2021
1966 Clouds 8 1049 17 10000 0.447 90 12:31 02.03.2021
1967 Clear 5 1031 20 10000 1.9 188 11:57 02.03.2021
1968 Clear 6 1028 30 10000 1.9 188 11:38 02.03.2021
1969 Clear 7 1028 31 10000 2.09 193 11:18 02.03.2021
1970 Clear 5 1028 32 10000 2.09 193 10:33 02.03.2021
1971 Clear 4 1028 37 10000 2.24 190 09:59 02.03.2021
1972 Clear 3 1028 40 10000 2.24 190 09:40 02.03.2021
1973 Clear 2 1028 41 10000 2.19 192 09:19 02.03.2021
1974 Clear 0 1028 46 10000 2.19 192 08:38 02.03.2021
1975 Clear 0 1028 50 10000 2.2 196 07:58 02.03.2021
1976 Clear -1 1028 51 10000 2.12 198 07:27 02.03.2021
1977 Clear 0 1028 50 10000 2.12 198 06:33 02.03.2021
1978 Clear 0 1027 50 10000 2.25 197 05:45 02.03.2021
1979 Clear -1 1027 48 10000 2.45 196 05:27 02.03.2021
1980 Clear 0 1031 75 10000 2.78 188 01:44 02.03.2021
1981 Clear 0 1031 75 10000 2.78 188 01:44 02.03.2021
1982 Clear 0 1031 75 10000 2.78 188 01:44 02.03.2021
1983 Clear 1 1031 75 10000 0.45 90 01:25 02.03.2021
1984 Clear 0 1029 22 10000 1.788 112 00:21 02.03.2021
1985 Clear 1 1030 71 10000 0.45 90 23:22 01.03.2021
1986 Clear 1 1029 25 10000 2.235 112 22:40 01.03.2021
1987 Clear 1 1029 26 10000 2.682 112 22:21 01.03.2021
1988 Clear 1 1046 16 10000 1.341 112 21:45 01.03.2021
1989 Clear 1 1030 70 10000 2.9 190 21:23 01.03.2021
1990 Clear 1 1046 19 10000 1.341 135 20:47 01.03.2021
1991 Clear 2 1030 69 10000 0.45 90 20:27 01.03.2021
1992 Clear 3 1029 22 10000 1.788 112 19:53 01.03.2021
1993 Clear 3 1046 22 10000 2.682 112 19:33 01.03.2021
1994 Clear 3 1046 25 10000 2.235 135 18:46 01.03.2021
1995 Clear 4 1029 40 10000 2.67 182 18:24 01.03.2021
1996 Clear 5 1028 40 10000 6.17 80 17:52 01.03.2021
1997 Clear 5 1029 61 10000 2.48 179 17:28 01.03.2021
1998 Clear 5 1029 59 10000 0.89 90 16:59 01.03.2021
1999 Clear 5 1028 52 10000 0.894 112 16:40 01.03.2021
2000 Clear 6 1028 59 10000 0.45 90 16:22 01.03.2021
2001 Clear 6 1028 54 10000 2.44 177 15:39 01.03.2021
2002 Clear 6 1044 39 10000 1.341 112 15:18 01.03.2021
2003 Clear 6 1028 48 10000 1.341 112 14:43 01.03.2021
2004 Clear 6 1028 49 10000 1.341 112 14:25 01.03.2021
2005 Clear 6 1029 50 10000 1.34 338 13:39 01.03.2021
2006 Clear 6 1028 45 10000 1.341 112 13:20 01.03.2021
2007 Clear 6 1029 48 10000 0.89 293 12:44 01.03.2021
2008 Clear 5 1029 50 10000 0.89 248 12:25 01.03.2021
2009 Clear 5 1030 30 10000 2.23 174 11:57 01.03.2021
2010 Clear 4 1031 31 10000 2.23 174 11:30 01.03.2021
2011 Clear 4 1025 37 10000 2.09 175 10:43 01.03.2021
2012 Clear 3 1025 40 10000 1.89 176 10:22 01.03.2021
2013 Clear 2 1025 41 10000 1.89 176 09:56 01.03.2021
2014 Clear 3 1025 39 10000 1.89 176 09:36 01.03.2021
2015 Clear 0 1025 45 10000 1.7 189 08:57 01.03.2021
2016 Clear -1 1024 49 10000 1.7 189 08:36 01.03.2021
2017 Clear -2 1024 54 10000 1.52 204 07:33 01.03.2021
2018 Clear -3 1024 55 10000 1.24 224 06:25 01.03.2021
2019 Clear -1 1024 56 10000 1.31 227 02:40 01.03.2021
2020 Clear -1 1025 59 10000 1.55 208 23:54 28.02.2021
2021 Clear -1 1025 59 10000 1.38 211 23:20 28.02.2021
2022 Clear -1 1031 62 10000 1.38 211 22:44 28.02.2021
2023 Clear -1 1031 64 10000 1.35 213 22:21 28.02.2021
2024 Clear 0 1031 63 10000 1.35 213 21:46 28.02.2021
2025 Clear 0 1031 79 10000 1.54 212 21:23 28.02.2021
2026 Clear 0 1045 63 10000 0.894 67 20:46 28.02.2021
2027 Clear 0 1031 79 10000 1.59 205 20:27 28.02.2021
2028 Clear 1 1045 66 10000 1.59 205 19:47 28.02.2021
2029 Clouds 1 1030 79 10000 1.46 196 19:27 28.02.2021
2030 Clouds 2 1030 78 10000 1.23 207 18:47 28.02.2021
2031 Clouds 2 1030 78 10000 0.45 90 18:28 28.02.2021
2032 Clouds 2 1030 78 10000 0.45 90 18:28 28.02.2021
2033 Clouds 2 1030 77 10000 1.33 191 17:58 28.02.2021
2034 Clouds 3 1030 75 10000 1.33 191 17:38 28.02.2021
2035 Clouds 3 1030 75 10000 1.33 191 17:38 28.02.2021
2036 Clouds 3 1029 74 10000 1.49 181 17:20 28.02.2021
2037 Clouds 4 1030 73 10000 0.45 0 16:48 28.02.2021
2038 Clouds 5 1029 72 10000 1.79 270 16:29 28.02.2021
2039 Clouds 5 1028 55 10000 1.341 135 15:52 28.02.2021
2040 Clouds 5 1028 55 10000 1.341 135 15:52 28.02.2021
2041 Clouds 5 1029 66 10000 0.89 248 15:28 28.02.2021
2042 Clouds 6 1028 41 10000 0.894 90 14:58 28.02.2021
2043 Clouds 7 1045 54 10000 0.447 157 14:35 28.02.2021
2044 Clouds 5 1029 46 7857 0.447 292 13:59 28.02.2021
2045 Clouds 5 1046 45 7857 2.235 157 13:38 28.02.2021
2046 Clouds 6 1030 61 10000 1.34 248 13:19 28.02.2021
2047 Clouds 5 1029 46 10000 1.788 112 12:53 28.02.2021
2048 Clouds 7 1030 65 10000 0.89 248 12:35 28.02.2021
2049 Clouds 6 1030 68 10000 0.45 248 11:57 28.02.2021
2050 Clouds 4 1028 58 10000 0.89 110 11:39 28.02.2021
2051 Clouds 5 1031 71 10000 0.45 225 11:19 28.02.2021
2052 Clouds 4 1028 60 10000 0.45 106 10:40 28.02.2021
2053 Clouds 3 1026 72 10000 3.77 172 10:20 28.02.2021
2054 Clouds 2 1026 72 10000 3.77 172 09:39 28.02.2021
2055 Clouds 1 1026 76 10000 3.79 173 09:20 28.02.2021
2056 Clouds 0 1026 84 10000 3.79 173 08:43 28.02.2021
2057 Clouds -1 1026 87 9568 3.77 172 08:24 28.02.2021
2058 Clouds -1 1025 88 8713 3.43 177 07:46 28.02.2021
2059 Clouds -1 1025 88 3897 3.47 176 07:25 28.02.2021
2060 Clouds -1 1025 91 5204 3.55 174 06:24 28.02.2021
2061 Clouds -1 1025 93 8912 3.49 172 05:20 28.02.2021
2062 Clouds 0 1026 96 10000 3.68 168 02:29 28.02.2021
2063 Clouds 1 1026 96 10000 3.61 168 01:28 28.02.2021
2064 Clouds 0 1026 96 8648 3.58 168 00:40 28.02.2021
2065 Clouds 1 1026 96 10000 3.45 167 23:51 27.02.2021
2066 Clouds 1 1026 96 10000 3.14 168 23:22 27.02.2021
2067 Clouds 0 1027 74 10000 3.14 168 22:50 27.02.2021
2068 Clear 0 1033 92 10000 2.74 168 22:25 27.02.2021
2069 Clear -1 1033 92 10000 2.74 168 21:59 27.02.2021
2070 Clear -2 1033 92 10000 2.74 168 21:38 27.02.2021
2071 Clear -2 1033 92 10000 2.37 166 20:58 27.02.2021
2072 Clear -2 1033 91 10000 2.37 166 20:39 27.02.2021
2073 Clear -2 1032 91 10000 2 158 20:21 27.02.2021
2074 Clear -2 1032 90 10000 2 158 19:43 27.02.2021
2075 Clear -2 1032 90 10000 2 158 19:43 27.02.2021
2076 Clouds -1 1032 90 10000 1.64 146 19:23 27.02.2021
2077 Clouds -1 1031 88 10000 0.45 55 18:41 27.02.2021
2078 Clouds 0 1031 87 10000 1.42 133 18:20 27.02.2021
2079 Clouds 1 1031 84 10000 1.42 133 17:44 27.02.2021
2080 Clouds 3 1025 88 8611 1.22 112 17:21 27.02.2021
2081 Clouds 3 1025 88 8611 1.22 112 16:56 27.02.2021
2082 Clouds 3 1025 88 8611 1.22 112 16:36 27.02.2021
2083 Clouds 4 1025 88 8752 1.38 108 16:18 27.02.2021
2084 Clouds 3 1025 88 8752 1.38 108 15:38 27.02.2021
2085 Clouds 3 1025 92 7347 1.47 106 14:50 27.02.2021
2086 Clouds 3 1025 94 7347 1.47 106 14:32 27.02.2021
2087 Clouds 2 1025 96 2960 1.64 101 13:53 27.02.2021
2088 Clouds 2 1026 96 3711 1.8 76 13:27 27.02.2021
2089 Clouds 2 1026 96 3711 1.8 76 12:56 27.02.2021
2090 Clouds 2 1026 95 3711 1.8 76 12:30 27.02.2021
2091 Clouds 1 1026 95 7743 2.11 60 11:58 27.02.2021
2092 Clouds 1 1026 95 7743 2.11 60 11:40 27.02.2021
2093 Clouds 1 1026 95 10000 2.5 48 11:21 27.02.2021
2094 Clouds 0 1026 95 10000 2.5 48 10:44 27.02.2021
2095 Clouds 0 1025 94 9828 2.82 36 10:22 27.02.2021
2096 Clouds 0 1025 94 9828 2.82 36 09:46 27.02.2021
2097 Clouds 0 1025 93 7125 3.13 26 09:25 27.02.2021
2098 Clouds 2 1025 92 7125 3.13 26 08:40 27.02.2021
2099 Clouds 2 1025 91 3152 3.21 19 08:21 27.02.2021
2100 Clouds 2 1024 87 3152 3.21 19 07:41 27.02.2021
2101 Clouds 2 1024 82 6460 3.22 9 04:46 27.02.2021
2102 Clouds 0 1025 78 6941 2.47 7 00:42 27.02.2021
2103 Clouds 1 1025 77 10000 2.55 15 23:54 26.02.2021
2104 Clouds 3 1025 76 10000 2.31 14 23:27 26.02.2021
2105 Clouds 4 1025 75 10000 2.31 14 22:46 26.02.2021
2106 Clouds 4 1025 74 7826 2.26 9 22:26 26.02.2021
2107 Clouds 4 1025 73 7826 2.26 9 21:43 26.02.2021
2108 Clouds 4 1025 71 3440 2.4 360 21:22 26.02.2021
2109 Clouds 4 1025 69 3440 2.4 360 20:44 26.02.2021
2110 Clouds 4 1025 67 6427 2.56 352 20:21 26.02.2021
2111 Clouds 2 1029 57 6427 2.56 352 19:48 26.02.2021
2112 Clouds 4 1029 50 10000 3.6 50 19:25 26.02.2021
2113 Clouds 4 1029 54 10000 4.12 50 18:42 26.02.2021
2114 Clouds 2 1027 66 8351 0.45 67 18:22 26.02.2021
2115 Clouds 5 1028 47 10000 2.57 0 17:41 26.02.2021
2116 Clouds 2 1026 63 10000 1.34 27 17:23 26.02.2021
2117 Clouds 5 1028 44 10000 1.03 0 16:52 26.02.2021
2118 Clouds 6 1028 41 10000 2.57 250 16:31 26.02.2021
2119 Clouds 7 1028 38 10000 2.57 240 15:57 26.02.2021
2120 Clouds 8 1028 38 10000 2.57 240 15:38 26.02.2021
2121 Clear 9 1028 38 10000 3.6 250 15:19 26.02.2021
2122 Clouds 8 1028 41 10000 2.57 260 14:45 26.02.2021
2123 Clear 8 1029 41 10000 2.57 260 14:25 26.02.2021
2124 Clear 8 1029 40 10000 1.54 240 13:42 26.02.2021
2125 Clouds 8 1030 37 10000 1.03 0 13:23 26.02.2021
2126 Clouds 8 1043 40 10000 0.447 90 12:39 26.02.2021
2127 Clouds 7 1030 42 10000 1.22 348 11:54 26.02.2021
2128 Clouds 6 1030 43 10000 1.22 348 11:36 26.02.2021
2129 Clouds 7 1030 41 10000 0.9 340 10:48 26.02.2021
2130 Clouds 6 1027 48 10000 0.82 337 09:56 26.02.2021
2131 Clouds 4 1027 51 10000 0.82 337 09:31 26.02.2021
2132 Clouds 3 1027 58 10000 0.88 327 08:56 26.02.2021
2133 Clouds 3 1027 60 10000 1.03 318 08:25 26.02.2021
2134 Clouds 2 1027 60 10000 1.03 318 07:49 26.02.2021
2135 Clear 2 1027 62 10000 1.33 323 06:36 26.02.2021
2136 Clear 2 1027 63 10000 1.4 322 05:31 26.02.2021
2137 Clear 3 1027 59 10000 0.79 297 03:48 26.02.2021
2138 Clear 3 1028 58 10000 0.71 289 02:35 26.02.2021
2139 Clear 4 1032 53 10000 0.75 261 23:57 25.02.2021
2140 Clear 4 1029 60 10000 0.76 235 23:28 25.02.2021
2141 Clear 4 1029 59 10000 0.76 235 22:50 25.02.2021
2142 Clear 4 1029 61 10000 0.93 232 22:19 25.02.2021
2143 Clear 5 1029 37 10000 0.894 45 21:42 25.02.2021
2144 Clear 4 1029 60 10000 0.97 224 21:23 25.02.2021
2145 Clear 6 1029 30 10000 1.788 112 20:41 25.02.2021
2146 Clear 6 1032 58 10000 0.89 135 20:22 25.02.2021
2147 Clear 6 1028 29 10000 3.576 112 19:52 25.02.2021
2148 Clear 7 1028 30 10000 4.47 112 19:22 25.02.2021
2149 Clear 7 1028 29 10000 4.023 112 18:57 25.02.2021
2150 Clear 6 1030 70 10000 2.06 90 18:25 25.02.2021
2151 Clear 9 1030 52 10000 0.89 135 17:49 25.02.2021
2152 Clear 10 1030 50 10000 0.89 90 17:26 25.02.2021
2153 Clear 10 1030 51 10000 1.78 188 16:43 25.02.2021
2154 Clear 10 1030 50 10000 0.45 68 16:25 25.02.2021
2155 Clear 10 1029 33 10000 2.57 270 15:30 25.02.2021
2156 Clear 11 1029 33 10000 1.54 280 14:57 25.02.2021
2157 Clear 10 1030 33 10000 2.06 280 14:24 25.02.2021
2158 Clear 10 1030 37 10000 2.57 270 13:53 25.02.2021
2159 Clear 10 1030 37 10000 1.54 250 13:26 25.02.2021
2160 Clear 11 1029 29 10000 3.576 112 12:55 25.02.2021
2161 Clear 11 1030 27 10000 3.576 112 12:21 25.02.2021
2162 Clear 11 1046 18 10000 1.341 135 11:47 25.02.2021
2163 Clear 10 1031 48 10000 0.45 248 11:19 25.02.2021
2164 Clear 9 1033 39 10000 0.89 225 10:45 25.02.2021
2165 Clear 8 1030 45 10000 2.23 174 10:23 25.02.2021
2166 Clear 7 1030 47 10000 2.23 174 09:42 25.02.2021
2167 Clear 4 1030 59 10000 2.04 178 08:55 25.02.2021
2168 Clear 4 1030 62 10000 1.87 189 08:25 25.02.2021
2169 Clear 3 1030 59 10000 1.87 189 07:53 25.02.2021
2170 Clear 4 1030 61 10000 1.72 198 07:29 25.02.2021
2171 Clear 4 1030 61 10000 1.73 197 06:51 25.02.2021
2172 Clear 4 1031 66 10000 2.71 182 01:57 25.02.2021
2173 Clear 5 1034 75 10000 2.6 182 01:37 25.02.2021
2174 Clear 4 1031 66 10000 2.75 179 00:39 25.02.2021
2175 Clear 4 1031 69 10000 2.8 176 23:51 24.02.2021
2176 Clear 5 1031 69 10000 2.66 178 23:24 24.02.2021
2177 Clear 6 1035 61 10000 0.45 278 22:44 24.02.2021
2178 Clear 6 1035 61 10000 2.48 178 22:25 24.02.2021
2179 Clear 6 1035 61 10000 0.45 277 21:45 24.02.2021
2180 Clear 6 1033 70 10000 2.3 183 20:54 24.02.2021
2181 Clear 6 1048 21 10000 1.341 180 20:30 24.02.2021
2182 Clear 6 1033 67 10000 2.28 188 19:56 24.02.2021
2183 Clear 5 1032 68 10000 2.24 187 19:28 24.02.2021
2184 Clear 7 1033 63 10000 0.89 68 18:55 24.02.2021
2185 Clear 7 1033 63 10000 2.35 190 18:34 24.02.2021
2186 Clear 8 1032 53 10000 2.682 112 17:52 24.02.2021
2187 Clear 9 1033 62 10000 2.47 177 17:29 24.02.2021
2188 Clear 9 1032 54 10000 1.03 110 16:57 24.02.2021
2189 Clear 9 1032 54 10000 1.03 110 16:36 24.02.2021
2190 Clear 9 1032 54 10000 1.54 270 16:18 24.02.2021
2191 Clear 9 1033 41 8000 1.54 270 15:37 24.02.2021
2192 Clear 9 1033 47 8000 1.54 280 14:53 24.02.2021
2193 Clear 9 1033 47 8000 1.54 280 14:32 24.02.2021
2194 Clear 11 1034 48 10000 1.788 112 13:57 24.02.2021
2195 Clear 10 1050 47 10000 0.447 90 13:38 24.02.2021
2196 Clear 10 1050 43 10000 0.447 90 13:19 24.02.2021
2197 Clear 10 1034 51 10000 3.129 112 12:43 24.02.2021
2198 Clear 10 1034 49 10000 3.129 112 12:23 24.02.2021
2199 Clear 9 1051 49 10000 2.682 135 11:45 24.02.2021
2200 Clear 8 1037 58 10000 2.4 177 10:49 24.02.2021
2201 Clear 7 1037 60 10000 2.28 176 10:29 24.02.2021
2202 Clear 6 1033 68 10000 2.28 176 09:41 24.02.2021
2203 Clear 6 1033 70 10000 2.07 178 09:18 24.02.2021
2204 Clear 4 1034 71 10000 2.07 178 08:33 24.02.2021
2205 Clear 4 1034 72 10000 1.94 185 07:55 24.02.2021
2206 Clear 3 1033 72 10000 1.82 194 07:20 24.02.2021
2207 Clear 3 1034 72 10000 1.78 192 06:20 24.02.2021
2208 Clear 4 1034 71 10000 1.78 184 02:47 24.02.2021
2209 Clear 4 1034 72 10000 1.43 181 23:59 23.02.2021
2210 Clear 4 1034 72 10000 1.31 190 23:20 23.02.2021
2211 Clear 4 1034 72 10000 1.31 190 22:37 23.02.2021
2212 Clear 5 1034 72 10000 1.18 195 22:18 23.02.2021
2213 Clear 5 1034 71 10000 1.18 195 21:40 23.02.2021
2214 Clear 5 1034 72 10000 1.17 200 21:22 23.02.2021
2215 Clear 5 1034 71 10000 1.17 200 20:47 23.02.2021
2216 Clear 5 1034 72 10000 1.26 192 20:28 23.02.2021
2217 Clear 5 1034 70 10000 1.26 192 19:47 23.02.2021
2218 Clouds 6 1033 70 10000 1.05 197 19:27 23.02.2021
2219 Clouds 5 1035 61 10000 2.682 112 18:50 23.02.2021
2220 Clouds 6 1033 68 10000 0.95 195 18:29 23.02.2021
2221 Clouds 7 1036 60 10000 0.45 135 17:54 23.02.2021
2222 Clouds 9 1032 64 10000 1.15 191 17:29 23.02.2021
2223 Clear 9 1035 50 10000 1.03 0 16:47 23.02.2021
2224 Clear 9 1035 47 10000 1.54 250 16:25 23.02.2021
2225 Clouds 9 1035 41 8000 1.03 0 15:52 23.02.2021
2226 Clouds 9 1035 41 8000 1.03 0 15:34 23.02.2021
2227 Clear 9 1035 38 10000 1.12 192 14:58 23.02.2021
2228 Clear 9 1035 38 10000 1.12 192 14:40 23.02.2021
2229 Clouds 10 1050 47 10000 3.129 112 14:19 23.02.2021
2230 Clouds 10 1050 45 10000 1.341 135 13:39 23.02.2021
2231 Clouds 10 1050 39 10000 0.447 67 13:19 23.02.2021
2232 Clouds 9 1050 47 10000 2.682 90 12:46 23.02.2021
2233 Clouds 8 1036 55 10000 1.5 176 12:19 23.02.2021
2234 Clouds 9 1051 36 10000 1.788 90 11:45 23.02.2021
2235 Clouds 8 1036 61 10000 0.45 68 11:19 23.02.2021
2236 Clouds 7 1035 53 10000 0.89 75 10:40 23.02.2021
2237 Clouds 7 1036 57 10000 1.39 162 10:19 23.02.2021
2238 Clouds 6 1031 63 10000 1.39 162 09:42 23.02.2021
2239 Clouds 6 1031 67 10000 1.18 164 09:21 23.02.2021
2240 Clouds 5 1031 71 10000 1.18 164 08:47 23.02.2021
2241 Clouds 4 1031 71 10000 0.88 174 08:21 23.02.2021
2242 Clouds 3 1030 71 10000 0.88 174 07:39 23.02.2021
2243 Clouds 3 1030 69 10000 1.1 179 05:28 23.02.2021
2244 Clouds 3 1034 63 10000 1.44 188 02:54 23.02.2021
2245 Clouds 3 1029 66 10000 1.44 188 02:33 23.02.2021
2246 Clouds 3 1029 67 10000 2.09 180 00:20 23.02.2021
2247 Clouds 4 1033 64 10000 2.09 180 23:43 22.02.2021
2248 Clouds 3 1028 67 10000 2.19 183 22:57 22.02.2021
2249 Clouds 3 1033 62 10000 2.19 183 22:38 22.02.2021
2250 Clouds 5 1030 59 10000 2.46 184 22:19 22.02.2021
2251 Clouds 6 1030 60 10000 3.58 0 21:38 22.02.2021
2252 Clouds 5 1030 65 10000 1.79 68 21:20 22.02.2021
2253 Clouds 6 1029 65 10000 2.7 185 20:45 22.02.2021
2254 Clouds 6 1029 64 10000 3.08 181 20:26 22.02.2021
2255 Clouds 7 1028 61 10000 3.08 181 19:49 22.02.2021
2256 Clouds 6 1043 49 10000 3.14 176 19:30 22.02.2021
2257 Clouds 6 1042 44 10000 2.235 135 18:49 22.02.2021
2258 Clouds 7 1025 57 10000 2.57 260 18:29 22.02.2021
2259 Clouds 7 1024 53 10000 3.09 240 17:49 22.02.2021
2260 Clouds 9 1023 37 10000 1.341 135 17:20 22.02.2021
2261 Clouds 9 1041 38 10000 1.341 67 16:50 22.02.2021
2262 Clouds 9 1022 36 10000 2.235 112 16:29 22.02.2021
2263 Clouds 10 1022 26 10000 1.54 0 15:32 22.02.2021
2264 Clouds 9 1020 30 10000 5.364 90 14:54 22.02.2021
2265 Clouds 9 1039 34 10000 3.576 90 14:35 22.02.2021
2266 Clear 8 1022 46 10000 2.57 280 13:58 22.02.2021
2267 Clouds 7 1039 36 10000 2.235 45 13:36 22.02.2021
2268 Clouds 8 1020 29 10000 8.047 135 12:52 22.02.2021
2269 Clouds 8 1020 27 10000 10.282 135 12:23 22.02.2021
2270 Clouds 7 1022 53 10000 1.54 270 11:56 22.02.2021
2271 Clouds 7 1022 53 10000 1.54 270 11:32 22.02.2021
2272 Clouds 7 1023 49 10000 0.89 45 10:59 22.02.2021
2273 Clouds 6 1028 47 10000 1.34 240 10:39 22.02.2021
2274 Clouds 6 1028 53 10000 4.51 166 10:19 22.02.2021
2275 Clouds 4 1023 63 10000 4.51 166 09:37 22.02.2021
2276 Clouds 3 1023 63 10000 4.15 165 09:19 22.02.2021
2277 Clouds 2 1023 66 10000 4.15 165 08:49 22.02.2021
2278 Clouds 4 1028 63 10000 4.02 165 08:20 22.02.2021
2279 Clouds 5 1021 64 10000 0.45 225 07:42 22.02.2021
2280 Clouds 5 1018 17 10000 7.6 135 07:20 22.02.2021
2281 Clouds 4 1021 62 10000 0.89 90 06:25 22.02.2021
2282 Clouds 3 1035 28 10000 4.023 135 03:49 22.02.2021
2283 Clouds 2 1022 67 10000 4.64 168 03:22 22.02.2021
2284 Clouds 4 1015 20 4915 14.305 135 00:54 22.02.2021
2285 Clouds 4 1016 19 7386 12.964 135 00:28 22.02.2021
2286 Clouds 4 1014 21 7386 16.988 135 23:52 21.02.2021
2287 Clouds 4 1015 15 8099 16.54 135 22:59 21.02.2021
2288 Clouds 5 1014 16 9048 15.646 135 22:28 21.02.2021
2289 Clouds 5 1015 17 9048 15.199 135 21:52 21.02.2021
2290 Clouds 3 1020 63 9048 5.19 167 21:33 21.02.2021
2291 Clouds 3 1020 63 8171 5.35 167 20:57 21.02.2021
2292 Clouds 4 1020 63 6995 5.46 165 20:23 21.02.2021
2293 Clouds 4 1020 62 6995 5.46 165 19:59 21.02.2021
2294 Clouds 4 1020 64 5893 5.43 166 19:40 21.02.2021
2295 Clouds 6 1015 21 10000 12.07 112 19:21 21.02.2021
2296 Clouds 6 1016 46 10000 4.12 250 18:29 21.02.2021
2297 Clouds 6 1017 49 10000 4.12 230 17:57 21.02.2021
2298 Clouds 6 1016 46 10000 4.12 240 17:25 21.02.2021
2299 Clouds 7 1016 46 10000 4.12 230 16:53 21.02.2021
2300 Clouds 7 1017 43 10000 4.63 240 16:31 21.02.2021
2301 Clouds 8 1017 40 10000 4.63 240 15:43 21.02.2021
2302 Clouds 8 1017 40 10000 4.12 230 15:19 21.02.2021
2303 Clouds 9 1017 40 10000 4.63 250 14:40 21.02.2021
2304 Clouds 9 1017 43 10000 3.6 250 14:19 21.02.2021
2305 Clouds 8 1018 53 10000 3.6 260 13:30 21.02.2021
2306 Clouds 8 1018 53 10000 2.57 260 12:59 21.02.2021
2307 Clouds 11 1016 22 8841 0.447 90 12:28 21.02.2021
2308 Clouds 8 1018 53 8841 5.26 165 11:43 21.02.2021
2309 Clouds 7 1019 60 9960 0.45 248 10:57 21.02.2021
2310 Clouds 7 1020 62 6723 4.77 170 10:22 21.02.2021
2311 Clouds 4 1019 55 6723 4.77 170 09:52 21.02.2021
2312 Clouds 2 1019 62 9724 4.45 173 09:27 21.02.2021
2313 Clouds 2 1019 66 9724 4.45 173 08:43 21.02.2021
2314 Clouds 1 1019 64 9387 4.16 176 08:19 21.02.2021
2315 Clouds 1 1018 66 9387 4.16 176 07:31 21.02.2021
2316 Clouds 1 1018 67 10000 3.85 176 06:47 21.02.2021
2317 Clouds 1 1019 74 10000 3.9 175 02:48 21.02.2021
2318 Clouds 1 1019 73 10000 3.96 173 02:29 21.02.2021
2319 Clouds 1 1019 75 10000 4.04 171 00:37 21.02.2021
2320 Clouds 1 1019 75 10000 4.11 169 00:18 21.02.2021
2321 Clouds 2 1019 76 10000 4.09 169 22:59 20.02.2021
2322 Clouds 2 1019 73 10000 4.09 169 22:39 20.02.2021
2323 Clouds 3 1019 75 10000 4.03 169 22:19 20.02.2021
2324 Clouds 4 1018 23 10000 4.023 112 21:41 20.02.2021
2325 Clouds 4 1020 75 9824 4.01 170 21:19 20.02.2021
2326 Clouds 4 1019 72 9871 4.01 170 20:42 20.02.2021
2327 Clouds 5 1018 26 9844 4.47 112 20:21 20.02.2021
2328 Clouds 5 1019 69 9844 3.82 170 19:49 20.02.2021
2329 Clouds 4 1019 69 9819 3.69 169 19:23 20.02.2021
2330 Clouds 5 1019 67 9819 0.45 90 18:38 20.02.2021
2331 Clouds 6 1019 66 9977 0.45 90 18:19 20.02.2021
2332 Clouds 6 1019 65 9977 0.45 90 17:37 20.02.2021
2333 Clouds 7 1019 63 10000 0.89 113 16:54 20.02.2021
2334 Clouds 7 1019 63 10000 3.81 169 16:32 20.02.2021
2335 Clouds 7 1035 31 10000 0.447 337 15:46 20.02.2021
2336 Clouds 7 1019 51 8454 3.83 172 15:23 20.02.2021
2337 Clouds 7 1018 43 10000 1.54 270 14:46 20.02.2021
2338 Clouds 7 1018 53 10000 1.03 0 14:23 20.02.2021
2339 Clouds 7 1019 61 10000 3.09 260 13:41 20.02.2021
2340 Clouds 7 1019 53 10000 2.06 250 13:23 20.02.2021
2341 Clouds 9 1035 33 9645 0.894 180 12:50 20.02.2021
2342 Clouds 8 1019 37 10000 2.235 112 12:23 20.02.2021
2343 Clouds 7 1021 58 10000 3.53 167 11:43 20.02.2021
2344 Clouds 7 1021 60 10000 0.45 270 11:24 20.02.2021
2345 Clouds 5 1018 61 10000 3.2 169 10:47 20.02.2021
2346 Clouds 2 1018 66 10000 3.08 170 09:54 20.02.2021
2347 Clouds 1 1018 71 10000 2.91 176 09:22 20.02.2021
2348 Clouds 1 1018 74 10000 2.91 176 08:34 20.02.2021
2349 Clouds 0 1018 75 10000 2.9 178 07:57 20.02.2021
2350 Clouds 1 1018 76 10000 2.63 173 02:46 20.02.2021
2351 Clouds 0 1018 76 10000 2.58 177 02:24 20.02.2021
2352 Clouds 0 1018 76 10000 2.58 177 01:48 20.02.2021
2353 Clouds 1 1019 76 10000 2.68 177 00:45 20.02.2021
2354 Clouds 1 1019 75 10000 2.45 176 23:52 19.02.2021
2355 Clouds 0 1019 77 10000 2.31 179 23:18 19.02.2021
2356 Clouds 2 1024 72 10000 0.45 264 22:27 19.02.2021
2357 Clouds 1 1023 71 10000 0.89 249 21:54 19.02.2021
2358 Clouds 2 1036 61 10000 0.447 90 21:31 19.02.2021
2359 Clouds 2 1020 77 10000 2.44 184 20:48 19.02.2021
2360 Clouds 2 1020 76 10000 0.45 90 20:28 19.02.2021
2361 Clouds 3 1020 74 10000 2.4 181 19:55 19.02.2021
2362 Clouds 3 1020 73 10000 0.45 113 19:27 19.02.2021
2363 Clouds 3 1020 72 10000 0.45 113 18:56 19.02.2021
2364 Clouds 3 1020 71 10000 2.69 179 18:33 19.02.2021
2365 Clouds 4 1017 66 10000 3.576 112 17:51 19.02.2021
2366 Clouds 6 1019 69 10000 2.63 176 16:53 19.02.2021
2367 Clouds 6 1019 68 10000 2.7 175 16:28 19.02.2021
2368 Clear 6 1018 54 10000 1.03 0 15:58 19.02.2021
2369 Clear 6 1018 58 10000 2.06 260 15:31 19.02.2021
2370 Clouds 5 1019 57 10000 2.57 280 14:59 19.02.2021
2371 Clouds 5 1019 57 10000 2.57 280 14:38 19.02.2021
2372 Clouds 6 1019 57 10000 2.57 280 14:18 19.02.2021
2373 Clouds 5 1019 57 10000 2.06 270 13:42 19.02.2021
2374 Clouds 5 1019 61 10000 2.06 270 13:24 19.02.2021
2375 Clouds 5 1020 61 10000 1.54 260 12:41 19.02.2021
2376 Clouds 6 1018 57 10000 1.788 112 12:22 19.02.2021
2377 Clouds 7 1035 63 10000 0.447 180 11:50 19.02.2021
2378 Clouds 6 1021 67 10000 0.45 248 11:22 19.02.2021
2379 Clouds 4 1017 62 10000 2.06 173 10:47 19.02.2021
2380 Clouds 3 1017 64 10000 1.81 187 10:21 19.02.2021
2381 Clouds 2 1018 70 10000 1.81 187 09:40 19.02.2021
2382 Clouds 1 1018 72 10000 1.69 194 09:22 19.02.2021
2383 Clouds 1 1017 72 10000 1.69 194 08:50 19.02.2021
2384 Clouds 1 1021 77 10000 1.49 199 08:22 19.02.2021
2385 Clouds 1 1021 77 10000 1.49 199 07:48 19.02.2021
2386 Clouds 1 1021 77 10000 1.41 195 07:27 19.02.2021
2387 Clouds 1 1021 78 10000 1.41 195 06:49 19.02.2021
2388 Clouds 2 1016 58 10000 4.023 315 05:21 19.02.2021
2389 Clouds 1 1016 59 10000 1.788 135 04:41 19.02.2021
2390 Clouds 0 1016 75 10000 2.5 177 01:47 19.02.2021
2391 Clouds 0 1016 75 9222 2.93 174 00:36 19.02.2021
2392 Clouds 0 1016 76 7062 2.97 176 23:52 18.02.2021
2393 Clouds 0 1016 76 7062 2.97 176 23:33 18.02.2021
2394 Clouds 1 1016 75 8181 3.3 179 22:44 18.02.2021
2395 Clouds 1 1016 75 5571 3.81 176 22:26 18.02.2021
2396 Clouds 2 1016 75 5571 3.81 176 21:47 18.02.2021
2397 Clouds 2 1016 75 5369 4 174 21:25 18.02.2021
2398 Clouds 2 1016 75 5643 4.08 174 21:25 18.02.2021
2399 Clouds 2 1015 73 5369 4 174 20:41 18.02.2021
2400 Clouds 2 1015 73 5369 4 174 20:41 18.02.2021
2401 Clouds 3 1015 74 5137 3.99 175 20:23 18.02.2021
2402 Clouds 3 1015 75 5137 3.99 175 19:46 18.02.2021
2403 Clouds 4 1016 75 10000 3.73 172 19:26 18.02.2021
2404 Clouds 4 1015 74 10000 3.73 172 18:52 18.02.2021
2405 Clouds 4 1015 72 10000 3.59 171 18:27 18.02.2021
2406 Clouds 4 1015 69 10000 3.59 171 17:52 18.02.2021
2407 Clouds 5 1015 65 10000 3.49 171 17:25 18.02.2021
2408 Clouds 5 1015 62 10000 3.49 171 16:53 18.02.2021
2409 Clouds 4 1016 58 10000 3.49 171 16:35 18.02.2021
2410 Clouds 6 1016 58 10000 3.53 171 15:55 18.02.2021
2411 Clouds 6 1016 59 10000 3.53 171 15:36 18.02.2021
2412 Clouds 6 1016 58 10000 0.45 248 15:18 18.02.2021
2413 Clouds 6 1018 34 10000 2.235 202 14:42 18.02.2021
2414 Clouds 6 1018 29 10000 2.682 225 14:23 18.02.2021
2415 Clouds 7 1018 52 10000 3.6 179 13:44 18.02.2021
2416 Clouds 6 1017 53 10000 0.45 68 13:18 18.02.2021
2417 Clouds 6 1018 31 10000 1.788 22 12:42 18.02.2021
2418 Clouds 5 1017 25 10000 3.576 112 12:21 18.02.2021
2419 Clouds 3 1017 51 10000 3.04 175 11:46 18.02.2021
2420 Clouds 3 1017 53 10000 3.14 173 11:25 18.02.2021
2421 Clouds 3 1017 52 10000 3.14 173 10:44 18.02.2021
2422 Clear 2 1018 80 10000 1.03 0 10:25 18.02.2021
2423 Clouds 1 1016 64 10000 3 175 09:40 18.02.2021
2424 Clouds 0 1016 66 10000 2.68 180 09:21 18.02.2021
2425 Clouds -1 1016 68 10000 2.68 180 08:40 18.02.2021
2426 Clouds -1 1023 69 10000 2.73 185 08:21 18.02.2021
2427 Clouds -1 1019 93 10000 3.09 100 07:32 18.02.2021
2428 Clouds 0 1022 70 10000 2.64 182 06:41 18.02.2021
2429 Clouds -2 1017 76 10000 2.47 191 02:29 18.02.2021
2430 Clouds -2 1018 80 10000 1.9 187 23:51 17.02.2021
2431 Clouds -1 1018 80 10000 1.28 193 23:21 17.02.2021
2432 Clouds -1 1018 79 10000 1.28 193 22:49 17.02.2021
2433 Clear -1 1022 74 10000 0.63 207 22:25 17.02.2021
2434 Clear -1 1022 74 10000 0.63 207 21:48 17.02.2021
2435 Clear 0 1020 36 10000 2.235 112 21:22 17.02.2021
2436 Clear -1 1022 74 10000 0.38 257 20:47 17.02.2021
2437 Clear 0 1022 72 10000 0.45 90 20:28 17.02.2021
2438 Clear 0 1022 74 10000 0.41 277 19:48 17.02.2021
2439 Clear 0 1022 75 10000 0.41 277 19:30 17.02.2021
2440 Clear 1 1019 57 10000 3.129 90 18:41 17.02.2021
2441 Clear 0 1022 76 10000 0.77 344 18:22 17.02.2021
2442 Clouds 0 1021 93 10000 2.06 90 17:40 17.02.2021
2443 Clear 1 1018 70 10000 1.17 350 17:19 17.02.2021
2444 Clear 0 1018 71 10000 2.68 84 16:45 17.02.2021
2445 Clear 2 1017 63 10000 1.05 353 16:24 17.02.2021
2446 Clear 2 1017 64 10000 1.05 353 15:44 17.02.2021
2447 Clear 2 1017 64 10000 1.32 346 15:25 17.02.2021
2448 Clear 3 1017 64 10000 1.32 346 14:46 17.02.2021
2449 Clear 1 1019 76 10000 1.95 333 14:28 17.02.2021
2450 Clear 3 1023 69 10000 1.95 333 13:47 17.02.2021
2451 Clouds 1 1020 82 10000 2.06 339 13:29 17.02.2021
2452 Clouds 4 1018 79 10000 1.82 340 12:47 17.02.2021
2453 Clouds 3 1018 84 10000 1.92 343 12:23 17.02.2021
2454 Clouds 2 1018 91 10000 1.92 343 11:44 17.02.2021
2455 Clouds 2 1018 91 10000 2.09 334 11:20 17.02.2021
2456 Clouds 2 1018 93 10000 2.09 334 10:46 17.02.2021
2457 Clouds 2 1018 95 8651 2.36 327 10:26 17.02.2021
2458 Clouds 1 1018 95 8651 2.36 327 09:47 17.02.2021
2459 Clouds 1 1018 95 7522 2.29 330 09:29 17.02.2021
2460 Clouds 1 1018 95 7522 2.29 330 08:44 17.02.2021
2461 Clouds 1 1018 95 5184 2.94 337 08:22 17.02.2021
2462 Clouds 1 1018 95 5078 3.18 336 07:34 17.02.2021
2463 Snow 1 1017 94 5380 2.98 335 06:35 17.02.2021
2464 Snow 1 1018 96 5554 1.63 299 02:42 17.02.2021
2465 Snow 0 1021 90 6138 1.46 289 02:21 17.02.2021
2466 Snow 1 1021 89 10000 1.25 287 00:33 17.02.2021
2467 Snow 1 1021 89 10000 1.25 291 23:57 16.02.2021
2468 Snow 2 1020 90 10000 1.25 291 23:38 16.02.2021
2469 Clouds 2 1015 87 10000 1.21 267 22:44 16.02.2021
2470 Clouds 2 1015 88 10000 1.3 215 22:25 16.02.2021
2471 Clouds 2 1015 88 10000 1.3 215 22:25 16.02.2021
2472 Clouds 2 1015 88 10000 1.3 215 22:25 16.02.2021
2473 Clouds 2 1015 87 10000 1.3 215 21:57 16.02.2021
2474 Clouds 2 1015 88 10000 1.3 215 21:39 16.02.2021
2475 Clouds 2 1016 89 10000 1.91 198 21:20 16.02.2021
2476 Clouds 2 1016 90 10000 1.91 198 20:42 16.02.2021
2477 Clouds 3 1016 90 10000 2.21 195 20:20 16.02.2021
2478 Clouds 3 1016 91 10000 2.21 195 19:44 16.02.2021
2479 Clouds 3 1016 91 10000 1.78 203 19:25 16.02.2021
2480 Clouds 4 1016 90 10000 1.78 203 18:41 16.02.2021
2481 Clouds 4 1017 89 10000 1.57 201 18:23 16.02.2021
2482 Clouds 4 1017 89 10000 1.57 201 17:53 16.02.2021
2483 Clouds 4 1017 88 10000 0.93 211 17:27 16.02.2021
2484 Clouds 5 1017 87 10000 0.93 211 16:52 16.02.2021
2485 Clouds 5 1017 87 10000 0.93 211 16:52 16.02.2021
2486 Clouds 5 1017 85 10000 0.93 211 16:30 16.02.2021
2487 Clouds 5 1017 85 10000 0.93 211 16:30 16.02.2021
2488 Clouds 6 1017 83 7746 0.73 221 15:56 16.02.2021
2489 Clouds 6 1017 83 7746 0.73 221 15:33 16.02.2021
2490 Clouds 6 1018 80 2416 0.87 241 14:58 16.02.2021
2491 Clouds 6 1024 81 2416 0.87 241 14:38 16.02.2021
2492 Clouds 6 1024 80 2353 0.83 240 14:19 16.02.2021
2493 Clouds 6 1024 81 2353 0.83 240 13:40 16.02.2021
2494 Clouds 6 1022 71 2228 0.45 261 12:53 16.02.2021
2495 Clouds 6 1019 79 2228 0.45 261 12:30 16.02.2021
2496 Clouds 5 1020 85 2275 0.45 315 11:58 16.02.2021
2497 Clouds 5 1020 88 2275 0.45 315 11:39 16.02.2021
2498 Clouds 4 1020 88 2469 0.77 338 11:19 16.02.2021
2499 Clouds 3 1021 91 2600 0.7 336 10:45 16.02.2021
2500 Clouds 2 1021 93 8845 1.26 333 10:27 16.02.2021
2501 Clouds 1 1021 93 8845 1.26 333 09:52 16.02.2021
2502 Snow 1 1021 93 8688 2.12 318 09:26 16.02.2021
2503 Clouds 1 1021 93 8688 2.12 318 08:51 16.02.2021
2504 Snow 0 1021 94 5102 2.02 311 08:28 16.02.2021
2505 Clouds 0 1021 94 5102 2.02 311 07:45 16.02.2021
2506 Clouds 0 1023 99 4681 2.17 314 06:51 16.02.2021
2507 Clouds 0 1025 94 5215 2.5 315 02:40 16.02.2021
2508 Snow -1 1024 89 2063 2.2 304 23:55 15.02.2021
2509 Snow -1 1024 87 5493 2.01 300 23:29 15.02.2021
2510 Snow -1 1024 80 5493 2.01 300 22:50 15.02.2021
2511 Snow -1 1024 79 10000 1.73 292 22:28 15.02.2021
2512 Clouds -1 1024 76 10000 1.73 292 21:47 15.02.2021
2513 Clouds -1 1024 75 10000 2.11 306 21:24 15.02.2021
2514 Clouds 0 1025 72 10000 2.11 306 20:55 15.02.2021
2515 Clouds 0 1025 73 10000 2.11 306 20:37 15.02.2021
2516 Snow 0 1025 70 10000 1.67 309 19:51 15.02.2021
2517 Snow 0 1025 71 9571 2.14 315 19:29 15.02.2021
2518 Snow 1 1024 67 9571 2.14 315 18:58 15.02.2021
2519 Snow 1 1024 68 8241 1.48 308 18:29 15.02.2021
2520 Snow 1 1024 64 8241 1.48 308 17:58 15.02.2021
2521 Snow 2 1024 61 8241 1.48 308 17:40 15.02.2021
2522 Rain 2 1024 55 10000 1.65 311 17:21 15.02.2021
2523 Rain 3 1024 43 10000 1.65 311 16:45 15.02.2021
2524 Rain 3 1024 46 10000 1.19 302 16:22 15.02.2021
2525 Rain 3 1025 46 10000 1.19 302 15:44 15.02.2021
2526 Clouds 2 1025 51 10000 0.94 308 15:19 15.02.2021
2527 Clouds 2 1025 40 10000 0.94 308 14:48 15.02.2021
2528 Clouds 2 1025 32 10000 0.83 308 14:21 15.02.2021
2529 Clouds 2 1025 27 10000 0.83 308 13:49 15.02.2021
2530 Clouds 3 1025 29 10000 0.65 318 13:22 15.02.2021
2531 Clouds 3 1025 33 10000 0.65 318 12:51 15.02.2021
2532 Clouds 3 1026 32 10000 0.85 313 12:27 15.02.2021
2533 Clouds 0 1026 51 10000 0.85 313 11:53 15.02.2021
2534 Clouds -1 1026 56 10000 0.71 306 11:26 15.02.2021
2535 Clouds 2 1034 22 10000 0.71 306 10:55 15.02.2021
2536 Clouds 1 1026 24 10000 0.71 306 10:36 15.02.2021
2537 Clouds 1 1026 23 10000 0.98 303 10:18 15.02.2021
2538 Clouds 0 1026 25 10000 0.98 303 09:47 15.02.2021
2539 Clouds 0 1026 24 10000 1.04 294 09:25 15.02.2021
2540 Clouds -3 1024 27 10000 1.15 300 08:22 15.02.2021
2541 Clouds -7 1025 66 10000 1.15 290 07:20 15.02.2021
2542 Clouds -7 1025 66 10000 1.15 290 06:41 15.02.2021
2543 Clouds -8 1026 67 10000 1.26 234 03:33 15.02.2021
2544 Clouds -8 1027 69 10000 1.88 194 02:21 15.02.2021
2545 Clouds -7 1027 70 10000 1.25 198 00:19 15.02.2021
2546 Clouds -8 1027 70 10000 1.07 199 23:25 14.02.2021
2547 Clouds -8 1027 69 10000 1.07 199 22:46 14.02.2021
2548 Clouds -8 1027 69 10000 0.89 211 22:27 14.02.2021
2549 Clouds -8 1027 69 10000 0.89 211 21:51 14.02.2021
2550 Clouds -8 1027 65 10000 0.89 211 21:30 14.02.2021
2551 Clouds -8 1027 66 10000 0.53 223 20:53 14.02.2021
2552 Clouds -8 1028 67 10000 0.53 223 20:30 14.02.2021
2553 Clouds -8 1027 65 10000 0.43 224 19:49 14.02.2021
2554 Clouds -7 1027 65 10000 0.47 263 19:29 14.02.2021
2555 Clouds -8 1027 63 10000 0.41 284 18:42 14.02.2021
2556 Clouds -8 1027 65 10000 0.74 275 18:22 14.02.2021
2557 Clouds -5 1035 75 10000 0.74 275 17:40 14.02.2021
2558 Clouds -6 1027 54 10000 0.91 193 17:19 14.02.2021
2559 Clouds -4 1034 73 10000 0.91 193 16:40 14.02.2021
2560 Clouds -5 1027 46 10000 1.5 189 16:18 14.02.2021
2561 Clouds -5 1027 43 10000 1.5 189 15:44 14.02.2021
2562 Clouds -3 1026 42 10000 2.24 192 14:58 14.02.2021
2563 Clouds -3 1027 41 10000 2.24 192 14:30 14.02.2021
2564 Clouds -3 1027 41 10000 0.45 196 13:56 14.02.2021
2565 Clouds -4 1027 42 10000 2.82 189 13:31 14.02.2021
2566 Clear -4 1027 42 10000 2.71 186 12:49 14.02.2021
2567 Clear -4 1027 45 10000 3.08 182 12:22 14.02.2021
2568 Clear -5 1028 50 10000 3.08 182 11:51 14.02.2021
2569 Clear -6 1028 54 10000 3.25 184 11:25 14.02.2021
2570 Clear -7 1028 61 10000 3.25 184 10:49 14.02.2021
2571 Clear -10 1027 72 10000 3.07 184 09:57 14.02.2021
2572 Clear -8 1026 38 10000 3.07 184 09:39 14.02.2021
2573 Clear -11 1027 74 10000 3.06 190 09:21 14.02.2021
2574 Clear -12 1027 77 10000 3.06 190 08:41 14.02.2021
2575 Clear -12 1027 77 10000 3 199 07:57 14.02.2021
2576 Clouds -10 1033 80 10000 2.72 195 06:52 14.02.2021
2577 Clouds -10 1034 80 10000 2.24 113 05:43 14.02.2021
2578 Clouds -13 1025 82 10000 2.93 180 03:32 14.02.2021
2579 Clouds -10 1032 78 10000 2.68 189 02:29 14.02.2021
2580 Clouds -10 1031 73 10000 5.14 30 00:48 14.02.2021
2581 Clouds -10 1031 73 10000 3.09 70 00:29 14.02.2021
2582 Snow -10 1031 73 10000 3.6 60 23:41 13.02.2021
2583 Snow -10 1031 73 10000 5.14 40 23:21 13.02.2021
2584 Clouds -10 1031 73 10000 5.66 40 22:44 13.02.2021
2585 Snow -11 1031 73 10000 5.14 40 22:20 13.02.2021
2586 Snow -11 1031 73 10000 6.17 40 21:43 13.02.2021
2587 Snow -11 1031 73 10000 4.63 60 21:22 13.02.2021
2588 Snow -11 1030 73 10000 6.69 40 20:30 13.02.2021
2589 Snow -10 1030 73 10000 6.69 40 19:57 13.02.2021
2590 Snow -10 1030 73 10000 6.69 40 19:38 13.02.2021
2591 Clouds -10 1044 77 10000 0.894 67 19:18 13.02.2021
2592 Clouds -10 1026 82 10000 3.576 112 18:44 13.02.2021
2593 Clouds -10 1026 84 10000 3.576 112 18:22 13.02.2021
2594 Clouds -9 1025 85 10000 1.341 112 17:42 13.02.2021
2595 Clouds -8 1016 99 10000 0.55 0 17:22 13.02.2021
2596 Clouds -8 1032 84 10000 0.55 0 16:42 13.02.2021
2597 Clouds -6 1019 87 10000 1.02 2 16:21 13.02.2021
2598 Clouds -5 1019 86 10000 1.02 2 15:39 13.02.2021
2599 Clouds -5 1018 80 10000 1.19 357 14:57 13.02.2021
2600 Clouds -5 1018 81 10000 1.19 357 14:32 13.02.2021
2601 Clouds -5 1018 84 10000 1.03 354 13:48 13.02.2021
2602 Clouds -5 1018 84 10000 0.81 349 13:24 13.02.2021
2603 Clouds -5 1018 88 10000 0.78 350 12:46 13.02.2021
2604 Clouds -6 1017 90 10000 0.77 353 12:18 13.02.2021
2605 Clouds -6 1016 80 10000 0.77 353 11:45 13.02.2021
2606 Clouds -6 1017 91 10000 0.75 331 11:19 13.02.2021
2607 Clouds -6 1015 99 10000 0.75 331 10:45 13.02.2021
2608 Clouds -8 1017 91 10000 0.73 319 10:25 13.02.2021
2609 Clouds -8 1017 91 10000 0.73 319 09:55 13.02.2021
2610 Clouds -8 1017 91 10000 0.73 319 09:30 13.02.2021
2611 Clouds -9 1017 91 10000 1.11 314 08:55 13.02.2021
2612 Clouds -9 1017 91 10000 1.11 314 08:34 13.02.2021
2613 Clouds -9 1016 91 10000 1.01 307 07:50 13.02.2021
2614 Clouds -9 1015 91 10000 1.25 317 06:39 13.02.2021
2615 Clouds -9 1015 91 6012 1.16 320 05:26 13.02.2021
2616 Clouds -8 1014 92 8747 0.99 312 03:58 13.02.2021
2617 Clouds -8 1014 92 6297 0.66 246 01:43 13.02.2021
2618 Clouds -8 1014 92 7982 0.55 220 00:36 13.02.2021
2619 Clouds -8 1014 92 10000 0.85 214 23:54 12.02.2021
2620 Snow -8 1014 92 9547 1.23 185 23:24 12.02.2021
2621 Snow -8 1013 92 9547 1.23 185 22:42 12.02.2021
2622 Snow -8 1013 92 8383 1.12 185 22:21 12.02.2021
2623 Snow -7 1014 92 8383 1.12 185 21:45 12.02.2021
2624 Snow -7 1013 92 7673 0.94 188 21:26 12.02.2021
2625 Snow -7 1014 92 7673 0.94 188 20:46 12.02.2021
2626 Snow -7 1014 93 4905 0.85 189 20:28 12.02.2021
2627 Snow -7 1013 92 4905 0.85 189 19:57 12.02.2021
2628 Snow -7 1013 92 4905 0.85 189 19:57 12.02.2021
2629 Snow -6 1013 92 4905 0.85 189 19:37 12.02.2021
2630 Snow -6 1013 92 4905 0.85 189 19:37 12.02.2021
2631 Clouds -5 1013 90 2879 0.62 211 18:57 12.02.2021
2632 Snow -5 1013 87 498 0.34 224 18:30 12.02.2021
2633 Snow -4 1012 81 206 0.44 195 17:44 12.02.2021
2634 Snow -4 1012 79 146 0.57 206 17:21 12.02.2021
2635 Clouds -2 1012 80 291 0.67 228 16:28 12.02.2021
2636 Snow -2 1011 76 291 0.67 228 15:46 12.02.2021
2637 Clouds -1 1011 78 8111 0.75 195 15:21 12.02.2021
2638 Clouds -2 1012 75 8111 0.75 195 14:42 12.02.2021
2639 Clouds -2 1012 73 10000 1.2 169 14:23 12.02.2021
2640 Clouds -2 1012 61 10000 1.2 169 13:40 12.02.2021
2641 Clouds -2 1020 74 8000 11.32 50 12:56 12.02.2021
2642 Clouds -2 1012 64 10000 1.17 187 12:37 12.02.2021
2643 Clouds -3 1012 69 10000 1.51 185 12:18 12.02.2021
2644 Clouds -2 1012 70 10000 1.51 185 11:38 12.02.2021
2645 Clouds -3 1012 70 10000 1.61 192 11:19 12.02.2021
2646 Clouds -3 1020 80 6000 8.75 50 10:41 12.02.2021
2647 Clouds -4 1039 34 10000 3.129 292 09:49 12.02.2021
2648 Clouds -5 1020 21 10000 1.788 135 09:25 12.02.2021
2649 Clouds -5 1011 48 10000 1.45 209 08:49 12.02.2021
2650 Clouds -6 1010 61 10000 1.08 213 08:28 12.02.2021
2651 Clouds -5 1010 64 10000 1.08 213 07:53 12.02.2021
2652 Clouds -8 1012 85 10000 1.08 213 07:31 12.02.2021
2653 Clouds -9 1013 86 10000 0.87 230 06:55 12.02.2021
2654 Clouds -9 1013 86 10000 0.99 246 05:43 12.02.2021
2655 Clouds -9 1013 86 10000 1.3 236 04:30 12.02.2021
2656 Clouds -8 1013 85 10000 1.88 209 01:28 12.02.2021
2657 Clouds -8 1014 84 10000 1.08 225 23:40 11.02.2021
2658 Clouds -8 1014 84 10000 0.72 265 23:22 11.02.2021
2659 Clouds -8 1014 85 10000 0.72 265 22:46 11.02.2021
2660 Clouds -8 1014 84 10000 0.67 299 22:24 11.02.2021
2661 Clouds -8 1014 84 10000 0.67 299 21:54 11.02.2021
2662 Clouds -8 1014 85 10000 0.67 299 21:36 11.02.2021
2663 Clouds -8 1014 86 10000 1.21 319 21:18 11.02.2021
2664 Clouds -8 1015 86 10000 1.21 319 20:41 11.02.2021
2665 Clouds -8 1015 86 10000 1.73 324 20:21 11.02.2021
2666 Clouds -8 1015 83 10000 1.73 324 19:47 11.02.2021
2667 Clouds -11 1014 84 10000 1.88 328 19:28 11.02.2021
2668 Clouds -8 1022 79 10000 0.45 315 18:49 11.02.2021
2669 Clouds -11 1014 81 10000 2.24 335 18:25 11.02.2021
2670 Clouds -11 1013 79 10000 2.24 335 17:52 11.02.2021
2671 Clouds -7 1013 76 10000 2.85 338 17:22 11.02.2021
2672 Clouds -7 1013 75 10000 2.85 338 16:53 11.02.2021
2673 Clouds -7 1013 74 10000 0.45 313 16:35 11.02.2021
2674 Clouds -7 1013 74 10000 0.45 313 16:35 11.02.2021
2675 Clouds -5 1013 77 10000 3.2 343 15:59 11.02.2021
2676 Clouds -7 1013 78 10000 3.2 343 15:40 11.02.2021
2677 Clouds -7 1013 78 10000 3.2 343 15:40 11.02.2021
2678 Clouds -4 1012 77 10000 3.66 340 15:20 11.02.2021
2679 Clouds -4 1012 80 10000 3.66 340 14:40 11.02.2021
2680 Clouds -4 1012 78 10000 3.74 342 14:21 11.02.2021
2681 Clouds -5 1012 80 10000 3.74 342 13:38 11.02.2021
2682 Clouds -5 1012 81 10000 3.7 343 13:18 11.02.2021
2683 Clouds -6 1010 71 10000 3.7 343 12:44 11.02.2021
2684 Clouds -6 1012 81 10000 3.71 342 12:21 11.02.2021
2685 Clouds -6 1012 85 10000 3.71 342 11:41 11.02.2021
2686 Clouds -6 1012 85 10000 3.68 339 11:20 11.02.2021
2687 Clouds -7 1011 87 10000 3.68 339 10:42 11.02.2021
2688 Clouds -7 1011 87 10000 3.48 339 10:23 11.02.2021
2689 Clouds -8 1011 88 10000 3.48 339 09:42 11.02.2021
2690 Clouds -8 1010 88 8420 3.15 337 09:19 11.02.2021
2691 Clouds -9 1010 89 8420 3.15 337 08:50 11.02.2021
2692 Clouds -10 1019 91 7694 0.45 82 07:58 11.02.2021
2693 Clouds -10 1019 91 7694 0.45 82 07:58 11.02.2021
2694 Clouds -9 1032 92 7674 3.36 332 06:49 11.02.2021
2695 Clouds -10 1017 91 7855 1.34 53 06:29 11.02.2021
2696 Clouds -9 1017 92 7989 1.79 132 03:54 11.02.2021
2697 Snow -8 1004 92 8792 2.68 8 02:28 11.02.2021
2698 Snow -6 1027 94 8406 2.235 315 00:46 11.02.2021
2699 Snow -7 1004 94 7040 0.45 102 00:18 11.02.2021
2700 Snow -7 1003 95 7040 2.24 96 23:35 10.02.2021
2701 Snow -7 1002 96 7521 1.34 85 22:49 10.02.2021
2702 Snow -5 1008 94 6965 1.79 42 22:26 10.02.2021
2703 Snow -4 1001 99 6965 1.79 54 21:41 10.02.2021
2704 Snow -2 1000 93 5033 3.97 333 21:22 10.02.2021
2705 Snow -4 1006 94 5033 3.97 333 20:59 10.02.2021
2706 Snow -3 1000 99 5033 2.24 289 20:39 10.02.2021
2707 Snow -1 999 93 4911 4.07 333 20:20 10.02.2021
2708 Snow -1 999 93 4911 4.07 333 19:43 10.02.2021
2709 Snow -1 999 93 5950 3.79 337 19:22 10.02.2021
2710 Snow -1 999 93 4953 3.88 338 18:40 10.02.2021
2711 Snow -1 998 93 5344 3.82 338 18:21 10.02.2021
2712 Snow -1 998 93 5344 3.82 338 17:50 10.02.2021
2713 Snow -1 998 93 4022 3.92 339 17:22 10.02.2021
2714 Snow -1 997 93 4022 3.92 339 16:50 10.02.2021
2715 Snow -1 997 93 3096 4.25 340 16:29 10.02.2021
2716 Snow 0 996 93 3096 4.25 340 15:45 10.02.2021
2717 Snow 0 996 92 7796 4.19 340 15:22 10.02.2021
2718 Snow 0 996 92 7796 4.19 340 14:42 10.02.2021
2719 Snow 0 995 92 6403 3.97 335 14:19 10.02.2021
2720 Snow 0 995 90 6403 3.97 335 13:50 10.02.2021
2721 Snow 0 995 89 5361 3.71 337 13:27 10.02.2021
2722 Snow 1 995 88 4729 4.09 340 12:46 10.02.2021
2723 Snow 1 994 87 6331 3.7 339 12:28 10.02.2021
2724 Snow 1 994 81 6331 3.7 339 11:47 10.02.2021
2725 Snow 1 994 81 6331 3.7 339 11:47 10.02.2021
2726 Snow 1 994 82 3184 3.07 337 11:28 10.02.2021
2727 Snow 0 993 85 3184 3.07 337 10:47 10.02.2021
2728 Snow 0 993 88 3505 2.42 335 10:19 10.02.2021
2729 Snow -1 993 89 3505 2.42 335 09:43 10.02.2021
2730 Snow -1 993 91 4319 1.42 326 09:21 10.02.2021
2731 Snow -1 993 92 4319 1.42 326 08:50 10.02.2021
2732 Clouds -2 993 92 10000 1.03 304 07:59 10.02.2021
2733 Snow -2 992 92 1045 0.42 279 07:18 10.02.2021
2734 Snow -1 993 91 874 2.04 159 03:45 10.02.2021
2735 Clouds -3 1002 92 10000 2.71 169 00:51 10.02.2021
2736 Clouds -3 1002 93 10000 2.77 170 23:39 09.02.2021
2737 Clouds -3 1002 92 10000 2.95 170 23:19 09.02.2021
2738 Clouds -3 1002 92 10000 2.75 171 22:25 09.02.2021
2739 Clouds -3 1003 92 10000 2.75 171 21:58 09.02.2021
2740 Clouds -3 1003 92 10000 2.75 171 21:40 09.02.2021
2741 Clouds -3 1003 92 10000 2.27 173 21:18 09.02.2021
2742 Clouds -3 1004 92 10000 2.27 173 20:41 09.02.2021
2743 Clouds -3 1004 91 10000 2.05 168 20:22 09.02.2021
2744 Clouds -4 1004 91 10000 2.05 168 19:39 09.02.2021
2745 Clouds -4 1004 91 10000 1.54 165 19:20 09.02.2021
2746 Clouds -3 996 92 10000 1.26 155 18:41 09.02.2021
2747 Clouds -2 996 92 3175 0.49 129 18:20 09.02.2021
2748 Clouds -2 996 89 3175 0.49 129 17:42 09.02.2021
2749 Clouds 0 996 87 3201 0.17 35 17:23 09.02.2021
2750 Clouds 0 995 84 3201 0.17 35 16:49 09.02.2021
2751 Clouds 1 995 79 3893 0.68 329 16:19 09.02.2021
2752 Clouds 2 995 74 3893 0.68 329 15:50 09.02.2021
2753 Clouds 2 995 74 3448 0.52 345 15:27 09.02.2021
2754 Clouds 2 995 70 3448 0.52 345 14:56 09.02.2021
2755 Clouds 3 995 70 2378 0.32 338 14:28 09.02.2021
2756 Clouds 2 995 74 2378 0.32 338 13:54 09.02.2021
2757 Clouds 0 995 73 3166 0.66 324 13:29 09.02.2021
2758 Snow 0 994 74 2922 0.87 325 12:57 09.02.2021
2759 Snow -1 994 77 2922 0.87 325 12:38 09.02.2021
2760 Snow -1 994 78 4419 1.18 327 12:20 09.02.2021
2761 Snow -2 994 80 4419 1.18 327 11:41 09.02.2021
2762 Clouds -2 994 75 7807 1.24 301 11:21 09.02.2021
2763 Clouds -3 994 80 7807 1.24 301 10:50 09.02.2021
2764 Snow -3 994 82 7536 1.3 292 10:19 09.02.2021
2765 Snow -3 994 82 7536 1.3 292 09:44 09.02.2021
2766 Snow -3 994 82 7917 1.32 276 09:25 09.02.2021
2767 Clouds -4 993 83 7917 1.32 276 08:51 09.02.2021
2768 Clouds -4 993 84 9741 1.12 277 08:27 09.02.2021
2769 Snow -4 993 84 10000 1.21 288 07:29 09.02.2021
2770 Clouds -3 997 76 10000 1.67 244 04:58 09.02.2021
2771 Clouds -3 997 78 10000 1.87 214 03:42 09.02.2021
2772 Clouds -5 992 84 10000 1.9 196 01:20 09.02.2021
2773 Clouds -3 998 79 10000 2.18 195 23:58 08.02.2021
2774 Clouds -3 998 64 10000 1.788 270 23:22 08.02.2021
2775 Clouds -3 1016 74 10000 3.129 247 22:45 08.02.2021
2776 Clouds -3 997 78 10000 2.12 205 22:26 08.02.2021
2777 Clouds -3 997 78 10000 2.12 205 21:58 08.02.2021
2778 Clouds -3 1016 78 10000 4.47 180 21:38 08.02.2021
2779 Clouds -6 992 84 10000 1.82 213 21:18 08.02.2021
2780 Clouds -3 997 72 10000 1.341 112 20:42 08.02.2021
2781 Clouds -6 992 84 10000 1.57 224 20:22 08.02.2021
2782 Clouds -6 991 84 10000 1.57 224 19:48 08.02.2021
2783 Clouds -6 991 83 10000 1.81 214 19:26 08.02.2021
2784 Clouds -4 994 86 10000 2.57 100 18:49 08.02.2021
2785 Clouds -4 994 80 10000 2.57 100 18:24 08.02.2021
2786 Clouds -4 994 80 10000 2.57 100 17:47 08.02.2021
2787 Clear -5 990 78 10000 1.36 208 17:26 08.02.2021
2788 Clear -5 990 73 10000 0.45 196 16:47 08.02.2021
2789 Clear -4 990 71 10000 0.45 180 16:23 08.02.2021
2790 Clear -4 990 69 10000 1.21 204 15:49 08.02.2021
2791 Clear -4 990 70 10000 1.26 206 15:21 08.02.2021
2792 Clear -4 990 69 10000 0.45 176 14:59 08.02.2021
2793 Clear -4 990 69 10000 0.89 187 14:41 08.02.2021
2794 Clear -4 990 68 10000 1.34 196 14:22 08.02.2021
2795 Clear -4 990 70 10000 0.89 191 13:42 08.02.2021
2796 Clear -4 990 68 10000 0.89 175 13:23 08.02.2021
2797 Clear -4 990 70 10000 0.45 178 12:38 08.02.2021
2798 Clear -4 991 73 10000 0.45 181 11:58 08.02.2021
2799 Clear -4 991 74 10000 0.45 173 11:26 08.02.2021
2800 Clear -5 991 80 10000 0.82 331 10:46 08.02.2021
2801 Clear -6 991 82 10000 0.65 323 10:25 08.02.2021
2802 Clear -5 991 83 10000 0.65 323 09:55 08.02.2021
2803 Clear -6 991 86 10000 0.65 323 09:36 08.02.2021
2804 Clear -8 991 92 10000 0.86 316 08:52 08.02.2021
2805 Clouds -7 995 100 10000 1.54 110 08:24 08.02.2021
2806 Clouds -6 995 93 10000 1.54 90 07:38 08.02.2021
2807 Clouds -7 996 100 10000 0.51 0 06:31 08.02.2021
2808 Clouds -6 995 100 10000 1.99 330 04:53 08.02.2021
2809 Clouds -6 991 92 10000 2.79 337 01:51 08.02.2021
2810 Snow -6 991 84 604 3.03 334 00:23 08.02.2021
2811 Snow -6 991 88 604 3.03 334 23:52 07.02.2021
2812 Snow -6 991 88 358 3.06 337 23:27 07.02.2021
2813 Snow -6 991 86 358 3.06 337 22:55 07.02.2021
2814 Snow -6 991 86 358 3.06 337 22:55 07.02.2021
2815 Snow -6 991 87 358 3.06 337 22:37 07.02.2021
2816 Snow -6 991 83 249 0.45 325 22:19 07.02.2021
2817 Snow -6 991 81 249 0.45 294 21:47 07.02.2021
2818 Snow -5 991 84 170 3.59 336 21:21 07.02.2021
2819 Snow -5 991 84 170 3.59 336 20:48 07.02.2021
2820 Snow -4 991 86 130 3.53 338 20:27 07.02.2021
2821 Snow -4 991 85 130 3.53 338 19:43 07.02.2021
2822 Snow -4 991 87 116 3.54 344 19:25 07.02.2021
2823 Snow -3 991 94 247 3.97 330 18:44 07.02.2021
2824 Snow -3 991 93 129 3.73 334 18:26 07.02.2021
2825 Snow -3 991 92 129 3.73 334 17:45 07.02.2021
2826 Snow -3 990 91 77 3.11 338 17:22 07.02.2021
2827 Snow -2 990 88 77 1.34 305 16:58 07.02.2021
2828 Snow -2 990 88 77 1.34 314 16:39 07.02.2021
2829 Snow -2 990 86 59 0.89 328 16:19 07.02.2021
2830 Snow -1 990 92 59 2.29 344 15:42 07.02.2021
2831 Snow -1 990 92 68 1.63 347 15:21 07.02.2021
2832 Snow 0 990 91 68 1.63 347 14:43 07.02.2021
2833 Snow 0 990 91 94 1.07 309 14:25 07.02.2021
2834 Clouds 0 991 90 94 1.09 310 13:43 07.02.2021
2835 Snow 0 992 91 72 0.16 196 13:25 07.02.2021
2836 Snow 0 992 92 281 0.51 143 12:39 07.02.2021
2837 Snow 0 993 91 488 1.44 154 12:20 07.02.2021
2838 Snow 0 994 87 488 1.44 154 11:42 07.02.2021
2839 Snow 0 994 86 9310 1.87 165 11:24 07.02.2021
2840 Snow 1 994 82 9093 2.52 160 10:29 07.02.2021
2841 Snow 0 994 83 9093 2.52 160 09:57 07.02.2021
2842 Snow 0 994 84 9093 2.52 160 09:38 07.02.2021
2843 Snow 0 994 84 9093 2.52 160 09:38 07.02.2021
2844 Snow 0 994 83 7736 3.41 165 09:18 07.02.2021
2845 Snow 0 994 83 7736 3.41 165 09:18 07.02.2021
2846 Snow 0 995 84 7585 3.53 170 07:57 07.02.2021
2847 Snow 1 998 99 7981 3.5 169 06:32 07.02.2021
2848 Snow 1 1000 95 7924 4.13 166 04:45 07.02.2021
2849 Snow 1 999 88 7756 4.38 162 02:52 07.02.2021
2850 Snow 1 1001 91 3912 5.05 159 00:39 07.02.2021
2851 Snow 1 1001 90 3407 5.08 161 23:58 06.02.2021
2852 Snow 1 1001 89 3659 5.52 157 23:19 06.02.2021
2853 Snow 1 1002 86 4739 5.73 157 22:25 06.02.2021
2854 Rain 2 1002 80 4739 5.73 157 21:38 06.02.2021
2855 Rain 2 1002 79 5488 5.98 156 21:20 06.02.2021
2856 Rain 3 1002 78 5488 5.98 156 20:44 06.02.2021
2857 Clouds 4 1002 78 5068 6.06 160 20:23 06.02.2021
2858 Clouds 5 995 53 5068 18.776 135 19:51 06.02.2021
2859 Clouds 5 994 52 6780 19.67 135 19:26 06.02.2021
2860 Clouds 4 1012 62 6780 12.517 157 18:46 06.02.2021
2861 Clouds 5 996 51 7470 18.329 135 18:27 06.02.2021
2862 Clouds 6 997 47 7470 14.305 135 17:41 06.02.2021
2863 Clouds 6 997 44 7473 13.411 135 17:21 06.02.2021
2864 Clouds 7 1001 74 7473 1.79 248 16:57 06.02.2021
2865 Clouds 6 1001 77 7473 1.34 248 16:34 06.02.2021
2866 Clouds 6 1001 77 7473 1.34 248 16:34 06.02.2021
2867 Clouds 5 1004 73 8341 5.84 158 15:55 06.02.2021
2868 Clouds 5 1005 68 8341 7.15 89 15:36 06.02.2021
2869 Clouds 5 1005 70 7584 4.92 146 15:18 06.02.2021
2870 Clouds 5 1006 71 7584 7.15 89 14:43 06.02.2021
2871 Clouds 5 1006 69 8864 6.26 98 14:22 06.02.2021
2872 Clouds 6 1006 71 8783 5.81 121 13:47 06.02.2021
2873 Clouds 6 1006 72 10000 5.02 160 12:48 06.02.2021
2874 Clouds 5 1007 68 5672 4.14 165 12:20 06.02.2021
2875 Clouds 6 1006 68 5672 4.14 165 11:42 06.02.2021
2876 Clouds 6 1004 45 10000 3.129 90 11:20 06.02.2021
2877 Clouds 4 1007 71 10000 4.77 161 10:53 06.02.2021
2878 Clouds 4 1008 73 7555 5.17 172 10:28 06.02.2021
2879 Clouds 4 1008 74 7555 5.17 172 09:54 06.02.2021
2880 Clouds 3 1008 74 7555 5.17 172 09:36 06.02.2021
2881 Clouds 3 1008 76 7668 4.84 167 09:18 06.02.2021
2882 Clouds 2 1008 80 8051 4.33 167 08:29 06.02.2021
2883 Clouds 2 1008 80 8051 4.33 167 07:44 06.02.2021
2884 Clouds 2 1008 82 10000 4.2 170 05:42 06.02.2021
2885 Clouds 3 1008 79 10000 4.09 170 03:48 06.02.2021
2886 Clouds 4 1011 37 7500 4.55 169 01:33 06.02.2021
2887 Clouds 4 1009 81 2050 4.65 168 00:46 06.02.2021
2888 Clouds 4 1009 82 1133 4.76 167 00:19 06.02.2021
2889 Clouds 4 1009 81 1133 4.76 167 23:42 05.02.2021
2890 Clouds 4 1009 83 1381 4.49 169 23:24 05.02.2021
2891 Clouds 4 1010 82 1381 4.49 169 22:45 05.02.2021
2892 Clouds 4 1010 81 4907 4.15 170 22:18 05.02.2021
2893 Clouds 4 1010 80 4907 4.15 170 21:41 05.02.2021
2894 Clouds 4 1010 80 5187 3.9 169 21:23 05.02.2021
2895 Clouds 4 1010 80 5187 3.9 169 20:39 05.02.2021
2896 Clouds 3 1010 80 5013 3.4 171 19:50 05.02.2021
2897 Clouds 3 1011 80 5339 3.18 173 19:19 05.02.2021
2898 Clouds 3 1010 78 5339 3.18 173 18:45 05.02.2021
2899 Clouds 3 1011 76 10000 3.18 175 18:19 05.02.2021
2900 Clouds 5 1013 73 10000 3.18 175 17:43 05.02.2021
2901 Clouds 4 1011 71 10000 2.77 163 17:21 05.02.2021
2902 Clouds 4 1011 71 10000 2.77 163 17:21 05.02.2021
2903 Clouds 6 1029 70 10000 2.682 67 16:46 05.02.2021
2904 Clouds 6 1014 71 10000 2.58 176 16:23 05.02.2021
2905 Clouds 7 1014 71 10000 2.58 176 15:53 05.02.2021
2906 Clouds 7 1014 68 4140 3.26 175 15:26 05.02.2021
2907 Clouds 7 1012 52 4140 3.576 225 14:40 05.02.2021
2908 Clouds 6 1014 71 3709 3.5 171 14:22 05.02.2021
2909 Clouds 7 1014 72 3709 0.89 293 13:58 05.02.2021
2910 Clouds 7 1013 70 8887 3.22 174 13:35 05.02.2021
2911 Clouds 7 1013 67 9393 0.89 270 12:47 05.02.2021
2912 Clouds 7 1013 68 9289 3.25 173 12:27 05.02.2021
2913 Clouds 6 1013 58 9289 4.023 135 11:40 05.02.2021
2914 Clouds 5 1013 57 9074 3.129 112 11:21 05.02.2021
2915 Clouds 5 1016 78 9074 3.24 172 10:54 05.02.2021
2916 Clouds 3 1012 74 9115 3.17 177 10:27 05.02.2021
2917 Clouds 3 1012 77 9115 3.17 177 09:47 05.02.2021
2918 Clouds 2 1012 79 10000 3.11 177 09:27 05.02.2021
2919 Clouds 1 1012 79 10000 3.11 177 08:52 05.02.2021
2920 Clouds 1 1012 80 10000 3 177 08:20 05.02.2021
2921 Clouds 0 1011 81 10000 3 177 07:36 05.02.2021
2922 Clouds 1 1011 79 10000 3.06 182 06:49 05.02.2021
2923 Clouds 1 1011 79 10000 3.24 175 05:37 05.02.2021
2924 Clouds 1 1012 79 10000 3.52 173 02:52 05.02.2021
2925 Clouds 1 1012 78 10000 3.61 173 02:24 05.02.2021
2926 Clouds 2 1012 74 10000 3.45 177 00:40 05.02.2021
2927 Clouds 2 1012 76 10000 3.53 177 00:20 05.02.2021
2928 Clouds 2 1012 76 10000 3.53 177 23:55 04.02.2021
2929 Clouds 2 1012 76 10000 3.53 177 23:36 04.02.2021
2930 Clouds 2 1012 75 10000 3.52 176 23:18 04.02.2021
2931 Clouds 1 1012 75 10000 3.52 176 22:46 04.02.2021
2932 Clouds 0 1012 75 10000 3.34 171 22:25 04.02.2021
2933 Clouds 1 1015 65 10000 3.34 171 21:42 04.02.2021
2934 Clouds 0 1012 73 10000 3.28 172 21:19 04.02.2021
2935 Clouds 0 1012 73 10000 3.28 172 21:19 04.02.2021
2936 Clouds 1 1031 76 10000 1.788 22 20:46 04.02.2021
2937 Clouds 0 1012 73 10000 2.96 172 20:28 04.02.2021
2938 Clouds 1 1015 63 10000 2.96 172 19:42 04.02.2021
2939 Clouds 2 1016 65 10000 2.54 181 18:56 04.02.2021
2940 Clouds 2 1016 63 10000 2.25 173 18:25 04.02.2021
2941 Clouds 2 1016 67 10000 2.25 173 17:53 04.02.2021
2942 Clouds 2 1015 70 10000 1.72 172 17:26 04.02.2021
2943 Clouds 3 1015 76 10000 1.72 172 16:56 04.02.2021
2944 Clouds 2 1015 57 10000 1.72 172 16:38 04.02.2021
2945 Clouds 4 1012 58 10000 1.26 193 16:18 04.02.2021
2946 Clouds 4 1016 77 10000 1.26 193 15:39 04.02.2021
2947 Clouds 5 1014 42 10000 1.86 196 15:20 04.02.2021
2948 Clouds 4 1016 78 10000 1.86 196 14:42 04.02.2021
2949 Clouds 5 1014 46 10000 1.341 22 14:20 04.02.2021
2950 Clouds 4 1033 37 10000 1.788 337 13:45 04.02.2021
2951 Clouds 4 1016 47 10000 1.88 173 13:24 04.02.2021
2952 Clouds 5 1016 55 10000 1.88 173 12:52 04.02.2021
2953 Clouds 4 1013 64 10000 1.56 164 11:54 04.02.2021
2954 Clouds 3 1013 67 10000 1.56 164 11:34 04.02.2021
2955 Clouds 3 1014 75 10000 1.13 165 10:54 04.02.2021
2956 Clouds 2 1014 79 10000 1.13 165 10:34 04.02.2021
2957 Clouds 1 1013 80 10000 0.55 186 09:45 04.02.2021
2958 Clouds 0 1015 78 10000 0.62 240 09:22 04.02.2021
2959 Clouds 0 1012 85 10000 0.62 240 08:51 04.02.2021
2960 Clouds -1 1014 85 10000 0.79 279 08:26 04.02.2021
2961 Clouds -2 1014 88 10000 0.79 279 07:56 04.02.2021
2962 Clouds -2 1014 88 10000 0.79 279 07:33 04.02.2021
2963 Clouds 0 1030 60 10000 3.576 247 06:45 04.02.2021
2964 Clouds 0 1016 13 10000 1.21 296 05:45 04.02.2021
2965 Clouds 0 1011 76 10000 1.788 135 02:40 04.02.2021
2966 Clouds 0 1015 15 10000 1.59 301 02:18 04.02.2021
2967 Clouds -1 1008 90 10000 1.4 287 00:20 04.02.2021
2968 Snow 0 1008 91 10000 1.4 287 23:30 03.02.2021
2969 Snow 1 1007 90 10000 1.08 266 22:38 03.02.2021
2970 Snow 1 1008 89 1825 1.59 220 22:20 03.02.2021
2971 Snow 1 1007 87 1825 1.59 220 21:51 03.02.2021
2972 Snow 1 1007 84 403 1.62 225 21:24 03.02.2021
2973 Snow 0 1011 99 403 0.89 181 20:51 03.02.2021
2974 Snow 1 1006 83 403 1.62 225 20:31 03.02.2021
2975 Snow 1 1006 88 1039 1.89 191 19:55 03.02.2021
2976 Snow 0 1005 86 1976 2.48 197 19:25 03.02.2021
2977 Snow 1 1005 87 120 2.47 204 18:58 03.02.2021
2978 Snow 1 1005 85 120 2.47 204 18:38 03.02.2021
2979 Snow 1 1005 85 236 2.72 189 18:19 03.02.2021
2980 Snow -1 1008 99 236 2.72 189 17:46 03.02.2021
2981 Snow 1 1005 81 7656 2.81 188 17:26 03.02.2021
2982 Snow 1 1008 99 7656 2.81 188 16:43 03.02.2021
2983 Rain 3 1005 75 10000 3.61 177 16:23 03.02.2021
2984 Snow 2 1009 99 10000 3.61 177 15:41 03.02.2021
2985 Snow 2 1009 99 197 3.51 198 15:22 03.02.2021
2986 Rain 2 1009 98 197 3.51 198 14:47 03.02.2021
2987 Rain 2 1008 99 905 4.36 178 14:23 03.02.2021
2988 Rain 3 1009 92 905 4.36 178 13:48 03.02.2021
2989 Rain 3 1008 92 10000 0.45 48 13:21 03.02.2021
2990 Rain 3 1009 93 10000 0.45 14 12:45 03.02.2021
2991 Rain 3 1009 94 8802 0.45 278 12:21 03.02.2021
2992 Rain 4 1009 85 8802 0.89 243 11:43 03.02.2021
2993 Rain 4 1009 93 7840 4.67 170 11:24 03.02.2021
2994 Rain 4 1009 93 7840 4.67 170 10:42 03.02.2021
2995 Rain 3 1006 83 4037 4.65 173 10:20 03.02.2021
2996 Rain 4 1006 89 4037 4.65 173 09:43 03.02.2021
2997 Rain 4 1006 87 598 4.73 172 09:20 03.02.2021
2998 Rain 3 1005 92 598 4.73 172 08:48 03.02.2021
2999 Clouds 3 1005 93 4680 4.43 175 07:58 03.02.2021
3000 Rain 3 1006 93 10000 0.45 201 07:19 03.02.2021
3001 Rain 2 1006 94 10000 3.53 176 06:38 03.02.2021
3002 Clouds 2 1006 94 10000 2.18 175 04:49 03.02.2021
3003 Clouds 2 1007 93 10000 1.59 186 03:53 03.02.2021
3004 Clouds 2 1007 94 10000 1.41 194 02:42 03.02.2021
3005 Clouds 2 1007 94 10000 0.82 237 01:58 03.02.2021
3006 Clouds 2 1007 94 311 1.98 207 00:25 03.02.2021
3007 Clouds 3 1007 95 311 1.98 207 23:44 02.02.2021
3008 Rain 2 1007 95 137 1.73 193 23:26 02.02.2021
3009 Rain 2 1007 95 137 1.73 193 23:26 02.02.2021
3010 Clouds 2 1007 94 137 1.73 193 22:52 02.02.2021
3011 Clouds 2 1007 93 268 1.94 185 22:22 02.02.2021
3012 Snow 2 1007 94 268 1.94 185 21:48 02.02.2021
3013 Rain 2 1007 94 92 1.93 207 21:27 02.02.2021
3014 Snow 2 1006 94 92 1.93 207 20:52 02.02.2021
3015 Clouds 2 1006 94 622 1.21 280 20:25 02.02.2021
3016 Clouds 2 1006 94 622 1.21 280 19:59 02.02.2021
3017 Clouds 2 1006 94 622 1.21 280 19:40 02.02.2021
3018 Clouds 2 1006 93 10000 0.86 205 19:22 02.02.2021
3019 Rain 2 1006 94 10000 0.86 205 18:42 02.02.2021
3020 Clouds 2 1006 94 10000 1 267 18:24 02.02.2021
3021 Clouds 2 1006 94 10000 1 267 17:42 02.02.2021
3022 Clouds 2 1006 94 1768 1.31 261 17:21 02.02.2021
3023 Clouds 2 1007 94 1768 1.31 261 16:51 02.02.2021
3024 Rain 2 1006 94 1768 1.31 261 16:31 02.02.2021
3025 Clouds 3 1006 92 159 1.34 225 15:57 02.02.2021
3026 Rain 3 1005 89 159 1.34 225 15:34 02.02.2021
3027 Clouds 3 1005 85 67 2.19 213 14:56 02.02.2021
3028 Clouds 4 1005 85 67 2.19 213 14:37 02.02.2021
3029 Clouds 5 1005 81 55 2.03 220 14:18 02.02.2021
3030 Clouds 3 1006 90 55 2.03 220 13:42 02.02.2021
3031 Clouds 3 1006 92 1355 2.67 209 13:24 02.02.2021
3032 Clouds 3 1006 90 1355 2.67 209 12:53 02.02.2021
3033 Clouds 2 1006 90 4086 0.45 102 12:22 02.02.2021
3034 Rain 2 1006 89 4086 2.15 213 11:38 02.02.2021
3035 Rain 2 1006 88 10000 1.38 215 11:18 02.02.2021
3036 Clouds 1 1005 90 10000 1.38 215 10:43 02.02.2021
3037 Snow 1 1005 89 10000 1.65 249 10:25 02.02.2021
3038 Clouds 1 1005 90 10000 1.65 249 09:45 02.02.2021
3039 Snow 1 1005 91 10000 1.66 235 09:21 02.02.2021
3040 Snow 0 1006 93 10000 1.66 235 08:43 02.02.2021
3041 Snow 0 1005 94 10000 1.04 262 07:47 02.02.2021
3042 Clouds 0 1005 95 10000 1.26 284 07:23 02.02.2021
3043 Clouds 0 1005 95 10000 1.96 310 06:40 02.02.2021
3044 Clouds 0 1004 95 9589 2.36 314 05:51 02.02.2021
3045 Snow 0 1003 95 6515 2.63 323 03:35 02.02.2021
3046 Snow 0 1002 95 6562 2.5 317 02:24 02.02.2021
3047 Snow 0 1001 95 4546 2.57 310 00:40 02.02.2021
3048 Snow 0 1000 95 2617 2.23 308 23:57 01.02.2021
3049 Snow 0 1000 95 1673 2.07 306 22:59 01.02.2021
3050 Snow 0 1000 95 1673 2.07 306 22:39 01.02.2021
3051 Snow 0 1000 95 631 2.12 317 22:19 01.02.2021
3052 Snow 0 999 95 631 2.12 317 21:45 01.02.2021
3053 Snow 0 999 95 2298 2.24 313 21:22 01.02.2021
3054 Snow 0 998 95 2298 2.24 313 20:42 01.02.2021
3055 Snow 0 998 95 226 1.94 312 20:24 01.02.2021
3056 Snow 0 998 95 226 1.94 312 19:47 01.02.2021
3057 Snow 0 997 94 107 1.42 298 19:21 01.02.2021
3058 Snow 0 997 94 107 1.42 298 19:21 01.02.2021
3059 Snow 0 997 94 112 1.48 320 18:55 01.02.2021
3060 Snow 0 997 94 112 1.48 320 18:32 01.02.2021
3061 Snow 0 996 94 1037 1.22 312 17:57 01.02.2021
3062 Snow 0 995 94 1037 1.22 312 17:39 01.02.2021
3063 Snow 0 996 93 190 0.62 236 17:18 01.02.2021
3064 Snow 1 995 93 190 0.62 236 16:33 01.02.2021
3065 Snow 1 995 91 115 1.15 223 15:50 01.02.2021
3066 Snow 1 995 85 266 1.5 199 15:21 01.02.2021
3067 Snow 0 994 76 266 1.5 199 14:57 01.02.2021
3068 Snow -2 997 99 266 1.5 199 14:39 01.02.2021
3069 Snow -1 996 98 333 2.06 196 13:56 01.02.2021
3070 Snow -1 996 96 333 2.06 196 13:38 01.02.2021
3071 Snow -1 996 96 333 2.06 196 13:38 01.02.2021
3072 Clouds -1 996 90 5623 2.18 200 13:19 01.02.2021
3073 Clouds -1 996 88 2172 2.44 190 12:44 01.02.2021
3074 Clouds 0 996 90 10000 2.47 187 12:23 01.02.2021
3075 Clouds 0 996 84 10000 2.47 187 11:42 01.02.2021
3076 Clouds -1 995 88 10000 2.91 191 11:20 01.02.2021
3077 Snow 2 993 84 10000 2.91 191 10:46 01.02.2021
3078 Clouds 1 993 87 10000 3.05 184 10:20 01.02.2021
3079 Snow 0 993 89 10000 3.05 184 09:44 01.02.2021
3080 Clouds -1 997 95 10000 2.98 189 09:24 01.02.2021
3081 Clouds -1 992 92 10000 2.98 189 08:51 01.02.2021
3082 Clouds -2 997 94 10000 2.88 190 07:53 01.02.2021
3083 Clouds -1 992 93 10000 2.78 187 06:34 01.02.2021
3084 Snow -1 992 94 5074 2.78 171 04:21 01.02.2021
3085 Snow -2 994 86 6444 2.83 185 01:31 01.02.2021
3086 Clouds -2 993 89 10000 2.67 177 23:42 31.01.2021
3087 Clouds -2 997 29 10000 2.69 177 22:44 31.01.2021
3088 Clouds -2 997 30 10000 2.14 193 22:24 31.01.2021
3089 Clouds -2 998 33 10000 2.14 193 21:55 31.01.2021
3090 Clouds -2 998 26 10000 1.44 204 21:25 31.01.2021
3091 Clouds -2 999 29 10000 1.44 204 20:57 31.01.2021
3092 Clouds -2 999 31 10000 1.44 204 20:37 31.01.2021
3093 Clouds -2 999 91 10000 0.8 227 20:18 31.01.2021
3094 Clouds -2 999 31 10000 0.53 262 19:37 31.01.2021
3095 Clouds -2 999 34 10000 0.93 308 19:19 31.01.2021
3096 Clouds -2 999 34 10000 0.93 308 19:19 31.01.2021
3097 Clouds -2 999 34 10000 0.93 308 19:19 31.01.2021
3098 Clouds -2 998 85 10000 2.682 112 18:41 31.01.2021
3099 Clouds -2 1000 89 10000 1.07 318 18:23 31.01.2021
3100 Clouds -1 1000 54 10000 1.07 318 17:47 31.01.2021
3101 Clouds 1 995 87 10000 0.85 342 17:24 31.01.2021
3102 Clouds 2 995 85 10000 0.85 342 16:52 31.01.2021
3103 Clouds 2 995 83 10000 0.85 342 16:33 31.01.2021
3104 Clouds 1 1000 80 10000 1.55 341 15:52 31.01.2021
3105 Clouds 1 1000 77 10000 1.55 341 15:34 31.01.2021
3106 Clouds 1 998 92 8862 2.4 336 14:45 31.01.2021
3107 Clouds 2 998 88 9817 2.55 342 14:25 31.01.2021
3108 Clouds 2 1000 77 9817 2.55 342 13:56 31.01.2021
3109 Clouds 2 1000 77 9817 2.55 342 13:56 31.01.2021
3110 Clouds 2 998 88 9817 2.55 342 13:37 31.01.2021
3111 Clouds 2 999 91 10000 2.58 344 12:49 31.01.2021
3112 Clouds 2 996 84 10000 2.74 344 12:23 31.01.2021
3113 Clouds 2 996 84 10000 2.74 344 12:23 31.01.2021
3114 Clouds 2 996 85 10000 2.74 344 11:58 31.01.2021
3115 Clouds 1 996 88 10000 2.74 344 11:37 31.01.2021
3116 Clouds 1 997 88 7890 3.12 341 11:19 31.01.2021
3117 Clouds 0 996 89 7890 3.12 341 10:43 31.01.2021
3118 Clouds 0 996 89 7089 3.02 338 10:24 31.01.2021
3119 Clouds -1 996 94 7089 3.02 338 09:32 31.01.2021
3120 Clouds -2 997 99 7705 2.36 339 08:34 31.01.2021
3121 Clouds -3 996 99 10000 2.38 334 07:20 31.01.2021
3122 Clouds -1 994 96 10000 2.74 336 05:42 31.01.2021
3123 Snow -1 994 96 6413 3.38 335 00:52 31.01.2021
3124 Snow -1 994 96 5030 3.03 333 00:26 31.01.2021
3125 Snow -1 994 96 5030 3.03 333 23:34 30.01.2021
3126 Snow -1 993 96 4861 2.62 338 22:57 30.01.2021
3127 Snow -1 993 96 4861 2.62 338 22:31 30.01.2021
3128 Snow 0 994 96 335 2.21 347 21:42 30.01.2021
3129 Snow 0 994 96 143 1.46 341 21:23 30.01.2021
3130 Snow 0 994 96 143 1.46 341 20:50 30.01.2021
3131 Snow 0 994 96 143 1.46 341 20:31 30.01.2021
3132 Snow 0 994 95 150 0.87 325 19:54 30.01.2021
3133 Snow 0 994 95 150 0.87 325 19:54 30.01.2021
3134 Snow 0 994 95 150 0.87 325 19:36 30.01.2021
3135 Snow 0 994 95 244 0.3 259 19:18 30.01.2021
3136 Snow 0 994 95 616 0.31 245 18:39 30.01.2021
3137 Snow 0 994 95 3185 0.77 155 18:19 30.01.2021
3138 Snow 1 995 93 5149 1.31 163 17:23 30.01.2021
3139 Snow 1 995 92 5149 1.31 163 16:56 30.01.2021
3140 Snow 1 995 91 5149 1.31 163 16:37 30.01.2021
3141 Snow 1 995 92 4326 1.76 166 16:18 30.01.2021
3142 Clouds 1 995 92 4326 1.76 166 15:40 30.01.2021
3143 Snow 1 995 92 1743 2.08 165 15:21 30.01.2021
3144 Clouds 1 996 92 1743 2.08 165 14:52 30.01.2021
3145 Snow 1 997 93 3196 2.16 188 14:22 30.01.2021
3146 Snow 1 997 93 3196 2.16 188 13:35 30.01.2021
3147 Snow 1 997 93 3196 2.16 188 13:35 30.01.2021
3148 Snow 1 998 93 3503 2.23 180 12:53 30.01.2021
3149 Snow 1 999 93 3503 2.23 180 12:33 30.01.2021
3150 Snow 1 999 92 3227 1.9 183 11:59 30.01.2021
3151 Snow 0 999 90 3227 1.9 183 11:37 30.01.2021
3152 Snow 0 1000 85 3230 1.35 196 10:51 30.01.2021
3153 Snow -1 1000 93 6410 1.07 261 09:53 30.01.2021
3154 Snow -1 1000 95 6410 1.07 261 09:31 30.01.2021
3155 Clouds -1 1001 95 10000 1.6 284 08:49 30.01.2021
3156 Snow -2 1001 95 10000 1.6 284 08:30 30.01.2021
3157 Snow -3 1002 99 9718 1.66 290 06:58 30.01.2021
3158 Clouds -3 1002 99 10000 1.75 296 06:19 30.01.2021
3159 Clouds -3 1009 95 10000 2.32 301 03:35 30.01.2021
3160 Snow -1 1003 94 8589 3.1 306 02:26 30.01.2021
3161 Snow -1 1003 93 8589 3.1 306 01:35 30.01.2021
3162 Snow -1 1003 92 5485 3.31 309 00:47 30.01.2021
3163 Snow -1 1002 93 287 3.83 315 00:21 30.01.2021
3164 Snow -1 1002 94 287 3.83 315 23:49 29.01.2021
3165 Snow -1 1002 93 120 4 321 23:24 29.01.2021
3166 Snow -1 1002 94 120 4 321 22:45 29.01.2021
3167 Snow -1 1001 94 173 4.08 317 22:20 29.01.2021
3168 Snow -1 1001 94 173 4.08 317 21:37 29.01.2021
3169 Snow -1 1001 94 161 3.14 318 21:19 29.01.2021
3170 Snow -1 1000 94 161 3.14 318 20:41 29.01.2021
3171 Snow -1 1000 93 88 2.96 321 20:21 29.01.2021
3172 Snow 0 1000 94 88 2.96 321 19:38 29.01.2021
3173 Snow 0 1000 94 99 2.8 316 19:19 29.01.2021
3174 Snow 0 1000 94 99 2.8 316 19:19 29.01.2021
3175 Snow 0 1001 93 99 2.8 316 18:44 29.01.2021
3176 Snow 0 1000 93 90 3.02 317 17:45 29.01.2021
3177 Snow 0 1001 92 1221 3.02 323 17:22 29.01.2021
3178 Snow 1 1001 90 1221 3.02 323 16:47 29.01.2021
3179 Snow 1 1001 90 650 3.55 320 16:24 29.01.2021
3180 Snow 1 1001 90 650 3.55 320 16:24 29.01.2021
3181 Snow 1 1001 86 650 3.55 320 15:52 29.01.2021
3182 Snow 1 1001 86 650 3.55 320 15:34 29.01.2021
3183 Snow 2 1001 78 2789 0.45 324 14:56 29.01.2021
3184 Rain 2 1001 73 3486 3.89 324 14:18 29.01.2021
3185 Clouds 2 1001 90 3486 3.89 324 13:45 29.01.2021
3186 Snow 2 1001 92 6036 3.83 321 13:26 29.01.2021
3187 Clouds 2 1002 92 6036 0.89 158 12:30 29.01.2021
3188 Clouds -1 1003 95 5998 3.75 321 11:51 29.01.2021
3189 Snow -1 1003 95 4237 4.01 318 11:20 29.01.2021
3190 Snow -1 1003 94 4237 4.01 318 10:58 29.01.2021
3191 Snow -1 1002 94 4237 4.01 318 10:39 29.01.2021
3192 Snow 2 1002 93 5211 3.71 312 09:50 29.01.2021
3193 Snow 2 1002 93 5211 3.71 312 09:50 29.01.2021
3194 Snow 2 1002 93 1171 4.41 302 09:29 29.01.2021
3195 Snow 1 1002 93 1171 4.41 302 08:48 29.01.2021
3196 Snow 1 1001 95 3843 1.34 175 08:25 29.01.2021
3197 Snow 0 1001 95 3843 0.45 175 07:43 29.01.2021
3198 Snow 0 1001 95 2244 2.65 317 07:22 29.01.2021
3199 Snow 0 1001 95 1974 0.89 348 06:29 29.01.2021
3200 Snow 0 1004 96 4147 2.02 239 03:52 29.01.2021
3201 Clouds 0 1005 95 3112 2.32 303 00:46 29.01.2021
3202 Snow 0 1006 95 2119 2.59 298 00:22 29.01.2021
3203 Clouds 0 1006 95 2119 2.59 298 23:47 28.01.2021
3204 Snow 0 1007 95 1834 2.65 310 23:27 28.01.2021
3205 Snow 1 1006 95 1834 2.65 310 22:57 28.01.2021
3206 Clouds 0 1007 95 1834 2.65 310 22:38 28.01.2021
3207 Snow 0 1007 95 4804 2.82 316 22:18 28.01.2021
3208 Clouds 0 1007 95 4804 2.82 316 21:41 28.01.2021
3209 Snow 0 1006 95 1720 2.89 316 21:20 28.01.2021
3210 Snow 0 1006 95 1720 2.89 316 20:40 28.01.2021
3211 Snow 0 1006 95 1674 3.71 317 20:19 28.01.2021
3212 Snow 0 1006 95 1674 3.71 317 19:48 28.01.2021
3213 Snow 0 1006 95 1660 3.56 324 19:27 28.01.2021
3214 Snow 0 1005 95 1660 3.56 324 18:49 28.01.2021
3215 Snow 0 1005 95 98 3.68 309 18:29 28.01.2021
3216 Snow 0 1005 95 98 3.68 309 17:48 28.01.2021
3217 Snow 0 1005 95 98 3.68 309 17:48 28.01.2021
3218 Snow 0 1005 95 98 3.68 309 17:30 28.01.2021
3219 Snow 0 1005 95 68 3.19 311 16:47 28.01.2021
3220 Snow 0 1005 95 64 2.79 308 16:28 28.01.2021
3221 Snow 0 1005 94 64 2.79 308 15:59 28.01.2021
3222 Snow 0 1005 94 59 2.19 302 15:24 28.01.2021
3223 Snow 0 1005 94 59 2.19 302 14:44 28.01.2021
3224 Snow 0 1005 94 59 2.19 302 14:44 28.01.2021
3225 Snow 0 1005 94 50 2.38 292 14:23 28.01.2021
3226 Snow 0 1005 94 50 2.38 292 13:54 28.01.2021
3227 Snow 0 1005 94 63 2.07 289 13:23 28.01.2021
3228 Snow 0 1005 94 63 2.07 289 12:48 28.01.2021
3229 Snow 0 1005 94 70 2.25 278 12:23 28.01.2021
3230 Snow -1 1006 94 70 2.25 278 11:44 28.01.2021
3231 Snow -1 1006 94 83 2.45 237 11:21 28.01.2021
3232 Snow -1 1006 94 83 2.45 237 10:56 28.01.2021
3233 Mist 0 1012 100 1400 1.54 110 10:38 28.01.2021
3234 Snow -1 1007 94 91 2.24 253 10:20 28.01.2021
3235 Snow -1 1010 99 91 2.24 253 09:34 28.01.2021
3236 Snow -1 1008 99 158 2.21 261 08:58 28.01.2021
3237 Snow -1 1008 99 158 2.21 261 08:39 28.01.2021
3238 Snow -2 1007 93 696 1.96 272 07:48 28.01.2021
3239 Snow -2 1009 99 921 1.96 285 06:51 28.01.2021
3240 Snow -2 1009 99 921 1.96 285 06:32 28.01.2021
3241 Snow -3 1009 93 176 2.18 312 04:30 28.01.2021
3242 Snow -3 1010 92 129 2.42 318 02:26 28.01.2021
3243 Snow -3 1011 99 116 2.78 317 00:27 28.01.2021
3244 Snow -3 1010 99 105 2.71 319 23:25 27.01.2021
3245 Snow -3 1010 99 105 2.71 319 22:44 27.01.2021
3246 Snow -3 1010 99 104 2.76 322 22:25 27.01.2021
3247 Snow -3 1010 99 104 2.76 322 21:55 27.01.2021
3248 Snow -3 1010 99 104 2.76 322 21:37 27.01.2021
3249 Snow -3 1010 99 97 2.88 321 21:19 27.01.2021
3250 Snow -3 1010 99 97 2.88 321 20:39 27.01.2021
3251 Snow -4 1009 99 98 3.09 327 19:57 27.01.2021
3252 Snow -4 1010 99 98 3.09 327 19:38 27.01.2021
3253 Snow -4 1010 99 107 3.37 327 19:20 27.01.2021
3254 Snow -4 1010 99 100 3.84 335 18:41 27.01.2021
3255 Snow -4 1009 99 84 3.86 331 18:22 27.01.2021
3256 Snow -4 1009 99 84 3.86 331 17:45 27.01.2021
3257 Snow -4 1008 99 76 3.49 332 17:21 27.01.2021
3258 Snow -4 1008 99 76 3.49 332 16:47 27.01.2021
3259 Snow -4 1017 100 550 3.09 250 16:28 27.01.2021
3260 Snow -4 1017 100 550 3.09 250 16:28 27.01.2021
3261 Snow -4 1016 100 550 1.03 0 15:50 27.01.2021
3262 Snow -4 1016 93 600 0.51 0 15:31 27.01.2021
3263 Snow -4 1016 100 1000 0.51 0 14:43 27.01.2021
3264 Snow -4 1016 93 800 0.51 0 14:22 27.01.2021
3265 Snow -4 1016 100 1000 1.54 100 13:45 27.01.2021
3266 Snow -4 1017 100 900 2.11 306 12:58 27.01.2021
3267 Snow -4 1017 100 900 2.11 306 12:38 27.01.2021
3268 Snow -4 1017 100 900 1.65 275 12:18 27.01.2021
3269 Snow -4 1017 100 500 2.06 80 11:41 27.01.2021
3270 Snow -4 1020 79 117 2.235 337 11:21 27.01.2021
3271 Snow -4 1039 96 117 7.6 247 10:38 27.01.2021
3272 Snow -4 1039 96 147 8.047 270 10:19 27.01.2021
3273 Snow -4 1039 96 147 8.941 270 09:40 27.01.2021
3274 Snow -6 1011 86 285 1.26 313 08:56 27.01.2021
3275 Snow -9 1011 84 1819 1.3 306 07:59 27.01.2021
3276 Snow -9 1011 84 1819 1.3 306 07:40 27.01.2021
3277 Snow -9 1008 71 9274 1.93 305 06:50 27.01.2021
3278 Clouds -9 1012 82 10000 2.07 299 06:18 27.01.2021
3279 Clouds -11 1012 83 10000 2.07 299 05:36 27.01.2021
3280 Clouds -11 1013 81 10000 1.52 320 03:29 27.01.2021
3281 Clouds -11 1013 80 10000 1.5 317 02:23 27.01.2021
3282 Clouds -10 1014 81 10000 1.5 317 01:48 27.01.2021
3283 Clouds -10 1014 81 10000 1.32 325 00:33 27.01.2021
3284 Clouds -10 1014 81 10000 1.8 328 23:48 26.01.2021
3285 Clouds -12 1011 73 10000 2.11 324 23:28 26.01.2021
3286 Clouds -12 1015 81 10000 2.11 324 22:48 26.01.2021
3287 Clouds -12 1015 81 10000 1.93 324 22:23 26.01.2021
3288 Clouds -12 1015 79 10000 1.93 324 21:53 26.01.2021
3289 Clouds -12 1015 79 10000 1.93 324 21:53 26.01.2021
3290 Clouds -12 1027 85 10000 1.93 324 21:32 26.01.2021
3291 Clouds -10 1022 74 10000 2.57 70 20:58 26.01.2021
3292 Clouds -10 1022 74 10000 2.57 70 20:39 26.01.2021
3293 Clouds -10 1022 80 10000 2.57 110 20:20 26.01.2021
3294 Clouds -10 1022 74 10000 2.57 90 19:44 26.01.2021
3295 Clouds -10 1022 74 10000 2.57 110 19:20 26.01.2021
3296 Clouds -10 1022 74 10000 2.57 90 18:47 26.01.2021
3297 Clouds -10 1022 80 10000 2.06 110 18:24 26.01.2021
3298 Clouds -10 1022 80 10000 2.06 110 18:24 26.01.2021
3299 Clouds -10 1022 86 10000 2.06 110 17:51 26.01.2021
3300 Clear -9 1022 64 10000 1.03 0 17:30 26.01.2021
3301 Clouds -9 1022 69 10000 2.06 80 16:55 26.01.2021
3302 Clouds -7 1013 69 10000 2.68 327 16:37 26.01.2021
3303 Clouds -11 1012 75 10000 3.04 334 16:18 26.01.2021
3304 Clouds -10 1012 81 10000 3.04 334 15:40 26.01.2021
3305 Clear -6 1012 76 10000 3.53 334 15:20 26.01.2021
3306 Clear -7 1012 87 10000 3.53 334 14:37 26.01.2021
3307 Clear -7 1013 65 10000 0.45 187 14:18 26.01.2021
3308 Clear -5 1013 65 10000 3.6 332 13:33 26.01.2021
3309 Clouds -5 1013 69 10000 3.52 328 12:57 26.01.2021
3310 Clouds -8 1011 91 10000 3.58 330 12:38 26.01.2021
3311 Clouds -8 1011 93 10000 3.55 325 12:19 26.01.2021
3312 Clouds -8 1011 93 10000 3.55 325 11:49 26.01.2021
3313 Clouds -8 1011 91 10000 3.52 326 11:19 26.01.2021
3314 Clouds -9 1010 93 10000 3.52 326 10:39 26.01.2021
3315 Clouds -9 1010 97 10000 3.14 320 10:20 26.01.2021
3316 Clouds -10 1010 97 10000 3.14 320 09:39 26.01.2021
3317 Clouds -9 1021 74 10000 5.66 310 09:21 26.01.2021
3318 Snow -8 1020 74 10000 6.17 310 08:44 26.01.2021
3319 Clouds -9 1019 93 10000 0.51 0 07:56 26.01.2021
3320 Clouds -9 1019 100 10000 1.03 90 07:19 26.01.2021
3321 Clouds -9 1018 93 10000 1.54 70 05:51 26.01.2021
3322 Clouds -9 1018 93 10000 1.54 70 05:32 26.01.2021
3323 Snow -10 1018 92 7270 3.4 319 03:32 26.01.2021
3324 Snow -9 1016 93 4837 3.26 319 01:18 26.01.2021
3325 Snow -9 1016 93 4828 3.17 320 00:26 26.01.2021
3326 Snow -9 1015 93 4828 3.17 320 23:33 25.01.2021
3327 Snow -11 1002 97 3990 3.29 323 22:50 25.01.2021
3328 Snow -11 1002 98 2408 3.36 328 22:29 25.01.2021
3329 Snow -10 1001 98 2408 3.36 328 21:46 25.01.2021
3330 Snow -10 1000 98 2214 3.4 334 21:19 25.01.2021
3331 Snow -10 1000 98 2214 3.4 334 20:43 25.01.2021
3332 Snow -8 1012 93 3049 0.45 58 20:23 25.01.2021
3333 Snow -8 999 98 3049 3.49 338 19:48 25.01.2021
3334 Snow -6 1001 89 2519 3.5 339 19:23 25.01.2021
3335 Snow -7 1000 89 2519 3.5 339 18:46 25.01.2021
3336 Snow -6 1000 88 290 3.41 331 18:24 25.01.2021
3337 Snow -6 1000 88 290 3.41 331 17:49 25.01.2021
3338 Snow -6 999 88 2687 2.99 340 17:25 25.01.2021
3339 Snow -6 999 88 2687 2.99 340 16:50 25.01.2021
3340 Snow -6 999 86 2189 3.02 338 16:26 25.01.2021
3341 Snow -6 998 86 2189 3.02 338 15:57 25.01.2021
3342 Snow -5 998 86 2189 3.02 338 15:39 25.01.2021
3343 Snow -5 998 86 3621 3.36 346 15:19 25.01.2021
3344 Snow -6 997 86 3621 3.36 346 14:39 25.01.2021
3345 Clouds -5 997 85 3846 3.45 349 14:18 25.01.2021
3346 Snow -7 1007 86 3846 3.45 349 13:44 25.01.2021
3347 Snow -8 995 96 3790 3.11 344 13:21 25.01.2021
3348 Snow -5 997 82 5010 3.35 335 12:44 25.01.2021
3349 Snow -8 995 97 7121 3.18 334 12:19 25.01.2021
3350 Snow -5 996 81 8189 3.14 334 11:29 25.01.2021
3351 Snow -5 996 81 8189 3.14 334 10:52 25.01.2021
3352 Snow -6 995 84 3560 3.3 335 10:22 25.01.2021
3353 Snow -6 995 86 3560 3.3 335 09:53 25.01.2021
3354 Snow -7 995 89 3560 3.3 335 09:30 25.01.2021
3355 Snow -7 995 89 6151 2.68 333 08:38 25.01.2021
3356 Snow -7 994 90 553 2.98 323 07:58 25.01.2021
3357 Snow -7 994 90 279 2.6 330 07:29 25.01.2021
3358 Snow -7 994 91 123 2.68 346 06:38 25.01.2021
3359 Snow -8 995 87 230 1.24 230 02:56 25.01.2021
3360 Snow -8 995 77 7365 2.1 205 00:45 25.01.2021
3361 Snow -8 995 76 5822 1.82 242 23:39 24.01.2021
3362 Clouds -9 996 75 10000 1.76 238 23:18 24.01.2021
3363 Clouds -8 996 73 10000 1.76 238 22:40 24.01.2021
3364 Clouds -9 996 73 10000 1.63 233 22:18 24.01.2021
3365 Clouds -8 997 72 10000 1.63 233 21:37 24.01.2021
3366 Clouds -9 997 72 10000 1.69 252 21:18 24.01.2021
3367 Clouds -9 997 73 10000 1.69 252 20:41 24.01.2021
3368 Clouds -8 997 73 10000 1.15 249 20:19 24.01.2021
3369 Clouds -9 997 73 10000 1.15 249 19:50 24.01.2021
3370 Clouds -7 1002 69 10000 2.57 110 19:26 24.01.2021
3371 Clouds -8 1002 80 10000 2.57 110 18:56 24.01.2021
3372 Clouds -8 1002 80 10000 2.57 110 18:37 24.01.2021
3373 Clear -8 1003 86 10000 3.09 100 18:19 24.01.2021
3374 Clear -8 1003 86 10000 2.06 100 17:47 24.01.2021
3375 Clear -8 1003 86 10000 1.54 100 17:20 24.01.2021
3376 Clear -7 1002 93 10000 1.03 80 16:42 24.01.2021
3377 Clear -7 996 55 10000 2.27 329 16:23 24.01.2021
3378 Clear -6 1003 79 10000 0.89 90 15:49 24.01.2021
3379 Clear -5 996 51 10000 3.41 334 15:22 24.01.2021
3380 Clear -6 1004 69 10000 3.41 334 14:58 24.01.2021
3381 Clear -5 996 69 10000 3.41 334 14:36 24.01.2021
3382 Clear -5 996 75 10000 3.82 333 13:40 24.01.2021
3383 Clouds -5 996 76 10000 3.98 332 13:20 24.01.2021
3384 Clouds -4 996 78 10000 0.45 159 12:42 24.01.2021
3385 Clouds -3 996 80 10000 3.78 335 12:19 24.01.2021
3386 Clouds -4 996 85 10000 3.78 335 11:49 24.01.2021
3387 Clouds -6 995 88 10000 3.82 332 11:23 24.01.2021
3388 Clouds -7 995 89 10000 3.82 332 10:42 24.01.2021
3389 Clouds -7 995 90 7624 3.57 327 09:59 24.01.2021
3390 Clouds -9 995 91 7040 3.14 325 09:22 24.01.2021
3391 Clouds -9 994 91 7040 3.14 325 08:55 24.01.2021
3392 Clouds -6 1000 41 7409 2.682 247 07:41 24.01.2021
3393 Snow -6 991 99 8506 2.63 313 02:39 24.01.2021
3394 Snow -5 991 89 10000 1.57 244 01:00 24.01.2021
3395 Snow -5 991 87 10000 2.2 215 00:24 24.01.2021
3396 Snow -5 991 86 10000 2.2 215 23:47 23.01.2021
3397 Snow -5 991 86 10000 2.57 211 23:26 23.01.2021
3398 Snow -5 991 86 10000 2.57 211 23:26 23.01.2021
3399 Snow -5 991 85 10000 2.57 211 22:51 23.01.2021
3400 Snow -5 991 86 10000 2.57 211 22:32 23.01.2021
3401 Clouds -5 991 85 10000 1.82 203 21:51 23.01.2021
3402 Clouds -6 991 83 10000 2.12 203 21:22 23.01.2021
3403 Clouds -6 991 85 10000 2.12 203 20:47 23.01.2021
3404 Clouds -4 991 84 10000 1.55 186 20:24 23.01.2021
3405 Snow -4 991 84 10000 1.55 186 19:46 23.01.2021
3406 Snow -4 991 83 10000 0.68 277 19:22 23.01.2021
3407 Snow -4 991 83 6700 1.08 330 18:49 23.01.2021
3408 Snow -6 991 83 9489 1.53 301 18:26 23.01.2021
3409 Snow -5 991 81 9489 1.53 301 17:48 23.01.2021
3410 Clouds -5 991 80 10000 0.78 78 17:27 23.01.2021
3411 Clouds -5 989 74 10000 0.78 78 16:50 23.01.2021
3412 Clouds -3 991 79 10000 0.75 184 16:28 23.01.2021
3413 Clouds -5 992 77 10000 0.75 184 15:41 23.01.2021
3414 Clouds -2 992 74 10000 0.32 40 15:22 23.01.2021
3415 Clouds -1 992 70 10000 0.32 40 14:33 23.01.2021
3416 Clouds -1 993 74 10000 0.85 50 13:55 23.01.2021
3417 Clouds -2 993 76 10000 0.85 50 13:36 23.01.2021
3418 Clouds -2 994 77 10000 1.01 349 12:57 23.01.2021
3419 Clouds -2 994 79 10000 1.66 328 12:29 23.01.2021
3420 Clouds -3 994 80 10000 1.66 328 11:48 23.01.2021
3421 Clouds -3 995 83 10000 2.21 327 11:28 23.01.2021
3422 Clouds -3 995 85 10000 2.21 327 10:52 23.01.2021
3423 Clouds -6 995 94 10000 2.46 330 10:21 23.01.2021
3424 Clouds -4 995 90 10000 2.46 330 09:48 23.01.2021
3425 Clouds -6 994 94 10000 2.78 328 08:56 23.01.2021
3426 Clouds -6 1015 93 10000 1.788 180 08:31 23.01.2021
3427 Clouds -7 994 94 10000 3.41 328 07:31 23.01.2021
3428 Snow -3 994 84 1638 0.45 4 03:41 23.01.2021
3429 Snow 0 989 90 223 4.84 318 00:54 23.01.2021
3430 Snow 0 989 95 184 3.06 325 23:51 22.01.2021
3431 Snow 0 989 95 184 3.06 325 23:30 22.01.2021
3432 Snow 0 988 95 126 2.14 312 22:39 22.01.2021
3433 Snow 0 989 95 985 1.64 277 21:47 22.01.2021
3434 Snow 0 989 95 260 1.36 189 21:29 22.01.2021
3435 Snow 0 989 94 260 1.36 189 20:59 22.01.2021
3436 Snow 0 989 94 260 1.36 189 20:38 22.01.2021
3437 Snow 0 990 93 2814 1.97 174 19:56 22.01.2021
3438 Snow 1 990 92 8292 2.96 168 19:26 22.01.2021
3439 Snow 1 990 92 10000 2.21 157 18:59 22.01.2021
3440 Snow 1 990 92 10000 2.21 157 18:40 22.01.2021
3441 Snow 1 990 91 8041 3.11 152 18:21 22.01.2021
3442 Snow 1 990 90 8041 3.11 152 17:43 22.01.2021
3443 Clouds 2 991 88 10000 3.91 160 17:24 22.01.2021
3444 Clouds 2 989 59 10000 10.729 135 16:40 22.01.2021
3445 Rain 3 992 86 10000 4.09 159 16:20 22.01.2021
3446 Clouds 3 993 83 10000 4.38 158 15:28 22.01.2021
3447 Rain 3 993 78 10000 4.38 158 14:58 22.01.2021
3448 Clouds 4 993 77 10000 4.38 158 14:30 22.01.2021
3449 Rain 2 994 72 8207 0.45 217 13:47 22.01.2021
3450 Snow 1 995 72 8126 4.82 153 13:28 22.01.2021
3451 Snow 2 995 74 8126 4.82 153 12:45 22.01.2021
3452 Clouds 3 995 77 7900 4.92 158 12:22 22.01.2021
3453 Clouds 3 997 80 7900 4.92 158 11:46 22.01.2021
3454 Snow 0 997 81 8466 4.42 163 10:55 22.01.2021
3455 Snow 0 997 81 8466 4.42 163 10:35 22.01.2021
3456 Snow 1 997 84 9133 4.03 165 09:57 22.01.2021
3457 Snow -2 999 99 9360 3.58 171 09:27 22.01.2021
3458 Snow -2 998 84 9360 3.58 171 08:50 22.01.2021
3459 Snow -2 998 84 9360 3.58 171 08:50 22.01.2021
3460 Clouds -2 999 95 10000 3.6 169 08:25 22.01.2021
3461 Clouds -2 998 87 10000 3.6 169 07:31 22.01.2021
3462 Snow -2 999 91 2807 2.38 181 03:21 22.01.2021
3463 Clouds -1 1000 93 7709 4.51 171 00:39 22.01.2021
3464 Snow 1 1001 92 7969 4.9 167 23:51 21.01.2021
3465 Snow -1 1001 91 7674 4.7 169 23:29 21.01.2021
3466 Snow 0 1001 91 7674 4.7 169 22:50 21.01.2021
3467 Snow 0 1001 91 7592 5.04 167 22:24 21.01.2021
3468 Snow -1 1001 92 7592 5.04 167 21:43 21.01.2021
3469 Snow -1 1002 90 7687 5.31 167 21:20 21.01.2021
3470 Snow -1 1002 89 7687 5.31 167 20:48 21.01.2021
3471 Snow -1 1002 89 9241 4.87 164 20:29 21.01.2021
3472 Snow -1 1005 91 9241 0.45 283 19:52 21.01.2021
3473 Snow -1 1005 92 8834 0.45 309 19:30 21.01.2021
3474 Snow -1 1006 88 8834 0.45 285 18:57 21.01.2021
3475 Snow 1 1019 68 8834 8.047 135 18:38 21.01.2021
3476 Snow 1 1019 66 9083 5.812 135 18:19 21.01.2021
3477 Snow 1 1001 57 9083 12.517 135 17:42 21.01.2021
3478 Clouds 2 1001 56 9500 12.07 135 17:20 21.01.2021
3479 Clouds 2 1020 69 9500 6.706 135 16:46 21.01.2021
3480 Snow 0 1005 82 8591 5.22 162 16:24 21.01.2021
3481 Snow 0 1005 78 8591 0.45 281 15:59 21.01.2021
3482 Snow 1 1004 84 8591 5.22 162 15:33 21.01.2021
3483 Snow 1 1004 85 10000 5.11 163 14:53 21.01.2021
3484 Snow 1 1005 82 10000 5.11 163 14:35 21.01.2021
3485 Clouds 0 1006 80 10000 5.24 163 13:48 21.01.2021
3486 Snow 0 1007 85 10000 5.42 163 13:28 21.01.2021
3487 Clouds 0 1008 89 10000 5.34 163 12:55 21.01.2021
3488 Clouds 1 1005 80 10000 5.34 163 12:37 21.01.2021
3489 Clouds 0 1008 88 10000 5.59 165 12:18 21.01.2021
3490 Clouds 0 1006 82 10000 5.59 165 11:43 21.01.2021
3491 Clouds 0 1006 82 10000 5.59 165 11:43 21.01.2021
3492 Clouds 0 1008 96 10000 5.6 165 11:22 21.01.2021
3493 Clouds 1 1007 85 10000 5.6 165 10:45 21.01.2021
3494 Clouds -1 1006 86 10000 5.49 165 10:24 21.01.2021
3495 Clouds -2 1006 88 10000 5.49 165 09:40 21.01.2021
3496 Clouds -1 1006 89 10000 5.27 165 09:21 21.01.2021
3497 Clouds -1 1006 90 10000 5.27 165 08:37 21.01.2021
3498 Clouds 0 1003 56 10000 13.411 135 07:54 21.01.2021
3499 Clouds 0 1003 56 10000 14.305 135 07:26 21.01.2021
3500 Clouds 0 1003 56 10000 15.646 135 06:43 21.01.2021
3501 Snow -2 1006 92 10000 5 166 05:19 21.01.2021
3502 Snow -3 1007 89 9469 5.48 166 02:24 21.01.2021
3503 Snow -3 1007 89 8808 5.66 165 00:44 21.01.2021
3504 Snow -2 1008 88 8851 5.66 163 23:52 20.01.2021
3505 Snow -2 1008 88 8851 5.66 163 23:31 20.01.2021
3506 Snow -2 1008 88 8431 5.75 161 22:57 20.01.2021
3507 Snow -2 1008 88 8431 5.75 161 22:36 20.01.2021
3508 Snow -2 1009 87 9161 5.83 162 21:56 20.01.2021
3509 Clouds -2 1009 88 8505 5.53 165 21:24 20.01.2021
3510 Clouds -2 1009 87 8505 5.53 165 20:55 20.01.2021
3511 Clouds -2 1009 87 8505 5.53 165 20:36 20.01.2021
3512 Clouds -1 1022 58 8675 3.576 22 20:18 20.01.2021
3513 Clouds -1 1022 54 8675 5.364 67 19:40 20.01.2021
3514 Clouds -1 1005 48 8701 10.282 135 19:21 20.01.2021
3515 Clouds 0 1006 46 8701 10.729 157 18:41 20.01.2021
3516 Clouds 0 1006 45 9016 6.706 112 17:56 20.01.2021
3517 Clouds 1 1023 46 9016 4.47 90 17:37 20.01.2021
3518 Clouds 3 1006 32 8656 4.917 90 16:52 20.01.2021
3519 Clouds 1 1010 78 8656 5.37 162 16:32 20.01.2021
3520 Clouds 2 1007 93 10000 2.06 280 15:51 20.01.2021
3521 Clouds 1 1010 71 9823 6.71 101 15:33 20.01.2021
3522 Clouds 1 1010 70 10000 8.05 83 14:48 20.01.2021
3523 Clouds 1 1010 67 10000 6.26 81 14:22 20.01.2021
3524 Clouds 4 1009 28 10000 1.341 112 13:42 20.01.2021
3525 Clouds 3 1009 29 10000 2.682 112 13:21 20.01.2021
3526 Clouds 3 1011 77 10000 5.71 164 12:39 20.01.2021
3527 Clouds 1 1011 64 10000 5.52 166 11:55 20.01.2021
3528 Clouds 0 1011 100 10000 0.51 0 11:35 20.01.2021
3529 Clouds -1 1012 93 10000 1.03 0 10:56 20.01.2021
3530 Clouds -1 1012 93 10000 1.03 0 10:32 20.01.2021
3531 Clouds -1 1012 76 10000 4.56 167 09:50 20.01.2021
3532 Clouds -3 1013 93 8000 1.03 0 09:24 20.01.2021
3533 Clouds -3 1012 80 10000 4.18 170 08:55 20.01.2021
3534 Clouds -4 1011 83 10000 3.95 173 08:29 20.01.2021
3535 Clouds -4 1011 82 10000 3.95 173 07:56 20.01.2021
3536 Clouds -5 1011 84 10000 3.72 176 07:25 20.01.2021
3537 Clouds -4 1010 83 10000 3.48 178 05:51 20.01.2021
3538 Clouds -4 1011 82 10000 2.97 179 03:28 20.01.2021
3539 Clouds -4 1012 83 10000 2.68 184 01:19 20.01.2021
3540 Clouds -4 1012 83 10000 2.68 184 00:45 20.01.2021
3541 Clouds -4 1013 83 10000 2.59 188 23:48 19.01.2021
3542 Clouds -4 1013 85 10000 2.67 191 23:26 19.01.2021
3543 Clouds -4 1013 85 10000 2.67 191 23:26 19.01.2021
3544 Clouds -4 1013 84 10000 2.67 191 22:57 19.01.2021
3545 Clouds -4 1013 84 10000 2.67 191 22:36 19.01.2021
3546 Clouds -4 1013 84 10000 2.66 188 22:18 19.01.2021
3547 Clouds -4 1013 84 10000 2.66 188 21:42 19.01.2021
3548 Clouds -3 1013 83 10000 2.4 197 21:23 19.01.2021
3549 Clouds -4 1013 85 10000 2.4 197 20:43 19.01.2021
3550 Clouds -4 1014 84 10000 2.28 196 20:23 19.01.2021
3551 Clouds -3 1014 84 10000 2.28 196 19:48 19.01.2021
3552 Clouds -3 1014 83 10000 2.19 193 19:27 19.01.2021
3553 Clouds -3 1014 82 10000 2.19 193 18:47 19.01.2021
3554 Clouds -3 1014 82 10000 1.39 201 18:26 19.01.2021
3555 Clouds -3 1014 81 10000 1.39 201 17:46 19.01.2021
3556 Clouds -2 1014 81 10000 1.01 211 17:26 19.01.2021
3557 Clouds -2 1013 81 10000 1.01 211 16:49 19.01.2021
3558 Clouds -1 1013 80 10000 0.97 210 16:26 19.01.2021
3559 Clouds -1 1013 72 10000 0.97 210 15:57 19.01.2021
3560 Clouds -1 1013 73 10000 0.97 210 15:37 19.01.2021
3561 Clouds 1 1013 71 10000 1.16 226 14:57 19.01.2021
3562 Clouds 0 1013 77 10000 1.16 226 14:38 19.01.2021
3563 Clouds 0 1013 74 10000 1.51 213 14:18 19.01.2021
3564 Clouds 1 1013 67 10000 1.51 213 13:40 19.01.2021
3565 Clouds 1 1014 71 10000 2.07 209 13:20 19.01.2021
3566 Clouds 0 1014 70 10000 2.15 204 12:42 19.01.2021
3567 Clouds 0 1014 66 10000 2.54 193 12:21 19.01.2021
3568 Clouds -1 1015 43 10000 2.54 193 11:43 19.01.2021
3569 Clouds -2 1015 47 10000 2.65 198 11:23 19.01.2021
3570 Clouds -2 1015 47 10000 2.65 198 10:50 19.01.2021
3571 Clouds -2 1015 48 10000 2.65 198 10:31 19.01.2021
3572 Clouds -4 1015 54 10000 2.46 196 09:52 19.01.2021
3573 Clouds -4 1014 57 10000 2.21 203 09:24 19.01.2021
3574 Clouds -5 1014 59 10000 2.21 203 08:51 19.01.2021
3575 Clouds -5 1014 64 10000 1.71 222 08:18 19.01.2021
3576 Clouds -6 1015 59 10000 1.33 234 07:28 19.01.2021
3577 Clouds -7 1015 65 10000 1.17 242 05:42 19.01.2021
3578 Clouds -9 1018 88 10000 1.44 284 02:27 19.01.2021
3579 Clouds -9 1018 86 10000 1.42 287 00:47 19.01.2021
3580 Clouds -8 1019 87 10000 1.35 289 23:57 18.01.2021
3581 Clouds -8 1019 87 10000 1.3 296 23:29 18.01.2021
3582 Clouds -8 1019 87 10000 1.3 296 22:50 18.01.2021
3583 Clouds -8 1019 87 10000 1.45 304 22:24 18.01.2021
3584 Clouds -8 1019 86 10000 1.45 304 21:49 18.01.2021
3585 Clouds -9 1019 86 10000 1.71 313 21:24 18.01.2021
3586 Clouds -9 1019 85 10000 1.71 313 20:58 18.01.2021
3587 Clouds -9 1018 96 10000 1.71 313 20:37 18.01.2021
3588 Clouds -10 1018 95 10000 1.89 317 20:19 18.01.2021
3589 Clouds -10 1018 97 10000 1.89 317 19:42 18.01.2021
3590 Clouds -10 1018 97 10000 2.04 314 19:24 18.01.2021
3591 Clouds -10 1018 96 10000 1.94 317 18:43 18.01.2021
3592 Clouds -10 1019 97 10000 1.9 321 18:21 18.01.2021
3593 Clouds -9 1019 97 10000 1.9 321 17:40 18.01.2021
3594 Clouds -6 1026 86 10000 2.06 90 16:56 18.01.2021
3595 Clouds -5 1019 93 10000 1.69 322 16:36 18.01.2021
3596 Clouds -5 1018 85 10000 2.33 329 15:59 18.01.2021
3597 Clouds -6 1028 89 10000 1.34 46 15:41 18.01.2021
3598 Clouds -5 1018 94 10000 2.6 332 15:19 18.01.2021
3599 Clouds -5 1018 99 10000 2.6 332 14:43 18.01.2021
3600 Clouds -5 1018 99 10000 2.99 333 14:24 18.01.2021
3601 Clouds -5 1018 99 10000 2.99 333 13:45 18.01.2021
3602 Clouds -5 1028 93 10000 1.34 58 13:26 18.01.2021
3603 Clouds -4 1018 87 10000 3.14 334 12:51 18.01.2021
3604 Clouds -4 1018 89 10000 3.02 333 12:20 18.01.2021
3605 Clouds -4 1018 89 10000 3.02 333 11:53 18.01.2021
3606 Clouds -5 1018 90 10000 2.84 332 11:29 18.01.2021
3607 Clouds -5 1019 91 10000 2.84 332 10:57 18.01.2021
3608 Clouds -5 1018 91 10000 2.84 332 10:39 18.01.2021
3609 Clouds -7 1017 99 8584 2.89 327 09:43 18.01.2021
3610 Rain -6 1027 93 10000 1.54 250 09:24 18.01.2021
3611 Rain -6 1027 86 10000 2.57 270 08:48 18.01.2021
3612 Clouds -6 1027 80 7517 1.341 315 07:55 18.01.2021
3613 Clouds -6 1026 80 7300 1.788 22 07:21 18.01.2021
3614 Clouds -6 1025 87 10000 2.57 250 04:58 18.01.2021
3615 Clouds -6 1025 87 10000 3.09 260 04:31 18.01.2021
3616 Clouds -6 1026 80 7221 0.447 270 03:57 18.01.2021
3617 Clouds -6 1044 94 7221 3.3 326 03:38 18.01.2021
3618 Clouds -6 1044 94 7106 3.39 326 03:18 18.01.2021
3619 Clouds -6 1025 80 6845 0.894 315 02:27 18.01.2021
3620 Clouds -6 1025 80 5788 0.447 0 00:43 18.01.2021
3621 Clouds -6 1025 80 6337 0.894 247 00:20 18.01.2021
3622 Clouds -6 1025 80 6337 3.129 247 23:44 17.01.2021
3623 Clouds -7 1027 94 6379 3.59 330 23:20 17.01.2021
3624 Snow -4 1015 93 5058 4.24 334 22:26 17.01.2021
3625 Snow -4 1015 93 5058 4.24 334 22:26 17.01.2021
3626 Snow -4 1015 93 5058 4.24 334 21:58 17.01.2021
3627 Snow -4 1015 92 5058 4.24 334 21:39 17.01.2021
3628 Snow -4 1015 92 5058 4.24 334 21:39 17.01.2021
3629 Snow -4 1014 93 5035 4.51 333 21:21 17.01.2021
3630 Snow -4 1014 92 5035 4.51 333 20:44 17.01.2021
3631 Snow -4 1014 92 2682 4.66 333 20:25 17.01.2021
3632 Snow -4 1014 93 2682 4.66 333 19:42 17.01.2021
3633 Snow -4 1013 93 2970 4.72 334 19:19 17.01.2021
3634 Snow -4 1013 93 5198 4.67 334 18:38 17.01.2021
3635 Snow -4 1012 93 1970 4.97 334 18:19 17.01.2021
3636 Snow -4 1012 92 1970 4.97 334 17:43 17.01.2021
3637 Snow -4 1012 92 2076 4.65 333 17:23 17.01.2021
3638 Snow -4 1012 92 2076 4.65 333 17:23 17.01.2021
3639 Snow -4 1011 92 2076 4.65 333 16:43 17.01.2021
3640 Snow -4 1011 92 2110 4.81 334 16:19 17.01.2021
3641 Snow -4 1010 91 2110 4.81 334 15:41 17.01.2021
3642 Snow -4 1009 92 3521 4.95 331 15:21 17.01.2021
3643 Snow -4 1009 91 3521 4.95 331 14:47 17.01.2021
3644 Snow -4 1009 91 2791 4.78 331 14:26 17.01.2021
3645 Snow -4 1009 90 2791 4.78 331 13:44 17.01.2021
3646 Snow -4 1009 90 5018 4.69 329 13:26 17.01.2021
3647 Snow -4 1009 89 3503 4.73 328 12:52 17.01.2021
3648 Snow -6 1009 86 3503 4.73 328 12:30 17.01.2021
3649 Snow -5 1009 82 6424 0.89 3 11:48 17.01.2021
3650 Snow -5 1009 84 5490 2.24 107 11:22 17.01.2021
3651 Snow -5 1008 84 5490 0.45 17 10:44 17.01.2021
3652 Snow -7 1008 90 5636 4.49 324 10:20 17.01.2021
3653 Clouds -7 1008 88 6284 4.12 321 09:20 17.01.2021
3654 Clouds -7 1008 89 6284 0.45 348 08:43 17.01.2021
3655 Snow -5 1017 31 4302 4.18 319 06:29 17.01.2021
3656 Snow -4 1018 38 732 3.01 318 04:28 17.01.2021
3657 Snow -7 1009 91 1069 2.42 308 02:38 17.01.2021
3658 Snow -6 1011 89 2212 2.23 300 00:47 17.01.2021
3659 Snow -7 1011 99 4991 2.63 304 00:18 17.01.2021
3660 Snow -7 1012 98 4991 2.63 304 23:48 16.01.2021
3661 Snow -5 1021 79 9134 2.43 302 23:19 16.01.2021
3662 Snow -6 1021 81 9134 2.43 302 22:34 16.01.2021
3663 Clouds -6 1022 81 10000 1.79 135 21:58 16.01.2021
3664 Clouds -10 1013 88 10000 2.57 308 21:24 16.01.2021
3665 Clouds -10 1013 88 10000 2.57 308 20:53 16.01.2021
3666 Clouds -10 1013 88 10000 2.57 308 20:53 16.01.2021
3667 Clouds -10 1013 88 10000 2.57 308 20:30 16.01.2021
3668 Clouds -10 1014 87 10000 2.61 311 19:55 16.01.2021
3669 Clouds -10 1014 86 10000 2.61 311 19:37 16.01.2021
3670 Clouds -10 1014 86 10000 2.67 309 19:18 16.01.2021
3671 Clouds -10 1014 85 10000 2.67 309 18:40 16.01.2021
3672 Clouds -9 1014 85 10000 2.74 314 18:20 16.01.2021
3673 Clouds -9 1014 83 10000 2.74 314 17:41 16.01.2021
3674 Clouds -9 1014 83 10000 2.68 318 17:21 16.01.2021
3675 Clouds -8 1014 84 10000 2.68 318 16:45 16.01.2021
3676 Clouds -7 1014 83 10000 2.59 323 16:21 16.01.2021
3677 Clouds -6 1014 77 10000 2.59 323 15:43 16.01.2021
3678 Clouds -5 1014 79 10000 3.13 326 14:53 16.01.2021
3679 Clouds -6 1015 80 10000 3.09 331 14:18 16.01.2021
3680 Clouds -6 1015 80 10000 3.09 331 13:47 16.01.2021
3681 Clouds -8 1016 83 10000 3.17 331 13:19 16.01.2021
3682 Clouds -8 1016 81 10000 3.15 332 12:39 16.01.2021
3683 Clear -7 1016 82 10000 2.97 330 12:20 16.01.2021
3684 Clear -9 1017 92 10000 2.97 330 11:46 16.01.2021
3685 Clear -8 1017 95 10000 2.91 329 11:24 16.01.2021
3686 Clear -10 1029 93 10000 2.91 329 10:43 16.01.2021
3687 Clear -9 1016 88 10000 3.02 327 09:59 16.01.2021
3688 Clear -9 1017 88 10000 3.02 327 09:31 16.01.2021
3689 Clear -11 1016 88 10000 2.5 324 08:32 16.01.2021
3690 Clear -13 1014 98 10000 2.79 325 07:28 16.01.2021
3691 Clear -13 1014 98 10000 2.87 325 05:46 16.01.2021
3692 Clear -13 1014 98 10000 2.79 325 04:39 16.01.2021
3693 Clear -12 1014 98 10000 2.48 328 02:55 16.01.2021
3694 Clouds -11 1015 99 10000 2.85 331 00:49 16.01.2021
3695 Clouds -11 1014 99 10000 2.44 327 00:26 16.01.2021
3696 Clouds -8 1024 86 10000 7.72 60 23:49 15.01.2021
3697 Clouds -7 1024 86 9000 7.2 60 22:51 15.01.2021
3698 Clouds -10 1015 99 10000 2.39 333 22:23 15.01.2021
3699 Drizzle -7 1024 86 7000 6.69 40 21:46 15.01.2021
3700 Clouds -9 1014 99 10000 2.5 335 20:58 15.01.2021
3701 Rain -7 1023 86 6000 7.72 40 20:40 15.01.2021
3702 Clouds -9 1014 99 7321 2.93 337 20:19 15.01.2021
3703 Snow -7 1023 86 7000 8.23 40 19:40 15.01.2021
3704 Clouds -7 1014 99 7015 3.17 336 19:22 15.01.2021
3705 Clouds -8 1023 95 7095 0.89 46 18:43 15.01.2021
3706 Snow -7 1014 99 6687 3.3 340 18:19 15.01.2021
3707 Snow -6 1022 95 6687 2.24 69 17:51 15.01.2021
3708 Snow -5 1012 92 5126 3.48 342 17:24 15.01.2021
3709 Snow -4 1011 91 5126 3.48 342 16:52 15.01.2021
3710 Snow -4 1011 90 4582 3.64 340 16:25 15.01.2021
3711 Snow -3 1010 90 4582 3.64 340 15:42 15.01.2021
3712 Snow -3 1010 89 1895 3.58 340 15:22 15.01.2021
3713 Snow -2 1009 89 1895 3.58 340 14:50 15.01.2021
3714 Snow -2 1009 89 298 3.38 342 14:27 15.01.2021
3715 Snow -1 1009 89 298 3.38 342 13:44 15.01.2021
3716 Snow -1 1009 89 257 2.92 342 13:23 15.01.2021
3717 Snow -1 1009 90 257 2.92 342 12:59 15.01.2021
3718 Snow -1 1009 91 4345 3.15 339 12:34 15.01.2021
3719 Snow -1 1009 91 4119 2.69 332 11:59 15.01.2021
3720 Snow -2 1009 91 4119 2.69 332 11:41 15.01.2021
3721 Snow -3 1009 92 3246 2.85 328 10:57 15.01.2021
3722 Snow -3 1009 94 3246 2.85 328 10:39 15.01.2021
3723 Snow -3 1009 94 2317 2.94 323 10:19 15.01.2021
3724 Snow -4 1008 94 2317 2.94 323 09:45 15.01.2021
3725 Snow -3 1008 94 5036 2.46 315 09:27 15.01.2021
3726 Snow -3 1007 94 6924 2.2 309 08:27 15.01.2021
3727 Snow -3 1006 95 6924 2.2 309 07:41 15.01.2021
3728 Snow -3 1006 95 666 2.14 315 07:20 15.01.2021
3729 Snow -3 1006 94 105 1.76 309 05:36 15.01.2021
3730 Snow -3 1006 93 97 1.23 276 02:19 15.01.2021
3731 Snow -4 1007 93 102 1.15 265 00:20 15.01.2021
3732 Snow -4 1007 93 114 1.29 285 23:29 14.01.2021
3733 Snow -4 1007 93 114 1.29 285 23:29 14.01.2021
3734 Snow -4 1007 93 114 1.29 285 22:50 14.01.2021
3735 Snow -4 1008 93 270 1.72 296 22:26 14.01.2021
3736 Snow -4 1008 93 270 1.72 296 21:56 14.01.2021
3737 Snow -4 1008 93 270 1.72 296 21:37 14.01.2021
3738 Snow -4 1008 93 2385 2.22 309 21:19 14.01.2021
3739 Snow -4 1008 92 2385 2.22 309 20:42 14.01.2021
3740 Snow -4 1009 93 1932 2.63 315 19:54 14.01.2021
3741 Snow -4 1009 93 1932 2.63 315 19:35 14.01.2021
3742 Snow -4 1009 92 1863 3.02 320 18:56 14.01.2021
3743 Snow -4 1008 93 1879 3.12 319 18:34 14.01.2021
3744 Snow -3 1008 93 1482 3.61 323 17:54 14.01.2021
3745 Snow -3 1008 92 647 3.91 324 17:28 14.01.2021
3746 Snow -3 1009 92 647 3.91 324 16:54 14.01.2021
3747 Snow -4 1009 92 442 4.3 324 16:27 14.01.2021
3748 Snow -4 1009 92 442 4.3 324 16:27 14.01.2021
3749 Snow -4 1009 92 442 4.3 324 15:52 14.01.2021
3750 Snow -4 1009 92 351 4.64 322 15:27 14.01.2021
3751 Snow -3 1008 92 351 4.64 322 14:42 14.01.2021
3752 Snow -3 1008 92 285 4.91 324 14:22 14.01.2021
3753 Snow -3 1008 93 285 4.91 324 13:54 14.01.2021
3754 Snow -3 1008 93 277 4.81 322 13:23 14.01.2021
3755 Snow -3 1008 93 277 4.81 322 12:56 14.01.2021
3756 Snow -3 1008 93 235 4.96 324 12:21 14.01.2021
3757 Snow -2 1008 93 235 4.96 324 11:54 14.01.2021
3758 Snow -3 1008 93 196 5.22 325 11:27 14.01.2021
3759 Snow -2 1007 93 196 5.22 325 10:58 14.01.2021
3760 Snow -2 1007 93 196 5.22 325 10:40 14.01.2021
3761 Snow -3 1007 94 184 5.31 325 10:18 14.01.2021
3762 Snow -2 1006 95 184 5.31 325 09:42 14.01.2021
3763 Snow -2 1006 95 187 5.47 324 09:20 14.01.2021
3764 Snow -2 1006 94 187 5.47 324 08:30 14.01.2021
3765 Snow -2 1006 94 276 0.45 7 07:57 14.01.2021
3766 Snow -2 1006 95 276 5.58 324 07:30 14.01.2021
3767 Snow -1 1006 95 286 5.8 319 06:33 14.01.2021
3768 Snow -2 1008 95 139 5.41 317 04:56 14.01.2021
3769 Snow -3 1009 93 168 4.23 310 00:27 14.01.2021
3770 Snow -4 1010 93 161 4.04 310 23:28 13.01.2021
3771 Snow -4 1010 93 161 4.04 310 22:48 13.01.2021
3772 Snow -3 1010 92 191 3.57 307 22:20 13.01.2021
3773 Snow -3 1010 92 191 3.57 307 21:43 13.01.2021
3774 Snow -3 1010 92 219 3.45 305 21:22 13.01.2021
3775 Snow -3 1011 93 219 3.45 305 20:51 13.01.2021
3776 Snow -3 1011 93 246 2.97 299 20:23 13.01.2021
3777 Snow -3 1011 92 246 2.97 299 19:48 13.01.2021
3778 Snow -3 1011 92 297 2.39 301 19:24 13.01.2021
3779 Snow -3 1011 90 269 2.54 306 18:46 13.01.2021
3780 Snow -4 1012 86 393 2.97 310 18:25 13.01.2021
3781 Snow -4 1012 80 393 2.97 310 17:42 13.01.2021
3782 Snow -4 1012 85 1252 0.89 142 17:18 13.01.2021
3783 Snow -4 1012 92 1252 0.45 163 16:42 13.01.2021
3784 Snow -4 1012 91 5202 3 304 16:21 13.01.2021
3785 Clouds -3 1012 90 5202 3 304 15:41 13.01.2021
3786 Clouds -3 1012 90 10000 3.36 312 15:20 13.01.2021
3787 Clouds -3 1011 87 10000 3.49 316 14:28 13.01.2021
3788 Clouds -3 1012 75 10000 3.49 316 13:47 13.01.2021
3789 Clouds -3 1012 74 10000 3.61 315 13:25 13.01.2021
3790 Clouds -4 1039 87 10000 11.176 225 12:46 13.01.2021
3791 Clouds -3 1012 76 10000 3.56 314 12:25 13.01.2021
3792 Clouds -3 1012 79 10000 3.56 314 11:51 13.01.2021
3793 Clouds -5 1022 94 10000 3.56 314 11:33 13.01.2021
3794 Clouds -3 1012 78 9075 3.77 318 10:49 13.01.2021
3795 Clouds -4 1012 83 7300 3.91 318 10:28 13.01.2021
3796 Snow -3 1011 88 7300 3.91 318 09:40 13.01.2021
3797 Clouds -4 1011 90 6306 3.97 319 08:59 13.01.2021
3798 Clouds -4 1010 89 6306 3.97 319 08:41 13.01.2021
3799 Clouds -4 1010 86 6306 4.01 321 08:23 13.01.2021
3800 Snow -4 1010 87 5561 4.12 325 07:29 13.01.2021
3801 Snow -3 1009 93 6408 4.14 327 05:55 13.01.2021
3802 Snow -3 1009 93 2342 4.45 327 04:18 13.01.2021
3803 Snow -3 1008 93 2342 4.45 327 03:43 13.01.2021
3804 Snow -3 1008 93 161 4.34 330 03:22 13.01.2021
3805 Snow -4 1008 93 155 3.6 322 00:48 13.01.2021
3806 Snow -5 1008 92 253 3.28 320 23:43 12.01.2021
3807 Snow -5 1008 91 227 2.96 314 22:58 12.01.2021
3808 Snow -5 1008 91 227 2.96 314 22:39 12.01.2021
3809 Snow -4 1008 93 184 2.96 319 22:19 12.01.2021
3810 Snow -4 1007 93 184 2.96 319 21:43 12.01.2021
3811 Snow -4 1007 93 581 3.25 319 21:24 12.01.2021
3812 Snow -5 1008 93 581 3.25 319 20:47 12.01.2021
3813 Snow -4 1008 93 335 3.27 312 20:26 12.01.2021
3814 Snow -4 1007 93 335 3.27 312 19:44 12.01.2021
3815 Snow -5 1007 93 494 2.94 314 18:57 12.01.2021
3816 Snow -5 1007 92 494 2.94 314 18:38 12.01.2021
3817 Snow -5 1007 91 593 2.88 310 18:20 12.01.2021
3818 Snow -5 1008 90 593 2.88 310 17:34 12.01.2021
3819 Snow -6 1008 89 1268 2.61 309 16:54 12.01.2021
3820 Snow -5 1008 88 1268 2.61 309 16:36 12.01.2021
3821 Snow -5 1008 87 1968 2.83 311 16:18 12.01.2021
3822 Snow -4 1008 81 1559 2.69 304 15:29 12.01.2021
3823 Snow -3 1008 74 1559 2.69 304 14:57 12.01.2021
3824 Snow -3 1008 63 1559 2.69 304 14:39 12.01.2021
3825 Snow -3 1008 46 2295 2.74 300 14:18 12.01.2021
3826 Snow -3 1008 46 2295 2.74 300 13:45 12.01.2021
3827 Snow -3 1009 45 5459 2.93 298 12:39 12.01.2021
3828 Snow -3 1010 48 8022 3.04 302 11:55 12.01.2021
3829 Snow -4 1010 50 8022 3.04 302 11:36 12.01.2021
3830 Clouds -4 1010 53 10000 3.2 308 10:44 12.01.2021
3831 Clouds -5 1010 56 10000 2.76 306 10:20 12.01.2021
3832 Clouds -6 1010 59 10000 2.76 306 09:54 12.01.2021
3833 Clouds -7 1010 61 10000 2.66 304 09:24 12.01.2021
3834 Clouds -7 1010 61 10000 0.45 318 08:39 12.01.2021
3835 Clouds -7 1010 61 10000 2.8 307 08:20 12.01.2021
3836 Clouds -7 1010 60 10000 2.8 307 07:34 12.01.2021
3837 Clouds -7 1011 58 10000 2.77 311 05:56 12.01.2021
3838 Clouds -7 1012 60 10000 2.72 316 03:48 12.01.2021
3839 Clouds -6 1012 57 10000 2.85 317 03:23 12.01.2021
3840 Clouds -7 1012 57 10000 2.7 318 02:18 12.01.2021
3841 Clouds -7 1012 56 10000 2.57 317 00:55 12.01.2021
3842 Clouds -7 1012 59 10000 2.21 318 23:44 11.01.2021
3843 Clouds -7 1012 60 10000 2.26 320 23:20 11.01.2021
3844 Clouds -8 1012 60 10000 2.26 320 22:47 11.01.2021
3845 Clouds -8 1012 60 10000 2.63 324 22:28 11.01.2021
3846 Clouds -9 1012 60 10000 2.63 324 21:47 11.01.2021
3847 Clouds -9 1013 59 10000 2.52 325 21:26 11.01.2021
3848 Clouds -9 1013 63 10000 2.52 325 20:59 11.01.2021
3849 Clear -9 1013 60 10000 2.69 324 20:39 11.01.2021
3850 Clear -9 1013 62 10000 2.64 325 20:21 11.01.2021
3851 Clear -9 1013 61 10000 2.64 325 19:50 11.01.2021
3852 Clear -8 1012 59 10000 2.65 326 19:23 11.01.2021
3853 Clear -8 1012 57 10000 2.65 326 18:44 11.01.2021
3854 Clear -7 1012 56 10000 2.73 324 18:24 11.01.2021
3855 Clear -7 1012 55 10000 2.73 324 17:42 11.01.2021
3856 Clear -7 1011 56 10000 2.78 325 17:24 11.01.2021
3857 Clear -6 1011 56 10000 2.78 325 16:49 11.01.2021
3858 Clear -5 1011 51 10000 2.56 330 16:29 11.01.2021
3859 Clear -4 1011 48 10000 2.56 330 15:58 11.01.2021
3860 Clear -3 1011 46 10000 2.56 330 15:37 11.01.2021
3861 Clear -3 1010 47 10000 2.2 335 14:58 11.01.2021
3862 Clear -4 1010 51 10000 2.2 335 14:37 11.01.2021
3863 Clear -3 1010 43 10000 2.05 338 13:48 11.01.2021
3864 Clear -3 1011 46 10000 2.13 341 13:23 11.01.2021
3865 Clear -4 1011 25 10000 0.89 105 12:45 11.01.2021
3866 Clear -3 1011 25 10000 0.45 112 12:27 11.01.2021
3867 Clear -3 1011 27 10000 2.36 338 11:50 11.01.2021
3868 Clear -3 1011 23 10000 1.88 337 11:21 11.01.2021
3869 Clear -5 1011 32 10000 1.88 337 10:42 11.01.2021
3870 Clear -5 1011 30 10000 1.94 335 10:23 11.01.2021
3871 Clear -7 1011 36 10000 1.94 335 09:37 11.01.2021
3872 Clear -9 1011 61 10000 1.88 334 09:19 11.01.2021
3873 Clear -8 1010 38 10000 1.88 334 08:43 11.01.2021
3874 Clear -10 1011 61 10000 2.09 337 07:51 11.01.2021
3875 Clear -11 1010 62 10000 1.72 335 07:25 11.01.2021
3876 Clear -11 1010 62 10000 1.79 331 06:50 11.01.2021
3877 Clear -10 1010 63 10000 1.21 359 02:57 11.01.2021
3878 Clear -10 1010 65 10000 1.05 11 01:25 11.01.2021
3879 Clear -10 1011 71 10000 1.04 23 23:51 10.01.2021
3880 Clear -10 1011 70 10000 0.96 32 23:24 10.01.2021
3881 Clear -11 1011 74 10000 0.96 32 22:46 10.01.2021
3882 Clear -11 1011 75 10000 1.24 21 22:20 10.01.2021
3883 Clear -11 1011 76 10000 1.24 21 21:44 10.01.2021
3884 Clear -10 1011 75 10000 1.33 19 21:20 10.01.2021
3885 Clear -10 1011 73 10000 1.33 19 20:50 10.01.2021
3886 Clear -10 1011 68 10000 1.1 25 20:29 10.01.2021
3887 Clear -10 1010 63 10000 1.1 25 19:42 10.01.2021
3888 Clear -9 1010 63 10000 1.07 29 19:24 10.01.2021
3889 Clear -9 1010 60 10000 1.34 32 18:46 10.01.2021
3890 Clear -9 1010 61 10000 1.48 31 18:21 10.01.2021
3891 Clear -7 1009 56 10000 1.73 29 17:27 10.01.2021
3892 Clear -6 1018 77 10000 1.34 90 16:58 10.01.2021
3893 Clear -5 1009 51 10000 1.73 29 16:32 10.01.2021
3894 Clear -6 1017 74 10000 0.45 90 15:43 10.01.2021
3895 Clear -3 1008 45 10000 1.57 60 15:24 10.01.2021
3896 Clear -3 1008 47 10000 1.57 60 14:43 10.01.2021
3897 Clear -3 1008 46 10000 1.63 74 14:24 10.01.2021
3898 Clear -4 1009 48 10000 1.63 74 13:54 10.01.2021
3899 Clear -4 1009 50 10000 1.63 74 13:36 10.01.2021
3900 Clear -4 1009 49 10000 1.68 84 13:18 10.01.2021
3901 Clear -5 1009 53 10000 1.67 92 12:41 10.01.2021
3902 Clear -5 1023 50 10000 1.53 79 11:58 10.01.2021
3903 Clear -5 1017 26 10000 2.235 112 11:21 10.01.2021
3904 Clear -5 1018 27 10000 0.447 90 10:53 10.01.2021
3905 Clear -4 1018 71 10000 2.24 113 10:25 10.01.2021
3906 Clear -5 1018 69 10000 1.79 90 09:57 10.01.2021
3907 Clear -10 1009 67 10000 0.87 127 08:50 10.01.2021
3908 Clear -10 1010 67 10000 1.04 128 08:19 10.01.2021
3909 Clouds -10 1010 69 10000 0.97 111 07:28 10.01.2021
3910 Clouds -10 1009 69 10000 0.61 99 06:19 10.01.2021
3911 Clouds -10 1009 69 10000 0.61 99 05:35 10.01.2021
3912 Clouds -9 1010 72 10000 1.3 172 02:55 10.01.2021
3913 Clouds -9 1009 69 10000 1.55 168 00:48 10.01.2021
3914 Clouds -9 1010 73 10000 1.77 166 23:43 09.01.2021
3915 Clouds -9 1010 74 10000 1.76 164 23:25 09.01.2021
3916 Clouds -8 1010 73 10000 1.76 164 22:44 09.01.2021
3917 Clouds -9 1010 75 10000 1.61 161 22:18 09.01.2021
3918 Clouds -9 1010 73 10000 1.61 161 21:41 09.01.2021
3919 Clouds -9 1010 73 10000 1.73 163 21:23 09.01.2021
3920 Clouds -9 1010 72 10000 1.73 163 20:59 09.01.2021
3921 Clouds -9 1010 71 10000 1.73 163 20:38 09.01.2021
3922 Clouds -9 1010 72 10000 1.44 156 19:44 09.01.2021
3923 Clouds -8 1009 70 10000 1.2 140 19:22 09.01.2021
3924 Clouds -8 1009 70 10000 0.71 119 18:39 09.01.2021
3925 Clouds -8 1009 68 10000 0.94 78 18:20 09.01.2021
3926 Clouds -8 1009 67 10000 0.94 78 17:45 09.01.2021
3927 Clouds -7 1009 67 10000 1 82 17:27 09.01.2021
3928 Clouds -6 1009 64 10000 1 82 16:33 09.01.2021
3929 Clouds -5 1008 60 10000 1.08 85 15:48 09.01.2021
3930 Clouds -5 1008 58 10000 1.26 113 15:28 09.01.2021
3931 Clouds -4 1007 51 10000 1.26 113 14:40 09.01.2021
3932 Clouds -4 1007 52 10000 1.38 100 14:20 09.01.2021
3933 Clouds -4 1007 52 10000 1.38 100 13:47 09.01.2021
3934 Clouds -4 1007 52 10000 1.46 67 13:29 09.01.2021
3935 Clouds -4 1008 54 10000 1.42 84 12:48 09.01.2021
3936 Clouds -6 1008 60 10000 1.04 81 12:22 09.01.2021
3937 Clouds -6 1022 63 10000 1.04 81 11:50 09.01.2021
3938 Clouds -7 1009 63 10000 0.88 120 11:30 09.01.2021
3939 Clouds -6 1009 36 10000 0.88 120 10:52 09.01.2021
3940 Clouds -8 1009 66 10000 0.88 120 10:30 09.01.2021
3941 Clouds -8 1009 71 10000 1.14 152 09:52 09.01.2021
3942 Clouds -10 1009 73 10000 1.39 160 09:25 09.01.2021
3943 Clouds -11 1009 75 10000 1.09 165 08:28 09.01.2021
3944 Clouds -11 1009 75 10000 1.14 172 06:57 09.01.2021
3945 Clouds -11 1008 76 10000 0.88 157 06:39 09.01.2021
3946 Clouds -11 1009 75 10000 1.17 174 04:47 09.01.2021
3947 Clouds -11 1009 76 10000 0.81 172 03:20 09.01.2021
3948 Clouds -11 1009 77 10000 0.79 171 02:29 09.01.2021
3949 Clouds -11 1009 76 10000 0.79 171 01:44 09.01.2021
3950 Clouds -11 1009 76 10000 0.62 161 00:35 09.01.2021
3951 Clear -12 1010 77 10000 0.47 154 23:57 08.01.2021
3952 Clear -11 1009 76 10000 0.32 148 22:56 08.01.2021
3953 Clear -12 1009 75 10000 0.15 96 22:18 08.01.2021
3954 Clear -10 1038 84 10000 0.447 202 21:35 08.01.2021
3955 Clear -10 1038 81 10000 0.894 292 20:46 08.01.2021
3956 Clouds -10 1020 81 10000 1.341 0 20:25 08.01.2021
3957 Clouds -12 1015 79 10000 4.12 110 19:45 08.01.2021
3958 Clouds -11 1015 68 10000 3.6 90 19:22 08.01.2021
3959 Clouds -11 1015 68 10000 3.6 90 18:35 08.01.2021
3960 Clouds -11 1015 68 10000 3.6 90 17:57 08.01.2021
3961 Clouds -11 1015 68 10000 3.6 90 17:35 08.01.2021
3962 Clouds -11 1015 79 10000 3.6 110 16:56 08.01.2021
3963 Clouds -11 1007 66 10000 1.82 6 16:26 08.01.2021
3964 Clouds -11 1007 66 10000 1.82 6 16:26 08.01.2021
3965 Clouds -9 1018 80 10000 1.82 6 15:40 08.01.2021
3966 Clouds -8 1007 64 10000 1.93 6 14:45 08.01.2021
3967 Clouds -5 1007 61 10000 0.45 187 14:26 08.01.2021
3968 Clouds -5 1007 63 10000 0.45 185 13:39 08.01.2021
3969 Clouds -7 1007 64 10000 2.44 354 13:18 08.01.2021
3970 Clear -7 1007 70 10000 2.44 354 12:42 08.01.2021
3971 Clear -7 1007 72 10000 2.43 348 12:19 08.01.2021
3972 Clear -8 1007 73 10000 2.43 348 11:42 08.01.2021
3973 Clear -8 1007 73 10000 2.1 341 11:22 08.01.2021
3974 Clear -9 1007 75 10000 2.1 341 10:48 08.01.2021
3975 Clear -10 1007 76 10000 1.71 332 10:24 08.01.2021
3976 Clear -11 1007 77 10000 1.71 332 09:44 08.01.2021
3977 Clear -12 1005 73 10000 1.71 330 09:21 08.01.2021
3978 Clear -13 1003 79 10000 1.76 329 08:19 08.01.2021
3979 Clouds -13 1002 78 10000 1.7 326 07:25 08.01.2021
3980 Clouds -13 1002 78 10000 1.7 326 07:25 08.01.2021
3981 Clouds -13 1006 78 10000 1.93 321 04:26 08.01.2021
3982 Clouds -11 1006 78 10000 1.01 302 23:46 07.01.2021
3983 Clouds -11 1006 78 10000 0.85 290 23:28 07.01.2021
3984 Clouds -11 1006 78 10000 0.85 290 22:42 07.01.2021
3985 Clouds -11 1006 79 10000 0.85 285 22:18 07.01.2021
3986 Clouds -11 1006 78 10000 0.85 285 21:40 07.01.2021
3987 Clouds -11 1006 77 10000 0.8 289 21:21 07.01.2021
3988 Clouds -11 1006 76 10000 0.8 289 20:43 07.01.2021
3989 Clouds -12 1019 81 10000 0.69 285 20:23 07.01.2021
3990 Clouds -12 1019 80 10000 0.69 285 19:42 07.01.2021
3991 Clouds -11 1018 78 10000 0.7 278 18:54 07.01.2021
3992 Clouds -11 1018 78 10000 0.74 230 18:23 07.01.2021
3993 Clouds -10 1014 80 10000 0.45 90 17:42 07.01.2021
3994 Clouds -11 1017 76 10000 0.63 194 17:18 07.01.2021
3995 Clouds -10 1016 85 10000 0.447 0 16:51 07.01.2021
3996 Clouds -8 1004 68 10000 0.41 165 16:20 07.01.2021
3997 Clouds -6 1004 52 10000 2.68 82 15:34 07.01.2021
3998 Clear -6 1004 68 10000 0.45 164 14:42 07.01.2021
3999 Clear -6 1004 68 10000 0.45 164 14:42 07.01.2021
4000 Clear -6 1004 68 10000 0.45 164 14:42 07.01.2021
4001 Clear -6 1004 68 10000 0.45 164 14:42 07.01.2021
4002 Clear -6 1004 68 10000 0.65 176 14:23 07.01.2021
4003 Clear -6 1004 66 10000 0.65 176 13:36 07.01.2021
4004 Clear -6 1005 67 10000 0.82 180 13:18 07.01.2021
4005 Clear -6 1005 50 10000 0.82 180 12:33 07.01.2021
4006 Clear -7 1005 51 10000 0.45 79 11:52 07.01.2021
4007 Clear -7 1005 45 10000 0.82 177 11:30 07.01.2021
4008 Clear -9 1006 46 10000 0.35 236 10:48 07.01.2021
4009 Clear -9 1006 77 10000 0.41 266 10:20 07.01.2021
4010 Clear -10 1006 79 10000 0.41 266 09:46 07.01.2021
4011 Clear -11 1006 80 10000 0.47 270 09:18 07.01.2021
4012 Clear -11 1006 82 10000 0.63 290 08:27 07.01.2021
4013 Clear -11 1006 81 10000 0.63 290 07:46 07.01.2021
4014 Clouds -11 1006 80 10000 0.75 304 07:18 07.01.2021
4015 Clear -11 1006 82 10000 0.99 312 04:22 07.01.2021
4016 Clouds -11 1006 85 10000 1.13 317 00:28 07.01.2021
4017 Clouds -10 1006 85 10000 1.13 317 23:38 06.01.2021
4018 Clouds -10 1006 85 10000 1.2 321 22:37 06.01.2021
4019 Clouds -10 1005 86 10000 1.49 323 21:44 06.01.2021
4020 Clouds -10 1005 86 10000 1.49 325 21:23 06.01.2021
4021 Clouds -9 1005 85 10000 1.49 325 20:51 06.01.2021
4022 Clouds -9 1005 86 10000 1.55 325 20:24 06.01.2021
4023 Clouds -9 1005 85 10000 1.55 325 19:49 06.01.2021
4024 Clouds -9 1005 87 10000 1.55 325 19:30 06.01.2021
4025 Clouds -9 1005 87 10000 1.65 327 18:59 06.01.2021
4026 Clouds -10 1006 83 10000 1.63 328 18:39 06.01.2021
4027 Clouds -9 1004 85 9249 1.79 338 18:18 06.01.2021
4028 Clouds -9 1004 85 9249 1.79 338 17:41 06.01.2021
4029 Clouds -8 1004 85 8120 2.13 346 17:21 06.01.2021
4030 Clouds -9 1005 86 8120 2.13 346 16:40 06.01.2021
4031 Clouds -7 1004 85 8204 2.2 345 16:19 06.01.2021
4032 Clouds -6 1004 85 8204 2.2 345 15:50 06.01.2021
4033 Clouds -6 1004 85 8204 2.2 345 15:50 06.01.2021
4034 Clouds -6 1004 83 8379 2.31 341 15:26 06.01.2021
4035 Clouds -6 1003 81 8379 2.31 341 14:42 06.01.2021
4036 Clouds -6 1003 79 9405 2.24 339 14:19 06.01.2021
4037 Clouds -5 1003 79 9405 2.24 339 13:42 06.01.2021
4038 Clouds -5 1003 79 8136 2.22 337 13:20 06.01.2021
4039 Clouds -5 1003 77 7439 2.25 334 12:46 06.01.2021
4040 Clouds -5 1003 79 10000 2.19 327 11:51 06.01.2021
4041 Clouds -6 1003 80 10000 2.01 324 11:24 06.01.2021
4042 Clouds -6 1003 81 10000 2.01 324 10:46 06.01.2021
4043 Clouds -8 1003 85 10000 1.81 322 09:58 06.01.2021
4044 Clouds -8 1003 86 10000 1.81 322 09:40 06.01.2021
4045 Clouds -6 1013 90 10000 1.74 320 08:56 06.01.2021
4046 Snow -5 1010 92 1500 1.63 318 08:21 06.01.2021
4047 Snow -6 1010 100 1500 1 140 07:54 06.01.2021
4048 Snow -2 1010 92 10000 2.1 110 06:45 06.01.2021
4049 Snow -5 1010 92 10000 2.1 80 05:32 06.01.2021
4050 Snow -5 1009 80 10000 1.5 80 04:32 06.01.2021
4051 Clouds -3 1009 80 10000 0.5 0 02:46 06.01.2021
4052 Clouds -4 1009 80 10000 0.5 0 02:23 06.01.2021
4053 Clouds -4 1009 80 10000 1.5 80 00:29 06.01.2021
4054 Clouds -7 1001 88 10000 1.96 320 23:23 05.01.2021
4055 Clouds -7 1001 89 10000 1.96 320 22:41 05.01.2021
4056 Clouds -4 1009 80 10000 3.1 30 22:20 05.01.2021
4057 Clouds -4 1009 80 10000 3.1 30 21:52 05.01.2021
4058 Clouds -7 1009 87 10000 1.5 40 20:41 05.01.2021
4059 Clouds -7 1001 90 10000 1.51 342 20:23 05.01.2021
4060 Clouds -9 1001 92 10000 1.51 342 19:42 05.01.2021
4061 Clouds -9 1001 92 10000 1.62 337 19:21 05.01.2021
4062 Clouds -9 1001 90 10000 1.62 337 18:43 05.01.2021
4063 Clouds -8 1001 87 10000 1.75 351 18:24 05.01.2021
4064 Clouds -8 1001 86 10000 1.75 351 17:49 05.01.2021
4065 Clouds -8 1001 85 10000 1.71 356 17:27 05.01.2021
4066 Clouds -6 1009 89 10000 2.6 50 16:52 05.01.2021
4067 Clouds -7 1000 75 10000 1.34 12 16:21 05.01.2021
4068 Clouds -5 1006 70 10000 0.894 0 15:50 05.01.2021
4069 Clouds -4 1000 66 10000 1.38 15 14:57 05.01.2021
4070 Clouds -5 1000 69 10000 1.38 15 14:38 05.01.2021
4071 Clouds -5 1000 69 10000 0.88 26 13:49 05.01.2021
4072 Clouds -4 1000 69 10000 0.87 24 13:26 05.01.2021
4073 Clouds -5 1001 73 10000 0.46 50 12:49 05.01.2021
4074 Clouds -5 1001 77 10000 0.48 172 12:26 05.01.2021
4075 Clouds -6 1002 83 10000 0.48 172 11:39 05.01.2021
4076 Clouds -7 1002 87 10000 0.75 169 10:56 05.01.2021
4077 Clouds -6 1002 89 10000 0.75 169 10:37 05.01.2021
4078 Clouds -7 1002 85 10000 1.28 190 09:50 05.01.2021
4079 Clouds -5 1009 87 10000 3.6 50 09:30 05.01.2021
4080 Clouds -6 1009 86 6000 4.1 50 08:29 05.01.2021
4081 Clouds -5 1009 87 10000 4.1 40 07:50 05.01.2021
4082 Clouds -4 1008 86 10000 1 0 04:59 05.01.2021
4083 Snow -4 1023 65 10000 2.235 90 01:31 05.01.2021
4084 Snow -4 1005 55 10000 8.494 0 00:21 05.01.2021
4085 Clouds -4 1007 80 10000 0.45 90 23:38 04.01.2021
4086 Clouds -4 1007 79 10000 0.89 135 23:19 04.01.2021
4087 Clouds -4 1005 54 10000 10.729 0 22:41 04.01.2021
4088 Clouds -4 1007 81 10000 0.45 135 21:54 04.01.2021
4089 Clouds -4 1007 81 10000 0.45 45 21:35 04.01.2021
4090 Clouds -4 1007 80 10000 0.45 90 20:52 04.01.2021
4091 Clouds -4 1007 81 10000 3.37 166 20:32 04.01.2021
4092 Clouds -3 1007 80 10000 3.37 166 19:55 04.01.2021
4093 Clouds -3 1007 80 10000 3.23 164 19:29 04.01.2021
4094 Clouds -3 1007 80 10000 3.23 164 18:58 04.01.2021
4095 Snow -5 1001 85 9081 3.48 158 18:29 04.01.2021
4096 Snow -3 1007 79 9081 3.48 158 17:44 04.01.2021
4097 Snow -5 1001 80 10000 3.24 158 17:26 04.01.2021
4098 Snow -5 1001 76 10000 3.24 158 16:48 04.01.2021
4099 Clouds -5 1002 78 10000 1.34 124 16:27 04.01.2021
4100 Clouds -4 1001 82 10000 1.79 105 15:51 04.01.2021
4101 Clouds -3 1001 80 10000 2.76 155 15:32 04.01.2021
4102 Clouds -4 1001 76 10000 0.45 104 14:48 04.01.2021
4103 Clouds -3 1001 73 10000 2.98 159 13:51 04.01.2021
4104 Clouds -3 1001 74 10000 2.83 158 13:26 04.01.2021
4105 Clouds -3 1002 74 10000 3.02 160 12:49 04.01.2021
4106 Clouds -3 1002 78 10000 2.93 162 11:59 04.01.2021
4107 Clouds -4 1003 80 10000 2.51 161 11:29 04.01.2021
4108 Clouds -5 1003 83 10000 2.51 161 10:54 04.01.2021
4109 Clouds -5 1003 85 10000 2.01 171 10:29 04.01.2021
4110 Clouds -6 1003 86 10000 2.01 171 09:58 04.01.2021
4111 Clouds -4 1010 78 10000 0.45 135 09:22 04.01.2021
4112 Clouds -6 1003 88 10000 1.76 179 08:48 04.01.2021
4113 Clouds -4 1008 68 10000 1.71 182 08:18 04.01.2021
4114 Clouds -4 1010 80 10000 1.71 182 07:44 04.01.2021
4115 Clouds -5 1026 79 10000 0.894 0 05:34 04.01.2021
4116 Clouds -6 1009 81 10000 1.98 182 04:31 04.01.2021
4117 Clouds -5 1026 63 10000 1.788 112 00:48 04.01.2021
4118 Clouds -6 1003 84 10000 2.08 184 23:49 03.01.2021
4119 Clouds -5 1003 84 10000 2.16 188 23:24 03.01.2021
4120 Clouds -6 1003 85 10000 2.16 188 22:56 03.01.2021
4121 Clouds -5 1003 85 10000 2.16 188 22:33 03.01.2021
4122 Clouds -3 1010 80 10000 4.6 60 21:56 03.01.2021
4123 Clouds -4 1010 80 10000 4.6 50 21:29 03.01.2021
4124 Clouds -4 1009 88 10000 5.1 60 20:50 03.01.2021
4125 Clouds -4 1009 58 10000 8.047 0 20:32 03.01.2021
4126 Clouds -4 1009 60 10000 7.6 0 19:57 03.01.2021
4127 Clouds -4 1025 69 10000 3.129 45 19:35 03.01.2021
4128 Clouds -4 1009 60 10000 8.047 0 18:57 03.01.2021
4129 Clouds -5 1001 80 10000 2.68 170 18:38 03.01.2021
4130 Clouds -3 1009 79 10000 2.9 163 18:19 03.01.2021
4131 Clouds -3 1024 68 10000 4.47 67 17:45 03.01.2021
4132 Clouds -4 1002 87 10000 3.11 155 17:23 03.01.2021
4133 Clouds -3 1008 63 10000 7.6 0 16:42 03.01.2021
4134 Snow -3 1001 88 10000 3.09 149 16:20 03.01.2021
4135 Snow -3 1023 69 10000 6.706 67 15:46 03.01.2021
4136 Snow -3 1001 89 10000 3.14 147 15:27 03.01.2021
4137 Snow -3 1001 90 10000 3.14 147 14:52 03.01.2021
4138 Snow -3 1001 89 9530 3.31 151 14:27 03.01.2021
4139 Snow -3 1001 90 9530 3.31 151 13:41 03.01.2021
4140 Snow -3 1001 90 9014 3.28 152 13:22 03.01.2021
4141 Snow -3 1001 90 10000 3.28 147 12:24 03.01.2021
4142 Snow -4 1001 90 10000 3.28 147 11:42 03.01.2021
4143 Snow -4 1001 90 8587 3.5 148 11:24 03.01.2021
4144 Snow -4 1001 91 8587 3.5 148 10:34 03.01.2021
4145 Snow -5 1001 92 8166 3.21 152 09:55 03.01.2021
4146 Snow -5 1001 93 8166 3.21 152 09:33 03.01.2021
4147 Snow -6 1000 93 532 2.57 162 08:59 03.01.2021
4148 Snow -6 1000 93 411 2.3 164 07:33 03.01.2021
4149 Snow -5 999 93 7482 1.32 156 05:53 03.01.2021
4150 Clouds -6 999 94 10000 0.96 208 02:27 03.01.2021
4151 Clouds -7 999 94 10000 0.96 208 01:44 03.01.2021
4152 Clouds -6 999 94 10000 1.75 172 00:18 03.01.2021
4153 Clouds -4 999 95 9532 1.49 168 23:27 02.01.2021
4154 Clouds -4 1000 94 9532 1.49 168 22:51 02.01.2021
4155 Snow -6 999 94 8933 1.42 167 22:32 02.01.2021
4156 Snow -4 999 94 8933 1.42 167 21:49 02.01.2021
4157 Snow -4 1000 94 8933 1.42 167 21:30 02.01.2021
4158 Clouds -5 1000 94 10000 1.09 165 20:49 02.01.2021
4159 Clouds -5 1000 94 9516 1.13 137 20:28 02.01.2021
4160 Clouds -5 1000 93 9516 1.13 137 19:50 02.01.2021
4161 Clouds -4 1000 93 9206 0.47 113 19:20 02.01.2021
4162 Clouds -3 999 93 10000 0.65 110 18:53 02.01.2021
4163 Clouds -4 999 92 10000 0.65 110 18:33 02.01.2021
4164 Clouds -3 1000 92 4896 0.6 57 17:56 02.01.2021
4165 Clouds -3 1000 91 4896 0.6 57 17:37 02.01.2021
4166 Snow -5 999 94 8847 0.32 68 16:48 02.01.2021
4167 Snow -2 999 84 4447 0.45 356 16:22 02.01.2021
4168 Snow -1 999 84 4447 0.45 356 15:50 02.01.2021
4169 Clouds -1 999 85 10000 0.99 98 15:28 02.01.2021
4170 Clouds -1 999 85 10000 0.99 98 14:47 02.01.2021
4171 Clouds -1 999 85 10000 1.12 101 14:26 02.01.2021
4172 Clouds -1 999 86 10000 1.12 101 13:44 02.01.2021
4173 Clouds -2 1000 88 10000 1.54 131 12:59 02.01.2021
4174 Clouds -2 1000 87 10000 2.06 148 12:40 02.01.2021
4175 Clouds -2 1000 89 10000 2.15 144 12:19 02.01.2021
4176 Clouds -2 1001 92 10000 2.15 144 11:38 02.01.2021
4177 Snow -2 1001 92 10000 2.11 158 11:20 02.01.2021
4178 Snow -3 1001 91 10000 2.11 158 10:40 02.01.2021
4179 Clouds -3 1001 91 10000 1.77 166 10:21 02.01.2021
4180 Clouds -3 1001 91 10000 1.77 166 09:39 02.01.2021
4181 Snow -4 1001 91 7925 2.29 150 09:19 02.01.2021
4182 Snow -4 1001 92 7925 2.29 150 08:46 02.01.2021
4183 Snow -4 1001 93 8502 1.57 161 08:19 02.01.2021
4184 Clouds -4 1001 92 10000 1.63 159 07:24 02.01.2021
4185 Snow -4 1001 91 10000 1.43 147 06:57 02.01.2021
4186 Clouds -6 1001 91 10000 1.43 169 05:57 02.01.2021
4187 Clouds -3 1007 90 10000 3.6 90 01:59 02.01.2021
4188 Snow -3 1007 91 10000 4.6 70 00:39 02.01.2021
4189 Clouds -3 1007 91 10000 4.1 70 23:58 01.01.2021
4190 Clouds -5 1001 91 10000 2.35 169 23:24 01.01.2021
4191 Clouds -4 1001 91 10000 2.35 169 22:57 01.01.2021
4192 Clouds -4 1001 91 10000 2.35 169 22:57 01.01.2021
4193 Snow -4 1001 91 10000 2.35 169 22:37 01.01.2021
4194 Clouds -4 1001 91 10000 2.27 168 22:18 01.01.2021
4195 Snow -5 1001 91 10000 2.27 168 21:42 01.01.2021
4196 Snow -6 1001 91 9705 2.43 167 21:20 01.01.2021
4197 Snow -6 1001 90 9705 2.43 167 20:50 01.01.2021
4198 Snow -5 1006 80 10000 6.2 50 20:18 01.01.2021
4199 Snow -7 1002 75 10000 2.04 164 19:42 01.01.2021
4200 Snow -7 1002 77 10000 2.27 162 19:22 01.01.2021
4201 Snow -7 1001 78 8265 2.29 156 18:46 01.01.2021
4202 Snow -6 1001 78 6782 2.16 162 18:27 01.01.2021
4203 Snow -6 1000 74 6782 2.16 162 17:48 01.01.2021
4204 Snow -5 1005 79 9487 0.447 0 17:23 01.01.2021
4205 Snow -5 1005 79 9487 2.3 166 16:51 01.01.2021
4206 Snow -6 999 71 10000 0.89 78 16:26 01.01.2021
4207 Snow -5 999 68 10000 1.79 126 15:42 01.01.2021
4208 Clouds -5 999 69 10000 1.79 95 14:49 01.01.2021
4209 Clouds -5 999 68 10000 5.36 97 14:28 01.01.2021
4210 Clouds -4 999 71 10000 4.02 94 13:40 01.01.2021
4211 Clouds -2 999 67 10000 3.35 159 12:57 01.01.2021
4212 Clouds -3 999 69 10000 3.39 162 12:36 01.01.2021
4213 Clouds -4 1000 65 10000 2.68 174 12:18 01.01.2021
4214 Clouds -3 1000 67 10000 3.39 162 11:38 01.01.2021
4215 Clouds -3 1000 69 10000 3.17 161 11:18 01.01.2021
4216 Clouds -5 1000 72 10000 3.17 161 10:34 01.01.2021
4217 Clouds -6 1000 74 10000 3.07 163 09:45 01.01.2021
4218 Clouds -6 1000 75 10000 2.93 165 08:52 01.01.2021
4219 Clouds -5 1006 57 10000 2.84 169 08:25 01.01.2021
4220 Clouds -4 1005 61 10000 3.26 166 04:52 01.01.2021
4221 Clouds -4 1005 75 10000 0.45 90 02:25 01.01.2021
4222 Clouds -4 1004 67 10000 0.45 135 00:38 01.01.2021
4223 Clouds -4 1004 65 10000 3.5 170 00:20 01.01.2021
4224 Clouds -3 1004 72 10000 3.56 169 23:22 31.12.2020
4225 Clouds -3 1004 74 10000 3.56 169 22:56 31.12.2020
4226 Clouds -3 1004 73 10000 0.45 270 22:38 31.12.2020
4227 Clouds -3 1004 75 10000 3.37 177 22:19 31.12.2020
4228 Clouds -4 1024 76 10000 4.023 135 21:46 31.12.2020
4229 Clouds -4 1005 79 10000 3.42 177 21:23 31.12.2020
4230 Clouds -4 1005 79 10000 3.42 177 20:48 31.12.2020
4231 Clouds -4 1025 83 10000 4.47 157 20:18 31.12.2020
4232 Clouds -4 1024 83 10000 5.364 112 19:45 31.12.2020
4233 Clouds -4 1006 72 10000 3.65 177 19:24 31.12.2020
4234 Clouds -4 1004 80 10000 3.1 250 18:42 31.12.2020
4235 Clouds -4 1004 80 10000 3.1 250 18:23 31.12.2020
4236 Clouds -3 1005 62 10000 0.894 0 17:44 31.12.2020
4237 Clouds -3 1005 60 10000 3.88 171 17:22 31.12.2020
4238 Clouds -2 1024 67 10000 3.129 90 16:40 31.12.2020
4239 Clouds -2 1005 54 10000 2.682 0 16:21 31.12.2020
4240 Clouds -2 1005 54 10000 3.98 168 15:45 31.12.2020
4241 Clouds -4 1007 54 10000 5.81 86 15:22 31.12.2020
4242 Clouds -2 1004 73 10000 4.09 167 14:56 31.12.2020
4243 Clouds -2 1004 71 10000 4.09 167 14:37 31.12.2020
4244 Clouds -2 1004 71 10000 3.98 168 14:19 31.12.2020
4245 Clouds -2 1005 72 10000 3.98 168 13:38 31.12.2020
4246 Clouds -4 1008 46 10000 3.69 170 13:19 31.12.2020
4247 Clouds -4 1008 46 10000 3.69 170 12:53 31.12.2020
4248 Clouds -3 1000 55 10000 3.64 172 12:34 31.12.2020
4249 Clouds -4 1001 59 10000 3.64 172 11:51 31.12.2020
4250 Clouds -4 1001 62 10000 3.64 172 11:32 31.12.2020
4251 Clouds -4 1001 62 10000 3.64 172 11:32 31.12.2020
4252 Clouds -6 1001 66 10000 3.28 173 10:49 31.12.2020
4253 Clouds -6 1001 69 10000 3.05 174 10:29 31.12.2020
4254 Clouds -7 1001 72 10000 3.05 174 09:56 31.12.2020
4255 Clouds -8 1001 75 10000 3.05 174 09:34 31.12.2020
4256 Clouds -9 1001 79 10000 2.79 180 08:50 31.12.2020
4257 Clouds -9 1001 78 10000 2.79 180 08:32 31.12.2020
4258 Clouds -9 1001 80 10000 2.48 182 07:57 31.12.2020
4259 Clouds -9 1001 79 10000 2.29 193 07:28 31.12.2020
4260 Clouds -8 1011 75 10000 2.24 81 05:31 31.12.2020
4261 Clouds -7 1008 80 10000 3.6 90 03:40 31.12.2020
4262 Clouds -8 1008 92 10000 1.5 90 02:45 31.12.2020
4263 Clear -8 1009 85 10000 3.576 0 02:25 31.12.2020
4264 Clear -7 1009 84 10000 2.235 0 01:43 31.12.2020
4265 Clouds -7 1009 84 10000 2.235 0 01:24 31.12.2020
4266 Rain -7 1009 83 10000 0.71 281 00:44 31.12.2020
4267 Clouds -6 1009 86 10000 0.5 0 23:48 30.12.2020
4268 Clouds -6 1010 84 10000 1 297 23:19 30.12.2020
4269 Clouds -6 1028 93 10000 0.894 90 22:47 30.12.2020
4270 Clouds -6 1028 93 10000 0.894 90 22:47 30.12.2020
4271 Clouds -6 1010 80 10000 1.11 300 22:29 30.12.2020
4272 Clouds -6 1028 92 10000 1.788 202 21:39 30.12.2020
4273 Clouds -6 1028 92 10000 1.788 202 21:39 30.12.2020
4274 Clouds -6 1010 83 10000 1.42 305 21:20 30.12.2020
4275 Clouds -6 1028 94 10000 2.682 247 20:48 30.12.2020
4276 Clouds -6 1010 81 10000 1.59 318 20:20 30.12.2020
4277 Clouds -6 1027 91 10000 1.788 225 19:40 30.12.2020
4278 Clouds -6 1009 83 10000 1.64 326 19:21 30.12.2020
4279 Clouds -5 1027 91 10000 1.43 331 18:46 30.12.2020
4280 Clouds -8 1000 72 7532 1.74 334 18:27 30.12.2020
4281 Clouds -5 1008 81 7532 1.341 0 17:51 30.12.2020
4282 Clouds -5 1027 89 7532 1.74 334 17:32 30.12.2020
4283 Clouds -5 1008 78 6908 0.447 0 16:56 30.12.2020
4284 Clouds -7 1008 69 7857 2.04 343 16:31 30.12.2020
4285 Clouds -5 1005 74 7857 1 0 15:47 30.12.2020
4286 Clouds -5 998 64 8298 2.19 344 15:24 30.12.2020
4287 Clouds -5 998 59 8298 2.19 344 14:44 30.12.2020
4288 Clouds -5 998 62 9207 2.46 343 14:22 30.12.2020
4289 Clouds -5 997 58 9207 2.46 343 13:33 30.12.2020
4290 Clouds -5 997 62 10000 2.29 342 12:40 30.12.2020
4291 Clouds -5 997 64 10000 1.69 331 12:20 30.12.2020
4292 Clouds -6 997 66 10000 1.69 331 11:36 30.12.2020
4293 Clouds -6 997 69 10000 1.47 323 11:18 30.12.2020
4294 Clouds -7 997 70 10000 1.47 323 10:43 30.12.2020
4295 Clouds -8 997 70 10000 0.93 308 10:25 30.12.2020
4296 Clouds -8 997 73 10000 0.93 308 09:49 30.12.2020
4297 Clouds -8 997 74 10000 0.84 294 09:28 30.12.2020
4298 Clouds -5 1003 80 10000 0.78 282 08:28 30.12.2020
4299 Clouds -7 1005 71 10000 0.71 261 07:29 30.12.2020
4300 Clouds -5 1002 80 10000 0.97 305 06:52 30.12.2020
4301 Clouds -5 1002 80 10000 0.88 297 06:30 30.12.2020
4302 Clouds -6 1001 92 10000 1 0 05:43 30.12.2020
4303 Clouds -6 1001 92 10000 1 0 05:24 30.12.2020
4304 Clouds -4 1001 80 10000 0.84 230 03:28 30.12.2020
4305 Clouds -4 1001 77 10000 0.84 230 02:40 30.12.2020
4306 Clouds -5 1000 92 10000 1 0 01:56 30.12.2020
4307 Clouds -4 1000 86 10000 2.6 120 01:33 30.12.2020
4308 Clouds -4 1000 77 10000 1.55 207 00:50 30.12.2020
4309 Clouds -4 999 92 10000 3.1 90 00:30 30.12.2020
4310 Clouds -4 1000 92 10000 3.1 90 23:54 29.12.2020
4311 Clouds -4 999 92 10000 2.6 90 23:36 29.12.2020
4312 Clouds -4 999 100 10000 2.6 90 22:58 29.12.2020
4313 Clouds -4 999 100 10000 3.6 80 22:40 29.12.2020
4314 Clouds -4 999 100 10000 2.6 100 22:20 29.12.2020
4315 Clouds -4 999 100 10000 2.6 100 22:20 29.12.2020
4316 Clouds -4 999 100 10000 1 0 21:46 29.12.2020
4317 Clouds -5 993 80 10000 1.43 199 21:24 29.12.2020
4318 Clouds -5 993 82 10000 1.43 199 20:46 29.12.2020
4319 Clouds -5 993 85 9806 1.45 205 20:25 29.12.2020
4320 Clouds -4 992 85 9806 1.45 205 19:47 29.12.2020
4321 Snow -2 998 43 6810 1.47 202 19:23 29.12.2020
4322 Snow -2 998 49 6810 1.47 202 18:54 29.12.2020
4323 Clouds -4 1000 98 3801 0.89 83 18:31 29.12.2020
4324 Clouds -2 997 57 7427 1.46 193 17:56 29.12.2020
4325 Clouds -2 996 100 7427 2.1 110 17:36 29.12.2020
4326 Clouds -1 997 57 10000 1.31 192 17:18 29.12.2020
4327 Clouds -1 997 68 10000 0.89 90 16:34 29.12.2020
4328 Clouds 0 997 77 10000 1.79 315 15:53 29.12.2020
4329 Clouds 0 996 78 10000 1.79 338 15:33 29.12.2020
4330 Clouds 0 994 80 10000 1 0 14:56 29.12.2020
4331 Clouds -2 997 66 10000 3.58 105 14:36 29.12.2020
4332 Clouds -2 996 66 10000 1.34 99 14:18 29.12.2020
4333 Clouds 1 994 79 10000 2.08 183 13:37 29.12.2020
4334 Clouds -1 994 86 10000 3.1 120 13:18 29.12.2020
4335 Clouds -3 996 66 10000 2.53 175 12:37 29.12.2020
4336 Clouds -3 996 68 10000 2.41 169 12:19 29.12.2020
4337 Clouds -3 996 67 10000 2.41 169 11:50 29.12.2020
4338 Clouds -3 996 66 10000 0.45 107 11:31 29.12.2020
4339 Clouds -3 994 72 10000 2.54 181 10:22 29.12.2020
4340 Clouds -6 988 71 10000 2.54 181 09:42 29.12.2020
4341 Clouds -3 1011 77 10000 3.129 157 09:19 29.12.2020
4342 Clouds -3 992 73 10000 2.79 187 09:19 29.12.2020
4343 Clouds -3 1011 77 10000 3.129 157 09:19 29.12.2020
4344 Clouds -4 992 67 10000 2.79 187 08:49 29.12.2020
4345 Clouds -5 986 71 10000 2.67 179 07:44 29.12.2020
4346 Clouds -6 994 84 5879 0.45 73 07:26 29.12.2020
4347 Clouds -5 993 85 10000 1.79 76 05:54 29.12.2020
4348 Clouds -3 987 50 10000 0.45 68 02:41 29.12.2020
4349 Clouds -3 986 62 10000 3.57 187 00:44 29.12.2020
4350 Clouds -5 981 75 10000 3.09 179 23:39 28.12.2020
4351 Snow -4 981 74 10000 2.87 199 22:56 28.12.2020
4352 Snow -7 980 74 8829 3.24 198 22:22 28.12.2020
4353 Snow -5 987 92 8829 3.24 198 21:42 28.12.2020
4354 Clouds -4 987 89 10000 2.82 178 21:21 28.12.2020
4355 Clouds -5 987 92 10000 2.82 178 20:40 28.12.2020
4356 Clouds -4 979 77 10000 2.63 184 20:21 28.12.2020
4357 Clouds -2 983 55 10000 2.63 184 19:42 28.12.2020
4358 Clouds -5 979 70 10000 2.47 198 19:23 28.12.2020
4359 Clouds -3 983 86 10000 2.1 80 18:50 28.12.2020
4360 Clouds -3 983 89 10000 2.1 80 18:28 28.12.2020
4361 Clouds -2 983 89 10000 2.6 160 17:42 28.12.2020
4362 Snow -3 983 91 10000 4.6 240 17:23 28.12.2020
4363 Snow -3 983 100 10000 3.6 270 16:38 28.12.2020
4364 Snow -2 984 55 296 1.2 275 16:20 28.12.2020
4365 Snow -1 983 76 296 1.2 275 15:45 28.12.2020
4366 Snow 0 983 79 103 0.45 293 14:56 28.12.2020
4367 Snow 0 982 79 110 0.45 270 13:55 28.12.2020
4368 Snow 0 983 78 2777 1.34 315 13:25 28.12.2020
4369 Snow 0 982 78 9790 1.79 315 12:41 28.12.2020
4370 Snow -1 981 78 6990 0.89 270 12:22 28.12.2020
4371 Snow -1 998 85 6990 2.235 67 11:45 28.12.2020
4372 Snow -1 982 78 5825 3.12 199 11:24 28.12.2020
4373 Snow 0 981 90 5825 5.1 290 10:45 28.12.2020
4374 Snow -2 981 90 8127 5.1 290 10:27 28.12.2020
4375 Snow -2 980 74 8127 1.5 260 09:46 28.12.2020
4376 Snow -2 979 74 8776 2.1 300 09:19 28.12.2020
4377 Snow -2 980 86 9753 1 0 07:35 28.12.2020
4378 Snow -2 981 86 8939 1.5 300 06:50 28.12.2020
4379 Snow -3 999 88 5283 8.941 157 04:31 28.12.2020
4380 Snow -4 981 60 8028 11.176 0 02:22 28.12.2020
4381 Clouds -4 982 60 10000 14.752 0 00:53 28.12.2020
4382 Clouds -4 1004 95 10000 6.259 135 23:46 27.12.2020
4383 Clouds -2 985 44 10000 7.7 100 23:19 27.12.2020
4384 Clouds -3 985 59 10000 13.411 0 21:57 27.12.2020
4385 Clouds -3 985 59 10000 13.411 0 21:57 27.12.2020
4386 Clouds -3 985 58 10000 13.411 0 21:26 27.12.2020
4387 Snow -2 1007 97 10000 7.6 157 20:47 27.12.2020
4388 Clouds -2 1010 97 10000 3.129 67 19:46 27.12.2020
4389 Clouds -2 989 38 10000 7.153 0 19:21 27.12.2020
4390 Clouds -2 991 32 10000 3.576 0 18:41 27.12.2020
4391 Clouds -3 992 79 10000 5.21 164 18:19 27.12.2020
4392 Clouds -3 1014 97 10000 1.788 135 17:47 27.12.2020
4393 Clouds -3 993 79 10000 5.23 164 17:27 27.12.2020
4394 Clouds -2 995 80 10000 5.23 164 16:37 27.12.2020
4395 Clouds -2 996 80 10000 0.45 293 15:59 27.12.2020
4396 Clouds -2 997 92 10000 0.5 0 15:19 27.12.2020
4397 Clouds -2 998 100 10000 0.5 0 14:41 27.12.2020
4398 Clouds -2 1000 92 10000 4.79 168 14:22 27.12.2020
4399 Clouds -2 1001 92 10000 1.5 80 13:23 27.12.2020
4400 Clouds -3 1002 100 10000 4.64 172 12:49 27.12.2020
4401 Clouds -3 1003 100 10000 4.2 171 12:22 27.12.2020
4402 Clouds -3 1005 100 10000 4.2 171 11:39 27.12.2020
4403 Clouds -4 1000 72 10000 3.77 174 10:52 27.12.2020
4404 Clouds -3 1010 34 10000 3.56 178 10:26 27.12.2020
4405 Clouds -5 1001 72 10000 3.56 178 09:56 27.12.2020
4406 Clouds -6 1001 74 10000 3.25 187 08:50 27.12.2020
4407 Clouds -7 1002 74 10000 3.06 185 08:26 27.12.2020
4408 Clouds -7 1002 75 10000 2.53 202 07:27 27.12.2020
4409 Clouds -9 1004 79 10000 2.6 199 05:46 27.12.2020
4410 Clear -10 1005 81 10000 2.4 201 04:32 27.12.2020
4411 Clear -10 1007 78 10000 2.58 191 03:21 27.12.2020
4412 Clear -10 1008 82 10000 1.99 210 01:34 27.12.2020
4413 Clear -11 1010 82 10000 1.13 211 00:24 27.12.2020
4414 Clear -11 1012 82 10000 1.13 211 23:40 26.12.2020
4415 Clear -11 1012 83 10000 0.74 223 23:19 26.12.2020
4416 Clear -12 1014 83 10000 0.74 223 22:36 26.12.2020
4417 Clear -12 1014 84 10000 0.45 252 22:18 26.12.2020
4418 Clear -12 1014 83 10000 0.45 252 21:48 26.12.2020
4419 Clear -12 1014 82 10000 0.94 307 21:24 26.12.2020
4420 Clear -12 1014 82 10000 0.94 307 20:43 26.12.2020
4421 Clear -11 1014 80 10000 1.53 316 20:19 26.12.2020
4422 Clear -12 1025 77 10000 1.61 318 19:29 26.12.2020
4423 Clear -12 1025 74 10000 2.24 168 18:53 26.12.2020
4424 Clear -12 1025 79 10000 1.52 317 18:32 26.12.2020
4425 Clear -12 1025 76 10000 1.85 328 17:44 26.12.2020
4426 Clear -12 1025 74 10000 2.18 334 17:26 26.12.2020
4427 Clear -8 1045 92 10000 2.18 334 16:37 26.12.2020
4428 Clouds -10 1015 73 10000 2.32 343 15:52 26.12.2020
4429 Clouds -7 1015 71 10000 0.45 196 15:19 26.12.2020
4430 Clouds -8 1015 72 10000 3.59 347 14:29 26.12.2020
4431 Clouds -8 1015 73 10000 3.59 347 13:56 26.12.2020
4432 Clouds -8 1015 77 10000 3.59 347 13:36 26.12.2020
4433 Clouds -8 1015 86 10000 3.55 347 12:53 26.12.2020
4434 Clouds -8 1015 86 10000 3.57 346 12:30 26.12.2020
4435 Clouds -8 1016 86 10000 3.03 347 11:58 26.12.2020
4436 Clouds -8 1016 86 10000 3.03 347 11:39 26.12.2020
4437 Clouds -10 1026 67 10000 2.7 351 11:18 26.12.2020
4438 Clouds -11 1026 75 10000 3.13 96 10:42 26.12.2020
4439 Clouds -11 1026 79 10000 2.68 96 10:22 26.12.2020
4440 Clouds -12 1026 91 10000 2.52 351 09:39 26.12.2020
4441 Snow -9 1024 80 10000 3.1 60 08:41 26.12.2020
4442 Rain -9 1024 80 10000 6.2 50 08:18 26.12.2020
4443 Rain -8 1024 80 8936 4.1 90 07:20 26.12.2020
4444 Clouds -8 1022 80 7604 5.7 60 03:54 26.12.2020
4445 Snow -8 1022 87 8811 3.6 220 02:34 26.12.2020
4446 Snow -8 1022 89 7016 3.6 0 00:28 26.12.2020
4447 Snow -8 1021 89 7016 5.1 0 23:46 25.12.2020
4448 Snow -7 1021 89 6817 5.1 0 23:27 25.12.2020
4449 Snow -7 1021 74 6817 2.6 0 22:51 25.12.2020
4450 Snow -7 1021 74 6585 2.6 0 22:25 25.12.2020
4451 Snow -7 1020 74 6585 5.7 190 21:41 25.12.2020
4452 Snow -9 1021 88 6620 1.34 96 21:23 25.12.2020
4453 Snow -9 1021 85 6620 0.45 96 20:39 25.12.2020
4454 Snow -9 1020 91 5391 1.79 96 19:54 25.12.2020
4455 Snow -7 1009 88 5391 0.45 94 19:36 25.12.2020
4456 Snow -7 1009 87 4135 4.93 350 18:39 25.12.2020
4457 Snow -7 1009 87 3082 0.45 120 17:58 25.12.2020
4458 Snow -9 1018 91 3082 1.34 96 17:35 25.12.2020
4459 Snow -9 1017 88 4356 1.34 96 16:48 25.12.2020
4460 Snow -7 1008 84 2246 0.45 24 16:21 25.12.2020
4461 Snow -7 1008 83 2246 0.45 128 15:46 25.12.2020
4462 Snow -7 1007 81 4597 0.89 24 15:22 25.12.2020
4463 Snow -7 1007 80 4597 0.45 47 14:31 25.12.2020
4464 Snow -7 1007 80 4000 0.45 32 13:47 25.12.2020
4465 Snow -6 1008 79 6110 0.45 34 13:26 25.12.2020
4466 Snow -6 1008 83 6110 5.03 347 12:49 25.12.2020
4467 Snow -6 1008 85 6378 4.94 351 12:27 25.12.2020
4468 Snow -6 1008 84 6378 4.94 351 11:46 25.12.2020
4469 Snow -6 1008 86 4669 0.45 163 11:22 25.12.2020
4470 Snow -6 1008 89 4669 5.05 347 10:35 25.12.2020
4471 Snow -6 1008 90 4272 0.45 342 09:49 25.12.2020
4472 Snow -8 1017 91 3305 4.1 347 08:52 25.12.2020
4473 Snow -8 1016 90 2742 4.29 347 08:32 25.12.2020
4474 Snow -8 1016 86 7859 3.76 342 06:51 25.12.2020
4475 Snow -5 1031 94 7586 2.682 337 05:31 25.12.2020
4476 Snow -4 1006 77 6843 3.13 328 02:21 25.12.2020
4477 Snow -5 1013 99 4272 0.89 96 00:25 25.12.2020
4478 Snow -4 1013 99 4272 3.88 329 23:31 24.12.2020
4479 Snow -4 1013 99 7807 2.83 322 22:54 24.12.2020
4480 Snow -4 1013 99 7807 2.83 322 22:54 24.12.2020
4481 Snow -4 1013 99 9659 2.21 310 22:24 24.12.2020
4482 Snow -1 1027 94 9659 11.176 225 21:45 24.12.2020
4483 Snow -1 1012 33 10000 1.82 306 20:59 24.12.2020
4484 Snow -1 1012 24 10000 1.91 303 19:48 24.12.2020
4485 Snow -1 1008 80 10000 1.341 0 18:21 24.12.2020
4486 Snow -2 1006 93 10000 2.36 312 17:38 24.12.2020
4487 Clouds -2 1006 93 10000 2.11 306 17:20 24.12.2020
4488 Clouds -2 1006 93 10000 2.11 306 17:20 24.12.2020
4489 Clouds -1 1006 91 10000 1.67 308 16:25 24.12.2020
4490 Clouds -1 1006 92 10000 1.67 308 15:49 24.12.2020
4491 Clouds 0 1006 92 4857 1.75 314 15:25 24.12.2020
4492 Clouds 0 1006 88 4857 0.45 58 14:56 24.12.2020
4493 Clouds 0 1006 86 4857 1.75 314 14:37 24.12.2020
4494 Snow 1 1006 72 848 1.45 313 14:18 24.12.2020
4495 Clouds 0 1007 94 848 1.45 313 13:38 24.12.2020
4496 Snow 0 1007 94 4047 1.39 308 13:18 24.12.2020
4497 Clouds -1 1007 95 4386 1.28 315 12:39 24.12.2020
4498 Clouds -1 1007 95 5978 1.39 297 12:18 24.12.2020
4499 Clouds -1 1008 95 5978 1.39 297 11:38 24.12.2020
4500 Clouds -1 1008 95 8398 1.57 257 11:19 24.12.2020
4501 Clouds -1 1008 95 8398 1.57 257 10:43 24.12.2020
4502 Clouds -1 1008 94 3978 1.49 255 10:18 24.12.2020
4503 Clouds -1 1008 94 3978 1.49 255 09:49 24.12.2020
4504 Snow -1 1008 93 1152 1.64 263 08:50 24.12.2020
4505 Snow -1 1008 93 674 1.57 247 07:54 24.12.2020
4506 Snow 0 1008 92 674 1.57 247 07:35 24.12.2020
4507 Snow 1 1008 80 100 0.45 342 06:27 24.12.2020
4508 Snow 2 1009 80 436 2.28 188 03:50 24.12.2020
4509 Clouds 2 1011 81 5995 2.9 182 01:51 24.12.2020
4510 Clouds 3 1011 80 4253 3.41 181 01:20 24.12.2020
4511 Rain 3 1012 81 4290 3.38 181 00:31 24.12.2020
4512 Clouds 3 1012 82 779 3.43 177 23:59 23.12.2020
4513 Clouds 3 1013 81 779 3.43 177 23:39 23.12.2020
4514 Clouds 3 1013 81 656 3.87 172 23:20 23.12.2020
4515 Clouds 4 1016 43 656 3.87 172 22:43 23.12.2020
4516 Clouds 3 1013 81 3801 3.95 170 22:23 23.12.2020
4517 Clouds 4 1016 100 3801 2.1 100 21:43 23.12.2020
4518 Clouds 4 1013 82 5087 3.83 176 21:21 23.12.2020
4519 Rain 4 1013 82 5087 3.83 176 20:45 23.12.2020
4520 Clouds 4 1015 93 7376 0.5 0 20:25 23.12.2020
4521 Clouds 4 1016 100 7376 0.5 0 19:45 23.12.2020
4522 Clouds 4 1016 100 10000 0.5 0 19:23 23.12.2020
4523 Clouds 5 1016 93 10000 1 0 18:56 23.12.2020
4524 Clouds 5 1016 93 10000 2.6 70 18:35 23.12.2020
4525 Clouds 5 1017 93 10000 4.1 90 17:44 23.12.2020
4526 Clouds 6 1013 53 10000 0.447 0 17:24 23.12.2020
4527 Clouds 7 1013 52 10000 3.576 0 16:56 23.12.2020
4528 Clouds 7 1031 59 10000 3.129 202 16:37 23.12.2020
4529 Clouds 7 1031 58 10000 3.576 225 16:18 23.12.2020
4530 Clouds 8 1014 46 10000 0.894 0 15:40 23.12.2020
4531 Clouds 6 1017 93 10000 1.5 300 15:22 23.12.2020
4532 Clouds 6 1017 93 10000 1.5 300 14:52 23.12.2020
4533 Clouds 8 1018 61 10000 3.01 177 14:25 23.12.2020
4534 Clouds 6 1017 100 10000 1.5 90 13:58 23.12.2020
4535 Clouds 6 1018 100 10000 1 0 13:39 23.12.2020
4536 Clouds 6 1018 100 10000 1 0 13:18 23.12.2020
4537 Clouds 8 1015 67 10000 2.32 186 12:46 23.12.2020
4538 Clouds 7 1015 67 10000 2.44 186 12:21 23.12.2020
4539 Clouds 7 1016 67 10000 2.44 186 11:45 23.12.2020
4540 Clouds 6 1016 69 10000 2.21 182 10:58 23.12.2020
4541 Clouds 6 1016 72 10000 2.21 182 10:40 23.12.2020
4542 Clouds 6 1017 74 10000 1.91 196 10:21 23.12.2020
4543 Clouds 4 1020 100 10000 0.5 0 09:27 23.12.2020
4544 Clouds 4 1020 100 10000 1.97 204 08:42 23.12.2020
4545 Clouds 4 1021 100 10000 1 0 08:18 23.12.2020
4546 Clouds 4 1021 100 10000 1.5 80 07:21 23.12.2020
4547 Clouds 5 1017 75 10000 1.95 207 06:39 23.12.2020
4548 Clouds 5 1017 76 10000 2.03 202 05:26 23.12.2020
4549 Clouds 5 1017 76 10000 2.03 202 04:51 23.12.2020
4550 Clouds 3 1019 80 10000 1.1 240 00:34 23.12.2020
4551 Clouds 3 1019 83 10000 1.1 240 23:46 22.12.2020
4552 Clouds 3 1019 82 10000 1.15 255 23:27 22.12.2020
4553 Clouds 3 1019 84 10000 1.15 255 22:43 22.12.2020
4554 Clouds 3 1020 84 10000 1.08 262 22:25 22.12.2020
4555 Clouds 3 1020 85 10000 1.08 262 21:57 22.12.2020
4556 Clouds 3 1020 85 10000 1.08 262 21:38 22.12.2020
4557 Clouds 3 1020 84 10000 1.08 262 21:38 22.12.2020
4558 Clouds 4 1020 85 10000 1.1 274 21:18 22.12.2020
4559 Clouds 3 1020 85 10000 1.1 274 20:43 22.12.2020
4560 Clouds 3 1020 87 10000 1.22 291 20:20 22.12.2020
4561 Clouds 2 1020 87 10000 1.22 291 19:42 22.12.2020
4562 Clouds 3 1020 87 10000 1.61 297 19:21 22.12.2020
4563 Clouds 3 1019 86 10000 1.61 297 18:48 22.12.2020
4564 Clouds 3 1019 86 10000 1.69 302 18:28 22.12.2020
4565 Clouds 3 1019 86 10000 1.69 302 17:50 22.12.2020
4566 Clouds 3 1019 85 10000 1.84 317 17:23 22.12.2020
4567 Clouds 4 1019 88 10000 1.84 317 16:54 22.12.2020
4568 Clouds 4 1019 88 10000 1.84 317 16:36 22.12.2020
4569 Clouds 4 1019 89 10000 1.88 315 16:18 22.12.2020
4570 Clouds 4 1019 87 10000 1.88 315 15:41 22.12.2020
4571 Clouds 5 1019 89 10000 2.07 301 15:18 22.12.2020
4572 Clouds 5 1019 81 10000 2.07 301 14:43 22.12.2020
4573 Clouds 6 1019 86 10000 2.02 298 14:25 22.12.2020
4574 Clouds 5 1019 87 10000 2.02 298 13:47 22.12.2020
4575 Clouds 5 1019 83 10000 1.95 301 13:19 22.12.2020
4576 Clouds 5 1019 86 10000 1.95 301 12:55 22.12.2020
4577 Clouds 5 1019 84 10000 1.86 308 12:37 22.12.2020
4578 Clouds 5 1019 90 10000 1.67 298 12:18 22.12.2020
4579 Clouds 5 1019 90 10000 1.67 298 11:40 22.12.2020
4580 Clouds 4 1019 91 10000 1.46 275 11:21 22.12.2020
4581 Clouds 4 1019 91 10000 1.46 275 10:54 22.12.2020
4582 Clouds 4 1019 93 10000 1.42 269 10:26 22.12.2020
4583 Clouds 3 1019 94 10000 1.42 269 09:58 22.12.2020
4584 Clouds 3 1019 94 10000 1.35 276 09:29 22.12.2020
4585 Clouds 3 1018 94 10000 1.35 276 08:54 22.12.2020
4586 Clouds 3 1018 95 10000 1.35 276 08:34 22.12.2020
4587 Clouds 3 1018 95 10000 1.55 284 07:57 22.12.2020
4588 Clouds 3 1018 95 10000 1.78 281 07:23 22.12.2020
4589 Clouds 2 1018 96 10000 1.71 292 05:51 22.12.2020
4590 Clouds 2 1018 96 10000 1.87 302 03:46 22.12.2020
4591 Clouds 3 1018 95 1601 1.71 289 01:44 22.12.2020
4592 Clouds 3 1018 94 112 1.38 281 23:56 21.12.2020
4593 Clouds 3 1018 94 112 1.38 281 23:38 21.12.2020
4594 Rain 3 1018 93 180 1.32 230 23:18 21.12.2020
4595 Rain 2 1018 93 180 1.32 230 22:36 21.12.2020
4596 Rain 2 1018 93 180 1.32 230 22:36 21.12.2020
4597 Rain 2 1018 93 285 1.34 213 22:18 21.12.2020
4598 Rain 2 1018 92 285 1.34 213 21:42 21.12.2020
4599 Rain 3 1018 92 446 2.06 214 21:24 21.12.2020
4600 Rain 3 1018 91 446 2.06 214 20:42 21.12.2020
4601 Snow 1 1018 91 441 2.36 189 20:20 21.12.2020
4602 Snow 1 1018 90 441 2.36 189 19:46 21.12.2020
4603 Snow 1 1018 88 347 2.79 192 19:20 21.12.2020
4604 Clouds 1 1018 85 347 2.79 192 18:55 21.12.2020
4605 Snow 1 1018 84 289 2.56 188 18:36 21.12.2020
4606 Snow 1 1018 83 264 2.46 185 18:18 21.12.2020
4607 Snow 2 1018 82 264 2.46 185 17:41 21.12.2020
4608 Snow 2 1018 82 543 2.38 189 17:22 21.12.2020
4609 Clouds 2 1018 81 543 2.38 189 16:39 21.12.2020
4610 Clouds 2 1018 80 2046 2.1 187 16:18 21.12.2020
4611 Clouds 2 1018 79 2046 2.1 187 15:41 21.12.2020
4612 Clouds 3 1018 78 9571 2.17 198 14:57 21.12.2020
4613 Clouds 2 1018 74 4302 2.5 191 14:22 21.12.2020
4614 Clouds 2 1018 76 4302 2.5 191 13:49 21.12.2020
4615 Clouds 2 1018 71 4302 2.5 191 13:31 21.12.2020
4616 Rain 2 1018 70 10000 2.5 172 12:47 21.12.2020
4617 Rain 2 1018 71 10000 2.54 179 12:25 21.12.2020
4618 Rain 2 1018 72 10000 2.54 179 11:59 21.12.2020
4619 Rain 2 1019 74 10000 2.54 179 11:40 21.12.2020
4620 Clouds 2 1019 76 10000 2.34 180 11:22 21.12.2020
4621 Clouds 1 1019 77 10000 2.34 180 10:55 21.12.2020
4622 Clouds 1 1019 77 10000 2.34 180 10:36 21.12.2020
4623 Clouds 1 1019 79 10000 2.48 181 09:51 21.12.2020
4624 Clouds 0 1019 81 10000 2.46 179 09:27 21.12.2020
4625 Clouds 0 1019 82 10000 2.46 179 08:58 21.12.2020
4626 Clouds -1 1019 85 10000 2.13 183 08:18 21.12.2020
4627 Clouds -2 1019 86 10000 1.57 192 06:48 21.12.2020
4628 Clouds -2 1019 87 10000 0.89 194 04:58 21.12.2020
4629 Clouds -2 1019 88 10000 0.98 225 02:32 21.12.2020
4630 Clouds -1 1019 87 5241 0.86 248 00:35 21.12.2020
4631 Clouds -1 1019 87 10000 0.84 224 23:38 20.12.2020
4632 Snow -1 1019 87 4765 0.96 244 23:19 20.12.2020
4633 Snow -1 1019 86 4765 0.96 244 22:42 20.12.2020
4634 Snow 0 1019 86 5722 1.11 234 22:22 20.12.2020
4635 Snow 0 1018 82 5722 1.11 234 21:40 20.12.2020
4636 Snow 1 1018 80 2805 1.09 218 21:22 20.12.2020
4637 Snow 1 1018 80 2805 1.09 218 20:53 20.12.2020
4638 Snow 0 1018 79 9717 1.39 210 20:26 20.12.2020
4639 Clouds 0 1018 79 9717 1.39 210 19:56 20.12.2020
4640 Clouds 0 1017 78 9717 1.39 210 19:38 20.12.2020
4641 Clouds 0 1017 79 10000 1.61 180 19:19 20.12.2020
4642 Clouds -1 1017 80 10000 1.61 180 18:41 20.12.2020
4643 Snow 1 1017 78 10000 1.39 184 18:22 20.12.2020
4644 Snow 1 1017 78 10000 1.39 184 17:45 20.12.2020
4645 Clouds 1 1017 79 9168 1.63 173 17:27 20.12.2020
4646 Clouds 2 1016 76 9168 1.63 173 16:47 20.12.2020
4647 Clouds 2 1017 75 9740 2.03 164 16:27 20.12.2020
4648 Clouds 1 1037 77 9740 1.788 135 15:50 20.12.2020
4649 Clouds 2 1020 74 7186 2.34 162 15:25 20.12.2020
4650 Clouds 2 1020 73 7186 2.34 162 14:55 20.12.2020
4651 Clouds 2 1037 77 7186 0.447 22 14:34 20.12.2020
4652 Clouds 2 1023 68 6350 0.45 174 13:47 20.12.2020
4653 Clouds 2 1023 69 8020 1.34 85 13:28 20.12.2020
4654 Clouds 2 1023 69 7947 2.24 126 12:58 20.12.2020
4655 Clouds 2 1022 75 7947 2.73 170 12:39 20.12.2020
4656 Snow 1 1021 86 10000 1 0 12:21 20.12.2020
4657 Clouds 3 1016 76 10000 2.75 166 11:44 20.12.2020
4658 Clouds 3 1017 75 8328 3.2 168 11:19 20.12.2020
4659 Clouds 3 1017 77 8328 3.2 168 10:45 20.12.2020
4660 Clouds 2 1017 78 8153 3.22 165 10:20 20.12.2020
4661 Clouds 2 1016 81 8153 3.22 165 09:46 20.12.2020
4662 Clouds 2 1016 80 8244 3.16 168 09:27 20.12.2020
4663 Clouds 1 1016 80 8244 3.16 168 08:58 20.12.2020
4664 Clouds 1 1016 81 8244 3.16 168 08:39 20.12.2020
4665 Clouds 1 1016 81 10000 3.23 165 07:27 20.12.2020
4666 Clouds 1 1016 80 10000 3.2 167 05:48 20.12.2020
4667 Clouds 1 1017 78 10000 2.96 167 02:23 20.12.2020
4668 Clouds 0 1018 78 8918 3.08 167 00:39 20.12.2020
4669 Clouds 0 1018 77 10000 2.78 170 23:22 19.12.2020
4670 Clouds 0 1018 77 10000 2.78 170 22:57 19.12.2020
4671 Clouds 0 1018 77 10000 2.78 170 22:39 19.12.2020
4672 Clouds 0 1018 78 10000 2.76 174 22:19 19.12.2020
4673 Clouds 0 1018 79 10000 2.76 174 21:43 19.12.2020
4674 Clouds 0 1018 76 10000 2.78 173 21:25 19.12.2020
4675 Clouds 0 1018 77 10000 2.78 173 20:48 19.12.2020
4676 Clouds 1 1018 77 10000 2.88 165 20:23 19.12.2020
4677 Clouds 1 1018 77 10000 2.88 165 19:56 19.12.2020
4678 Clouds 1 1018 77 10000 2.88 165 19:38 19.12.2020
4679 Clouds 1 1018 77 10000 2.95 163 19:19 19.12.2020
4680 Clouds 2 1018 77 7951 2.82 171 18:32 19.12.2020
4681 Clouds 2 1018 76 8742 2.82 167 17:55 19.12.2020
4682 Clouds 2 1018 75 8742 2.82 167 17:30 19.12.2020
4683 Clouds 1 1019 91 9643 1.5 280 16:57 19.12.2020
4684 Clouds 1 1019 91 9643 1 0 16:38 19.12.2020
4685 Clouds 1 1023 68 10000 3.17 165 16:19 19.12.2020
4686 Clouds 1 1023 68 10000 3.17 165 15:47 19.12.2020
4687 Clouds 2 1023 66 10000 3.13 165 15:18 19.12.2020
4688 Clouds 2 1023 65 10000 0.45 88 14:35 19.12.2020
4689 Clouds 2 1023 65 10000 3.35 165 13:42 19.12.2020
4690 Clouds 2 1023 65 10000 3.52 164 13:22 19.12.2020
4691 Clouds 2 1023 65 10000 0.89 172 12:57 19.12.2020
4692 Clouds 2 1023 66 10000 3.52 164 12:38 19.12.2020
4693 Clouds 2 1023 67 10000 3.55 169 12:20 19.12.2020
4694 Clouds 1 1023 68 10000 3.55 169 11:44 19.12.2020
4695 Snow 1 1024 68 8600 3.76 168 11:18 19.12.2020
4696 Clouds 2 1018 72 8600 3.76 168 10:42 19.12.2020
4697 Clouds 1 1018 76 8218 3.67 169 10:18 19.12.2020
4698 Clouds 1 1018 74 8218 3.67 169 09:41 19.12.2020
4699 Snow 0 1018 75 9944 3.6 171 08:58 19.12.2020
4700 Snow 0 1017 76 9939 3.59 170 08:18 19.12.2020
4701 Clouds -2 1021 100 10000 0.5 0 07:20 19.12.2020
4702 Clouds 0 1017 77 9169 3.59 167 06:49 19.12.2020
4703 Clouds -2 1021 92 9519 1 0 05:23 19.12.2020
4704 Clouds -1 1025 70 10000 3.69 168 03:50 19.12.2020
4705 Clouds 0 1019 78 8856 3.39 173 00:42 19.12.2020
4706 Clouds 0 1019 78 10000 3.39 173 00:22 19.12.2020
4707 Clouds 0 1019 77 10000 3.39 173 23:52 18.12.2020
4708 Clouds 0 1020 76 10000 3.39 173 23:33 18.12.2020
4709 Clouds 0 1020 77 10000 3.45 174 22:59 18.12.2020
4710 Clouds 0 1020 76 10000 3.45 174 22:41 18.12.2020
4711 Clouds -1 1020 77 10000 3.35 175 22:19 18.12.2020
4712 Clouds -1 1020 74 10000 3.35 175 21:46 18.12.2020
4713 Clouds -1 1020 76 10000 3.01 176 21:25 18.12.2020
4714 Clouds 0 1019 74 10000 2.69 178 20:26 18.12.2020
4715 Clouds -1 1023 100 10000 0.5 0 19:51 18.12.2020
4716 Clear 0 1023 100 10000 0.5 0 19:25 18.12.2020
4717 Mist -1 1023 100 10000 2.58 177 19:25 18.12.2020
4718 Clear 0 1023 100 10000 1 0 18:48 18.12.2020
4719 Clear 0 1023 100 10000 1 0 18:28 18.12.2020
4720 Clear 0 1023 100 10000 1 0 17:59 18.12.2020
4721 Clear 1 1023 100 10000 2.59 174 17:21 18.12.2020
4722 Clear 1 1024 92 10000 2.1 90 16:48 18.12.2020
4723 Clear 1 1024 92 10000 2.1 90 16:26 18.12.2020
4724 Clear 1 1024 92 10000 1.5 90 15:54 18.12.2020
4725 Clear 1 1024 100 10000 1.5 80 15:36 18.12.2020
4726 Clear 1 1024 100 10000 1.5 80 15:18 18.12.2020
4727 Clear 1 1024 100 10000 1.5 80 14:51 18.12.2020
4728 Clear 2 1019 61 10000 2.2 170 14:19 18.12.2020
4729 Clear -1 1025 100 10000 1 0 13:45 18.12.2020
4730 Clouds 0 1025 100 10000 1 0 13:23 18.12.2020
4731 Clouds 2 1020 67 10000 2.08 171 12:46 18.12.2020
4732 Clouds 2 1020 67 10000 2.08 171 12:46 18.12.2020
4733 Clouds 1 1020 73 10000 2.3 169 11:38 18.12.2020
4734 Clouds 1 1021 74 10000 2.28 171 11:19 18.12.2020
4735 Clouds 1 1021 75 10000 2.28 171 10:38 18.12.2020
4736 Clouds 0 1021 76 10000 2.14 179 10:20 18.12.2020
4737 Clouds 0 1021 77 10000 2.14 179 09:38 18.12.2020
4738 Clouds -1 1021 78 10000 2.16 179 09:20 18.12.2020
4739 Clouds -1 1021 78 10000 2.16 179 08:52 18.12.2020
4740 Clouds -1 1020 78 10000 1.87 177 08:26 18.12.2020
4741 Clouds -1 1020 78 10000 1.07 186 07:20 18.12.2020
4742 Clouds -1 1020 77 10000 1.07 186 06:59 18.12.2020
4743 Clouds -1 1020 77 10000 0.98 196 06:22 18.12.2020
4744 Clouds -1 1020 77 10000 0.98 196 05:33 18.12.2020
4745 Clouds 0 1020 78 10000 1 193 04:50 18.12.2020
4746 Clouds -1 1021 77 10000 0.35 192 01:49 18.12.2020
4747 Clouds -1 1021 78 10000 0.33 206 01:22 18.12.2020
4748 Clouds -1 1021 78 10000 0.16 285 23:57 17.12.2020
4749 Clouds -2 1021 78 10000 0.21 305 23:25 17.12.2020
4750 Clouds -1 1021 77 10000 0.21 305 22:50 17.12.2020
4751 Clouds -1 1021 76 10000 0.24 332 22:28 17.12.2020
4752 Clouds 0 1021 75 10000 0.24 332 21:47 17.12.2020
4753 Clouds 0 1021 75 10000 0.31 336 21:25 17.12.2020
4754 Clouds 0 1021 75 10000 0.31 336 20:59 17.12.2020
4755 Clouds 0 1021 74 10000 0.31 336 20:41 17.12.2020
4756 Clear -1 1025 100 10000 2.6 100 20:18 17.12.2020
4757 Clear -2 1025 100 10000 0.43 334 19:45 17.12.2020
4758 Clear -1 1025 100 10000 0.39 344 19:23 17.12.2020
4759 Clouds 0 1021 73 10000 0.72 1 18:41 17.12.2020
4760 Clear 1 1024 69 10000 1.341 0 18:23 17.12.2020
4761 Clear 1 1024 69 10000 1.341 0 18:23 17.12.2020
4762 Clear 0 1021 73 10000 0.66 2 17:53 17.12.2020
4763 Clear 0 1021 73 10000 0.66 2 17:32 17.12.2020
4764 Clear 0 1024 78 10000 4.917 0 16:45 17.12.2020
4765 Clear 0 1020 69 10000 1.03 23 16:26 17.12.2020
4766 Clear 0 1020 66 10000 1.03 23 15:52 17.12.2020
4767 Clear 2 1041 79 10000 0.894 180 15:34 17.12.2020
4768 Clear 2 1020 62 10000 0.9 32 14:55 17.12.2020
4769 Clear 2 1019 62 10000 0.9 32 14:34 17.12.2020
4770 Clear 3 1019 58 10000 0.72 40 13:58 17.12.2020
4771 Clear 3 1019 60 10000 0.72 40 13:35 17.12.2020
4772 Clear 2 1019 68 10000 0.78 16 12:49 17.12.2020
4773 Clear 0 1019 71 10000 1.18 352 12:26 17.12.2020
4774 Clear 0 1019 73 10000 1.18 352 11:45 17.12.2020
4775 Clear -1 1019 74 10000 0.78 6 11:25 17.12.2020
4776 Clear 1 1019 74 10000 0.78 6 10:56 17.12.2020
4777 Clear -1 1019 74 10000 0.78 6 10:30 17.12.2020
4778 Clear -1 1019 76 10000 0.14 45 09:35 17.12.2020
4779 Clear -1 1018 75 10000 0.17 181 08:37 17.12.2020
4780 Clouds -1 1018 76 10000 0.21 214 07:40 17.12.2020
4781 Clouds -1 1017 76 10000 0.63 226 07:18 17.12.2020
4782 Clouds -2 1017 78 10000 0.86 197 06:44 17.12.2020
4783 Clouds -2 1017 77 10000 1.37 194 06:26 17.12.2020
4784 Clouds 0 1017 78 10000 3.09 178 01:40 17.12.2020
4785 Clouds 1 1016 79 10000 3.58 178 23:58 16.12.2020
4786 Clouds 1 1017 79 10000 3.62 175 23:23 16.12.2020
4787 Clouds 1 1016 80 10000 3.62 175 22:58 16.12.2020
4788 Clouds 1 1016 81 10000 3.62 175 22:36 16.12.2020
4789 Clouds 2 1016 81 10000 3.57 173 21:58 16.12.2020
4790 Clouds 2 1016 80 10000 3.57 173 21:38 16.12.2020
4791 Clouds 2 1016 80 10000 3.59 169 21:20 16.12.2020
4792 Clouds 1 1016 80 10000 3.59 169 20:44 16.12.2020
4793 Clouds 2 1016 79 10000 3.56 169 20:19 16.12.2020
4794 Clouds 1 1016 78 10000 3.31 174 19:21 16.12.2020
4795 Clouds 1 1016 77 10000 3.46 170 18:57 16.12.2020
4796 Clouds 1 1016 77 10000 3.31 174 18:57 16.12.2020
4797 Clouds 1 1016 78 10000 3.31 174 18:37 16.12.2020
4798 Clouds 1 1016 77 10000 3.15 174 18:19 16.12.2020
4799 Clouds 1 1016 77 10000 3.15 174 17:33 16.12.2020
4800 Clouds 1 1021 72 10000 3.36 171 16:42 16.12.2020
4801 Clouds 2 1015 74 10000 3.44 168 16:22 16.12.2020
4802 Clouds 2 1015 73 10000 3.44 168 15:52 16.12.2020
4803 Clouds 3 1034 58 10000 1.341 90 15:32 16.12.2020
4804 Clouds 1 1017 80 10000 1 0 14:55 16.12.2020
4805 Clouds 1 1017 100 10000 1.5 280 14:37 16.12.2020
4806 Clouds 1 1017 100 10000 2.1 80 14:19 16.12.2020
4807 Clouds 2 1020 68 10000 2.24 97 13:37 16.12.2020
4808 Clouds 2 1021 66 9091 2.24 106 13:18 16.12.2020
4809 Clouds 2 1014 72 10000 3.36 165 12:42 16.12.2020
4810 Clouds 0 1019 100 10000 1 0 11:43 16.12.2020
4811 Clouds 2 1015 77 10000 3.11 161 11:23 16.12.2020
4812 Clouds 2 1015 76 10000 3.11 161 10:52 16.12.2020
4813 Clouds 1 1015 83 10000 2.85 167 10:27 16.12.2020
4814 Clouds 1 1015 83 10000 2.85 167 09:50 16.12.2020
4815 Clouds 1 1014 85 10000 2.52 173 09:23 16.12.2020
4816 Clouds 1 1014 87 10000 2.5 171 08:22 16.12.2020
4817 Clouds 1 1014 87 10000 2.5 171 07:42 16.12.2020
4818 Clouds 1 1013 87 10000 2.46 163 07:19 16.12.2020
4819 Snow 0 1012 88 10000 2.38 178 03:35 16.12.2020
4820 Clouds 1 1013 87 10000 2.87 167 01:34 16.12.2020
4821 Snow 1 1013 87 10000 2.88 162 23:46 15.12.2020
4822 Snow 1 1013 81 9129 0.447 0 22:59 15.12.2020
4823 Snow 1 1030 87 9129 0.447 90 22:38 15.12.2020
4824 Snow 1 1017 48 10000 2.78 164 22:19 15.12.2020
4825 Snow 1 1017 50 10000 2.78 164 21:43 15.12.2020
4826 Snow 1 1013 81 8672 3.03 161 21:21 15.12.2020
4827 Snow 1 1012 87 8672 3.03 161 20:45 15.12.2020
4828 Snow 1 1018 51 7328 2.65 164 20:26 15.12.2020
4829 Snow 0 1012 87 7328 2.65 164 19:53 15.12.2020
4830 Snow 0 1012 86 7328 2.65 164 19:30 15.12.2020
4831 Snow 0 1017 63 10000 2.78 164 18:39 15.12.2020
4832 Clouds 1 1012 82 10000 2.76 163 18:21 15.12.2020
4833 Clouds 3 1017 69 10000 2.76 163 17:46 15.12.2020
4834 Clouds 4 1017 70 9180 2.68 164 17:28 15.12.2020
4835 Clouds 4 1017 75 9180 2.68 164 16:58 15.12.2020
4836 Clouds 4 1011 77 9180 2.68 164 16:31 15.12.2020
4837 Clouds 5 1017 78 10000 0.45 45 15:44 15.12.2020
4838 Clouds 4 1011 76 10000 2.86 160 15:25 15.12.2020
4839 Rain 4 1011 74 10000 2.86 160 14:43 15.12.2020
4840 Clouds 5 1011 74 10000 3.04 167 14:21 15.12.2020
4841 Clouds 5 1011 70 10000 3.04 167 13:51 15.12.2020
4842 Clouds 5 1014 86 10000 1 0 13:32 15.12.2020
4843 Clouds 5 1014 93 10000 3.6 260 12:47 15.12.2020
4844 Clouds 6 1014 80 10000 1.5 0 12:20 15.12.2020
4845 Clouds 5 1014 80 10000 1.5 0 11:54 15.12.2020
4846 Clouds 4 1012 79 10000 3.87 168 11:26 15.12.2020
4847 Clouds 5 1012 78 10000 3.87 168 10:53 15.12.2020
4848 Clouds 3 1015 93 10000 3.6 120 10:23 15.12.2020
4849 Clouds 3 1011 81 10000 3.49 166 09:49 15.12.2020
4850 Clouds 2 1014 100 10000 3.49 166 09:31 15.12.2020
4851 Clouds 2 1013 100 10000 0.5 0 08:47 15.12.2020
4852 Clouds 2 1013 100 10000 0.5 0 08:25 15.12.2020
4853 Clouds 2 1013 100 10000 1 0 07:49 15.12.2020
4854 Clouds 2 1011 81 10000 3.25 170 07:23 15.12.2020
4855 Clouds 3 1010 81 10000 3.58 168 06:27 15.12.2020
4856 Rain 3 1014 93 10000 2.1 260 01:27 15.12.2020
4857 Clouds 3 1015 93 10000 2.6 110 00:34 15.12.2020
4858 Clouds 3 1015 100 10000 4.1 70 23:23 14.12.2020
4859 Clouds 3 1015 100 10000 1.5 80 22:48 14.12.2020
4860 Clouds 3 1015 100 10000 1.5 80 22:27 14.12.2020
4861 Clouds 3 1014 82 10000 2.1 100 21:44 14.12.2020
4862 Clouds 3 1013 81 10000 1.5 70 21:20 14.12.2020
4863 Clear 3 1013 86 10000 1 0 20:49 14.12.2020
4864 Clear 3 1013 86 10000 1 0 20:29 14.12.2020
4865 Clouds 3 1013 81 10000 1 0 19:50 14.12.2020
4866 Mist 3 1012 100 10000 2.1 90 19:28 14.12.2020
4867 Clouds 4 1013 80 10000 0.5 0 18:44 14.12.2020
4868 Clouds 3 1013 78 10000 0.5 0 18:24 14.12.2020
4869 Clouds 4 1014 93 10000 3.1 100 17:46 14.12.2020
4870 Clouds 4 1014 93 10000 3.1 100 17:23 14.12.2020
4871 Clouds 3 1013 100 10000 2.69 166 16:50 14.12.2020
4872 Clouds 4 1010 89 10000 2.47 177 16:28 14.12.2020
4873 Clouds 5 1010 87 10000 2.47 177 15:35 14.12.2020
4874 Clouds 3 1015 100 10000 3.1 90 14:58 14.12.2020
4875 Clouds 3 1014 100 10000 0.5 0 14:40 14.12.2020
4876 Clouds 3 1014 100 10000 0.5 0 14:21 14.12.2020
4877 Clouds 2 1014 100 10000 0.5 0 13:41 14.12.2020
4878 Mist 2 1015 100 10000 1 0 13:18 14.12.2020
4879 Mist 2 1015 100 10000 1 0 12:50 14.12.2020
4880 Mist 2 1015 100 10000 1 0 12:24 14.12.2020
4881 Fog 1 1016 100 10000 2.25 184 11:31 14.12.2020
4882 Mist 0 1016 100 10000 1.5 110 10:37 14.12.2020
4883 Mist 0 1016 100 10000 1.5 110 10:37 14.12.2020
4884 Fog 0 1015 100 10000 0.5 0 10:19 14.12.2020
4885 Clouds -1 1015 100 10000 0.5 0 09:29 14.12.2020
4886 Mist -1 1015 100 10000 2.6 70 08:46 14.12.2020
4887 Mist -1 1015 100 10000 2.6 70 08:27 14.12.2020
4888 Fog -2 1014 100 10000 1.21 187 07:27 14.12.2020
4889 Fog -2 1014 100 10000 1.5 70 06:45 14.12.2020
4890 Clear 0 1010 86 10000 0.87 233 04:28 14.12.2020
4891 Clear 1 1009 88 10000 1.17 217 02:26 14.12.2020
4892 Clouds 0 1015 100 10000 0.9 243 00:54 14.12.2020
4893 Clouds 0 1010 88 10000 0.78 236 00:31 14.12.2020
4894 Clouds 0 1009 88 10000 0.78 236 23:46 13.12.2020
4895 Clouds 0 1009 88 10000 0.78 236 23:46 13.12.2020
4896 Clouds 0 1009 89 10000 1.02 253 23:24 13.12.2020
4897 Clouds 0 1009 89 10000 1.02 253 22:45 13.12.2020
4898 Clouds 0 1009 89 10000 0.88 237 22:18 13.12.2020
4899 Clouds 0 1009 89 10000 0.88 237 21:42 13.12.2020
4900 Clouds 0 1009 90 10000 0.73 254 21:22 13.12.2020
4901 Clouds -1 1009 88 10000 0.73 254 20:35 13.12.2020
4902 Clouds -1 1009 89 10000 0.71 288 19:51 13.12.2020
4903 Clouds -1 1009 87 10000 0.71 288 19:30 13.12.2020
4904 Mist 1 1014 100 10000 0.5 0 18:58 13.12.2020
4905 Clouds 1 1014 100 10000 0.5 0 18:39 13.12.2020
4906 Clouds 1 1014 100 10000 0.61 236 18:19 13.12.2020
4907 Clouds 1 1013 100 10000 1 70 17:46 13.12.2020
4908 Clouds -1 1013 71 10000 0.36 253 17:20 13.12.2020
4909 Clouds -1 1014 41 10000 0.36 253 16:54 13.12.2020
4910 Clouds -1 1014 41 10000 0.36 253 16:54 13.12.2020
4911 Clouds -2 1008 82 10000 0.36 253 16:36 13.12.2020
4912 Clouds -2 1008 82 10000 0.91 324 15:56 13.12.2020
4913 Clouds -3 1008 82 10000 0.91 324 15:38 13.12.2020
4914 Clouds -3 1008 80 10000 1.25 342 15:18 13.12.2020
4915 Clouds -2 1007 79 10000 1.25 342 14:42 13.12.2020
4916 Clouds -2 1007 83 10000 1.01 12 14:18 13.12.2020
4917 Clouds -2 1008 85 10000 1.01 12 13:36 13.12.2020
4918 Clouds -2 1008 85 10000 1.36 19 13:18 13.12.2020
4919 Clouds -2 1007 86 10000 1.71 3 12:37 13.12.2020
4920 Clouds -2 1007 88 10000 1.81 16 12:18 13.12.2020
4921 Clouds -2 1008 87 10000 1.81 16 11:35 13.12.2020
4922 Clouds -3 1007 90 10000 1.68 10 10:48 13.12.2020
4923 Clouds -3 1007 90 10000 1.68 10 10:30 13.12.2020
4924 Clouds -3 1007 90 10000 1.64 346 09:52 13.12.2020
4925 Clouds -3 1006 94 10000 1.91 333 08:53 13.12.2020
4926 Clouds -3 1006 94 10000 1.91 333 08:33 13.12.2020
4927 Snow -3 1005 94 8279 2.44 327 07:29 13.12.2020
4928 Snow -4 1003 92 6614 2.42 316 03:31 13.12.2020
4929 Clouds -4 1003 91 7308 2.3 318 02:40 13.12.2020
4930 Clouds -4 1002 91 10000 2.12 317 01:37 13.12.2020
4931 Clouds -4 1002 91 10000 2.12 317 01:37 13.12.2020
4932 Clouds -4 1002 91 10000 2.12 317 01:37 13.12.2020
4933 Snow -4 1002 92 7533 2.4 319 00:47 13.12.2020
4934 Snow -3 1002 92 7574 2.19 315 23:50 12.12.2020
4935 Snow -3 1002 93 9249 2.26 318 23:29 12.12.2020
4936 Snow -3 1001 93 9249 2.26 318 22:46 12.12.2020
4937 Clouds -2 1008 27 10000 2.15 318 21:56 12.12.2020
4938 Snow -3 1001 93 10000 1.96 318 21:32 12.12.2020
4939 Snow -3 1001 93 10000 1.96 318 20:48 12.12.2020
4940 Clouds -3 1000 93 7066 2.13 332 20:24 12.12.2020
4941 Snow -3 1000 93 7066 2.13 332 19:55 12.12.2020
4942 Snow -3 1000 93 7066 2.13 332 19:35 12.12.2020
4943 Snow -3 999 92 6126 2.6 331 18:59 12.12.2020
4944 Snow -3 999 92 6126 2.6 331 18:41 12.12.2020
4945 Snow -3 999 91 6895 2.44 332 18:22 12.12.2020
4946 Snow -3 998 91 6895 2.44 332 17:42 12.12.2020
4947 Snow -3 997 88 4046 2.41 329 16:54 12.12.2020
4948 Snow -2 996 82 2077 2.26 336 15:59 12.12.2020
4949 Snow -2 995 79 2077 2.26 336 15:41 12.12.2020
4950 Snow -2 995 79 3318 1.94 341 14:58 12.12.2020
4951 Clouds -2 995 77 8419 1.62 343 14:35 12.12.2020
4952 Clouds -1 994 78 8419 1.62 343 13:47 12.12.2020
4953 Clouds -2 994 80 10000 1.19 331 13:27 12.12.2020
4954 Clouds -1 994 78 10000 1.14 340 12:47 12.12.2020
4955 Clouds -2 994 83 10000 0.09 287 11:43 12.12.2020
4956 Clouds -2 994 84 10000 0.59 151 10:53 12.12.2020
4957 Clouds -3 994 87 10000 0.47 187 09:32 12.12.2020
4958 Clouds -4 993 86 10000 0.59 157 08:52 12.12.2020
4959 Clouds -2 999 39 10000 0.89 135 02:53 12.12.2020
4960 Clouds -4 994 87 10000 3.06 179 23:54 11.12.2020
4961 Clouds -1 997 37 10000 0.45 90 22:24 11.12.2020
4962 Clouds -1 997 53 10000 3.22 175 20:35 11.12.2020
4963 Snow -1 997 79 10000 1.341 0 17:52 11.12.2020
4964 Snow -2 995 81 10000 4.2 173 14:53 11.12.2020
4965 Clouds -2 995 77 10000 4.36 172 13:58 11.12.2020
4966 Clouds -2 996 79 10000 5.1 166 12:56 11.12.2020
4967 Clouds -2 996 78 9020 5.18 168 12:18 11.12.2020
4968 Clouds -3 997 81 9020 5.18 168 11:50 11.12.2020
4969 Clouds -3 997 81 7187 4.99 168 10:45 11.12.2020
4970 Clouds -6 997 84 5784 4.64 170 08:46 11.12.2020
4971 Clouds -6 997 84 10000 3.95 168 05:40 11.12.2020
4972 Clouds -7 998 84 10000 3.47 169 04:51 11.12.2020
4973 Clear -7 999 86 10000 2.28 185 01:38 11.12.2020
4974 Clear -7 1000 85 10000 1.97 205 00:21 11.12.2020
4975 Clear -7 1000 86 10000 2.05 188 22:44 10.12.2020
4976 Clear -7 1000 87 10000 1.56 192 21:36 10.12.2020
4977 Clear -7 1000 87 10000 1.11 204 20:41 10.12.2020
4978 Clear -6 999 86 10000 0.94 221 19:37 10.12.2020
4979 Clouds -6 999 86 10000 1.2 216 18:53 10.12.2020
4980 Clouds -6 998 85 10000 1.49 206 17:53 10.12.2020
4981 Clouds -4 998 81 10000 1.62 192 16:30 10.12.2020
4982 Clouds -3 997 80 10000 1.48 186 15:27 10.12.2020
4983 Clouds -2 997 77 10000 1.48 186 14:50 10.12.2020
4984 Clouds -2 997 77 10000 1.76 181 14:27 10.12.2020
4985 Clouds -2 997 80 10000 2.12 183 12:47 10.12.2020
4986 Clouds -2 1005 79 10000 1.79 90 11:35 10.12.2020
4987 Clouds -7 998 90 10000 2.44 180 08:51 10.12.2020
4988 Clouds -8 998 88 10000 2.33 175 07:45 10.12.2020
4989 Clouds -9 999 88 10000 2.17 180 06:41 10.12.2020
4990 Clouds -7 1007 81 10000 0.94 190 02:56 10.12.2020
4991 Clouds -6 1007 81 10000 0.36 161 02:00 10.12.2020
4992 Clouds -6 1008 80 10000 1.22 328 00:22 10.12.2020
4993 Clouds -6 1009 80 9739 1.88 341 21:58 09.12.2020
4994 Snow -5 1010 29 3239 2.41 347 20:28 09.12.2020
4995 Snow -5 1009 80 5822 2.56 347 19:21 09.12.2020
4996 Snow -5 1009 32 6637 2.67 351 17:43 09.12.2020
4997 Snow -6 1000 92 6303 3.15 344 16:44 09.12.2020
4998 Snow -6 1000 92 1640 3.45 342 16:20 09.12.2020
4999 Snow -5 1000 92 4440 3.82 344 15:18 09.12.2020
5000 Snow -5 1000 91 6311 4.14 344 14:27 09.12.2020
5001 Snow -5 1000 91 6311 4.14 344 13:58 09.12.2020
5002 Snow -5 1000 90 7268 4.1 345 13:19 09.12.2020
5003 Snow -5 1000 91 2596 4.3 343 12:44 09.12.2020
5004 Snow -5 999 92 4882 4.2 342 11:49 09.12.2020
5005 Snow -5 999 92 6889 4.78 337 10:48 09.12.2020
5006 Clouds -4 1008 27 7030 0.45 315 08:49 09.12.2020
5007 Snow -4 1006 80 7629 4.06 338 07:43 09.12.2020
5008 Snow -4 1023 95 7185 1.788 337 05:48 09.12.2020
5009 Snow -4 1006 32 2092 2.38 344 03:26 09.12.2020
5010 Snow -6 1003 79 4615 2.54 339 01:52 09.12.2020
5011 Snow -4 997 91 1062 2.56 340 23:43 08.12.2020
5012 Snow -6 1001 97 2482 2.64 333 22:52 08.12.2020
5013 Snow -4 996 94 1649 2.84 329 21:22 08.12.2020
5014 Snow -6 1000 93 2924 2.82 329 19:33 08.12.2020
5015 Snow -4 995 93 918 2.51 332 18:58 08.12.2020
5016 Snow -3 995 93 1263 2.32 337 17:55 08.12.2020
5017 Snow -2 994 89 10000 1.85 324 15:45 08.12.2020
5018 Clouds -1 993 85 10000 0.7 217 14:26 08.12.2020
5019 Clouds -1 994 86 10000 1.79 183 13:24 08.12.2020
5020 Clouds -1 994 84 10000 2.78 178 12:26 08.12.2020
5021 Clouds -2 995 86 10000 2.78 178 11:50 08.12.2020
5022 Snow -3 995 86 10000 3 175 10:45 08.12.2020
5023 Clouds -3 999 87 10000 3.09 177 10:19 08.12.2020
5024 Clouds -2 999 46 10000 3.41 175 08:28 08.12.2020
5025 Clouds -3 999 65 10000 3.11 171 06:36 08.12.2020
5026 Snow -4 998 100 10000 3.1 230 03:34 08.12.2020
5027 Snow -6 999 93 7798 4.53 163 00:47 08.12.2020
5028 Snow -6 999 97 7950 4.31 168 23:52 07.12.2020
5029 Snow -6 999 99 8759 4.32 160 22:38 07.12.2020
5030 Snow -6 998 99 8263 4.65 158 21:51 07.12.2020
5031 Snow -6 998 99 7901 4.32 155 19:55 07.12.2020
5032 Snow -6 998 99 7862 4.05 159 18:42 07.12.2020
5033 Snow -6 998 99 8289 3.43 161 17:26 07.12.2020
5034 Snow -7 998 99 8289 3.43 161 16:54 07.12.2020
5035 Snow -5 994 92 9762 3.32 155 15:30 07.12.2020
5036 Snow -5 994 92 8079 3.14 155 14:51 07.12.2020
5037 Snow -5 994 93 7225 2.63 158 14:18 07.12.2020
5038 Snow -4 994 93 2933 2.28 159 13:21 07.12.2020
5039 Snow -4 994 92 1742 1.46 154 11:44 07.12.2020
5040 Snow -4 994 92 4274 1.67 137 11:19 07.12.2020
5041 Snow -5 994 92 5357 1.32 116 09:56 07.12.2020
5042 Snow -7 996 99 5757 0.99 153 08:26 07.12.2020
5043 Snow -7 996 99 6040 1.19 154 06:36 07.12.2020
5044 Clouds -5 998 79 10000 0.6 154 04:50 07.12.2020
5045 Snow -7 996 98 1236 0.63 328 01:55 07.12.2020
5046 Snow -7 996 99 261 1.54 310 00:27 07.12.2020
5047 Snow -5 991 94 417 2.47 325 22:25 06.12.2020
5048 Snow -5 991 94 351 2.24 337 20:58 06.12.2020
5049 Snow -6 995 99 351 2.24 337 20:34 06.12.2020
5050 Snow -4 991 94 379 2.82 330 19:55 06.12.2020
5051 Snow -4 991 94 184 2.92 317 18:40 06.12.2020
5052 Snow -4 991 93 173 3.2 338 16:56 06.12.2020
5053 Snow -4 991 94 174 2.3 351 15:21 06.12.2020
5054 Snow -3 991 93 270 1.95 336 13:49 06.12.2020
5055 Snow -3 991 94 115 0.63 335 12:52 06.12.2020
5056 Snow -3 992 94 103 0.08 186 11:59 06.12.2020
5057 Snow -3 992 94 103 0.08 186 11:34 06.12.2020
5058 Snow -3 992 94 90 0.93 167 10:51 06.12.2020
5059 Snow -3 992 95 97 0.63 137 09:59 06.12.2020
5060 Snow -4 992 95 109 1.43 159 08:30 06.12.2020
5061 Snow -4 991 95 98 0.84 198 06:47 06.12.2020
5062 Snow -3 991 94 97 0.8 114 01:50 06.12.2020
5063 Snow -4 991 94 111 0.73 300 00:42 06.12.2020
5064 Snow -4 991 94 106 0.77 35 00:23 06.12.2020
5065 Snow -4 992 94 111 1.68 319 22:47 05.12.2020
5066 Snow -4 992 94 138 0.94 7 22:20 05.12.2020
5067 Snow -4 992 94 138 0.94 7 21:50 05.12.2020
5068 Snow -4 992 94 104 0.9 11 21:26 05.12.2020
5069 Snow -4 992 94 102 1.73 353 19:43 05.12.2020
5070 Snow -4 992 94 107 1.71 355 18:40 05.12.2020
5071 Snow -4 992 93 96 0.92 11 17:33 05.12.2020
5072 Snow -4 993 93 103 0.83 25 16:31 05.12.2020
5073 Snow -3 993 92 106 0.56 52 15:54 05.12.2020
5074 Snow -3 993 90 197 0.56 146 14:27 05.12.2020
5075 Snow -2 993 90 10000 1.94 139 12:23 05.12.2020
5076 Snow -2 994 91 10000 1.94 139 11:41 05.12.2020
5077 Snow -3 994 90 8168 2.41 130 10:31 05.12.2020
5078 Snow -4 992 93 3066 2.9 149 07:48 05.12.2020
5079 Snow -4 991 94 2852 2.35 130 06:40 05.12.2020
5080 Snow -3 988 95 134 3.19 150 03:54 05.12.2020
5081 Snow -4 984 94 154 3.85 179 23:55 04.12.2020
5082 Snow -4 985 94 86 2.83 170 22:24 04.12.2020
5083 Snow -4 985 94 507 3.31 152 20:25 04.12.2020
5084 Snow -4 986 94 132 3.58 163 18:53 04.12.2020
5085 Snow -4 986 94 673 3.7 164 18:19 04.12.2020
5086 Snow -4 987 94 673 3.7 164 17:37 04.12.2020
5087 Snow -4 987 94 833 4.96 168 15:46 04.12.2020
5088 Snow -4 986 93 341 1.34 167 13:40 04.12.2020
5089 Snow -4 987 92 612 1.34 176 13:22 04.12.2020
5090 Snow -4 987 92 612 5.37 166 12:51 04.12.2020
5091 Snow -3 988 89 6450 5.94 168 10:41 04.12.2020
5092 Snow -4 994 98 7838 0.45 304 09:55 04.12.2020
5093 Snow -4 994 85 7591 1.79 131 07:20 04.12.2020
5094 Snow -1 989 69 7995 4.1 0 06:39 04.12.2020
5095 Snow -4 992 91 8557 5.75 162 01:57 04.12.2020
5096 Snow -4 998 76 9706 1.34 108 23:21 03.12.2020
5097 Clouds -4 998 80 9706 0.89 199 22:45 03.12.2020
5098 Clouds -4 995 88 10000 5.42 163 20:49 03.12.2020
5099 Clouds -5 995 87 10000 5.04 164 19:37 03.12.2020
5100 Clouds -5 995 87 10000 4.78 163 19:18 03.12.2020
5101 Clear -6 996 86 10000 4.3 166 18:18 03.12.2020
5102 Clear -6 996 85 10000 4.06 165 17:19 03.12.2020
5103 Clear -4 997 84 10000 3.64 166 15:56 03.12.2020
5104 Clear -4 997 80 10000 3.64 166 15:31 03.12.2020
5105 Clear -4 997 75 10000 3.25 167 14:48 03.12.2020
5106 Clear -4 998 78 10000 2.68 171 13:44 03.12.2020
5107 Clouds -5 999 80 10000 2.39 171 12:32 03.12.2020
5108 Clouds -3 1006 75 10000 2.52 170 11:38 03.12.2020
5109 Clear -7 1001 84 10000 0.97 301 10:27 03.12.2020
5110 Clear -8 1001 86 10000 0.93 301 07:48 03.12.2020
5111 Clouds -7 1002 93 10000 2.02 325 03:38 03.12.2020
5112 Clouds -7 1002 92 10000 1.91 323 01:24 03.12.2020
5113 Snow -7 1003 93 372 1.65 323 23:19 02.12.2020
5114 Snow -6 1004 94 155 1.13 330 22:28 02.12.2020
5115 Snow -6 1004 94 382 0.67 329 21:28 02.12.2020
5116 Snow -6 1003 93 382 0.67 329 20:47 02.12.2020
5117 Clouds -6 1003 93 2324 1.57 315 20:29 02.12.2020
5118 Clouds -6 1003 92 10000 1.1 312 18:39 02.12.2020
5119 Clouds -6 1002 92 10000 0.65 271 17:47 02.12.2020
5120 Clouds -6 1002 92 10000 0.53 228 17:28 02.12.2020
5121 Clouds -5 1002 87 10000 0.69 156 15:37 02.12.2020
5122 Clouds -4 1003 84 10000 0.94 69 13:19 02.12.2020
5123 Clouds -5 1005 89 10000 2.1 358 10:47 02.12.2020
5124 Clouds -6 1005 90 10000 2.11 6 10:21 02.12.2020
5125 Clouds -6 1013 37 10000 1.18 11 06:53 02.12.2020
5126 Clouds -6 1013 79 10000 1.2 33 23:20 01.12.2020
5127 Clouds -6 1013 79 7231 1.53 6 22:20 01.12.2020
5128 Clouds -5 1007 92 7040 1.89 359 19:36 01.12.2020
5129 Clouds -5 1007 92 7519 2.06 348 18:46 01.12.2020
5130 Snow -5 1007 92 469 2.15 351 16:47 01.12.2020
5131 Snow -4 1006 91 147 2.68 354 14:34 01.12.2020
5132 Snow -3 1007 90 987 2.03 0 12:31 01.12.2020
5133 Snow -3 1007 90 1615 1.27 352 11:28 01.12.2020
5134 Snow -3 1007 90 1615 1.27 352 10:46 01.12.2020
5135 Snow -3 1007 87 3335 0.68 308 10:26 01.12.2020
5136 Clouds -3 1009 70 10000 1.75 304 07:26 01.12.2020
5137 Clouds -3 1012 68 10000 2.49 315 02:57 01.12.2020
5138 Clouds -3 1014 67 10000 2.26 311 00:57 01.12.2020
5139 Clouds -3 1014 69 10000 1.98 311 23:49 30.11.2020
5140 Clouds -3 1015 69 10000 1.99 315 23:18 30.11.2020
5141 Clouds -3 1015 67 10000 1.99 315 22:36 30.11.2020
5142 Clear -3 1015 69 10000 2.23 320 22:18 30.11.2020
5143 Clear -4 1016 80 10000 2.45 326 19:46 30.11.2020
5144 Clear -3 1016 74 10000 2.2 325 18:44 30.11.2020
5145 Clear -3 1016 69 10000 2.02 322 18:21 30.11.2020
5146 Clear -2 1015 68 10000 2.02 322 17:43 30.11.2020
5147 Clear -2 1015 68 10000 2.02 322 17:43 30.11.2020
5148 Clear -1 1015 61 10000 1.89 322 16:44 30.11.2020
5149 Clear 1 1015 54 10000 1.15 325 14:47 30.11.2020
5150 Clear 3 1015 57 10000 0.97 322 13:55 30.11.2020
5151 Clear 3 1015 58 10000 1.4 332 12:40 30.11.2020
5152 Clear 3 1022 30 10000 1.1 325 12:20 30.11.2020
5153 Clouds 0 1024 80 10000 2.6 90 10:32 30.11.2020
5154 Clear 0 1020 29 10000 1.3 326 09:53 30.11.2020
5155 Clear -1 1015 65 10000 0.97 321 07:58 30.11.2020
5156 Clear -2 1014 80 10000 0.6 181 01:23 30.11.2020
5157 Clear -2 1013 92 10000 0.23 296 22:22 29.11.2020
5158 Clear 0 1018 52 10000 0.23 296 21:44 29.11.2020
5159 Clear 0 1018 54 10000 0.39 316 21:25 29.11.2020
5160 Clear -1 1018 66 10000 0.51 339 18:31 29.11.2020
5161 Clear 0 1018 58 10000 0.41 336 17:31 29.11.2020
5162 Clear 3 1010 71 10000 0.23 358 13:35 29.11.2020
5163 Clear 3 1010 71 10000 0.23 358 13:35 29.11.2020
5164 Clouds 2 1019 80 10000 2.1 0 12:43 29.11.2020
5165 Clouds 2 1019 86 10000 3.6 130 11:22 29.11.2020
5166 Clouds 0 1012 72 10000 0.11 228 08:52 29.11.2020
5167 Clouds -1 1012 74 10000 0.11 228 08:34 29.11.2020
5168 Clouds 1 1011 66 10000 1.91 177 02:31 29.11.2020
5169 Clouds 2 1011 68 10000 2.45 172 22:59 28.11.2020
5170 Clear 1 1011 69 10000 2.65 166 22:18 28.11.2020
5171 Clear 2 1011 68 10000 2.33 173 19:54 28.11.2020
5172 Clear 2 1011 66 10000 2.51 168 19:27 28.11.2020
5173 Clear 2 1011 66 10000 2.51 168 18:55 28.11.2020
5174 Clear 2 1011 66 10000 2.41 171 17:57 28.11.2020
5175 Clear 2 1011 55 10000 0.447 0 16:56 28.11.2020
5176 Mist 3 1015 100 10000 1 100 14:58 28.11.2020
5177 Fog 4 1015 100 10000 2.97 170 13:31 28.11.2020
5178 Clear 3 1012 65 10000 2.95 166 11:24 28.11.2020
5179 Clear 0 1013 71 10000 2.41 169 08:18 28.11.2020
5180 Clouds 1 1014 68 10000 2.47 173 03:34 28.11.2020
5181 Clouds 0 1015 68 10000 2.78 170 01:52 28.11.2020
5182 Clear 0 1015 66 10000 3.01 172 23:19 27.11.2020
5183 Clear 0 1016 66 10000 3.06 171 21:57 27.11.2020
5184 Clear 1 1016 64 10000 3.01 171 20:38 27.11.2020
5185 Clear 1 1015 63 10000 2.93 169 19:31 27.11.2020
5186 Clouds -1 1019 100 10000 2.1 100 18:51 27.11.2020
5187 Clear 1 1018 100 10000 1 90 15:39 27.11.2020
5188 Clear 2 1019 64 10000 2.52 168 14:18 27.11.2020
5189 Clear 3 1019 100 10000 1 280 12:48 27.11.2020
5190 Clear 2 1020 92 10000 2.15 167 11:57 27.11.2020
5191 Clear 0 1020 92 10000 1.96 167 10:51 27.11.2020
5192 Clouds 0 1020 100 10000 0.5 0 10:27 27.11.2020
5193 Clear 0 1016 68 10000 1.12 181 07:30 27.11.2020
5194 Clear 0 1017 66 10000 1.46 198 22:43 26.11.2020
5195 Clear 0 1017 66 10000 1.74 190 22:22 26.11.2020
5196 Clear 1 1017 67 10000 1.74 190 21:39 26.11.2020
5197 Clear -1 1022 100 10000 2.1 100 19:48 26.11.2020
5198 Clear 0 1022 100 10000 1.44 183 18:34 26.11.2020
5199 Clear 1 1022 100 10000 1.5 90 16:32 26.11.2020
5200 Clear 3 1022 100 10000 1 0 13:43 26.11.2020
5201 Clear 2 1022 100 10000 1.44 176 12:49 26.11.2020
5202 Clear 2 1023 100 8000 1 0 12:29 26.11.2020
5203 Clear -1 1024 100 10000 1.86 173 10:38 26.11.2020
5204 Clear -1 1024 100 10000 1 0 09:59 26.11.2020
5205 Clear 1 1018 65 10000 1.75 174 09:31 26.11.2020
5206 Clear 0 1019 64 10000 1.73 175 08:43 26.11.2020
5207 Clear -2 1023 100 10000 1 110 07:49 26.11.2020
5208 Clouds 1 1018 60 10000 2.61 174 00:46 26.11.2020
5209 Clouds 2 1018 60 10000 2.79 173 21:36 25.11.2020
5210 Clouds 2 1018 60 10000 2.83 172 20:31 25.11.2020
5211 Clouds 3 1018 58 10000 2.47 172 18:58 25.11.2020
5212 Fog 3 1021 100 10000 0.5 0 17:24 25.11.2020
5213 Clouds 3 1021 67 10000 1.5 100 15:42 25.11.2020
5214 Clouds 3 1021 60 10000 2.1 110 14:42 25.11.2020
5215 Fog 3 1021 100 10000 3.29 165 13:44 25.11.2020
5216 Fog 3 1021 100 10000 1 230 12:30 25.11.2020
5217 Clear 4 1018 51 10000 3.4 168 11:21 25.11.2020
5218 Clear 3 1018 57 10000 3.1 167 09:20 25.11.2020
5219 Clear 2 1018 60 10000 3.1 167 08:49 25.11.2020
5220 Clear 2 1017 63 10000 2.78 171 06:59 25.11.2020
5221 Clear 2 1017 64 10000 2.74 172 03:49 25.11.2020
5222 Clear 2 1018 65 10000 2.76 174 00:55 25.11.2020
5223 Clear 2 1019 66 10000 2.85 173 23:59 24.11.2020
5224 Clear 3 1019 65 10000 2.85 173 23:34 24.11.2020
5225 Clear 3 1019 66 10000 2.92 174 22:38 24.11.2020
5226 Clear 3 1019 65 10000 2.92 174 21:31 24.11.2020
5227 Clear 3 1019 65 10000 2.92 174 20:51 24.11.2020
5228 Clear 3 1019 65 10000 2.83 177 19:47 24.11.2020
5229 Clear 2 1022 100 10000 2.63 178 17:31 24.11.2020
5230 Clear 2 1022 100 10000 1.5 120 16:56 24.11.2020
5231 Clear 2 1022 92 10000 1 0 16:36 24.11.2020
5232 Clear 3 1023 67 10000 2.85 179 15:55 24.11.2020
5233 Clear 3 1023 60 10000 3.13 174 15:19 24.11.2020
5234 Clear 3 1024 60 10000 3.13 174 14:43 24.11.2020
5235 Clear 4 1024 57 10000 3.29 173 13:20 24.11.2020
5236 Clear 6 1020 52 10000 3.24 172 12:38 24.11.2020
5237 Clear 5 1020 56 10000 3.22 173 11:59 24.11.2020
5238 Clear 3 1021 61 10000 3.03 174 10:52 24.11.2020
5239 Clear 3 1021 62 10000 2.84 180 10:25 24.11.2020
5240 Clear 3 1021 62 10000 2.84 180 10:25 24.11.2020
5241 Clear 2 1021 66 10000 2.84 180 09:37 24.11.2020
5242 Clear 1 1021 67 10000 2.67 184 08:57 24.11.2020
5243 Clear 1 1021 70 10000 2.43 177 04:51 24.11.2020
5244 Clouds 1 1023 73 10000 0.18 319 23:35 23.11.2020
5245 Clouds 1 1023 74 10000 0.7 343 21:56 23.11.2020
5246 Clouds 1 1023 75 10000 0.95 346 21:25 23.11.2020
5247 Clear 1 1023 75 10000 1.18 343 20:29 23.11.2020
5248 Clear 1 1023 74 10000 1.18 343 19:53 23.11.2020
5249 Clouds 2 1023 69 10000 1.91 345 17:29 23.11.2020
5250 Clouds 2 1023 72 10000 1.91 345 16:55 23.11.2020
5251 Clouds 4 1023 73 10000 1.97 342 14:50 23.11.2020
5252 Clouds 4 1023 65 10000 2.06 343 13:56 23.11.2020
5253 Clouds 3 1023 69 10000 2.03 348 12:40 23.11.2020
5254 Clouds 5 1023 71 10000 1.94 348 11:57 23.11.2020
5255 Clouds 5 1023 74 10000 1.94 348 11:38 23.11.2020
5256 Clouds 2 1023 77 10000 2.04 336 09:47 23.11.2020
5257 Clouds 2 1023 79 10000 2.06 333 08:51 23.11.2020
5258 Clouds 1 1023 81 10000 2.24 332 07:56 23.11.2020
5259 Clouds 3 1022 75 10000 0.89 293 03:32 23.11.2020
5260 Clouds 4 1022 71 10000 0.64 243 23:51 22.11.2020
5261 Clouds 5 1022 69 10000 0.93 204 22:23 22.11.2020
5262 Clouds 4 1022 69 10000 0.72 204 21:24 22.11.2020
5263 Clouds 5 1022 71 10000 0.57 217 20:20 22.11.2020
5264 Clouds 5 1023 71 10000 0.53 214 19:29 22.11.2020
5265 Clouds 5 1022 72 10000 0.52 205 18:23 22.11.2020
5266 Clouds 6 1022 64 10000 0.79 182 16:26 22.11.2020
5267 Clouds 7 1022 58 10000 0.41 188 15:25 22.11.2020
5268 Clouds 7 1022 61 10000 0.73 178 13:27 22.11.2020
5269 Clouds 7 1022 56 10000 0.67 174 12:43 22.11.2020
5270 Clouds 6 1023 58 10000 0.79 156 11:54 22.11.2020
5271 Clouds 2 1029 100 10000 1 0 10:51 22.11.2020
5272 Clouds 2 1029 100 10000 2.1 100 10:33 22.11.2020
5273 Clouds 0 1023 65 10000 1.57 343 04:39 22.11.2020
5274 Clear -1 1025 66 10000 0.38 6 23:56 21.11.2020
5275 Clear -1 1025 68 10000 0.64 356 22:42 21.11.2020
5276 Clear -1 1026 71 10000 0.64 337 21:31 21.11.2020
5277 Clear -1 1026 72 10000 0.64 337 20:49 21.11.2020
5278 Clear -2 1026 74 10000 0.71 342 20:20 21.11.2020
5279 Clear -2 1026 75 10000 0.71 342 19:49 21.11.2020
5280 Clear -2 1026 76 10000 0.61 343 19:18 21.11.2020
5281 Clear -1 1026 77 10000 0.54 331 17:32 21.11.2020
5282 Clear -1 1026 78 10000 0.54 331 16:45 21.11.2020
5283 Clear 0 1031 80 10000 0.3 351 15:42 21.11.2020
5284 Clear 0 1025 72 10000 0.39 72 15:20 21.11.2020
5285 Clear 0 1025 73 10000 0.39 72 14:42 21.11.2020
5286 Clouds 3 1025 33 10000 0.58 63 12:59 21.11.2020
5287 Clear 1 1024 32 10000 0.68 60 12:23 21.11.2020
5288 Clear 0 1024 26 10000 0.68 60 11:49 21.11.2020
5289 Clear -1 1023 27 10000 0.49 57 10:28 21.11.2020
5290 Clear -4 1022 35 10000 0.57 54 08:52 21.11.2020
5291 Clear -6 1027 86 10000 0.57 54 08:34 21.11.2020
5292 Clear -7 1026 86 10000 1.19 349 05:42 21.11.2020
5293 Clear -7 1026 84 10000 0.48 0 02:52 21.11.2020
5294 Clouds -7 1022 83 10000 1.28 9 00:22 21.11.2020
5295 Clouds -8 1022 83 10000 1.32 14 22:45 20.11.2020
5296 Clouds -6 1022 76 10000 1.34 100 21:45 20.11.2020
5297 Clouds -6 1021 79 10000 2.46 4 21:21 20.11.2020
5298 Clouds -6 1021 79 10000 2.46 4 21:21 20.11.2020
5299 Clouds -6 1022 84 10000 0.45 20 19:55 20.11.2020
5300 Clouds -6 1022 85 8016 1.34 74 18:55 20.11.2020
5301 Clouds -4 1025 83 10000 3.8 357 18:27 20.11.2020
5302 Clouds -3 1024 84 10000 0.45 111 17:30 20.11.2020
5303 Clouds -2 1032 75 10000 5.7 50 16:47 20.11.2020
5304 Clouds -3 1023 74 7253 0.45 185 15:59 20.11.2020
5305 Clouds -2 1049 96 7253 4.19 351 15:39 20.11.2020
5306 Clouds -3 1023 69 7245 0.89 348 13:51 20.11.2020
5307 Clouds -1 1023 86 7340 4.61 346 13:19 20.11.2020
5308 Clouds -2 1023 89 7238 0.45 354 12:40 20.11.2020
5309 Clouds -1 1023 89 7183 4.46 345 11:50 20.11.2020
5310 Clouds -1 1024 89 7555 4.36 344 11:21 20.11.2020
5311 Clouds -3 1023 92 7794 4.27 342 09:46 20.11.2020
5312 Clouds -3 1023 93 4628 0.45 357 08:28 20.11.2020
5313 Rain -3 1022 93 4628 4.2 343 07:35 20.11.2020
5314 Rain -3 1022 92 4863 5.1 337 03:45 20.11.2020
5315 Snow -2 1022 69 4532 0.45 283 23:31 19.11.2020
5316 Snow -4 1025 68 4604 1.79 255 22:27 19.11.2020
5317 Clouds -4 1024 85 4604 0.89 270 21:49 19.11.2020
5318 Clouds -4 1024 90 5197 1.34 46 20:41 19.11.2020
5319 Clouds -4 1023 92 8797 2.68 81 20:19 19.11.2020
5320 Clouds -3 1024 91 5816 1.79 110 19:25 19.11.2020
5321 Rain -3 1024 92 6593 3.13 82 18:35 19.11.2020
5322 Rain -1 1025 92 87 0.45 70 17:18 19.11.2020
5323 Rain 1 1026 94 1493 0.45 119 15:59 19.11.2020
5324 Rain 4 1019 69 2513 6.71 326 15:28 19.11.2020
5325 Clouds 5 1029 74 9592 3.08 327 13:47 19.11.2020
5326 Clouds 5 1029 70 10000 2.24 322 13:25 19.11.2020
5327 Clouds 5 1030 60 10000 2.24 322 12:51 19.11.2020
5328 Rain 7 1019 59 10000 2.93 328 12:25 19.11.2020
5329 Clouds 8 1020 57 10000 2.93 328 11:40 19.11.2020
5330 Clear 6 1021 61 10000 2.68 318 11:00 19.11.2020
5331 Clear 6 1021 66 10000 2.22 308 10:28 19.11.2020
5332 Clear 5 1021 64 10000 2.22 308 09:45 19.11.2020
5333 Clear 4 1021 67 10000 2.17 309 09:26 19.11.2020
5334 Clear 4 1022 66 10000 1.87 309 08:20 19.11.2020
5335 Clear 4 1022 67 10000 1.99 309 06:49 19.11.2020
5336 Clear 6 1022 63 10000 0.58 292 01:46 19.11.2020
5337 Clouds 6 1023 64 10000 0.53 229 00:29 19.11.2020
5338 Clouds 7 1024 64 10000 0.53 229 23:30 18.11.2020
5339 Clouds 7 1024 64 10000 0.59 215 22:40 18.11.2020
5340 Clouds 7 1024 65 10000 0.66 219 22:21 18.11.2020
5341 Clouds 7 1024 64 10000 0.66 219 21:40 18.11.2020
5342 Clouds 7 1024 65 10000 0.98 211 21:20 18.11.2020
5343 Clear 7 1024 65 10000 1.1 196 19:50 18.11.2020
5344 Clear 7 1024 64 10000 1.15 194 19:28 18.11.2020
5345 Mist 6 1027 100 10000 1 100 18:57 18.11.2020
5346 Mist 6 1027 100 10000 1 100 18:57 18.11.2020
5347 Mist 6 1027 100 10000 0.73 197 18:38 18.11.2020
5348 Clear 6 1027 100 10000 0.79 206 17:37 18.11.2020
5349 Clear 6 1027 100 10000 0.79 206 17:37 18.11.2020
5350 Clear 7 1027 93 10000 1.5 100 16:24 18.11.2020
5351 Clear 7 1027 93 10000 1 0 15:57 18.11.2020
5352 Clear 7 1027 100 10000 1.5 90 14:41 18.11.2020
5353 Clear 8 1027 100 10000 1 0 13:45 18.11.2020
5354 Clear 8 1027 100 10000 1 0 13:20 18.11.2020
5355 Clear 11 1024 63 10000 1.95 181 12:42 18.11.2020
5356 Clear 9 1025 63 10000 2.07 180 11:35 18.11.2020
5357 Clear 7 1025 72 10000 2.05 180 10:32 18.11.2020
5358 Clear 7 1025 74 10000 1.85 180 09:57 18.11.2020
5359 Clear 5 1025 78 10000 1.42 183 07:54 18.11.2020
5360 Clouds 5 1025 77 10000 1.31 190 06:35 18.11.2020
5361 Clouds 4 1026 75 10000 1.68 174 00:33 18.11.2020
5362 Clouds 4 1026 74 10000 1.48 171 23:37 17.11.2020
5363 Clouds 4 1026 74 10000 1.26 163 22:49 17.11.2020
5364 Clouds 4 1026 72 10000 0.83 150 22:29 17.11.2020
5365 Clouds 4 1026 73 10000 0.83 150 21:50 17.11.2020
5366 Clouds 5 1026 72 10000 0.83 150 21:30 17.11.2020
5367 Clouds 4 1026 73 10000 0.52 131 20:50 17.11.2020
5368 Clouds 4 1026 72 10000 0.28 80 20:26 17.11.2020
5369 Clouds 4 1026 70 10000 0.28 80 19:54 17.11.2020
5370 Clouds 5 1026 70 10000 0.52 30 18:30 17.11.2020
5371 Clouds 4 1026 70 10000 0.52 30 17:44 17.11.2020
5372 Clouds 4 1025 69 10000 0.56 11 16:54 17.11.2020
5373 Clouds 5 1025 65 10000 0.4 16 16:18 17.11.2020
5374 Clouds 5 1025 63 10000 0.4 16 15:40 17.11.2020
5375 Clouds 7 1024 64 10000 0.54 28 15:22 17.11.2020
5376 Clouds 7 1024 70 10000 0.54 28 14:54 17.11.2020
5377 Clouds 7 1025 62 10000 1.2 15 14:22 17.11.2020
5378 Clouds 6 1025 66 10000 1.2 15 13:35 17.11.2020
5379 Clouds 5 1025 70 10000 1.34 359 12:48 17.11.2020
5380 Clouds 5 1025 75 10000 0.92 356 12:22 17.11.2020
5381 Clouds 4 1025 76 10000 0.92 356 11:41 17.11.2020
5382 Clouds 3 1028 58 10000 0.45 131 10:45 17.11.2020
5383 Clouds 3 1027 59 10000 1.79 131 10:23 17.11.2020
5384 Clouds 2 1027 70 10000 1.34 138 09:48 17.11.2020
5385 Clouds 1 1025 85 10000 1.38 344 09:20 17.11.2020
5386 Clouds 0 1024 84 10000 1.53 337 08:21 17.11.2020
5387 Clouds 0 1024 86 10000 1.53 337 07:35 17.11.2020
5388 Clear -1 1022 88 10000 1.86 334 04:32 17.11.2020
5389 Clouds -2 1025 99 10000 1.69 344 03:29 17.11.2020
5390 Clouds 0 1022 88 10000 1.55 337 02:29 17.11.2020
5391 Clouds 0 1022 88 10000 1.92 344 00:57 17.11.2020
5392 Clouds 0 1022 87 10000 1.71 339 23:57 16.11.2020
5393 Clouds 0 1022 87 10000 1.71 339 23:33 16.11.2020
5394 Clouds 0 1022 86 10000 2.38 340 22:59 16.11.2020
5395 Clouds 0 1022 87 7342 2.57 344 22:26 16.11.2020
5396 Clouds 0 1021 86 7342 2.57 344 21:56 16.11.2020
5397 Clouds 0 1021 86 7342 2.57 344 21:38 16.11.2020
5398 Clouds 0 1021 85 7525 3.2 343 21:19 16.11.2020
5399 Clouds 0 1020 84 7856 3.14 345 20:26 16.11.2020
5400 Clouds 0 1020 82 7856 3.14 345 19:53 16.11.2020
5401 Clouds 1 1020 82 7195 3.2 340 19:29 16.11.2020
5402 Clouds 1 1020 82 7195 3.2 340 19:29 16.11.2020
5403 Clouds 1 1019 81 7195 3.2 340 18:51 16.11.2020
5404 Clouds 1 1019 79 8272 0.45 345 18:19 16.11.2020
5405 Clouds -1 1022 91 8272 0.89 72 17:36 16.11.2020
5406 Clouds -1 1022 91 10000 3.49 335 17:18 16.11.2020
5407 Clouds -1 1021 92 10000 3.49 335 16:49 16.11.2020
5408 Clouds 0 1022 89 10000 0.45 195 16:24 16.11.2020
5409 Clouds 3 1020 83 10000 2.682 0 15:44 16.11.2020
5410 Clouds 3 1023 73 10000 3.76 334 15:26 16.11.2020
5411 Clouds 3 1037 92 10000 4.023 315 14:47 16.11.2020
5412 Clouds 0 1021 85 10000 0.89 90 13:44 16.11.2020
5413 Clouds 0 1021 88 10000 0.89 86 12:51 16.11.2020
5414 Clouds 0 1021 89 6929 1.34 91 12:28 16.11.2020
5415 Clouds 2 1016 88 6929 3.64 339 11:39 16.11.2020
5416 Clouds 2 1016 91 6380 3.73 341 11:21 16.11.2020
5417 Clouds 1 1016 91 6380 3.73 341 10:44 16.11.2020
5418 Clouds 1 1016 90 4793 3.75 338 10:25 16.11.2020
5419 Clouds 1 1016 90 4793 3.75 338 09:46 16.11.2020
5420 Clouds 1 1015 88 1512 3.68 338 09:23 16.11.2020
5421 Snow 1 1015 88 1512 3.68 338 08:41 16.11.2020
5422 Rain 1 1014 81 2638 3.28 341 07:48 16.11.2020
5423 Rain 1 1013 87 2018 2.77 337 06:50 16.11.2020
5424 Rain 1 1013 86 6153 1.92 333 06:29 16.11.2020
5425 Clouds 1 1012 87 4699 0.35 268 04:48 16.11.2020
5426 Rain 2 1013 84 10000 0.94 146 03:45 16.11.2020
5427 Clouds 2 1013 77 10000 1.56 218 01:44 16.11.2020
5428 Clouds 3 1014 73 10000 2.98 188 23:58 15.11.2020
5429 Clouds 3 1014 76 8565 3.57 179 23:26 15.11.2020
5430 Clouds 3 1014 74 8565 3.57 179 22:51 15.11.2020
5431 Rain 3 1014 73 6510 3.84 174 22:22 15.11.2020
5432 Clouds 4 1014 72 6510 3.84 174 21:47 15.11.2020
5433 Clouds 4 1014 73 5431 4.06 174 21:25 15.11.2020
5434 Clouds 5 1014 72 5431 4.06 174 20:44 15.11.2020
5435 Clouds 4 1014 72 6177 4.25 176 20:22 15.11.2020
5436 Clouds 5 1014 70 6177 4.25 176 19:48 15.11.2020
5437 Clouds 5 1021 66 8527 4.26 171 19:22 15.11.2020
5438 Clouds 7 1012 50 5803 4.28 170 18:58 15.11.2020
5439 Clouds 6 1014 67 5803 4.28 170 18:40 15.11.2020
5440 Clouds 7 1012 45 8584 0.447 0 18:20 15.11.2020
5441 Clouds 7 1028 53 8584 4.023 157 17:46 15.11.2020
5442 Clouds 7 1012 51 10000 5.364 0 17:24 15.11.2020
5443 Clouds 7 1012 61 10000 4.47 0 16:50 15.11.2020
5444 Clouds 5 1015 79 10000 1.34 90 16:21 15.11.2020
5445 Clouds 4 1015 86 10000 4.08 169 15:56 15.11.2020
5446 Clouds 5 1014 87 10000 1 0 15:29 15.11.2020
5447 Clouds 6 1014 87 10000 1.5 100 14:59 15.11.2020
5448 Clouds 7 1015 81 10000 1 0 14:31 15.11.2020
5449 Clouds 7 1015 87 10000 0.5 0 13:57 15.11.2020
5450 Clouds 9 1015 66 10000 4.37 162 13:37 15.11.2020
5451 Clouds 11 1015 67 10000 4.37 163 12:52 15.11.2020
5452 Clouds 11 1016 69 10000 0.45 248 12:25 15.11.2020
5453 Clouds 8 1017 87 10000 1.5 120 11:47 15.11.2020
5454 Clouds 6 1018 93 10000 1.5 260 11:21 15.11.2020
5455 Clouds 8 1016 64 10000 3.69 167 10:59 15.11.2020
5456 Clouds 6 1016 70 10000 3.69 167 10:41 15.11.2020
5457 Clouds 5 1016 72 10000 3.4 165 10:23 15.11.2020
5458 Clouds 4 1016 73 10000 3.4 165 09:41 15.11.2020
5459 Clouds 4 1016 74 10000 2.76 167 09:19 15.11.2020
5460 Clouds 4 1017 74 10000 2.76 167 08:51 15.11.2020
5461 Clouds 3 1016 75 10000 2.27 169 08:22 15.11.2020
5462 Clouds 3 1016 75 10000 2.27 169 07:38 15.11.2020
5463 Clouds 3 1017 77 10000 1.75 173 04:58 15.11.2020
5464 Clear 3 1018 77 10000 1.94 175 02:55 15.11.2020
5465 Clouds 4 1018 77 10000 2.13 176 00:48 15.11.2020
5466 Clouds 4 1019 77 10000 1.94 176 00:26 15.11.2020
5467 Clouds 4 1019 77 10000 1.94 176 23:36 14.11.2020
5468 Clouds 5 1019 76 10000 1.97 176 22:50 14.11.2020
5469 Clouds 5 1019 76 10000 1.92 180 22:29 14.11.2020
5470 Clouds 5 1019 77 10000 1.92 180 21:42 14.11.2020
5471 Clouds 4 1019 77 10000 2.03 185 21:22 14.11.2020
5472 Clouds 5 1019 76 10000 2.03 185 20:50 14.11.2020
5473 Clouds 5 1019 76 10000 2.03 185 20:50 14.11.2020
5474 Clouds 5 1019 76 10000 2.13 181 20:26 14.11.2020
5475 Clouds 5 1019 75 10000 2.13 181 19:51 14.11.2020
5476 Clouds 5 1019 76 10000 2.13 181 19:30 14.11.2020
5477 Clouds 5 1019 73 10000 2.55 179 18:43 14.11.2020
5478 Clouds 5 1018 72 10000 2.65 173 18:24 14.11.2020
5479 Clouds 5 1018 72 10000 2.65 173 18:24 14.11.2020
5480 Clouds 6 1021 79 10000 2.65 173 17:50 14.11.2020
5481 Clouds 6 1035 63 10000 2.235 135 17:31 14.11.2020
5482 Clouds 7 1021 79 10000 0.89 90 16:57 14.11.2020
5483 Clouds 7 1021 78 10000 0.89 90 16:36 14.11.2020
5484 Clear 9 1035 59 10000 1.788 135 16:18 14.11.2020
5485 Clear 6 1020 93 10000 2.1 80 15:50 14.11.2020
5486 Clear 6 1020 86 10000 1 0 15:21 14.11.2020
5487 Clear 8 1021 75 10000 1 0 14:38 14.11.2020
5488 Clear 8 1021 81 10000 1.5 270 14:20 14.11.2020
5489 Clear 10 1019 48 10000 2.3 173 13:40 14.11.2020
5490 Clear 7 1021 86 10000 1.5 260 13:22 14.11.2020
5491 Clear 9 1018 62 10000 2.13 169 12:45 14.11.2020
5492 Clear 9 1019 66 10000 1.82 173 12:27 14.11.2020
5493 Clear 8 1019 62 10000 1.82 173 11:41 14.11.2020
5494 Clear 8 1019 65 10000 1.61 176 11:22 14.11.2020
5495 Clear 6 1020 71 10000 1.61 176 10:42 14.11.2020
5496 Clear 5 1020 72 10000 1.66 179 10:23 14.11.2020
5497 Clear 6 1028 55 10000 1.66 179 09:46 14.11.2020
5498 Clear 4 1020 76 10000 1.53 177 09:28 14.11.2020
5499 Clear 3 1020 76 10000 1.53 177 08:48 14.11.2020
5500 Clear 3 1020 75 10000 1.2 175 08:26 14.11.2020
5501 Clear 3 1020 75 10000 1.2 175 07:43 14.11.2020
5502 Clouds 3 1020 75 10000 1.06 173 07:22 14.11.2020
5503 Clouds 3 1020 76 10000 0.88 169 06:30 14.11.2020
5504 Clouds 3 1020 76 10000 0.3 214 05:27 14.11.2020
5505 Clouds 3 1020 75 10000 0.24 286 03:40 14.11.2020
5506 Clouds 3 1021 75 10000 0.9 170 00:43 14.11.2020
5507 Clouds 3 1021 75 10000 0.87 172 23:38 13.11.2020
5508 Clouds 3 1021 76 10000 0.57 185 23:20 13.11.2020
5509 Clouds 4 1020 73 10000 0.57 185 22:42 13.11.2020
5510 Clouds 4 1020 73 10000 0.36 206 22:23 13.11.2020
5511 Clouds 4 1020 72 10000 0.36 206 21:51 13.11.2020
5512 Clouds 3 1020 73 10000 0.31 185 21:29 13.11.2020
5513 Clouds 3 1020 74 10000 0.31 185 20:55 13.11.2020
5514 Clouds 3 1020 73 10000 0.31 185 20:37 13.11.2020
5515 Clouds 3 1020 72 10000 0.36 183 20:18 13.11.2020
5516 Clouds 3 1020 73 10000 0.36 183 19:44 13.11.2020
5517 Clouds 3 1020 73 10000 0.36 183 19:44 13.11.2020
5518 Clouds 3 1020 73 10000 0.39 161 19:22 13.11.2020
5519 Clouds 3 1020 72 10000 0.07 211 18:49 13.11.2020
5520 Clouds 4 1019 73 10000 0.05 8 17:59 13.11.2020
5521 Clouds 4 1019 71 10000 0.05 8 17:36 13.11.2020
5522 Clouds 5 1023 74 10000 0.41 340 17:18 13.11.2020
5523 Clouds 5 1023 74 10000 0.45 68 16:42 13.11.2020
5524 Clouds 5 1019 67 10000 0.43 346 16:21 13.11.2020
5525 Clouds 6 1022 65 10000 0.43 346 15:41 13.11.2020
5526 Clouds 6 1018 63 10000 0.55 325 15:22 13.11.2020
5527 Clouds 7 1018 58 10000 0.55 325 14:39 13.11.2020
5528 Clouds 7 1018 58 10000 0.64 308 14:19 13.11.2020
5529 Clouds 7 1018 60 10000 0.64 308 13:37 13.11.2020
5530 Clouds 7 1018 58 10000 0.57 241 13:18 13.11.2020
5531 Clouds 7 1019 60 10000 0.58 220 12:43 13.11.2020
5532 Clear 6 1019 65 10000 0.85 209 12:24 13.11.2020
5533 Clear 6 1019 67 10000 0.85 209 11:48 13.11.2020
5534 Clear 6 1019 62 10000 0.9 204 11:24 13.11.2020
5535 Clear 5 1019 66 10000 0.9 204 10:54 13.11.2020
5536 Clear 4 1019 67 10000 0.9 204 10:34 13.11.2020
5537 Clear 4 1019 71 10000 1.07 206 09:53 13.11.2020
5538 Clear 3 1019 72 10000 1.07 206 09:32 13.11.2020
5539 Clear 3 1019 72 10000 1.07 206 09:32 13.11.2020
5540 Clear 3 1019 72 10000 1.07 206 09:32 13.11.2020
5541 Clear 2 1019 73 10000 1.2 192 08:55 13.11.2020
5542 Clear 2 1019 74 10000 1.2 192 08:32 13.11.2020
5543 Clear 2 1019 74 10000 1.27 183 07:55 13.11.2020
5544 Clear 2 1019 74 10000 1.27 183 07:36 13.11.2020
5545 Clear 2 1019 74 10000 1.28 184 07:18 13.11.2020
5546 Clear 2 1019 76 10000 0.86 188 06:37 13.11.2020
5547 Clear 2 1019 76 10000 0.84 199 05:42 13.11.2020
5548 Clear 1 1019 76 10000 0.99 205 04:39 13.11.2020
5549 Clear 2 1019 77 10000 1.35 195 01:43 13.11.2020
5550 Clouds 2 1019 77 10000 1.29 193 00:37 13.11.2020
5551 Clouds 2 1019 77 10000 1.35 186 23:59 12.11.2020
5552 Clouds 2 1020 77 10000 1.35 186 23:36 12.11.2020
5553 Clouds 2 1020 77 10000 1.46 183 23:18 12.11.2020
5554 Clouds 2 1020 76 10000 1.46 183 22:41 12.11.2020
5555 Clear 2 1020 76 10000 1.42 173 22:22 12.11.2020
5556 Clear 2 1020 77 10000 1.42 173 21:42 12.11.2020
5557 Clear 2 1020 76 10000 0.96 163 21:24 12.11.2020
5558 Clear 2 1020 76 10000 0.96 163 20:57 12.11.2020
5559 Clear 2 1020 77 10000 0.96 163 20:38 12.11.2020
5560 Clear 2 1020 77 10000 0.33 172 20:18 12.11.2020
5561 Clear 2 1020 75 10000 0.33 172 19:42 12.11.2020
5562 Clouds 2 1020 76 10000 0.03 359 19:24 12.11.2020
5563 Clouds 3 1020 74 10000 0.28 300 18:48 12.11.2020
5564 Clouds 2 1020 73 10000 0.47 321 18:22 12.11.2020
5565 Clouds 4 1023 75 10000 0.47 321 17:45 12.11.2020
5566 Clouds 4 1023 75 10000 2.6 100 17:26 12.11.2020
5567 Clouds 5 1023 81 10000 2.6 120 16:46 12.11.2020
5568 Clouds 4 1019 66 10000 0.33 355 16:25 12.11.2020
5569 Clouds 6 1023 70 10000 0.33 355 15:56 12.11.2020
5570 Clouds 5 1019 60 10000 0.33 355 15:32 12.11.2020
5571 Clouds 7 1018 64 10000 0.32 317 14:59 12.11.2020
5572 Clouds 7 1018 66 10000 0.32 317 14:41 12.11.2020
5573 Clear 7 1018 62 10000 0.54 313 14:21 12.11.2020
5574 Clear 7 1019 61 10000 0.54 313 13:46 12.11.2020
5575 Clouds 7 1019 62 10000 0.47 292 13:21 12.11.2020
5576 Clouds 7 1019 64 10000 0.47 292 12:50 12.11.2020
5577 Clouds 6 1019 66 10000 0.31 314 12:28 12.11.2020
5578 Clouds 6 1019 69 10000 0.31 314 11:59 12.11.2020
5579 Clouds 6 1019 68 10000 0.31 314 11:40 12.11.2020
5580 Clouds 6 1020 74 10000 0.51 340 10:58 12.11.2020
5581 Clouds 5 1020 76 10000 0.51 340 10:38 12.11.2020
5582 Clouds 4 1020 80 10000 0.72 320 10:19 12.11.2020
5583 Clouds 3 1019 81 10000 0.72 320 09:40 12.11.2020
5584 Clouds 3 1019 80 10000 0.41 334 09:18 12.11.2020
5585 Clouds 2 1019 79 10000 0.41 334 08:40 12.11.2020
5586 Clouds 2 1019 79 10000 0.41 334 08:40 12.11.2020
5587 Clouds 2 1019 78 10000 0.78 315 08:21 12.11.2020
5588 Clouds 2 1019 79 10000 0.78 315 07:56 12.11.2020
5589 Clouds 2 1019 80 10000 0.78 315 07:37 12.11.2020
5590 Clouds 2 1018 79 10000 0.25 275 06:54 12.11.2020
5591 Clouds 2 1018 80 10000 0.29 227 06:27 12.11.2020
5592 Clouds 2 1018 80 10000 0.69 213 03:50 12.11.2020
5593 Clouds 2 1018 79 10000 1.07 202 03:20 12.11.2020
5594 Clouds 2 1019 78 10000 1.73 188 00:49 12.11.2020
5595 Clouds 2 1019 78 10000 1.77 188 23:46 11.11.2020
5596 Clouds 2 1019 77 10000 1.7 191 23:25 11.11.2020
5597 Clouds 2 1019 77 10000 1.7 191 22:56 11.11.2020
5598 Clouds 2 1019 78 10000 1.7 191 22:38 11.11.2020
5599 Clouds 2 1019 78 10000 1.76 194 22:18 11.11.2020
5600 Clouds 2 1019 79 10000 1.76 194 21:41 11.11.2020
5601 Clouds 2 1019 79 10000 1.61 192 21:20 11.11.2020
5602 Clouds 2 1019 79 10000 1.61 192 20:55 11.11.2020
5603 Clouds 2 1019 79 10000 1.61 192 20:36 11.11.2020
5604 Clouds 3 1019 78 10000 1.5 188 20:18 11.11.2020
5605 Clouds 3 1019 78 10000 1.5 188 19:43 11.11.2020
5606 Clear 3 1019 77 10000 1.42 190 19:24 11.11.2020
5607 Clear 3 1019 77 10000 1.42 190 18:47 11.11.2020
5608 Clear 3 1019 76 10000 1.66 176 18:27 11.11.2020
5609 Clear 4 1021 80 10000 2.682 0 17:41 11.11.2020
5610 Clear 4 1021 81 10000 1.788 0 17:22 11.11.2020
5611 Clear 4 1024 78 10000 1.59 174 16:45 11.11.2020
5612 Clear 5 1019 73 10000 1.45 164 16:27 11.11.2020
5613 Clear 5 1024 79 10000 1.45 164 15:44 11.11.2020
5614 Clear 6 1019 71 10000 1.44 161 15:26 11.11.2020
5615 Clear 6 1019 71 10000 1.44 161 14:52 11.11.2020
5616 Clear 6 1019 71 10000 1.44 161 14:52 11.11.2020
5617 Clear 6 1019 67 10000 1.33 161 14:31 11.11.2020
5618 Clear 6 1019 68 10000 1.33 161 13:52 11.11.2020
5619 Clear 5 1019 73 10000 1.33 161 13:33 11.11.2020
5620 Clear 6 1020 77 10000 1.24 171 12:41 11.11.2020
5621 Clear 5 1020 82 10000 1.42 168 12:20 11.11.2020
5622 Clear 4 1021 85 10000 1.42 168 11:48 11.11.2020
5623 Clear 6 1026 71 10000 0.45 248 11:29 11.11.2020
5624 Clear 5 1028 48 10000 1.35 168 10:40 11.11.2020
5625 Clear 5 1028 48 10000 1.35 168 10:40 11.11.2020
5626 Clear 5 1027 51 10000 1.07 157 10:20 11.11.2020
5627 Clear 4 1028 47 10000 1.07 157 09:44 11.11.2020
5628 Clear 3 1027 54 10000 0.39 149 09:25 11.11.2020
5629 Clear 1 1026 65 10000 0.39 149 08:46 11.11.2020
5630 Clear 1 1026 65 10000 0.39 149 08:46 11.11.2020
5631 Clear 0 1022 90 10000 0.2 53 08:27 11.11.2020
5632 Clear 1 1022 89 10000 0.2 53 07:49 11.11.2020
5633 Clear 1 1022 89 10000 0.2 53 07:49 11.11.2020
5634 Clear 0 1022 89 10000 0.34 6 06:51 11.11.2020
5635 Clear 0 1022 88 10000 0.58 360 06:25 11.11.2020
5636 Clear 1 1022 88 10000 0.62 334 03:40 11.11.2020
5637 Clouds 2 1023 87 10000 0.69 340 00:59 11.11.2020
5638 Clouds 2 1023 88 10000 0.74 329 00:28 11.11.2020
5639 Clouds 2 1023 87 10000 0.74 329 23:43 10.11.2020
5640 Clouds 2 1023 87 10000 0.51 331 23:24 10.11.2020
5641 Clouds 2 1023 87 10000 0.51 331 22:56 10.11.2020
5642 Clouds 2 1023 85 10000 0.55 338 22:27 10.11.2020
5643 Clouds 2 1023 85 10000 0.55 338 21:44 10.11.2020
5644 Clouds 2 1023 85 10000 0.66 345 21:25 10.11.2020
5645 Clouds 2 1023 85 10000 0.66 345 20:59 10.11.2020
5646 Clouds 2 1023 85 10000 0.66 345 20:41 10.11.2020
5647 Clouds 3 1023 85 10000 0.78 346 20:22 10.11.2020
5648 Clouds 3 1023 84 10000 0.78 346 19:47 10.11.2020
5649 Clouds 3 1023 83 10000 0.73 344 19:28 10.11.2020
5650 Clouds 3 1023 83 10000 0.73 344 18:58 10.11.2020
5651 Clouds 4 1023 81 10000 0.83 343 18:39 10.11.2020
5652 Clouds 4 1023 79 10000 0.7 353 18:18 10.11.2020
5653 Clouds 3 1029 77 10000 0.7 353 17:43 10.11.2020
5654 Clouds 4 1027 77 10000 0.63 2 17:25 10.11.2020
5655 Clouds 5 1027 79 10000 0.63 2 16:44 10.11.2020
5656 Clouds 6 1024 83 10000 0.61 4 16:24 10.11.2020
5657 Clouds 6 1026 78 10000 0.61 4 15:56 10.11.2020
5658 Clouds 6 1026 78 10000 0.61 4 15:37 10.11.2020
5659 Clouds 7 1021 68 10000 0.56 13 15:19 10.11.2020
5660 Clouds 7 1024 81 10000 0.56 13 14:41 10.11.2020
5661 Clouds 7 1024 80 10000 0.36 333 14:21 10.11.2020
5662 Clouds 7 1024 80 10000 0.36 333 13:41 10.11.2020
5663 Clouds 8 1026 69 10000 0.45 248 13:23 10.11.2020
5664 Clouds 8 1021 65 10000 0.45 142 12:58 10.11.2020
5665 Clouds 8 1021 67 10000 0.45 142 12:38 10.11.2020
5666 Clouds 7 1027 70 10000 0.06 178 12:20 10.11.2020
5667 Clouds 8 1021 70 10000 0.06 178 11:38 10.11.2020
5668 Clouds 7 1022 71 10000 0.36 170 11:19 10.11.2020
5669 Clouds 6 1022 79 10000 0.36 170 10:42 10.11.2020
5670 Clouds 6 1022 79 10000 0.43 170 10:24 10.11.2020
5671 Clouds 5 1022 77 10000 0.43 170 09:49 10.11.2020
5672 Clouds 5 1022 80 10000 0.46 143 09:26 10.11.2020
5673 Clouds 4 1022 81 10000 0.46 143 08:57 10.11.2020
5674 Clouds 3 1022 82 10000 0.46 143 08:30 10.11.2020
5675 Clouds 2 1021 83 10000 0.34 126 07:47 10.11.2020
5676 Clouds 2 1021 84 10000 0.3 95 07:27 10.11.2020
5677 Clouds 2 1021 84 10000 0.3 95 06:58 10.11.2020
5678 Clouds 2 1021 84 10000 0.32 47 06:37 10.11.2020
5679 Clouds 2 1021 85 10000 0.19 55 05:27 10.11.2020
5680 Clouds 3 1022 84 10000 0.22 37 02:57 10.11.2020
5681 Clouds 3 1022 84 10000 0.2 17 01:38 10.11.2020
5682 Clear 3 1022 84 10000 0.2 15 00:24 10.11.2020
5683 Clear 3 1022 83 10000 0.2 15 23:42 09.11.2020
5684 Clear 3 1022 83 10000 0.21 14 22:57 09.11.2020
5685 Clear 4 1022 83 10000 0.21 14 22:38 09.11.2020
5686 Clear 4 1022 83 10000 0.33 4 22:19 09.11.2020
5687 Clear 4 1022 83 10000 0.33 4 22:19 09.11.2020
5688 Clear 3 1022 83 10000 0.33 4 21:39 09.11.2020
5689 Clear 4 1022 82 10000 0.42 345 21:20 09.11.2020
5690 Clear 3 1022 82 10000 0.42 345 20:41 09.11.2020
5691 Clear 4 1022 81 10000 0.25 354 20:21 09.11.2020
5692 Clear 4 1022 81 10000 0.25 354 19:43 09.11.2020
5693 Clear 3 1022 80 10000 0.22 47 19:23 09.11.2020
5694 Clear 4 1022 80 10000 0.22 47 18:56 09.11.2020
5695 Clear 4 1022 80 10000 0.22 47 18:56 09.11.2020
5696 Clear 4 1022 79 10000 0.37 47 18:37 09.11.2020
5697 Clear 4 1022 78 10000 0.4 44 18:18 09.11.2020
5698 Clear 5 1025 79 10000 0.4 44 17:43 09.11.2020
5699 Clear 5 1025 79 10000 0.45 90 17:24 09.11.2020
5700 Clear 6 1025 78 10000 0.41 52 16:41 09.11.2020
5701 Clear 6 1020 71 10000 0.48 56 16:20 09.11.2020
5702 Clear 7 1024 79 10000 0.48 56 15:44 09.11.2020
5703 Clear 7 1024 81 10000 1 0 15:25 09.11.2020
5704 Clear 7 1040 83 10000 1.788 157 14:46 09.11.2020
5705 Clear 7 1024 76 10000 1.5 260 14:28 09.11.2020
5706 Clear 8 1024 67 10000 0.45 225 13:52 09.11.2020
5707 Clear 9 1024 63 10000 0.31 108 13:24 09.11.2020
5708 Clear 8 1020 64 10000 0.31 108 12:57 09.11.2020
5709 Clear 7 1021 67 10000 0.31 108 12:37 09.11.2020
5710 Clear 7 1021 68 10000 0.52 156 12:19 09.11.2020
5711 Clear 7 1021 74 10000 0.52 156 11:41 09.11.2020
5712 Clear 6 1021 73 10000 0.71 162 11:22 09.11.2020
5713 Clear 6 1021 76 10000 0.71 162 10:43 09.11.2020
5714 Clear 5 1021 80 10000 0.74 179 10:25 09.11.2020
5715 Clear 4 1025 100 10000 1 80 09:52 09.11.2020
5716 Clear 5 1021 81 10000 0.69 189 09:28 09.11.2020
5717 Clear 4 1021 83 10000 0.69 189 08:49 09.11.2020
5718 Clear 3 1021 84 10000 0.48 168 08:27 09.11.2020
5719 Clear 3 1021 82 10000 0.48 168 07:43 09.11.2020
5720 Clouds 3 1021 82 10000 0.29 168 07:21 09.11.2020
5721 Clouds 3 1021 82 10000 0.21 160 06:48 09.11.2020
5722 Clouds 3 1021 79 10000 0.51 238 03:51 09.11.2020
5723 Clouds 3 1025 100 10000 1.01 200 01:56 09.11.2020
5724 Clouds 2 1025 100 10000 1.01 200 01:38 09.11.2020
5725 Clouds 3 1025 100 10000 0.5 0 00:35 09.11.2020
5726 Clouds 3 1025 100 10000 1.5 90 23:39 08.11.2020
5727 Clouds 3 1025 100 10000 1.5 90 23:20 08.11.2020
5728 Clouds 3 1025 100 10000 0.5 0 22:42 08.11.2020
5729 Clouds 3 1025 100 10000 0.5 0 22:20 08.11.2020
5730 Clouds 5 1025 69 10000 1.53 189 21:43 08.11.2020
5731 Clouds 4 1025 100 10000 1.49 183 21:20 08.11.2020
5732 Clouds 5 1025 72 10000 1.49 183 20:55 08.11.2020
5733 Clouds 5 1025 73 10000 1.49 183 20:37 08.11.2020
5734 Clouds 5 1025 71 10000 1.24 181 20:19 08.11.2020
5735 Clouds 5 1025 71 10000 1.24 181 19:43 08.11.2020
5736 Clouds 5 1025 76 10000 1.26 181 19:21 08.11.2020
5737 Clouds 5 1025 77 10000 1.26 181 18:49 08.11.2020
5738 Clouds 5 1025 78 10000 1.28 169 18:22 08.11.2020
5739 Clouds 5 1025 78 10000 1.28 169 17:58 08.11.2020
5740 Clouds 5 1025 79 10000 1.28 169 17:39 08.11.2020
5741 Clouds 6 1025 79 10000 1.45 172 17:19 08.11.2020
5742 Clouds 6 1025 79 10000 1.45 172 16:55 08.11.2020
5743 Clouds 6 1025 78 10000 1.45 172 16:36 08.11.2020
5744 Clouds 6 1030 64 10000 2.68 96 16:18 08.11.2020
5745 Clouds 7 1024 75 10000 1.51 167 15:43 08.11.2020
5746 Clouds 7 1024 76 10000 1.5 90 15:22 08.11.2020
5747 Clouds 7 1024 81 10000 2.1 250 14:42 08.11.2020
5748 Clouds 7 1024 81 10000 2.1 250 14:22 08.11.2020
5749 Clouds 8 1037 74 10000 1.788 22 13:47 08.11.2020
5750 Clouds 8 1024 70 10000 0.89 270 13:23 08.11.2020
5751 Clouds 8 1024 70 10000 0.89 270 13:23 08.11.2020
5752 Clouds 9 1025 76 10000 2.11 160 12:44 08.11.2020
5753 Clouds 7 1025 81 10000 1 0 12:25 08.11.2020
5754 Clouds 7 1025 87 10000 1.81 176 11:58 08.11.2020
5755 Clouds 6 1025 93 10000 1 0 11:39 08.11.2020
5756 Clouds 6 1025 93 10000 1 0 11:20 08.11.2020
5757 Clouds 8 1022 65 10000 1.89 187 10:50 08.11.2020
5758 Rain 7 1023 70 10000 2.04 177 10:19 08.11.2020
5759 Clouds 7 1023 70 10000 2.04 177 09:44 08.11.2020
5760 Clouds 6 1023 71 10000 1.79 173 09:24 08.11.2020
5761 Clouds 6 1023 70 10000 1.79 173 08:58 08.11.2020
5762 Clouds 5 1023 67 10000 1.79 173 08:39 08.11.2020
5763 Clouds 5 1023 67 10000 1.79 173 08:39 08.11.2020
5764 Clouds 4 1023 70 10000 2.03 178 08:18 08.11.2020
5765 Clouds 4 1023 69 10000 2.03 178 07:51 08.11.2020
5766 Clouds 4 1023 69 10000 2.16 177 07:21 08.11.2020
5767 Clouds 5 1023 69 10000 1.95 174 05:56 08.11.2020
5768 Clouds 5 1023 69 10000 1.95 174 05:31 08.11.2020
5769 Clouds 6 1023 71 10000 2.49 171 04:18 08.11.2020
5770 Clouds 6 1024 70 10000 2.69 168 01:51 08.11.2020
5771 Clouds 6 1024 72 10000 2.84 168 01:18 08.11.2020
5772 Clouds 6 1024 72 10000 2.84 168 01:18 08.11.2020
5773 Clouds 6 1024 71 10000 2.96 171 00:27 08.11.2020
5774 Clouds 6 1024 71 10000 2.96 171 00:27 08.11.2020
5775 Clouds 6 1024 71 10000 2.96 171 23:46 07.11.2020
5776 Clouds 6 1024 71 10000 2.92 171 23:28 07.11.2020
5777 Clouds 6 1024 72 10000 2.92 171 22:43 07.11.2020
5778 Clouds 7 1024 71 10000 2.89 172 22:25 07.11.2020
5779 Clouds 6 1025 70 10000 2.89 172 21:46 07.11.2020
5780 Clouds 6 1024 72 10000 2.79 170 21:23 07.11.2020
5781 Clouds 6 1024 72 10000 2.79 170 20:55 07.11.2020
5782 Clouds 6 1024 72 10000 2.79 170 20:36 07.11.2020
5783 Clouds 6 1025 72 10000 2.69 169 20:18 07.11.2020
5784 Clouds 6 1026 93 10000 2.69 169 19:41 07.11.2020
5785 Clouds 6 1026 93 10000 2.6 171 19:22 07.11.2020
5786 Clouds 7 1025 93 10000 1 0 18:39 07.11.2020
5787 Clouds 7 1025 93 10000 1 0 18:21 07.11.2020
5788 Clouds 7 1026 87 10000 1.5 120 17:46 07.11.2020
5789 Clouds 7 1026 87 10000 1.5 120 17:26 07.11.2020
5790 Clouds 8 1025 87 10000 1 0 16:44 07.11.2020
5791 Clear 8 1025 87 10000 1 0 16:24 07.11.2020
5792 Clear 9 1025 81 10000 3.1 166 15:48 07.11.2020
5793 Clear 10 1025 81 10000 1 0 15:24 07.11.2020
5794 Clear 11 1025 76 10000 1.5 260 14:58 07.11.2020
5795 Clear 11 1025 76 10000 1.5 260 14:58 07.11.2020
5796 Clear 11 1025 66 10000 2.1 270 14:40 07.11.2020
5797 Clear 11 1025 66 10000 2.1 270 14:19 07.11.2020
5798 Clear 12 1026 66 10000 1.5 270 13:42 07.11.2020
5799 Clear 12 1026 66 10000 1.5 270 13:22 07.11.2020
5800 Clear 11 1026 81 10000 2.1 260 12:35 07.11.2020
5801 Clear 11 1026 81 10000 2.1 260 12:35 07.11.2020
5802 Clear 11 1025 59 10000 2.67 168 11:46 07.11.2020
5803 Clear 10 1025 55 10000 2.5 170 11:25 07.11.2020
5804 Clear 9 1025 58 10000 2.5 170 10:57 07.11.2020
5805 Clear 9 1025 61 10000 2.5 170 10:39 07.11.2020
5806 Clear 8 1025 59 10000 2.32 177 10:20 07.11.2020
5807 Clear 7 1025 61 10000 2.32 177 09:47 07.11.2020
5808 Clear 6 1026 66 10000 2.18 185 09:21 07.11.2020
5809 Clear 6 1026 67 10000 2.18 185 08:47 07.11.2020
5810 Clear 6 1026 69 10000 2.24 191 08:28 07.11.2020
5811 Clear 5 1026 67 10000 2.24 191 07:48 07.11.2020
5812 Clear 5 1026 68 10000 2.37 191 06:50 07.11.2020
5813 Clear 5 1026 69 10000 2.42 190 05:48 07.11.2020
5814 Clear 5 1026 73 10000 2.65 185 04:22 07.11.2020
5815 Clear 5 1026 76 10000 2.62 181 02:46 07.11.2020
5816 Clear 5 1026 78 10000 2.87 174 01:27 07.11.2020
5817 Clear 5 1027 79 10000 2.72 174 00:37 07.11.2020
5818 Clear 5 1027 81 10000 2.78 175 23:39 06.11.2020
5819 Clear 5 1027 82 10000 2.8 176 23:18 06.11.2020
5820 Clear 5 1027 81 10000 2.8 176 22:40 06.11.2020
5821 Clear 5 1027 82 10000 2.8 179 22:18 06.11.2020
5822 Clear 5 1027 83 10000 2.8 179 21:42 06.11.2020
5823 Clear 5 1027 82 10000 2.75 176 21:20 06.11.2020
5824 Clear 5 1027 82 10000 2.75 176 20:45 06.11.2020
5825 Clear 5 1027 83 10000 2.74 174 20:20 06.11.2020
5826 Clear 5 1027 83 10000 2.74 174 20:20 06.11.2020
5827 Clear 4 1027 83 10000 2.74 174 19:46 06.11.2020
5828 Clouds 5 1027 82 10000 2.6 173 19:28 06.11.2020
5829 Clouds 5 1027 81 10000 2.52 172 18:57 06.11.2020
5830 Clouds 5 1027 81 10000 2.52 172 18:39 06.11.2020
5831 Clouds 5 1030 58 10000 2.42 171 18:19 06.11.2020
5832 Clouds 5 1030 58 10000 2.42 171 18:19 06.11.2020
5833 Clouds 5 1031 66 10000 0.45 90 17:46 06.11.2020
5834 Clouds 6 1027 67 10000 3.129 0 17:24 06.11.2020
5835 Clouds 6 1031 70 10000 0.45 90 16:43 06.11.2020
5836 Clouds 7 1026 74 10000 2.44 171 16:22 06.11.2020
5837 Clouds 7 1030 81 10000 0.5 0 15:47 06.11.2020
5838 Clouds 8 1030 81 10000 0.5 0 15:26 06.11.2020
5839 Clouds 8 1030 81 10000 1 0 14:50 06.11.2020
5840 Clouds 8 1031 87 10000 1 0 14:23 06.11.2020
5841 Clouds 9 1031 87 10000 0.5 0 13:44 06.11.2020
5842 Clouds 8 1031 87 10000 0.5 0 13:21 06.11.2020
5843 Clouds 7 1032 87 10000 2.1 220 12:43 06.11.2020
5844 Clouds 8 1032 87 10000 2.1 220 12:23 06.11.2020
5845 Clouds 8 1028 83 10000 3.13 171 11:40 06.11.2020
5846 Clouds 8 1032 87 10000 0.5 0 11:21 06.11.2020
5847 Clouds 7 1028 87 10000 3.23 173 10:37 06.11.2020
5848 Clouds 6 1028 88 10000 3.4 172 10:18 06.11.2020
5849 Clouds 5 1028 90 10000 3.4 172 09:44 06.11.2020
5850 Clouds 5 1028 91 6041 3.39 173 09:21 06.11.2020
5851 Clouds 5 1028 91 6041 3.39 173 09:21 06.11.2020
5852 Clouds 4 1028 92 6041 3.39 173 08:48 06.11.2020
5853 Clouds 4 1027 91 3064 3.27 174 08:28 06.11.2020
5854 Clouds 4 1027 92 3064 3.27 174 07:46 06.11.2020
5855 Clouds 3 1027 92 5955 3.09 179 07:27 06.11.2020
5856 Clouds 3 1026 93 5931 3.15 178 06:48 06.11.2020
5857 Clouds 3 1026 93 5775 3.08 180 05:42 06.11.2020
5858 Clouds 3 1027 96 10000 2.57 186 02:53 06.11.2020
5859 Clouds 4 1032 78 10000 2.61 189 00:43 06.11.2020
5860 Clouds 3 1027 96 10000 2.05 180 00:18 06.11.2020
5861 Clouds 3 1028 96 9951 0.89 171 23:26 05.11.2020
5862 Clouds 4 1028 96 9951 1.78 179 22:50 05.11.2020
5863 Clouds 4 1028 96 9951 1.78 179 22:50 05.11.2020
5864 Clouds 3 1028 96 9848 1.67 180 22:26 05.11.2020
5865 Clouds 3 1028 95 9848 1.67 180 21:59 05.11.2020
5866 Clouds 3 1028 95 9848 1.67 180 21:41 05.11.2020
5867 Clouds 3 1028 95 10000 1.54 184 21:21 05.11.2020
5868 Clouds 3 1028 95 10000 1.54 184 20:44 05.11.2020
5869 Clouds 3 1027 95 10000 1.35 184 20:25 05.11.2020
5870 Clouds 3 1027 95 10000 1.35 184 19:57 05.11.2020
5871 Clouds 4 1028 96 10000 1.35 184 19:38 05.11.2020
5872 Clouds 4 1028 96 10000 1.13 174 19:19 05.11.2020
5873 Clouds 3 1028 95 10000 1.14 178 18:41 05.11.2020
5874 Clouds 3 1028 95 10000 0.95 164 18:22 05.11.2020
5875 Clouds 3 1028 95 10000 0.95 164 17:47 05.11.2020
5876 Clouds 4 1028 95 10000 0.93 145 17:26 05.11.2020
5877 Clouds 5 1028 94 10000 0.93 145 16:50 05.11.2020
5878 Clouds 6 1027 94 10000 0.8 123 16:29 05.11.2020
5879 Clouds 6 1027 93 10000 0.8 123 15:55 05.11.2020
5880 Clouds 6 1027 93 10000 0.8 123 15:37 05.11.2020
5881 Clouds 6 1027 92 10000 0.5 102 15:18 05.11.2020
5882 Clouds 7 1027 91 10000 0.5 102 14:44 05.11.2020
5883 Clear 7 1027 91 10000 0.52 123 14:24 05.11.2020
5884 Clear 7 1027 89 10000 0.52 123 13:41 05.11.2020
5885 Clear 7 1027 89 10000 0.78 138 13:20 05.11.2020
5886 Clear 6 1028 88 10000 0.78 138 12:43 05.11.2020
5887 Clear 6 1028 91 10000 0.45 148 12:23 05.11.2020
5888 Clear 6 1028 92 10000 0.45 135 11:44 05.11.2020
5889 Clear 6 1028 93 10000 1.03 125 11:24 05.11.2020
5890 Clear 8 1033 79 10000 1.03 125 10:52 05.11.2020
5891 Clear 5 1028 94 10000 0.79 90 10:28 05.11.2020
5892 Clear 5 1032 81 10000 0.79 90 09:55 05.11.2020
5893 Clear 5 1031 84 10000 0.79 90 09:37 05.11.2020
5894 Clear 3 1028 94 10000 0.45 186 09:18 05.11.2020
5895 Clear 2 1028 94 10000 0.79 51 08:43 05.11.2020
5896 Clear 2 1027 93 10000 0.75 21 08:23 05.11.2020
5897 Clouds 1 1027 92 10000 0.46 6 07:29 05.11.2020
5898 Clouds 2 1027 92 10000 0.46 6 06:51 05.11.2020
5899 Clouds 2 1027 92 10000 0.33 332 06:32 05.11.2020
5900 Clouds 2 1026 96 10000 0.54 186 03:46 05.11.2020
5901 Clouds 2 1026 96 10000 0.45 159 00:45 05.11.2020
5902 Clouds 2 1026 96 9566 0.42 128 00:25 05.11.2020
5903 Clouds 2 1025 96 9566 0.42 128 23:43 04.11.2020
5904 Clouds 2 1025 96 8431 0.48 137 23:24 04.11.2020
5905 Clouds 2 1025 96 8431 0.48 137 22:44 04.11.2020
5906 Clouds 3 1025 95 2770 0.66 127 22:22 04.11.2020
5907 Clouds 2 1025 95 2770 0.66 127 21:47 04.11.2020
5908 Clouds 3 1025 95 2524 0.77 124 21:28 04.11.2020
5909 Clouds 2 1025 95 2524 0.77 124 20:56 04.11.2020
5910 Clouds 3 1024 95 2524 0.77 124 20:36 04.11.2020
5911 Clouds 3 1024 95 1652 0.75 86 20:18 04.11.2020
5912 Clouds 2 1024 95 1652 0.75 86 19:41 04.11.2020
5913 Rain 2 1024 95 1528 1.04 44 19:23 04.11.2020
5914 Clouds 2 1023 95 1539 0.89 56 18:42 04.11.2020
5915 Rain 2 1023 94 104 1.15 41 18:24 04.11.2020
5916 Rain 3 1023 94 104 1.15 41 17:48 04.11.2020
5917 Rain 3 1022 93 144 1.18 32 17:27 04.11.2020
5918 Clouds 3 1022 92 144 1.18 32 16:57 04.11.2020
5919 Rain 4 1022 92 144 1.18 32 16:37 04.11.2020
5920 Rain 4 1022 90 588 1.15 38 16:18 04.11.2020
5921 Clouds 2 1021 90 588 1.15 38 15:42 04.11.2020
5922 Rain 4 1021 90 1079 1.08 42 15:23 04.11.2020
5923 Clouds 3 1021 90 1079 1.08 42 14:46 04.11.2020
5924 Rain 3 1021 91 1630 1.08 82 14:25 04.11.2020
5925 Clouds 3 1021 92 1630 1.08 82 13:52 04.11.2020
5926 Rain 3 1021 90 866 1.14 71 13:22 04.11.2020
5927 Clouds 3 1021 90 866 1.14 71 12:59 04.11.2020
5928 Clouds 3 1021 89 705 1.36 48 12:41 04.11.2020
5929 Rain 2 1021 92 1545 1.14 54 12:22 04.11.2020
5930 Clouds 2 1021 92 1545 1.14 54 11:46 04.11.2020
5931 Rain 1 1022 94 1377 1.37 43 11:23 04.11.2020
5932 Clouds 1 1022 94 1377 1.37 43 10:49 04.11.2020
5933 Rain 1 1022 95 871 1.38 37 10:24 04.11.2020
5934 Rain 1 1022 95 871 1.38 37 10:24 04.11.2020
5935 Clouds 0 1022 95 871 1.38 37 09:56 04.11.2020
5936 Rain 0 1022 95 591 1.83 20 09:28 04.11.2020
5937 Clouds -1 1022 95 591 1.83 20 08:50 04.11.2020
5938 Rain -1 1021 94 7253 2.01 21 08:23 04.11.2020
5939 Rain 0 1021 94 7253 2.01 21 07:58 04.11.2020
5940 Rain 0 1021 93 7253 2.01 21 07:37 04.11.2020
5941 Rain 0 1021 94 1539 2.59 9 07:18 04.11.2020
5942 Clouds 0 1020 94 1539 2.59 9 06:39 04.11.2020
5943 Clouds 1 1020 94 742 2.5 7 04:59 04.11.2020
5944 Clouds 2 1020 94 1518 2.64 3 02:31 04.11.2020
5945 Clouds 2 1021 94 1618 2.55 358 01:38 04.11.2020
5946 Clouds 3 1021 93 2397 2.84 359 23:59 03.11.2020
5947 Rain 3 1021 94 1091 2.42 356 23:26 03.11.2020
5948 Rain 3 1021 93 1091 2.42 356 22:57 03.11.2020
5949 Rain 3 1021 93 1091 2.42 356 22:38 03.11.2020
5950 Rain 1 1030 97 926 0.89 74 22:19 03.11.2020
5951 Rain 2 1030 91 926 0.89 73 21:42 03.11.2020
5952 Rain 2 1030 90 933 2.24 74 21:24 03.11.2020
5953 Clouds 2 1029 93 933 2.68 30 20:49 03.11.2020
5954 Rain 2 1029 89 1432 2.24 46 20:27 03.11.2020
5955 Clouds 2 1029 89 1432 3.13 80 19:55 03.11.2020
5956 Clouds 2 1029 90 1432 1.34 71 19:37 03.11.2020
5957 Rain 2 1030 90 2163 0.89 311 19:19 03.11.2020
5958 Clouds 3 1029 91 2163 0.45 238 18:41 03.11.2020
5959 Rain 3 1030 92 1440 1.34 128 18:19 03.11.2020
5960 Clouds 3 1030 93 1440 0.89 325 17:46 03.11.2020
5961 Rain 4 1030 92 4613 1.97 348 17:27 03.11.2020
5962 Clouds 5 1031 92 4613 0.45 255 16:51 03.11.2020
5963 Clouds 6 1031 93 4613 1.97 348 16:31 03.11.2020
5964 Clouds 8 1024 72 2816 1.79 68 15:55 03.11.2020
5965 Clouds 8 1024 73 2816 1.79 248 15:37 03.11.2020
5966 Rain 9 1023 75 3720 0.89 225 15:18 03.11.2020
5967 Clouds 9 1023 82 10000 1.5 270 14:41 03.11.2020
5968 Clouds 9 1023 82 10000 1.5 270 14:23 03.11.2020
5969 Clouds 9 1023 82 4121 4.1 250 13:41 03.11.2020
5970 Clouds 9 1023 82 4646 4.1 250 13:21 03.11.2020
5971 Clouds 10 1023 82 10000 5.7 0 12:45 03.11.2020
5972 Clouds 11 1023 82 10000 5.7 0 12:24 03.11.2020
5973 Clouds 11 1023 77 10000 6.7 50 11:47 03.11.2020
5974 Clouds 11 1023 77 10000 6.7 50 11:25 03.11.2020
5975 Clouds 10 1023 87 10000 2.1 110 10:56 03.11.2020
5976 Clouds 10 1024 71 6165 0.45 293 10:37 03.11.2020
5977 Rain 9 1024 56 4282 0.45 248 10:18 03.11.2020
5978 Clouds 8 1024 17 4282 0.19 309 09:45 03.11.2020
5979 Clouds 8 1024 9 4472 0.46 358 09:22 03.11.2020
5980 Clouds 8 1020 87 4472 0.46 358 08:49 03.11.2020
5981 Rain 8 1020 87 4632 0.5 16 08:29 03.11.2020
5982 Clouds 8 1020 85 4632 0.5 16 07:41 03.11.2020
5983 Rain 7 1030 86 6137 1.09 1 07:19 03.11.2020
5984 Rain 8 1020 86 2684 1.18 352 06:21 03.11.2020
5985 Clouds 8 1020 86 2694 1.18 344 04:34 03.11.2020
5986 Clouds 8 1020 85 3734 0.59 346 00:45 03.11.2020
5987 Clouds 8 1020 84 4433 0.74 345 00:24 03.11.2020
5988 Clouds 8 1020 83 4433 0.74 345 23:43 02.11.2020
5989 Clouds 8 1020 83 5282 0.78 329 23:22 02.11.2020
5990 Clouds 8 1020 82 5282 0.78 329 22:43 02.11.2020
5991 Clouds 8 1020 82 5124 0.62 308 22:24 02.11.2020
5992 Clouds 8 1020 83 5124 0.62 308 21:39 02.11.2020
5993 Clouds 10 1018 80 4850 0.63 284 21:21 02.11.2020
5994 Clouds 10 1023 68 4850 0.63 284 20:55 02.11.2020
5995 Clouds 10 1022 69 4850 0.63 284 20:37 02.11.2020
5996 Clouds 10 1022 70 5514 0.63 266 20:18 02.11.2020
5997 Clouds 10 1022 69 5514 0.63 266 19:43 02.11.2020
5998 Clouds 11 1022 68 8409 0.72 245 19:24 02.11.2020
5999 Clouds 11 1022 72 4045 0.57 263 18:42 02.11.2020
6000 Clouds 11 1017 82 4138 0.447 0 18:21 02.11.2020
6001 Clouds 12 1021 75 4138 0.78 232 17:57 02.11.2020
6002 Clouds 12 1021 74 4138 0.45 68 17:39 02.11.2020
6003 Clouds 12 1021 74 4386 0.45 90 17:20 02.11.2020
6004 Clouds 13 1017 75 4386 1.341 0 16:41 02.11.2020
6005 Clouds 13 1021 74 6083 1.36 194 16:23 02.11.2020
6006 Clouds 13 1017 75 6083 1.36 194 15:41 02.11.2020
6007 Clouds 13 1021 71 7751 1.57 188 15:22 02.11.2020
6008 Clouds 13 1021 71 7751 1.57 188 14:54 02.11.2020
6009 Clouds 13 1016 75 7755 1.85 187 14:20 02.11.2020
6010 Clouds 14 1020 68 7755 0.89 248 13:56 02.11.2020
6011 Clouds 15 1021 65 7755 0.89 315 13:38 02.11.2020
6012 Clouds 15 1021 64 7818 0.45 225 13:19 02.11.2020
6013 Clouds 14 1035 85 7417 0.894 45 12:31 02.11.2020
6014 Clouds 14 1022 70 7933 1.78 185 11:59 02.11.2020
6015 Clouds 14 1022 73 7933 1.78 185 11:38 02.11.2020
6016 Clouds 13 1022 74 10000 0.89 248 11:19 02.11.2020
6017 Clouds 11 1019 78 10000 1.41 177 10:43 02.11.2020
6018 Clouds 11 1019 82 10000 0.6 191 10:21 02.11.2020
6019 Clouds 10 1020 85 10000 0.6 191 09:51 02.11.2020
6020 Clouds 9 1020 86 10000 0.36 288 09:24 02.11.2020
6021 Clouds 9 1020 86 10000 0.36 288 08:45 02.11.2020
6022 Clouds 9 1020 85 10000 0.81 304 08:24 02.11.2020
6023 Clouds 8 1019 84 10000 0.81 304 07:50 02.11.2020
6024 Clouds 8 1019 84 10000 0.81 304 07:50 02.11.2020
6025 Clouds 8 1019 85 10000 0.82 297 07:22 02.11.2020
6026 Clouds 8 1019 84 10000 0.78 296 06:36 02.11.2020
6027 Clouds 9 1019 81 10000 0.81 277 03:35 02.11.2020
6028 Clouds 9 1020 80 10000 0.79 263 01:25 02.11.2020
6029 Clouds 9 1020 77 10000 0.65 278 00:36 02.11.2020
6030 Clouds 9 1020 76 10000 0.68 257 23:44 01.11.2020
6031 Rain 9 1020 76 10000 1.14 246 23:25 01.11.2020
6032 Clouds 8 1020 74 10000 1.14 246 22:47 01.11.2020
6033 Rain 8 1020 73 10000 1.5 260 22:26 01.11.2020
6034 Clouds 8 1020 71 10000 1.5 260 21:59 01.11.2020
6035 Clouds 8 1020 72 10000 1.5 260 21:39 01.11.2020
6036 Rain 8 1030 63 10000 1.01 265 21:21 01.11.2020
6037 Clouds 8 1029 61 10000 1.01 265 20:42 01.11.2020
6038 Clouds 8 1029 61 10000 1.01 265 20:42 01.11.2020
6039 Clouds 8 1029 63 10000 1.56 308 20:24 01.11.2020
6040 Clouds 8 1020 76 10000 1.56 308 19:44 01.11.2020
6041 Clouds 8 1020 76 10000 1.59 289 19:26 01.11.2020
6042 Clouds 8 1020 73 10000 1.59 289 18:54 01.11.2020
6043 Clouds 9 1029 64 10000 1.25 300 18:36 01.11.2020
6044 Clouds 9 1029 62 10000 1.23 300 18:18 01.11.2020
6045 Clouds 9 1029 62 10000 1.23 300 18:18 01.11.2020
6046 Clouds 10 1022 74 10000 1.23 300 17:43 01.11.2020
6047 Clouds 10 1022 75 10000 1.4 303 17:24 01.11.2020
6048 Clouds 10 1018 56 10000 4.47 0 16:42 01.11.2020
6049 Clouds 10 1018 54 10000 2.682 0 16:21 01.11.2020
6050 Clouds 11 1022 76 10000 0.45 315 15:54 01.11.2020
6051 Clouds 10 1023 72 10000 1.32 298 15:36 01.11.2020
6052 Clouds 11 1022 74 10000 0.45 113 15:18 01.11.2020
6053 Clouds 11 1023 75 10000 1.44 298 14:44 01.11.2020
6054 Clouds 11 1019 47 10000 0.894 0 14:21 01.11.2020
6055 Clouds 11 1022 71 10000 1.21 307 13:49 01.11.2020
6056 Clouds 11 1035 53 10000 4.023 202 13:31 01.11.2020
6057 Clouds 9 1023 87 10000 1.5 120 12:44 01.11.2020
6058 Rain 9 1023 87 10000 1.5 120 12:44 01.11.2020
6059 Rain 9 1023 87 10000 1.5 120 12:26 01.11.2020
6060 Rain 9 1030 45 10000 1.85 323 11:55 01.11.2020
6061 Rain 9 1030 42 10000 1.85 323 11:37 01.11.2020
6062 Clouds 10 1030 45 10000 1.82 322 11:18 01.11.2020
6063 Clouds 9 1030 47 10000 1.82 322 10:40 01.11.2020
6064 Clouds 9 1030 46 10000 1.53 316 10:22 01.11.2020
6065 Clouds 9 1020 68 10000 1.53 316 09:46 01.11.2020
6066 Clouds 8 1020 66 10000 1.1 293 08:50 01.11.2020
6067 Clouds 7 1020 65 10000 0.95 275 08:24 01.11.2020
6068 Clouds 7 1020 68 10000 0.95 275 07:45 01.11.2020
6069 Clouds 7 1020 67 10000 1.47 318 05:30 01.11.2020
6070 Clouds 7 1021 68 10000 1.72 314 01:52 01.11.2020
6071 Clouds 7 1021 71 10000 1.12 301 00:53 01.11.2020
6072 Clouds 8 1021 65 10000 1.23 307 23:39 31.10.2020
6073 Clear 8 1021 66 10000 1.13 300 23:18 31.10.2020
6074 Clear 8 1021 68 10000 1.13 300 22:43 31.10.2020
6075 Clear 8 1021 65 10000 1.04 293 22:23 31.10.2020
6076 Clear 8 1021 66 10000 1.04 293 21:46 31.10.2020
6077 Clear 8 1021 63 10000 0.86 288 21:20 31.10.2020
6078 Clear 8 1021 64 10000 0.86 288 20:39 31.10.2020
6079 Clear 8 1021 65 10000 0.94 296 20:19 31.10.2020
6080 Clear 8 1023 93 10000 1 0 19:43 31.10.2020
6081 Clouds 8 1023 93 10000 1 0 19:24 31.10.2020
6082 Clouds 9 1024 76 10000 0.82 298 18:52 31.10.2020
6083 Clouds 9 1024 73 10000 0.45 0 18:34 31.10.2020
6084 Clouds 10 1023 78 10000 0.99 300 17:43 31.10.2020
6085 Clouds 10 1020 40 10000 0.894 0 17:24 31.10.2020
6086 Clouds 11 1023 77 10000 1.08 304 16:54 31.10.2020
6087 Clouds 11 1023 77 10000 0.45 113 16:33 31.10.2020
6088 Clouds 11 1022 81 10000 0.5 0 15:55 31.10.2020
6089 Clouds 12 1023 62 10000 0.68 280 15:26 31.10.2020
6090 Clouds 13 1023 58 10000 0.68 280 14:53 31.10.2020
6091 Clouds 12 1023 62 10000 1 0 14:32 31.10.2020
6092 Clouds 12 1024 66 10000 2.1 260 13:53 31.10.2020
6093 Clouds 13 1024 58 10000 1 0 13:29 31.10.2020
6094 Clouds 13 1024 66 10000 1.5 260 12:56 31.10.2020
6095 Clouds 12 1025 71 10000 1 0 12:22 31.10.2020
6096 Clouds 12 1022 62 10000 0.73 236 11:41 31.10.2020
6097 Clouds 12 1022 54 10000 0.55 227 11:23 31.10.2020
6098 Clouds 11 1023 71 10000 0.55 227 10:42 31.10.2020
6099 Clouds 10 1023 70 10000 0.51 245 10:19 31.10.2020
6100 Clouds 11 1031 39 10000 1.79 120 09:39 31.10.2020
6101 Clouds 8 1026 100 10000 0.65 272 09:20 31.10.2020
6102 Clouds 7 1023 79 10000 0.59 289 08:26 31.10.2020
6103 Clouds 7 1023 79 10000 0.59 289 07:42 31.10.2020
6104 Clear 7 1023 80 10000 0.5 292 07:23 31.10.2020
6105 Clear 6 1023 80 10000 0.41 257 06:36 31.10.2020
6106 Clear 6 1024 85 10000 0.38 289 03:49 31.10.2020
6107 Clear 6 1024 85 10000 0.41 285 02:39 31.10.2020
6108 Clear 6 1025 88 10000 0.68 308 00:55 31.10.2020
6109 Clear 6 1025 89 10000 0.82 307 23:58 30.10.2020
6110 Clear 6 1025 89 10000 0.82 307 23:38 30.10.2020
6111 Clear 6 1025 90 10000 0.89 306 23:20 30.10.2020
6112 Clear 6 1025 90 10000 0.89 306 22:39 30.10.2020
6113 Clear 6 1025 91 10000 0.9 307 22:20 30.10.2020
6114 Clear 6 1025 90 10000 0.9 307 21:49 30.10.2020
6115 Clouds 6 1025 89 10000 0.99 310 21:26 30.10.2020
6116 Clouds 6 1025 89 10000 0.99 310 20:46 30.10.2020
6117 Clouds 6 1025 89 10000 1.42 316 20:27 30.10.2020
6118 Clouds 6 1025 89 10000 1.42 316 20:27 30.10.2020
6119 Clouds 6 1025 89 10000 1.42 316 19:59 30.10.2020
6120 Clouds 6 1024 89 10000 1.42 316 19:40 30.10.2020
6121 Clouds 6 1024 89 10000 1.65 314 19:18 30.10.2020
6122 Clouds 7 1024 89 10000 1.65 314 18:42 30.10.2020
6123 Clouds 7 1024 88 10000 1.33 305 18:23 30.10.2020
6124 Clouds 8 1023 87 10000 1.33 305 17:47 30.10.2020
6125 Clouds 8 1023 86 10000 1.19 302 17:22 30.10.2020
6126 Clouds 10 1027 72 10000 0.45 90 16:52 30.10.2020
6127 Clouds 10 1027 73 10000 1.15 310 16:25 30.10.2020
6128 Clouds 10 1027 75 10000 1.15 310 15:56 30.10.2020
6129 Clouds 10 1027 75 10000 1.15 310 15:37 30.10.2020
6130 Clouds 10 1027 77 10000 1.35 314 15:18 30.10.2020
6131 Clouds 10 1024 51 10000 2.682 0 14:42 30.10.2020
6132 Clouds 11 1026 72 10000 1.36 315 14:23 30.10.2020
6133 Clouds 11 1025 51 10000 1.788 0 13:44 30.10.2020
6134 Clouds 11 1025 51 10000 2.682 0 13:20 30.10.2020
6135 Clouds 11 1027 75 10000 0.89 248 12:49 30.10.2020
6136 Clouds 11 1025 49 10000 3.129 0 12:22 30.10.2020
6137 Clouds 9 1030 76 10000 0.45 222 11:56 30.10.2020
6138 Clouds 8 1023 86 10000 1.46 310 11:22 30.10.2020
6139 Clouds 8 1023 89 10000 0.45 185 10:50 30.10.2020
6140 Clouds 7 1023 90 10000 1.56 309 10:26 30.10.2020
6141 Clouds 6 1022 93 10000 1.56 309 09:56 30.10.2020
6142 Clouds 5 1022 94 10000 1.56 309 09:38 30.10.2020
6143 Clouds 4 1022 94 10000 1.45 316 09:19 30.10.2020
6144 Clouds 4 1023 93 10000 1.85 318 08:32 30.10.2020
6145 Clouds 4 1022 93 10000 1.85 318 07:54 30.10.2020
6146 Clouds 4 1022 94 10000 1.85 318 07:36 30.10.2020
6147 Clouds 4 1022 93 10000 1.88 314 06:59 30.10.2020
6148 Clouds 4 1022 94 10000 2.02 315 05:53 30.10.2020
6149 Clouds 4 1022 95 10000 2.35 322 02:53 30.10.2020
6150 Rain 4 1022 95 10000 2.05 323 01:24 30.10.2020
6151 Clouds 4 1021 94 8629 2.1 307 23:59 29.10.2020
6152 Rain 4 1021 95 8629 2.1 307 23:41 29.10.2020
6153 Rain 4 1021 94 6184 2.64 311 23:23 29.10.2020
6154 Rain 4 1021 94 6184 2.64 311 22:44 29.10.2020
6155 Rain 4 1021 94 4684 2.86 314 22:25 29.10.2020
6156 Clouds 3 1021 94 4684 2.86 314 21:44 29.10.2020
6157 Rain 3 1021 94 4709 2.4 313 21:22 29.10.2020
6158 Rain 3 1021 94 4709 2.4 313 20:43 29.10.2020
6159 Clouds 3 1021 94 6117 2.23 315 20:23 29.10.2020
6160 Clouds 3 1020 94 6117 2.23 315 19:56 29.10.2020
6161 Clouds 3 1020 93 6117 2.23 315 19:37 29.10.2020
6162 Rain 3 1020 94 6107 2.37 319 19:18 29.10.2020
6163 Rain 3 1020 93 1619 2.4 322 18:41 29.10.2020
6164 Clouds 3 1020 92 2848 2.62 325 18:21 29.10.2020
6165 Clouds 3 1019 91 2848 2.62 325 17:42 29.10.2020
6166 Clouds 3 1019 90 6140 2.68 329 17:22 29.10.2020
6167 Clouds 3 1019 90 6140 2.68 329 16:52 29.10.2020
6168 Clouds 3 1019 90 6154 2.9 325 16:23 29.10.2020
6169 Rain 4 1018 90 6154 2.9 325 15:57 29.10.2020
6170 Rain 4 1018 90 6154 2.9 325 15:39 29.10.2020
6171 Rain 4 1018 90 5004 3.23 327 15:21 29.10.2020
6172 Rain 2 1022 99 5004 0.45 292 14:46 29.10.2020
6173 Rain 2 1022 99 3048 3.19 326 14:24 29.10.2020
6174 Clouds 2 1023 99 3048 3.19 326 13:49 29.10.2020
6175 Clouds 2 1023 99 2470 3.38 326 13:28 29.10.2020
6176 Clouds 2 1023 99 2575 3.24 325 12:59 29.10.2020
6177 Clouds 2 1022 99 2575 3.24 325 12:39 29.10.2020
6178 Clouds 3 1018 93 4565 3.22 321 12:19 29.10.2020
6179 Clouds 3 1019 94 4565 3.22 321 11:44 29.10.2020
6180 Clouds 2 1019 94 4759 3.13 318 11:24 29.10.2020
6181 Clouds 2 1019 94 4759 3.13 318 11:24 29.10.2020
6182 Rain 2 1018 94 4759 3.13 318 10:37 29.10.2020
6183 Rain 2 1018 93 6130 2.93 314 10:19 29.10.2020
6184 Rain 2 1017 93 6130 2.93 314 09:51 29.10.2020
6185 Rain 2 1017 91 6115 2.93 319 09:28 29.10.2020
6186 Rain 2 1016 93 6115 2.93 319 08:55 29.10.2020
6187 Rain 2 1016 93 6115 2.93 319 08:31 29.10.2020
6188 Rain 2 1016 93 6156 2.97 320 07:53 29.10.2020
6189 Rain 2 1016 93 6156 2.97 320 07:35 29.10.2020
6190 Rain 2 1015 92 6168 2.75 316 06:55 29.10.2020
6191 Clouds 2 1015 92 4123 2.27 317 04:51 29.10.2020
6192 Clouds 2 1015 94 10000 2.28 315 02:59 29.10.2020
6193 Clouds 2 1015 92 10000 1.55 302 00:57 29.10.2020
6194 Clouds 2 1015 92 10000 1.47 305 00:31 29.10.2020
6195 Clouds 2 1015 92 10000 1.71 313 23:45 28.10.2020
6196 Clouds 2 1015 91 10000 1.4 297 23:21 28.10.2020
6197 Clouds 1 1015 92 10000 1.4 297 22:44 28.10.2020
6198 Clouds 2 1015 92 10000 0.71 251 22:26 28.10.2020
6199 Clouds 2 1015 92 10000 0.71 251 22:26 28.10.2020
6200 Clouds 2 1015 92 10000 0.71 251 21:58 28.10.2020
6201 Clouds 2 1015 92 10000 0.71 251 21:39 28.10.2020
6202 Clouds 2 1015 93 10000 0.68 279 21:18 28.10.2020
6203 Clouds 3 1015 91 10000 0.68 279 20:41 28.10.2020
6204 Clouds 3 1015 92 9882 0.84 313 20:20 28.10.2020
6205 Clouds 2 1015 91 9882 0.84 313 19:49 28.10.2020
6206 Clouds 3 1015 91 8410 1.77 320 19:28 28.10.2020
6207 Clouds 3 1015 91 6156 1.6 325 18:47 28.10.2020
6208 Clouds 3 1015 91 6201 1.24 324 18:21 28.10.2020
6209 Clouds 3 1014 90 6201 1.24 324 17:44 28.10.2020
6210 Clouds 3 1014 90 6208 0.72 304 17:25 28.10.2020
6211 Clouds 4 1014 89 6208 0.72 304 16:56 28.10.2020
6212 Clouds 4 1014 87 6208 0.72 304 16:38 28.10.2020
6213 Clouds 4 1014 85 6181 0.45 201 16:19 28.10.2020
6214 Clouds 5 1014 85 6181 0.51 269 15:37 28.10.2020
6215 Clouds 5 1014 86 2933 0.59 238 15:18 28.10.2020
6216 Clouds 5 1013 89 2933 0.59 238 14:42 28.10.2020
6217 Clouds 6 1013 87 2638 0.83 221 14:22 28.10.2020
6218 Clouds 5 1014 88 2577 1.01 244 12:41 28.10.2020
6219 Clouds 5 1013 88 6844 1 206 12:22 28.10.2020
6220 Clouds 5 1013 85 6844 1 206 11:55 28.10.2020
6221 Clouds 4 1013 88 6844 1 206 11:36 28.10.2020
6222 Clouds 4 1013 89 9652 0.84 201 11:18 28.10.2020
6223 Clouds 3 1013 87 9652 0.84 201 10:42 28.10.2020
6224 Clouds 3 1013 87 10000 1.28 239 10:24 28.10.2020
6225 Clouds 2 1013 89 10000 1.28 239 09:43 28.10.2020
6226 Clouds 2 1012 88 10000 1.36 208 09:22 28.10.2020
6227 Clouds 2 1012 88 10000 1.36 208 08:49 28.10.2020
6228 Clouds 2 1012 90 10000 1.88 209 08:28 28.10.2020
6229 Clouds 2 1012 91 10000 1.88 209 07:50 28.10.2020
6230 Clouds 2 1012 91 10000 1.88 209 07:31 28.10.2020
6231 Clouds 1 1011 91 10000 1.72 197 06:42 28.10.2020
6232 Clouds 1 1011 91 10000 1.75 202 06:23 28.10.2020
6233 Rain 2 1011 90 10000 2.14 206 05:22 28.10.2020
6234 Clouds 1 1011 91 10000 2.26 188 04:28 28.10.2020
6235 Clouds 1 1012 92 10000 2.33 195 02:26 28.10.2020
6236 Clouds 1 1012 92 10000 2.33 195 02:26 28.10.2020
6237 Clouds 0 1012 93 10000 2.33 195 01:52 28.10.2020
6238 Clouds 0 1012 93 10000 2.33 198 00:31 28.10.2020
6239 Clouds 0 1011 92 10000 2.33 198 23:47 27.10.2020
6240 Clouds 0 1012 92 10000 2.38 205 23:21 27.10.2020
6241 Clouds 0 1012 91 10000 2.38 205 22:44 27.10.2020
6242 Clouds 0 1011 91 10000 2.3 203 22:19 27.10.2020
6243 Clouds 0 1011 90 10000 2.3 203 21:56 27.10.2020
6244 Clouds 0 1012 89 10000 2.3 203 21:37 27.10.2020
6245 Clouds -1 1012 90 10000 1.99 205 21:19 27.10.2020
6246 Clouds -1 1012 90 10000 1.99 205 20:46 27.10.2020
6247 Clouds -1 1012 90 10000 1.52 204 20:24 27.10.2020
6248 Clouds -1 1012 90 10000 1.52 204 19:55 27.10.2020
6249 Clouds -1 1012 90 10000 1.52 204 19:36 27.10.2020
6250 Clouds -1 1011 90 10000 0.89 192 19:18 27.10.2020
6251 Clouds -1 1011 90 10000 0.89 192 18:44 27.10.2020
6252 Clouds -2 1011 80 10000 0.12 239 18:21 27.10.2020
6253 Clouds -2 1011 81 10000 0.12 239 17:57 27.10.2020
6254 Clouds -2 1011 90 10000 0.12 239 17:36 27.10.2020
6255 Clouds -1 1010 88 10000 0.9 347 17:18 27.10.2020
6256 Clouds 0 1010 90 10000 0.9 347 16:41 27.10.2020
6257 Clouds 0 1010 89 10000 1.35 344 16:22 27.10.2020
6258 Clouds 1 1010 87 10000 1.35 344 15:41 27.10.2020
6259 Clouds 1 1010 88 10000 1.85 338 15:23 27.10.2020
6260 Clouds 2 1010 88 10000 1.85 338 14:49 27.10.2020
6261 Clouds 1 1010 84 10000 1.71 353 14:29 27.10.2020
6262 Clouds 1 1009 84 10000 1.71 353 13:58 27.10.2020
6263 Clouds 1 1009 85 10000 1.89 346 13:28 27.10.2020
6264 Clouds 1 1009 87 10000 1.71 352 12:44 27.10.2020
6265 Clouds 1 1009 86 10000 1.67 4 12:25 27.10.2020
6266 Clouds 0 1009 89 10000 1.67 4 11:58 27.10.2020
6267 Clouds 0 1009 90 10000 1.67 4 11:40 27.10.2020
6268 Clouds -1 1009 93 10000 1.77 349 11:20 27.10.2020
6269 Clouds -1 1009 91 10000 1.77 349 10:43 27.10.2020
6270 Clouds -1 1008 93 9065 2.34 341 10:20 27.10.2020
6271 Clouds -2 1008 95 10000 2.25 342 09:28 27.10.2020
6272 Clouds -2 1008 95 10000 2.25 342 08:58 27.10.2020
6273 Clouds -2 1007 95 10000 2.25 342 08:30 27.10.2020
6274 Clouds -2 1007 95 10000 2.03 339 07:53 27.10.2020
6275 Clouds -2 1007 95 10000 2.03 339 07:35 27.10.2020
6276 Clouds -2 1007 95 5329 2.8 341 06:54 27.10.2020
6277 Clouds -2 1007 95 5487 2.8 343 06:19 27.10.2020
6278 Rain -2 1006 95 5487 2.8 343 05:45 27.10.2020
6279 Rain -2 1006 95 1845 2.67 332 05:23 27.10.2020
6280 Clouds -2 1006 95 3643 2.73 336 02:51 27.10.2020
6281 Rain -2 1006 95 5515 2.5 333 01:18 27.10.2020
6282 Rain -2 1006 95 10000 2.03 329 00:38 27.10.2020
6283 Snow -2 1005 95 7322 2.38 339 23:37 26.10.2020
6284 Snow -2 1006 95 661 2.99 334 22:58 26.10.2020
6285 Rain -2 1006 95 661 2.99 334 22:39 26.10.2020
6286 Rain -2 1006 95 641 3.2 341 22:18 26.10.2020
6287 Rain -2 1006 95 641 3.2 341 21:37 26.10.2020
6288 Rain -2 1005 95 466 2.88 348 21:18 26.10.2020
6289 Rain -2 1006 95 466 2.88 348 20:49 26.10.2020
6290 Rain -2 1005 95 203 2.76 342 20:27 26.10.2020
6291 Snow -2 1006 95 203 2.76 342 19:49 26.10.2020
6292 Rain -2 1006 95 176 3.09 336 19:29 26.10.2020
6293 Rain -1 1006 95 179 3.28 346 18:59 26.10.2020
6294 Rain -1 1005 95 179 3.28 346 18:39 26.10.2020
6295 Rain -1 1005 95 281 2.88 5 18:20 26.10.2020
6296 Rain -1 1005 95 281 2.88 5 17:44 26.10.2020
6297 Rain -1 1004 95 200 2.79 333 17:23 26.10.2020
6298 Rain -1 1004 95 200 2.79 333 16:45 26.10.2020
6299 Rain -1 1005 95 126 2.87 341 16:22 26.10.2020
6300 Rain -1 1004 95 126 2.87 341 15:56 26.10.2020
6301 Rain -1 1004 95 126 2.87 341 15:38 26.10.2020
6302 Rain -1 1004 94 107 3.27 348 15:18 26.10.2020
6303 Snow -1 1003 94 107 3.27 348 14:44 26.10.2020
6304 Rain -1 1003 94 85 3.1 350 14:18 26.10.2020
6305 Rain -1 1003 94 85 3.1 350 13:41 26.10.2020
6306 Rain -1 1003 94 95 3.36 343 13:22 26.10.2020
6307 Rain 0 1003 92 82 2.87 337 12:45 26.10.2020
6308 Rain 0 1003 92 87 2.1 359 12:26 26.10.2020
6309 Rain 1 1003 92 87 2.1 359 11:48 26.10.2020
6310 Rain 1 1003 91 80 0.45 181 11:27 26.10.2020
6311 Rain 1 1003 90 80 1.13 313 10:59 26.10.2020
6312 Rain 1 1002 91 80 1.13 313 10:40 26.10.2020
6313 Rain 1 1002 92 78 0.8 14 10:20 26.10.2020
6314 Snow -1 1008 99 78 0.8 14 09:43 26.10.2020
6315 Rain 2 1002 93 69 0.8 21 09:23 26.10.2020
6316 Rain 2 1002 95 50 0.34 353 08:29 26.10.2020
6317 Rain 2 1002 94 50 0.34 353 07:53 26.10.2020
6318 Rain 2 1002 93 50 0.34 353 07:35 26.10.2020
6319 Rain 3 1001 92 44 2.2 140 06:37 26.10.2020
6320 Rain 4 1003 92 68 0.89 186 04:22 26.10.2020
6321 Rain 4 1004 91 68 4.71 156 03:42 26.10.2020
6322 Rain 6 1005 86 58 5.12 158 01:52 26.10.2020
6323 Rain 6 1006 85 115 0.45 182 01:23 26.10.2020
6324 Rain 6 1006 82 91 5.31 156 00:32 26.10.2020
6325 Clouds 6 1008 84 2854 5.31 156 23:41 25.10.2020
6326 Rain 5 1008 84 3213 4.58 163 23:21 25.10.2020
6327 Clouds 5 1008 83 3213 4.58 163 22:40 25.10.2020
6328 Clouds 6 1008 80 6030 4.33 167 22:21 25.10.2020
6329 Clouds 6 1008 80 6030 4.33 167 22:21 25.10.2020
6330 Clouds 6 1008 81 6030 4.33 167 21:43 25.10.2020
6331 Clouds 5 1009 80 7923 4.75 157 21:24 25.10.2020
6332 Clouds 5 1009 81 7923 4.75 157 20:56 25.10.2020
6333 Clouds 6 1009 80 7923 4.75 157 20:37 25.10.2020
6334 Clouds 5 1009 80 3636 4.47 162 20:18 25.10.2020
6335 Clouds 5 1009 79 3636 4.47 162 19:48 25.10.2020
6336 Clouds 5 1009 78 3359 4.17 165 19:22 25.10.2020
6337 Clouds 7 1009 76 7726 4.29 160 18:55 25.10.2020
6338 Clouds 7 1009 75 7726 0.45 248 18:37 25.10.2020
6339 Clouds 7 1009 74 8621 0.45 338 18:18 25.10.2020
6340 Clouds 7 1023 64 8621 1.341 180 17:39 25.10.2020
6341 Clouds 7 1023 64 8621 1.341 180 17:39 25.10.2020
6342 Clouds 6 1017 70 9358 3.13 92 17:21 25.10.2020
6343 Clouds 8 1008 66 9358 1.79 293 16:57 25.10.2020
6344 Clouds 8 1007 62 9358 3.1 250 16:38 25.10.2020
6345 Clouds 9 1008 66 8541 2.68 23 16:18 25.10.2020
6346 Clouds 10 1023 60 8541 3.576 112 15:45 25.10.2020
6347 Clouds 9 1008 59 8399 1.79 68 15:25 25.10.2020
6348 Clouds 10 1009 66 8399 0.45 315 14:43 25.10.2020
6349 Clouds 10 1009 62 7911 4.47 167 14:24 25.10.2020
6350 Clouds 10 1010 63 7911 0.89 270 13:43 25.10.2020
6351 Clouds 10 1008 38 8787 4.5 167 13:21 25.10.2020
6352 Clouds 10 1011 69 8787 0.89 315 12:49 25.10.2020
6353 Clouds 10 1011 70 9006 0.45 270 12:27 25.10.2020
6354 Clouds 9 1012 74 9006 0.45 248 11:55 25.10.2020
6355 Clouds 9 1012 75 9006 0.45 248 11:37 25.10.2020
6356 Clouds 9 1012 76 10000 0.45 315 11:18 25.10.2020
6357 Clouds 9 1012 76 10000 4.26 171 10:44 25.10.2020
6358 Clouds 8 1012 76 10000 4.54 171 10:25 25.10.2020
6359 Clouds 8 1012 76 10000 4.54 171 09:48 25.10.2020
6360 Clouds 7 1012 82 10000 4.29 172 09:20 25.10.2020
6361 Clouds 5 1012 83 10000 4.29 172 08:47 25.10.2020
6362 Clouds 5 1012 84 10000 3.9 168 08:29 25.10.2020
6363 Clouds 4 1012 83 10000 3.9 168 07:50 25.10.2020
6364 Clouds 4 1012 85 10000 3.9 168 07:32 25.10.2020
6365 Clouds 4 1012 86 10000 3.48 172 06:51 25.10.2020
6366 Clouds 4 1012 86 10000 3.3 174 05:59 25.10.2020
6367 Clouds 4 1013 85 10000 3.19 175 04:52 25.10.2020
6368 Clouds 4 1013 86 10000 3.21 174 03:44 25.10.2020
6369 Clouds 3 1014 88 10000 2.78 184 01:47 25.10.2020
6370 Clear 3 1015 89 10000 2.47 190 00:49 25.10.2020
6371 Clear 3 1015 89 10000 2.2 190 00:20 25.10.2020
6372 Clear 3 1015 89 10000 2.2 190 23:54 24.10.2020
6373 Clear 3 1016 88 10000 1.61 197 23:26 24.10.2020
6374 Clear 3 1015 87 10000 1.61 197 22:55 24.10.2020
6375 Clear 4 1019 47 10000 1.61 197 22:37 24.10.2020
6376 Clear 4 1019 51 10000 1.14 208 22:19 24.10.2020
6377 Clear 4 1016 66 10000 3.576 0 21:41 24.10.2020
6378 Clear 4 1016 77 10000 3.576 0 21:21 24.10.2020
6379 Clear 4 1019 62 10000 1.79 68 20:47 24.10.2020
6380 Clouds 4 1020 49 10000 1.34 68 20:23 24.10.2020
6381 Clouds 4 1020 39 10000 0.45 135 19:55 24.10.2020
6382 Clouds 4 1019 44 10000 0.57 266 19:37 24.10.2020
6383 Clouds 5 1019 50 10000 0.52 313 19:19 24.10.2020
6384 Clouds 5 1019 62 10000 0.52 313 18:42 24.10.2020
6385 Clouds 3 1022 89 10000 0.66 344 18:22 24.10.2020
6386 Clouds 6 1019 69 10000 0.89 90 17:39 24.10.2020
6387 Clouds 6 1017 82 8685 0.447 0 17:20 24.10.2020
6388 Clouds 6 1035 94 8685 1.02 348 16:45 24.10.2020
6389 Clouds 4 1023 87 2741 1.22 340 16:23 24.10.2020
6390 Clouds 6 1020 76 2741 1 0 15:41 24.10.2020
6391 Clouds 4 1023 91 2486 1.38 340 15:20 24.10.2020
6392 Clouds 6 1020 76 2506 1 0 14:54 24.10.2020
6393 Clouds 4 1022 93 2625 1.69 357 14:29 24.10.2020
6394 Clouds 4 1022 99 2457 2.08 351 13:46 24.10.2020
6395 Clouds 4 1023 95 1649 1.93 353 13:24 24.10.2020
6396 Clouds 3 1022 98 2920 1.85 357 12:55 24.10.2020
6397 Clouds 3 1022 98 1649 1.93 353 12:37 24.10.2020
6398 Clouds 3 1022 99 6115 2.01 349 12:19 24.10.2020
6399 Clouds 4 1017 92 1573 2.04 348 11:42 24.10.2020
6400 Clouds 2 1021 99 1580 2.26 344 10:54 24.10.2020
6401 Clouds 4 1017 94 1580 2.26 344 10:34 24.10.2020
6402 Clouds 4 1016 95 2723 1.95 345 09:56 24.10.2020
6403 Clouds 4 1016 95 2723 1.95 345 09:38 24.10.2020
6404 Clouds 4 1016 95 4333 2.12 339 09:19 24.10.2020
6405 Rain 3 1016 95 7529 2.33 333 08:20 24.10.2020
6406 Clouds 3 1016 95 7529 2.33 333 07:55 24.10.2020
6407 Clouds 3 1016 95 7529 2.33 333 07:37 24.10.2020
6408 Clouds 4 1016 95 10000 2.25 337 07:18 24.10.2020
6409 Clouds 4 1016 95 10000 1.93 335 06:23 24.10.2020
6410 Clouds 3 1022 99 10000 0.71 343 03:37 24.10.2020
6411 Rain 3 1022 99 9348 0.26 42 02:20 24.10.2020
6412 Rain 4 1015 95 1929 0.14 319 00:43 24.10.2020
6413 Rain 4 1021 98 822 0.82 318 00:22 24.10.2020
6414 Rain 4 1021 99 822 0.82 318 23:50 23.10.2020
6415 Rain 4 1022 98 595 3.58 82 23:27 23.10.2020
6416 Rain 3 1022 99 595 1.79 82 22:59 23.10.2020
6417 Rain 4 1022 99 595 1.79 71 22:40 23.10.2020
6418 Rain 4 1022 99 182 1.16 320 22:20 23.10.2020
6419 Rain 4 1022 97 182 1.16 320 21:50 23.10.2020
6420 Rain 3 1022 99 113 0.91 305 21:25 23.10.2020
6421 Clouds 4 1022 94 113 0.45 214 20:42 23.10.2020
6422 Rain 6 1014 90 104 1.1 304 20:23 23.10.2020
6423 Clouds 5 1014 90 117 1.31 283 19:58 23.10.2020
6424 Clouds 7 1014 91 117 1.31 283 19:33 23.10.2020
6425 Clouds 5 1022 82 116 1.35 270 18:57 23.10.2020
6426 Clouds 5 1022 86 116 1.35 270 18:38 23.10.2020
6427 Rain 6 1022 85 105 1.48 164 18:19 23.10.2020
6428 Clouds 6 1022 87 105 1.48 164 17:42 23.10.2020
6429 Rain 6 1022 83 124 1.79 155 17:20 23.10.2020
6430 Clouds 7 1022 85 124 0.45 193 16:44 23.10.2020
6431 Rain 7 1022 93 125 1.79 129 16:25 23.10.2020
6432 Clouds 7 1022 90 125 2.48 172 15:45 23.10.2020
6433 Rain 7 1023 91 119 3.37 170 15:24 23.10.2020
6434 Clouds 8 1022 94 119 3.37 170 14:54 23.10.2020
6435 Clouds 7 1022 99 119 3.37 170 14:35 23.10.2020
6436 Clouds 8 1023 99 141 3.9 161 13:59 23.10.2020
6437 Clouds 7 1022 99 141 3.9 161 13:38 23.10.2020
6438 Rain 7 1023 99 101 0.45 92 13:19 23.10.2020
6439 Rain 7 1023 99 101 4.35 160 12:47 23.10.2020
6440 Rain 7 1024 99 127 4.53 161 12:24 23.10.2020
6441 Clouds 9 1029 81 127 6.706 157 11:47 23.10.2020
6442 Rain 8 1016 90 224 4.28 159 11:22 23.10.2020
6443 Rain 8 1016 93 224 4.28 159 10:45 23.10.2020
6444 Rain 7 1016 92 731 3.95 161 10:25 23.10.2020
6445 Rain 6 1016 92 731 3.95 161 09:46 23.10.2020
6446 Rain 6 1016 91 819 3.7 167 09:27 23.10.2020
6447 Rain 6 1016 91 819 3.7 167 08:52 23.10.2020
6448 Rain 6 1016 93 819 3.7 167 08:32 23.10.2020
6449 Clouds 6 1016 92 1004 3.58 165 07:38 23.10.2020
6450 Rain 6 1016 93 1025 3.4 165 07:19 23.10.2020
6451 Rain 6 1016 93 850 3.52 165 06:20 23.10.2020
6452 Clouds 6 1016 93 850 3.52 165 05:34 23.10.2020
6453 Rain 6 1018 92 1426 3.31 163 02:32 23.10.2020
6454 Rain 7 1018 92 5030 3.1 170 01:24 23.10.2020
6455 Rain 7 1018 91 5030 3.1 170 00:42 23.10.2020
6456 Rain 7 1018 90 5032 3.07 170 23:45 22.10.2020
6457 Rain 6 1027 97 5081 3.19 171 23:24 22.10.2020
6458 Rain 6 1027 96 5081 3.19 171 22:48 22.10.2020
6459 Rain 6 1027 96 2185 2.95 170 22:27 22.10.2020
6460 Rain 6 1027 94 2185 2.95 170 21:58 22.10.2020
6461 Rain 6 1027 92 2185 2.95 170 21:40 22.10.2020
6462 Rain 6 1027 92 4683 2.98 172 21:20 22.10.2020
6463 Clouds 7 1027 85 4683 2.98 172 20:45 22.10.2020
6464 Rain 7 1027 81 5122 3.11 168 20:25 22.10.2020
6465 Clouds 7 1027 81 5122 3.11 168 19:58 22.10.2020
6466 Clouds 8 1020 82 5122 2.6 110 19:39 22.10.2020
6467 Clouds 8 1020 76 5539 1.5 280 19:18 22.10.2020
6468 Clouds 9 1019 72 5539 4.6 250 18:41 22.10.2020
6469 Clouds 10 1019 63 4204 4.1 250 18:19 22.10.2020
6470 Clouds 10 1018 63 10000 3.6 230 17:45 22.10.2020
6471 Clouds 11 1015 67 2812 2.98 161 17:22 22.10.2020
6472 Clouds 11 1017 67 10000 3.1 270 16:45 22.10.2020
6473 Clouds 12 1018 64 3264 1.79 0 16:25 22.10.2020
6474 Clouds 12 1018 64 3264 1.79 0 16:25 22.10.2020
6475 Clouds 12 1017 67 10000 3.1 270 15:50 22.10.2020
6476 Clouds 13 1017 59 10000 1.5 270 15:27 22.10.2020
6477 Clouds 14 1017 55 10000 1 0 14:58 22.10.2020
6478 Clouds 13 1018 52 10000 1.5 0 14:38 22.10.2020
6479 Clouds 13 1018 52 10000 1.5 0 14:20 22.10.2020
6480 Clouds 12 1020 67 6649 1 0 13:43 22.10.2020
6481 Clouds 12 1020 67 6403 1 0 13:22 22.10.2020
6482 Clouds 12 1020 63 6403 1.34 90 12:43 22.10.2020
6483 Clouds 12 1016 54 2382 3.91 166 12:22 22.10.2020
6484 Clouds 11 1016 50 2382 3.91 166 11:45 22.10.2020
6485 Clouds 10 1020 74 2324 3.88 164 11:19 22.10.2020
6486 Clouds 10 1021 70 2324 3.88 164 10:49 22.10.2020
6487 Clouds 10 1021 66 7319 3.6 167 10:25 22.10.2020
6488 Clouds 8 1019 80 7319 3.6 167 09:44 22.10.2020
6489 Clouds 8 1019 84 8906 3.29 169 09:22 22.10.2020
6490 Rain 7 1019 80 8906 3.29 169 08:43 22.10.2020
6491 Clouds 8 1019 80 9003 3.39 172 08:25 22.10.2020
6492 Clouds 7 1019 79 9003 3.39 172 07:43 22.10.2020
6493 Clouds 7 1019 80 9029 3.76 171 07:20 22.10.2020
6494 Clouds 7 1019 80 9029 3.76 171 06:45 22.10.2020
6495 Clouds 6 1018 80 8974 3.95 171 06:23 22.10.2020
6496 Clouds 6 1019 80 8974 3.95 171 05:38 22.10.2020
6497 Clouds 7 1019 80 8702 4.05 166 03:25 22.10.2020
6498 Clouds 7 1019 79 8945 4.06 170 01:34 22.10.2020
6499 Clouds 7 1019 79 8945 4.06 170 01:34 22.10.2020
6500 Clouds 7 1019 79 8945 4.06 170 01:34 22.10.2020
6501 Clouds 9 1012 63 10000 0.447 0 00:24 22.10.2020
6502 Clouds 10 1012 63 10000 4.35 169 23:43 21.10.2020
6503 Clouds 11 1027 52 8610 2.235 315 23:19 21.10.2020
6504 Clouds 11 1027 50 8610 1.788 0 22:39 21.10.2020
6505 Clouds 11 1027 49 8610 1.788 0 22:19 21.10.2020
6506 Clouds 11 1027 50 8610 3.129 67 21:46 21.10.2020
6507 Clouds 11 1027 48 8525 2.682 22 21:20 21.10.2020
6508 Rain 11 1015 81 8525 2.1 240 20:59 21.10.2020
6509 Rain 11 1014 76 8525 0.5 0 20:40 21.10.2020
6510 Clouds 8 1019 76 9969 5.3 162 20:18 21.10.2020
6511 Clouds 11 1011 57 10000 4.82 165 19:41 21.10.2020
6512 Clouds 11 1010 58 10000 4.98 164 19:23 21.10.2020
6513 Clouds 12 1010 56 10000 4.98 164 18:53 21.10.2020
6514 Clouds 12 1025 46 10000 2.235 337 18:31 21.10.2020
6515 Clouds 13 1009 52 10000 5.12 163 17:51 21.10.2020
6516 Clouds 14 1009 52 10000 4.023 0 17:22 21.10.2020
6517 Clouds 14 1009 46 10000 0.447 0 16:59 21.10.2020
6518 Clouds 14 1025 37 10000 0.894 202 16:40 21.10.2020
6519 Clouds 14 1025 37 10000 0.894 202 16:40 21.10.2020
6520 Clouds 13 1009 48 10000 3.129 0 16:20 21.10.2020
6521 Clouds 12 1025 53 10000 4.023 112 15:46 21.10.2020
6522 Clouds 12 1009 57 10000 5.364 0 15:22 21.10.2020
6523 Clouds 12 1009 60 10000 5.812 0 14:56 21.10.2020
6524 Clouds 13 1025 56 10000 2.682 90 14:38 21.10.2020
6525 Clouds 13 1025 56 10000 2.682 67 14:19 21.10.2020
6526 Clouds 13 1009 50 10000 0.447 0 13:41 21.10.2020
6527 Clouds 13 1009 44 10000 5.66 163 13:20 21.10.2020
6528 Clouds 13 1012 76 10000 3.1 280 12:41 21.10.2020
6529 Clouds 12 1014 76 10000 4.1 260 12:20 21.10.2020
6530 Clouds 13 1013 49 7708 3.13 68 11:47 21.10.2020
6531 Clouds 12 1009 47 7176 6.07 161 11:21 21.10.2020
6532 Clouds 12 1014 75 7176 1.79 338 10:58 21.10.2020
6533 Clouds 11 1014 74 7176 1.79 315 10:40 21.10.2020
6534 Clouds 9 1018 80 9735 6.15 162 10:20 21.10.2020
6535 Clouds 8 1018 82 9735 6.15 162 09:42 21.10.2020
6536 Clouds 7 1018 81 10000 5.98 162 09:18 21.10.2020
6537 Clouds 6 1017 81 10000 5.98 162 08:40 21.10.2020
6538 Clouds 6 1017 81 10000 5.86 162 08:22 21.10.2020
6539 Clouds 6 1017 82 9096 5.67 164 07:49 21.10.2020
6540 Clouds 6 1017 81 10000 5.55 166 06:59 21.10.2020
6541 Clouds 7 1017 80 10000 5.55 166 06:34 21.10.2020
6542 Clouds 6 1016 81 9718 5.61 164 05:59 21.10.2020
6543 Clouds 8 1018 78 8120 5.5 167 02:46 21.10.2020
6544 Clouds 5 1018 77 10000 5.06 169 00:26 21.10.2020
6545 Clouds 5 1018 78 10000 5.06 169 23:31 20.10.2020
6546 Clouds 5 1019 77 10000 5.19 168 22:41 20.10.2020
6547 Clouds 6 1018 77 8615 5.1 169 22:23 20.10.2020
6548 Clouds 6 1018 77 8615 5.1 169 21:47 20.10.2020
6549 Clouds 6 1019 78 8609 5.02 169 21:19 20.10.2020
6550 Clouds 6 1018 76 8609 5.02 169 20:43 20.10.2020
6551 Clouds 6 1019 77 5501 5.29 167 20:24 20.10.2020
6552 Clouds 8 1019 76 8628 5.01 167 19:46 20.10.2020
6553 Clouds 10 1017 75 8681 5.06 168 19:22 20.10.2020
6554 Clouds 10 1017 75 8681 5.06 168 18:59 20.10.2020
6555 Clouds 10 1017 75 8681 5.06 168 18:59 20.10.2020
6556 Clouds 10 1017 75 8681 5.06 168 18:38 20.10.2020
6557 Clouds 11 1017 73 10000 5.27 166 17:57 20.10.2020
6558 Clouds 11 1017 72 10000 5.27 166 17:37 20.10.2020
6559 Clouds 11 1017 71 10000 5.16 167 17:18 20.10.2020
6560 Clouds 11 1014 42 10000 3.576 0 16:41 20.10.2020
6561 Clouds 11 1017 65 10000 0.45 248 16:23 20.10.2020
6562 Clouds 11 1017 61 10000 1.34 90 15:47 20.10.2020
6563 Clouds 12 1017 60 10000 0.45 68 15:28 20.10.2020
6564 Clouds 12 1030 22 10000 5.36 160 14:46 20.10.2020
6565 Clouds 13 1017 63 10000 3.13 338 14:25 20.10.2020
6566 Clouds 12 1016 64 10000 1.34 293 13:59 20.10.2020
6567 Clouds 12 1014 27 10000 4.94 164 13:40 20.10.2020
6568 Clouds 10 1017 66 10000 0.5 0 13:20 20.10.2020
6569 Clouds 10 1018 76 10000 2.6 100 12:50 20.10.2020
6570 Clouds 10 1018 66 10000 0.5 0 12:30 20.10.2020
6571 Clouds 8 1019 81 10000 4.26 169 11:47 20.10.2020
6572 Clouds 9 1017 69 10000 4.13 168 11:28 20.10.2020
6573 Clouds 8 1017 69 10000 4.13 168 10:46 20.10.2020
6574 Clouds 7 1017 74 10000 3.74 168 10:25 20.10.2020
6575 Clouds 6 1017 71 10000 3.74 168 09:44 20.10.2020
6576 Clouds 6 1017 66 10000 3.26 167 09:20 20.10.2020
6577 Clouds 5 1017 67 10000 3.26 167 08:40 20.10.2020
6578 Clouds 5 1017 67 10000 2.89 177 08:21 20.10.2020
6579 Clouds 5 1017 68 10000 3.18 177 07:44 20.10.2020
6580 Clouds 5 1017 70 10000 3.24 170 07:22 20.10.2020
6581 Clouds 5 1017 73 10000 3.15 171 06:20 20.10.2020
6582 Clouds 5 1018 78 10000 2.89 183 04:51 20.10.2020
6583 Clouds 6 1018 80 10000 3.3 179 02:31 20.10.2020
6584 Clouds 5 1019 79 10000 3.33 179 01:27 20.10.2020
6585 Clouds 5 1019 80 10000 3.33 179 00:51 20.10.2020
6586 Clouds 4 1019 79 10000 3.37 179 00:27 20.10.2020
6587 Clouds 4 1019 80 10000 3.37 179 23:54 19.10.2020
6588 Clouds 4 1019 80 10000 3.48 180 23:27 19.10.2020
6589 Clouds 4 1019 79 10000 3.48 180 22:56 19.10.2020
6590 Clouds 5 1019 79 10000 3.37 178 22:28 19.10.2020
6591 Clouds 4 1019 79 10000 3.37 178 21:58 19.10.2020
6592 Clouds 5 1019 78 10000 3.37 178 21:39 19.10.2020
6593 Clouds 4 1019 78 10000 3.3 179 21:19 19.10.2020
6594 Clouds 4 1019 77 10000 3.3 179 20:43 19.10.2020
6595 Clouds 4 1019 77 10000 3.27 173 20:25 19.10.2020
6596 Clouds 4 1019 76 10000 3.27 175 19:46 19.10.2020
6597 Clouds 4 1018 74 10000 3.29 175 19:20 19.10.2020
6598 Clouds 6 1021 76 10000 0.45 90 18:50 19.10.2020
6599 Clouds 5 1018 68 10000 3.29 175 18:31 19.10.2020
6600 Clouds 7 1021 75 10000 0.45 90 17:49 19.10.2020
6601 Clouds 8 1021 75 10000 0.45 90 17:28 19.10.2020
6602 Clouds 8 1021 55 10000 2.235 0 16:54 19.10.2020
6603 Clouds 8 1038 27 10000 2.235 180 16:30 19.10.2020
6604 Clouds 9 1021 68 10000 2.77 165 15:57 19.10.2020
6605 Clouds 10 1021 61 10000 2.77 165 15:36 19.10.2020
6606 Clouds 10 1021 61 10000 0.89 248 15:18 19.10.2020
6607 Clouds 9 1021 60 10000 1.34 293 14:40 19.10.2020
6608 Clouds 9 1022 32 10000 1.788 0 14:21 19.10.2020
6609 Clouds 9 1022 62 10000 1.34 338 13:44 19.10.2020
6610 Clouds 8 1022 65 10000 1.34 293 13:26 19.10.2020
6611 Clouds 6 1022 46 10000 2.51 171 12:45 19.10.2020
6612 Clouds 6 1021 47 10000 2.34 178 12:26 19.10.2020
6613 Clouds 6 1019 75 10000 2.34 178 11:51 19.10.2020
6614 Clouds 6 1019 67 10000 2.34 179 11:24 19.10.2020
6615 Clouds 4 1019 75 10000 2.34 179 10:45 19.10.2020
6616 Clouds 3 1019 78 10000 2.54 186 10:25 19.10.2020
6617 Clouds 2 1019 81 10000 2.54 186 09:58 19.10.2020
6618 Clouds 1 1019 83 10000 2.54 186 09:37 19.10.2020
6619 Clouds 0 1018 85 10000 2.6 184 09:18 19.10.2020
6620 Clouds 0 1018 85 10000 2.6 184 09:18 19.10.2020
6621 Clouds 0 1018 85 10000 2.6 184 08:44 19.10.2020
6622 Clouds -1 1018 85 10000 2.25 188 08:21 19.10.2020
6623 Clouds -1 1018 88 10000 2.39 183 07:21 19.10.2020
6624 Clouds -1 1018 89 10000 2.39 183 06:45 19.10.2020
6625 Clouds 0 1018 90 10000 2.18 184 05:36 19.10.2020
6626 Clouds 0 1019 90 10000 2.05 187 03:46 19.10.2020
6627 Clouds -1 1019 88 10000 1.96 188 01:43 19.10.2020
6628 Clouds -2 1022 97 10000 2.14 180 00:42 19.10.2020
6629 Clouds -2 1021 99 10000 1.76 190 23:59 18.10.2020
6630 Clouds -2 1023 81 10000 1.76 190 23:40 18.10.2020
6631 Clouds -1 1021 99 10000 1.6 182 23:19 18.10.2020
6632 Clouds -1 1021 99 10000 1.6 182 22:44 18.10.2020
6633 Clouds -1 1021 98 10000 1.12 179 22:19 18.10.2020
6634 Clouds -1 1023 83 10000 1.341 0 21:43 18.10.2020
6635 Clouds -1 1020 94 10000 0.48 194 21:23 18.10.2020
6636 Clouds -1 1021 93 10000 0.48 194 20:46 18.10.2020
6637 Clouds 2 1024 73 10000 0.25 243 20:24 18.10.2020
6638 Clouds 2 1022 76 10000 4.1 30 19:50 18.10.2020
6639 Clouds 2 1022 70 10000 5.1 30 19:27 18.10.2020
6640 Clouds 2 1022 82 10000 0.36 177 18:55 18.10.2020
6641 Clouds 3 1038 97 10000 1.341 157 18:36 18.10.2020
6642 Clouds 3 1038 96 10000 2.235 135 18:18 18.10.2020
6643 Clouds 3 1022 82 10000 0.44 132 17:41 18.10.2020
6644 Clouds 4 1022 71 10000 2.24 248 17:22 18.10.2020
6645 Clouds 4 1022 70 10000 2.24 270 16:43 18.10.2020
6646 Clouds 4 1022 79 10000 0.73 137 16:24 18.10.2020
6647 Clouds 4 1021 57 10000 1.79 194 15:43 18.10.2020
6648 Clouds 4 1021 58 10000 1.79 164 15:21 18.10.2020
6649 Clouds 4 1022 83 10000 0.6 128 14:58 18.10.2020
6650 Clouds 4 1021 60 10000 0.89 178 14:31 18.10.2020
6651 Clouds 4 1020 59 10000 1.79 191 13:59 18.10.2020
6652 Clouds 3 1020 64 10000 0.36 123 13:40 18.10.2020
6653 Clouds 5 1017 68 10000 0.45 136 13:22 18.10.2020
6654 Clouds 5 1017 65 10000 0.45 147 12:43 18.10.2020
6655 Clouds 3 1018 66 10000 0.45 130 12:23 18.10.2020
6656 Clouds 3 1017 67 10000 0.43 86 11:46 18.10.2020
6657 Clouds 0 1018 90 10000 0.65 50 11:28 18.10.2020
6658 Clouds 2 1017 75 10000 0.65 50 10:55 18.10.2020
6659 Clouds 2 1017 82 10000 0.65 50 10:37 18.10.2020
6660 Clouds -1 1018 99 10000 0.75 22 10:18 18.10.2020
6661 Clouds 0 1017 95 10000 0.75 22 09:42 18.10.2020
6662 Clouds 0 1017 95 10000 0.75 22 09:42 18.10.2020
6663 Clouds -1 1018 99 10000 0.85 0 09:20 18.10.2020
6664 Clouds -2 1017 99 10000 0.85 0 08:45 18.10.2020
6665 Clouds 1 1021 93 10000 1 0 08:25 18.10.2020
6666 Clouds 0 1021 93 10000 1 0 07:48 18.10.2020
6667 Clouds 1 1020 82 10000 1.38 332 05:56 18.10.2020
6668 Clouds 1 1021 44 10000 0.93 323 03:40 18.10.2020
6669 Clouds 1 1021 48 10000 0.92 329 02:52 18.10.2020
6670 Clouds 1 1020 51 10000 1.09 312 01:29 18.10.2020
6671 Clouds 1 1020 50 10000 1.09 312 00:38 18.10.2020
6672 Clouds 1 1020 51 10000 1.07 315 00:20 18.10.2020
6673 Clouds 1 1019 80 10000 1.07 315 23:41 17.10.2020
6674 Clouds 1 1019 79 10000 1.18 322 23:21 17.10.2020
6675 Clouds 1 1020